# Wetter Temperatur Luftdruck Luftfeuchtigkeit Sichtweite Windgeschwindigkeit Windrichtung Zeit
1 Rain 14 1013 93 9000 1.5 200 20:20 17.10.2019
2 Rain 14 1013 100 9000 3.6 190 19:59 17.10.2019
3 Rain 14 1013 100 9000 4.1 180 19:59 17.10.2019
4 Rain 14 1013 100 9000 4.1 180 19:40 17.10.2019
5 Rain 14 1013 100 8000 3.1 190 19:20 17.10.2019
6 Rain 14 1013 100 8000 3.1 190 19:20 17.10.2019
7 Rain 14 1013 100 8000 3.1 190 19:20 17.10.2019
8 Rain 14 1013 93 9000 1.5 160 18:58 17.10.2019
9 Rain 14 1013 93 9000 1.5 160 18:38 17.10.2019
10 Rain 15 1013 93 6000 3.1 250 18:20 17.10.2019
11 Rain 15 1012 87 10000 1.5 220 17:43 17.10.2019
12 Rain 16 1012 87 10000 1.5 220 17:24 17.10.2019
13 Rain 16 1013 77 10000 1.5 200 16:58 17.10.2019
14 Drizzle 16 1013 77 10000 3.858 217 16:39 17.10.2019
15 Clouds 17 1013 72 10000 3.1 180 16:18 17.10.2019
16 Clouds 16 1013 72 10000 3.1 180 15:56 17.10.2019
17 Clouds 16 1013 72 10000 3.1 190 15:38 17.10.2019
18 Clouds 17 1013 77 10000 3.6 190 15:20 17.10.2019
19 Clouds 16 1013 77 10000 3.6 190 14:56 17.10.2019
20 Clouds 16 1014 72 10000 4.1 180 14:37 17.10.2019
21 Clouds 16 1013 77 10000 4.6 180 14:19 17.10.2019
22 Clouds 16 1014 77 10000 4.6 240 13:39 17.10.2019
23 Clouds 16 1014 77 10000 5.1 190 13:39 17.10.2019
24 Clouds 16 1014 77 10000 5.1 200 13:20 17.10.2019
25 Clouds 16 1014 77 10000 5.1 200 12:57 17.10.2019
26 Clouds 15 1014 72 10000 4.6 200 12:37 17.10.2019
27 Clouds 15 1014 72 10000 5.7 200 12:19 17.10.2019
28 Clouds 15 1014 77 10000 5.7 180 11:42 17.10.2019
29 Clouds 14 1014 77 10000 5.7 180 11:42 17.10.2019
30 Clouds 14 1014 77 10000 5.1 190 11:22 17.10.2019
31 Clouds 14 1014 77 10000 5.1 190 10:59 17.10.2019
32 Clouds 14 1014 82 10000 5.1 180 10:41 17.10.2019
33 Clouds 14 1014 82 10000 5.1 180 10:41 17.10.2019
34 Clouds 13 1014 76 10000 5.1 190 10:19 17.10.2019
35 Clouds 13 1014 76 10000 5.1 190 09:56 17.10.2019
36 Clouds 13 1013 82 10000 4.6 180 09:38 17.10.2019
37 Clouds 13 1013 82 10000 4.1 180 09:19 17.10.2019
38 Clouds 13 1013 76 10000 3.6 180 08:49 17.10.2019
39 Clouds 12 1013 76 10000 3.6 190 08:27 17.10.2019
40 Clouds 12 1013 76 10000 3.6 190 07:59 17.10.2019
41 Clouds 12 1012 76 10000 4.6 180 07:41 17.10.2019
42 Clouds 12 1012 76 10000 5.7 190 07:21 17.10.2019
43 Rain 12 1012 76 10000 5.1 190 06:51 17.10.2019
44 Rain 12 1012 76 10000 5.1 190 06:31 17.10.2019
45 Clouds 12 1012 71 10000 4.6 190 05:59 17.10.2019
46 Clouds 12 1012 71 10000 4.6 190 05:40 17.10.2019
47 Clouds 12 1012 71 10000 5.1 190 05:19 17.10.2019
48 Clouds 12 1012 76 10000 4.6 180 04:48 17.10.2019
49 Rain 12 1012 76 10000 4.1 180 03:46 17.10.2019
50 Clouds 12 1012 76 10000 2.1 200 01:57 17.10.2019
51 Clouds 12 1012 76 10000 2.1 200 01:57 17.10.2019
52 Clouds 12 1012 93 10000 1 0 00:42 17.10.2019
53 Clouds 12 1012 93 10000 1 250 00:21 17.10.2019
54 Clouds 13 1012 93 10000 1 250 23:59 16.10.2019
55 Clouds 13 1012 93 10000 1.5 240 23:40 16.10.2019
56 Clouds 13 1012 87 10000 3.1 200 23:19 16.10.2019
57 -273 0 0 0 0 0 22:54 16.10.2019
58 Clouds 13 1012 76 10000 3.6 160 22:36 16.10.2019
59 Clouds 13 1012 76 10000 3.6 170 22:18 16.10.2019
60 Clouds 13 1012 72 10000 3.6 170 21:54 16.10.2019
61 Clouds 13 1012 72 10000 3.6 170 21:36 16.10.2019
62 Clouds 13 1012 72 10000 3.6 190 21:18 16.10.2019
63 Clouds 13 1012 72 10000 3.6 190 20:56 16.10.2019
64 Clouds 14 1012 76 10000 3.6 190 20:37 16.10.2019
65 Clouds 14 1012 76 10000 3.6 190 20:37 16.10.2019
66 Rain 13 1012 82 10000 3.1 180 20:19 16.10.2019
67 Clouds 13 1012 82 10000 3.1 180 19:41 16.10.2019
68 Clouds 13 1012 87 10000 2.1 180 19:21 16.10.2019
69 Clouds 13 1012 87 10000 2.1 180 18:58 16.10.2019
70 Rain 13 1012 87 10000 2.1 180 18:39 16.10.2019
71 Rain 14 1012 87 10000 2.1 180 18:19 16.10.2019
72 Rain 13 1012 87 10000 2.1 180 18:19 16.10.2019
73 Clouds 13 1012 87 10000 1.5 180 17:56 16.10.2019
74 Clouds 13 1012 87 10000 1.5 180 17:37 16.10.2019
75 Rain 14 1012 87 10000 2.6 180 17:19 16.10.2019
76 Rain 14 1012 87 10000 3.1 170 16:58 16.10.2019
77 Rain 14 1012 87 10000 3.1 170 16:38 16.10.2019
78 Drizzle 13 1013 82 10000 2.6 180 16:20 16.10.2019
79 -273 0 0 0 0 0 15:54 16.10.2019
80 Clouds 13 1013 93 10000 3.1 160 15:54 16.10.2019
81 -273 0 0 0 0 0 15:54 16.10.2019
82 Clouds 13 1013 93 10000 3.1 160 15:54 16.10.2019
83 Rain 13 1013 93 10000 3.1 200 15:36 16.10.2019
84 Rain 13 1013 82 10000 4.1 220 15:18 16.10.2019
85 Rain 13 1013 82 10000 4.1 220 14:55 16.10.2019
86 Rain 13 1013 93 10000 5.1 200 14:36 16.10.2019
87 Rain 13 1013 87 10000 7.2 210 14:18 16.10.2019
88 Rain 13 1013 76 10000 5.1 190 13:42 16.10.2019
89 Rain 13 1013 76 10000 5.1 190 13:23 16.10.2019
90 Clouds 13 1014 82 10000 4.6 180 12:44 16.10.2019
91 Rain 13 1014 82 10000 4.1 190 12:21 16.10.2019
92 Rain 13 1014 87 10000 4.6 200 11:59 16.10.2019
93 Rain 13 1014 87 10000 4.6 200 11:41 16.10.2019
94 Clouds 13 1014 82 10000 5.1 200 11:18 16.10.2019
95 Clouds 12 1014 76 10000 6.2 200 10:38 16.10.2019
96 -273 0 0 0 0 0 10:20 16.10.2019
97 Clouds 12 1014 81 10000 4.6 200 09:55 16.10.2019
98 Clouds 12 1014 81 10000 4.6 200 09:36 16.10.2019
99 Clouds 11 1013 81 10000 4.1 200 09:18 16.10.2019
100 Clouds 11 1013 87 10000 4.1 190 08:42 16.10.2019
101 Clouds 11 1013 81 10000 3.6 220 08:23 16.10.2019
102 Clouds 11 1013 93 10000 4.6 190 07:45 16.10.2019
103 Clouds 11 1013 93 10000 4.6 190 07:45 16.10.2019
104 -273 0 0 0 0 0 07:25 16.10.2019
105 Clouds 11 1013 93 10000 4.1 200 06:58 16.10.2019
106 Clouds 11 1013 93 10000 4.1 200 06:58 16.10.2019
107 Clouds 11 1013 87 10000 5.1 200 06:39 16.10.2019
108 Clouds 11 1012 93 10000 4.1 190 05:44 16.10.2019
109 Rain 12 1012 93 10000 2.6 200 03:24 16.10.2019
110 Clouds 12 1012 87 10000 3.1 250 02:47 16.10.2019
111 Clouds 13 1010 82 10000 6.7 240 01:19 16.10.2019
112 Clouds 13 1010 93 10000 6.2 210 00:49 16.10.2019
113 Clouds 13 1010 93 10000 6.2 210 00:27 16.10.2019
114 Clouds 13 1010 93 10000 3.1 250 23:41 15.10.2019
115 Rain 13 1010 100 10000 2.6 200 23:22 15.10.2019
116 Rain 13 1010 100 10000 2.6 200 22:56 15.10.2019
117 Rain 13 1010 100 10000 3.6 210 22:38 15.10.2019
118 Rain 13 1009 93 10000 3.6 210 22:20 15.10.2019
119 Rain 13 1009 93 10000 3.6 210 21:56 15.10.2019
120 Rain 14 1009 93 10000 3.6 210 21:55 15.10.2019
121 Rain 14 1009 93 10000 4.6 220 21:37 15.10.2019
122 Rain 14 1009 87 10000 4.1 260 21:19 15.10.2019
123 Rain 14 1009 93 10000 4.6 210 20:55 15.10.2019
124 Rain 14 1008 93 10000 4.6 220 20:37 15.10.2019
125 Rain 14 1008 87 10000 4.6 220 20:19 15.10.2019
126 Rain 14 1008 87 10000 4.6 220 19:56 15.10.2019
127 Rain 15 1007 87 10000 4.6 220 19:37 15.10.2019
128 Drizzle 15 1007 87 10000 4.1 260 19:19 15.10.2019
129 Rain 16 1006 77 10000 6.2 240 18:44 15.10.2019
130 -273 0 0 0 0 0 18:26 15.10.2019
131 Clouds 17 1006 72 10000 3.6 240 17:56 15.10.2019
132 Clouds 18 1006 72 10000 3.6 240 17:38 15.10.2019
133 Clouds 18 1006 72 10000 4.6 230 17:19 15.10.2019
134 Clouds 19 1006 72 10000 4.6 230 16:45 15.10.2019
135 Clouds 19 1006 72 10000 4.6 230 16:45 15.10.2019
136 Clouds 19 1006 72 10000 4.6 230 16:22 15.10.2019
137 Clouds 19 1006 68 10000 6.2 250 15:58 15.10.2019
138 Clouds 19 1006 72 10000 4.1 240 15:40 15.10.2019
139 Clouds 19 1006 72 10000 4.1 240 15:40 15.10.2019
140 Clouds 20 1006 72 10000 3.6 260 15:20 15.10.2019
141 Clouds 20 1006 72 10000 3.6 260 14:57 15.10.2019
142 Clouds 20 1006 68 10000 3.6 260 14:38 15.10.2019
143 Clouds 20 1006 68 10000 3.1 250 14:19 15.10.2019
144 Clouds 21 1006 68 10000 1.5 230 13:44 15.10.2019
145 Clouds 21 1007 72 10000 1.5 240 13:21 15.10.2019
146 Clouds 21 1007 72 10000 1.5 210 12:59 15.10.2019
147 Clouds 20 1007 72 10000 1.5 210 12:39 15.10.2019
148 Clouds 20 1007 68 10000 1.5 190 12:21 15.10.2019
149 Clouds 20 1007 68 10000 1.5 190 11:55 15.10.2019
150 Clouds 19 1007 72 10000 1 0 11:37 15.10.2019
151 Clouds 18 1007 72 10000 1.5 90 11:18 15.10.2019
152 Clear 17 1006 82 10000 2.1 30 10:42 15.10.2019
153 -273 0 0 0 0 0 10:19 15.10.2019
154 Clear 16 1007 82 10000 2.6 20 09:57 15.10.2019
155 Clear 15 1007 87 10000 2.6 30 09:37 15.10.2019
156 Clear 15 1007 87 10000 2.6 30 09:37 15.10.2019
157 Clear 14 1007 93 10000 3.1 20 09:19 15.10.2019
158 Clear 13 1006 93 10000 2.1 360 08:43 15.10.2019
159 Clear 13 1007 100 10000 1.5 40 08:22 15.10.2019
160 Clear 13 1007 100 10000 1.5 40 07:58 15.10.2019
161 Clear 13 1007 100 10000 1.5 40 07:39 15.10.2019
162 Clear 13 1007 100 10000 2.1 50 07:20 15.10.2019
163 Clear 13 1007 93 10000 2.6 90 06:45 15.10.2019
164 Clear 13 1007 93 10000 2.6 90 06:26 15.10.2019
165 Clear 13 1008 93 10000 1.5 60 05:41 15.10.2019
166 Clear 13 1008 93 10000 1.5 80 05:23 15.10.2019
167 Clear 13 1008 93 10000 1.5 80 04:33 15.10.2019
168 Clear 13 1009 93 10000 0.5 0 03:37 15.10.2019
169 Clear 14 1009 100 10000 0.5 0 02:42 15.10.2019
170 Clear 14 1009 93 10000 0.5 0 01:49 15.10.2019
171 Clear 14 1009 93 10000 0.5 0 01:22 15.10.2019
172 Clear 14 1009 100 10000 1 70 00:49 15.10.2019
173 Clear 15 1009 93 10000 0.5 0 00:22 15.10.2019
174 Clear 15 1009 93 10000 1.5 10 23:45 14.10.2019
175 Clear 15 1009 87 10000 2.1 50 23:21 14.10.2019
176 Clear 15 1009 87 10000 2.1 50 22:59 14.10.2019
177 Clear 15 1009 87 10000 1.5 80 22:38 14.10.2019
178 Clear 15 1010 87 10000 2.6 60 22:19 14.10.2019
179 Clear 15 1010 87 10000 2.6 60 22:19 14.10.2019
180 Clear 15 1010 87 10000 2.6 60 21:56 14.10.2019
181 Clear 15 1010 87 10000 2.6 60 21:56 14.10.2019
182 Clear 16 1010 87 10000 1.5 70 21:37 14.10.2019
183 Clear 16 1010 82 10000 1 0 21:19 14.10.2019
184 Clear 17 1010 82 10000 1 0 20:55 14.10.2019
185 Clear 17 1010 82 10000 1 0 20:37 14.10.2019
186 Clear 17 1010 82 10000 0.5 0 20:18 14.10.2019
187 Clouds 17 1010 77 10000 1 0 19:42 14.10.2019
188 Clouds 18 1010 77 10000 1 0 19:24 14.10.2019
189 Clear 19 1010 72 10000 0.5 0 18:59 14.10.2019
190 Clear 20 1010 72 10000 0.5 0 18:39 14.10.2019
191 Clear 21 1010 64 10000 0.5 0 18:20 14.10.2019
192 Clear 21 1010 64 10000 0.5 0 18:20 14.10.2019
193 Clear 21 1010 64 10000 0.5 0 18:20 14.10.2019
194 Clear 21 1010 64 10000 0.5 0 18:20 14.10.2019
195 Clear 21 1010 64 10000 0.5 0 17:58 14.10.2019
196 Clear 22 1011 50 10000 1.5 210 17:39 14.10.2019
197 Clear 22 1011 50 10000 1 0 17:21 14.10.2019
198 Clear 22 1011 50 10000 1 0 17:21 14.10.2019
199 Haze 22 1011 50 10000 3.6 160 16:44 14.10.2019
200 Haze 23 1011 50 10000 3.6 150 16:22 14.10.2019
201 -273 0 0 0 0 0 15:57 14.10.2019
202 Haze 23 1012 47 10000 3.1 170 15:38 14.10.2019
203 Haze 23 1012 49 4000 3.1 170 15:20 14.10.2019
204 Clear 23 1013 53 10000 4.6 180 14:43 14.10.2019
205 -273 0 0 0 0 0 14:24 14.10.2019
206 -273 0 0 0 0 0 13:57 14.10.2019
207 Clear 22 1013 53 10000 3.6 180 13:38 14.10.2019
208 Clear 22 1014 56 10000 3.6 180 13:19 14.10.2019
209 Clear 21 1014 56 10000 3.6 200 12:40 14.10.2019
210 Clear 20 1015 60 10000 4.6 210 12:19 14.10.2019
211 Clear 20 1015 64 10000 3.1 200 11:47 14.10.2019
212 Clear 19 1015 64 10000 3.1 200 11:27 14.10.2019
213 Clear 18 1015 64 10000 3.1 210 10:59 14.10.2019
214 Clear 17 1015 72 10000 3.1 200 10:40 14.10.2019
215 Clear 17 1015 77 10000 2.6 190 10:21 14.10.2019
216 Clear 15 1015 82 10000 2.1 200 09:57 14.10.2019
217 Clear 15 1015 82 10000 2.1 200 09:38 14.10.2019
218 Clear 14 1015 93 10000 0.5 0 09:19 14.10.2019
219 Clear 13 1015 100 10000 0.5 0 08:46 14.10.2019
220 Clear 13 1015 100 10000 0.5 0 08:23 14.10.2019
221 Clear 13 1015 100 10000 0.5 0 07:44 14.10.2019
222 Clear 13 1014 93 10000 1 0 07:21 14.10.2019
223 Clear 13 1014 93 10000 0.5 210 06:54 14.10.2019
224 Clear 13 1014 100 10000 2.1 240 06:27 14.10.2019
225 Clear 14 1014 100 10000 1.5 250 05:51 14.10.2019
226 Clear 14 1014 93 10000 1 0 04:50 14.10.2019
227 Clear 15 1014 93 10000 1.5 220 03:48 14.10.2019
228 Clear 15 1014 87 10000 1.5 250 03:21 14.10.2019
229 Clear 16 1014 82 10000 3.6 180 01:46 14.10.2019
230 Clear 16 1014 87 10000 1.5 190 01:18 14.10.2019
231 Clear 16 1014 93 10000 1 0 00:36 14.10.2019
232 Clear 17 1014 93 10000 1.5 230 00:18 14.10.2019
233 Clear 17 1014 87 10000 2.1 230 23:40 13.10.2019
234 Clear 17 1013 93 10000 1.5 210 23:19 13.10.2019
235 Clear 17 1013 93 10000 1 210 22:54 13.10.2019
236 Clear 17 1013 93 10000 1 210 22:36 13.10.2019
237 Clear 17 1013 93 10000 1 200 22:18 13.10.2019
238 Clear 17 1013 93 10000 1 200 22:18 13.10.2019
239 Clear 18 1013 93 10000 1.5 160 21:55 13.10.2019
240 Clear 18 1013 93 10000 1.5 160 21:36 13.10.2019
241 Clear 18 1013 88 10000 1.5 200 21:18 13.10.2019
242 Clear 18 1012 88 10000 3.59 194.817 20:55 13.10.2019
243 Clear 18 1012 88 10000 3.59 194.817 20:55 13.10.2019
244 Clear 19 1012 88 10000 3.15 186.94 20:36 13.10.2019
245 Clear 19 1012 82 10000 1.5 110 20:18 13.10.2019
246 Clear 19 1012 77 10000 1.5 150 19:54 13.10.2019
247 Clear 19 1012 77 10000 1.5 150 19:36 13.10.2019
248 Clear 20 1012 68 10000 3.6 190 19:18 13.10.2019
249 Clear 20 1012 60 10000 3.1 180 18:39 13.10.2019
250 Clear 22 1012 53 10000 2.1 170 18:20 13.10.2019
251 Clear 22 1012 53 10000 2.1 170 18:20 13.10.2019
252 Clear 22 1012 53 10000 2.1 170 17:59 13.10.2019
253 Clear 23 1012 53 10000 3.6 180 17:41 13.10.2019
254 Clear 23 1012 53 10000 3.6 190 17:22 13.10.2019
255 Clear 23 1012 53 10000 4.1 200 16:43 13.10.2019
256 Clear 24 1012 53 10000 5.7 200 16:19 13.10.2019
257 Clear 24 1012 53 10000 5.7 200 16:19 13.10.2019
258 Clear 23 1012 53 10000 5.7 200 15:57 13.10.2019
259 Clouds 24 1012 53 10000 5.1 180 15:39 13.10.2019
260 Clouds 24 1012 50 10000 4.6 170 15:20 13.10.2019
261 Clouds 23 1012 50 10000 4.6 170 14:58 13.10.2019
262 Clouds 23 1012 57 10000 3.1 180 14:39 13.10.2019
263 Clouds 23 1013 57 10000 4.1 160 14:20 13.10.2019
264 Clouds 23 1013 56 10000 4.6 170 13:56 13.10.2019
265 Clouds 22 1013 56 10000 4.6 170 13:37 13.10.2019
266 Clear 22 1013 56 10000 5.1 190 13:19 13.10.2019
267 Clear 21 1014 64 10000 5.1 210 12:56 13.10.2019
268 Clear 21 1014 64 10000 5.1 210 12:37 13.10.2019
269 Clouds 20 1014 68 10000 4.6 190 12:18 13.10.2019
270 Clouds 19 1014 72 10000 4.1 200 11:55 13.10.2019
271 Clouds 19 1014 72 10000 4.1 200 11:37 13.10.2019
272 Clouds 18 1014 77 10000 4.1 210 11:18 13.10.2019
273 Clouds 19 1014 77 10000 4.1 210 11:18 13.10.2019
274 Clouds 19 1014 77 10000 4.1 210 11:18 13.10.2019
275 Clouds 17 1014 82 10000 4.1 210 10:41 13.10.2019
276 Clouds 17 1014 82 10000 4.1 210 10:41 13.10.2019
277 Clouds 17 1014 82 10000 2.6 220 10:23 13.10.2019
278 Clouds 17 1014 82 10000 2.6 220 10:23 13.10.2019
279 Clouds 15 1014 87 10000 2.1 210 09:41 13.10.2019
280 Clouds 15 1014 93 10000 3.1 210 09:22 13.10.2019
281 Clouds 15 1014 93 10000 3.1 210 09:22 13.10.2019
282 Clouds 14 1014 93 10000 3.1 210 08:59 13.10.2019
283 Clouds 14 1014 93 10000 3.1 190 08:40 13.10.2019
284 Clear 14 1013 93 10000 2.6 210 08:21 13.10.2019
285 Clear 14 1013 100 10000 2.6 190 07:46 13.10.2019
286 Clear 14 1013 93 10000 2.6 190 07:21 13.10.2019
287 Clear 14 1013 93 10000 3.1 190 06:41 13.10.2019
288 Clear 14 1013 93 10000 3.1 190 06:41 13.10.2019
289 Fog 14 1013 100 10000 2.1 170 05:46 13.10.2019
290 Clear 14 1013 100 10000 1 0 04:49 13.10.2019
291 Clear 14 1013 100 10000 1 0 04:29 13.10.2019
292 Clear 15 1013 87 10000 0.5 0 02:42 13.10.2019
293 Clear 15 1013 82 10000 1.5 190 01:54 13.10.2019
294 Clear 15 1013 82 10000 3.1 180 01:30 13.10.2019
295 Clear 16 1013 82 10000 3.6 210 00:49 13.10.2019
296 Clouds 16 1014 82 10000 3.6 200 00:22 13.10.2019
297 Clouds 16 1014 82 10000 3.6 200 23:57 12.10.2019
298 Clear 16 1013 82 10000 4.6 180 23:39 12.10.2019
299 Clear 16 1013 82 10000 5.1 180 23:20 12.10.2019
300 Clear 16 1013 82 10000 5.1 180 22:57 12.10.2019
301 Clear 16 1013 87 10000 3.6 190 22:38 12.10.2019
302 Clear 16 1013 82 10000 3.1 190 22:20 12.10.2019
303 Clouds 16 1013 100 10000 0.5 0 21:55 12.10.2019
304 Clouds 16 1013 100 10000 0.5 0 21:37 12.10.2019
305 Rain 16 1013 100 10000 1 0 21:18 12.10.2019
306 Clear 16 1013 100 10000 1.5 240 20:41 12.10.2019
307 Clouds 16 1013 93 10000 1.5 220 20:23 12.10.2019
308 Rain 17 1013 88 10000 3.1 170 19:40 12.10.2019
309 Rain 17 1013 88 10000 3.6 170 19:22 12.10.2019
310 Rain 17 1013 77 10000 3.6 180 18:59 12.10.2019
311 Rain 18 1013 77 10000 3.6 180 18:40 12.10.2019
312 Rain 18 1014 68 10000 3.1 200 18:22 12.10.2019
313 Clear 19 1013 64 10000 3.1 190 17:44 12.10.2019
314 Rain 19 1014 64 10000 4.6 190 17:19 12.10.2019
315 Clear 19 1014 64 10000 3.1 210 16:55 12.10.2019
316 Clear 20 1014 64 10000 3.1 210 16:36 12.10.2019
317 Clear 20 1014 60 10000 3.6 220 16:18 12.10.2019
318 Clouds 20 1013 56 10000 5.7 220 15:44 12.10.2019
319 Clouds 20 1013 56 10000 5.7 220 15:25 12.10.2019
320 Clouds 20 1013 53 10000 8.2 220 15:25 12.10.2019
321 Clouds 21 1013 56 10000 5.7 220 14:57 12.10.2019
322 Clouds 21 1013 56 10000 5.7 220 14:38 12.10.2019
323 Clouds 20 1013 56 10000 6.7 230 14:18 12.10.2019
324 Clouds 21 1014 56 10000 6.2 210 13:44 12.10.2019
325 Clouds 20 1014 64 10000 6.7 210 13:26 12.10.2019
326 Clouds 19 1014 63 10000 6.2 200 12:40 12.10.2019
327 Clouds 18 1014 68 10000 6.7 210 12:22 12.10.2019
328 Clouds 18 1014 68 10000 6.7 210 12:22 12.10.2019
329 Clouds 17 1014 68 10000 6.7 210 11:59 12.10.2019
330 Clouds 16 1014 68 10000 5.7 200 11:40 12.10.2019
331 Clouds 16 1014 67 10000 4.1 210 11:22 12.10.2019
332 Clouds 15 1014 77 10000 5.1 210 10:56 12.10.2019
333 Clouds 15 1014 77 10000 5.1 210 10:37 12.10.2019
334 Clouds 14 1014 76 10000 4.1 210 10:18 12.10.2019
335 Clouds 13 1014 82 10000 3.6 210 09:55 12.10.2019
336 Clouds 12 1014 82 10000 3.6 210 09:37 12.10.2019
337 Clouds 11 1013 87 10000 2.1 230 09:18 12.10.2019
338 Clouds 10 1013 93 10000 1.5 270 08:41 12.10.2019
339 Clouds 10 1013 93 10000 1.5 270 08:41 12.10.2019
340 Fog 10 1013 100 10000 3.1 200 08:21 12.10.2019
341 Fog 10 1013 100 10000 1 0 07:37 12.10.2019
342 Clear 10 1013 100 10000 1.5 160 07:18 12.10.2019
343 Clear 10 1013 100 10000 1.5 230 05:53 12.10.2019
344 Clear 10 1013 100 10000 1 0 05:25 12.10.2019
345 Clear 10 1013 93 10000 2.6 180 04:29 12.10.2019
346 Clear 10 1014 100 10000 3.1 190 03:46 12.10.2019
347 Clear 11 1014 93 10000 2.6 170 02:37 12.10.2019
348 Clear 12 1014 87 10000 3.1 180 01:31 12.10.2019
349 Clear 12 1014 93 10000 2.6 190 00:54 12.10.2019
350 Clear 12 1014 93 10000 2.6 190 00:35 12.10.2019
351 Clouds 13 1014 87 10000 3.1 200 23:54 11.10.2019
352 Clouds 12 1014 87 10000 3.1 200 23:36 11.10.2019
353 Clouds 13 1014 87 10000 3.1 200 23:18 11.10.2019
354 Clouds 13 1014 82 10000 3.6 190 22:37 11.10.2019
355 Clouds 13 1014 82 10000 3.1 180 22:18 11.10.2019
356 Clouds 13 1014 82 10000 4.1 180 21:42 11.10.2019
357 Clouds 13 1014 87 10000 3.1 170 21:21 11.10.2019
358 Clouds 14 1014 93 10000 2.1 180 20:57 11.10.2019
359 Clouds 14 1014 93 10000 2.1 180 20:38 11.10.2019
360 Clouds 14 1014 87 10000 2.1 160 20:19 11.10.2019
361 Clouds 14 1014 87 10000 2.1 160 19:55 11.10.2019
362 Clouds 14 1014 82 10000 1.5 140 19:36 11.10.2019
363 Clouds 14 1014 77 10000 2.1 170 19:18 11.10.2019
364 Clouds 14 1014 77 10000 2.1 170 19:18 11.10.2019
365 Clouds 14 1014 77 10000 2.1 170 19:18 11.10.2019
366 Clouds 14 1014 77 10000 2.1 170 19:18 11.10.2019
367 Clouds 15 1014 77 10000 3.1 190 18:54 11.10.2019
368 Clouds 16 1015 72 10000 3.6 200 18:36 11.10.2019
369 Clouds 16 1015 72 10000 3.6 200 18:18 11.10.2019
370 Clouds 16 1015 67 10000 3.6 190 17:55 11.10.2019
371 Clouds 16 1015 67 10000 3.6 190 17:36 11.10.2019
372 Clouds 16 1015 67 10000 4.6 200 17:18 11.10.2019
373 Clouds 17 1015 67 10000 5.1 200 16:40 11.10.2019
374 Clouds 17 1015 63 10000 6.2 210 16:20 11.10.2019
375 Clouds 16 1016 77 10000 5.1 210 15:58 11.10.2019
376 Clouds 16 1016 77 10000 5.1 210 15:38 11.10.2019
377 Clouds 16 1016 77 10000 4.1 190 15:19 11.10.2019
378 Clouds 16 1016 77 10000 4.6 180 14:46 11.10.2019
379 Clouds 15 1017 77 10000 5.7 190 14:28 11.10.2019
380 Clouds 15 1017 77 10000 3.1 260 13:56 11.10.2019
381 Clouds 15 1017 77 10000 5.7 190 13:37 11.10.2019
382 Clouds 15 1017 77 10000 5.1 170 13:18 11.10.2019
383 Clouds 15 1017 87 10000 4.92 220.946 12:54 11.10.2019
384 Clouds 13 1018 82 10000 5.1 180 12:36 11.10.2019
385 Clouds 13 1018 87 10000 4.6 190 12:18 11.10.2019
386 Clouds 12 1018 93 10000 4.1 200 11:41 11.10.2019
387 Clouds 12 1018 87 10000 4.6 190 11:22 11.10.2019
388 Clouds 11 1018 87 10000 4.6 190 10:58 11.10.2019
389 Clouds 11 1019 87 10000 4.46 208.518 10:40 11.10.2019
390 Clouds 11 1019 87 10000 4.46 208.518 10:22 11.10.2019
391 Clouds 10 1018 93 10000 2.1 220 09:55 11.10.2019
392 Clouds 10 1018 93 10000 2.1 220 09:37 11.10.2019
393 Clouds 10 1018 100 10000 1.5 270 09:18 11.10.2019
394 Clouds 9 1018 100 10000 1.5 270 08:55 11.10.2019
395 Clouds 9 1018 93 10000 2.1 150 08:36 11.10.2019
396 Clouds 9 1018 100 10000 1.5 210 08:18 11.10.2019
397 Clouds 8 1018 100 10000 1 240 07:41 11.10.2019
398 Clouds 8 1019 100 10000 1.5 230 07:22 11.10.2019
399 Clear 8 1019 93 10000 0.5 0 06:47 11.10.2019
400 Clear 8 1019 100 10000 1 0 06:22 11.10.2019
401 Clear 8 1018 93 10000 1 0 05:39 11.10.2019
402 Clouds 8 1018 100 10000 0.5 0 04:59 11.10.2019
403 Clouds 8 1019 100 10000 1 0 04:24 11.10.2019
404 Clear 8 1020 100 10000 2.1 260 02:32 11.10.2019
405 Clear 9 1019 93 10000 4.1 190 00:47 11.10.2019
406 Clear 9 1019 93 10000 4.1 190 00:27 11.10.2019
407 Clouds 10 1019 87 10000 3.1 210 23:44 10.10.2019
408 Clouds 10 1019 87 10000 3.6 200 23:22 10.10.2019
409 Clouds 10 1019 87 10000 3.6 200 22:58 10.10.2019
410 Clouds 10 1019 87 10000 3.6 200 22:39 10.10.2019
411 Clouds 10 1019 81 10000 4.1 210 22:20 10.10.2019
412 Clouds 11 1019 81 10000 4.6 210 21:58 10.10.2019
413 Clouds 11 1019 81 10000 4.6 210 21:39 10.10.2019
414 Clouds 11 1019 76 10000 4.6 230 21:21 10.10.2019
415 Rain 11 1018 76 10000 5.7 220 20:43 10.10.2019
416 Rain 11 1018 76 10000 4.6 220 20:22 10.10.2019
417 Rain 11 1018 71 10000 4.6 220 19:59 10.10.2019
418 Rain 12 1018 71 10000 4.6 220 19:41 10.10.2019
419 Rain 12 1017 71 10000 5.1 220 19:21 10.10.2019
420 Rain 12 1017 71 10000 5.1 220 18:59 10.10.2019
421 Rain 12 1017 67 10000 3.6 210 18:40 10.10.2019
422 Rain 13 1017 54 10000 4.6 270 18:20 10.10.2019
423 Clouds 14 1016 59 10000 5.7 240 17:55 10.10.2019
424 Clouds 14 1016 59 10000 5.7 240 17:55 10.10.2019
425 Clouds 14 1016 59 10000 5.7 240 17:37 10.10.2019
426 Clouds 14 1016 63 10000 3.6 230 17:18 10.10.2019
427 Clouds 14 1016 67 10000 5.1 240 16:46 10.10.2019
428 Clouds 14 1016 67 10000 5.1 240 16:26 10.10.2019
429 Rain 14 1016 82 10000 4.1 220 15:58 10.10.2019
430 Rain 14 1016 82 10000 4.1 220 15:38 10.10.2019
431 Rain 14 1016 67 10000 5.1 270 15:19 10.10.2019
432 -273 0 0 0 0 0 14:55 10.10.2019
433 Clouds 14 1016 58 10000 5.1 240 14:36 10.10.2019
434 Clouds 14 1016 58 10000 6.7 250 14:18 10.10.2019
435 Clouds 14 1016 62 10000 8.2 240 13:42 10.10.2019
436 Rain 13 1016 62 10000 5.7 240 13:24 10.10.2019
437 Rain 13 1015 67 10000 6.2 250 12:58 10.10.2019
438 Rain 13 1015 67 10000 6.2 250 12:40 10.10.2019
439 Clouds 12 1015 71 10000 7.2 230 12:20 10.10.2019
440 Clouds 12 1015 76 10000 7.2 220 11:58 10.10.2019
441 Clouds 11 1015 76 10000 7.2 220 11:38 10.10.2019
442 Clouds 11 1015 76 10000 6.7 220 11:19 10.10.2019
443 Clouds 11 1015 76 10000 6.7 220 11:19 10.10.2019
444 Clouds 11 1014 81 10000 6.2 210 10:44 10.10.2019
445 Clouds 11 1014 76 10000 5.7 260 10:26 10.10.2019
446 Clouds 10 1014 81 10000 7.2 220 09:58 10.10.2019
447 Clouds 10 1013 81 10000 5.7 230 09:39 10.10.2019
448 Clouds 9 1012 87 10000 4.6 210 09:21 10.10.2019
449 Clouds 9 1012 93 10000 4.6 210 08:57 10.10.2019
450 Clouds 9 1012 93 10000 4.6 210 08:38 10.10.2019
451 Clouds 9 1011 93 10000 5.1 220 08:18 10.10.2019
452 Rain 9 1011 93 10000 5.1 210 07:45 10.10.2019
453 Rain 9 1010 93 10000 5.1 200 07:22 10.10.2019
454 Rain 9 1010 93 10000 6.7 200 06:48 10.10.2019
455 Rain 9 1010 93 10000 6.7 200 06:29 10.10.2019
456 Rain 9 1010 93 10000 5.1 190 05:28 10.10.2019
457 Rain 9 1010 93 10000 5.1 190 05:28 10.10.2019
458 Rain 9 1010 87 10000 4.6 190 04:54 10.10.2019
459 Rain 9 1010 87 10000 4.6 190 04:33 10.10.2019
460 Clouds 9 1011 93 10000 3.1 210 01:46 10.10.2019
461 Clouds 9 1011 93 10000 3.1 210 01:46 10.10.2019
462 Clouds 9 1011 93 10000 3.1 210 01:26 10.10.2019
463 Clouds 9 1011 93 10000 3.6 200 01:00 10.10.2019
464 Clouds 10 1011 87 10000 3.1 200 00:24 10.10.2019
465 Clear 10 1010 81 10000 6.2 210 23:41 09.10.2019
466 Clouds 10 1010 87 10000 5.7 190 23:23 09.10.2019
467 Clouds 10 1010 87 10000 5.7 190 22:59 09.10.2019
468 Rain 10 1010 81 10000 6.2 210 22:59 09.10.2019
469 Rain 10 1010 81 10000 6.2 210 22:40 09.10.2019
470 Clouds 10 1010 81 10000 6.2 200 22:22 09.10.2019
471 Clouds 10 1010 87 10000 6.7 200 21:42 09.10.2019
472 Clouds 10 1010 87 10000 5.7 200 21:21 09.10.2019
473 Clouds 10 1010 87 10000 5.7 200 21:21 09.10.2019
474 Clouds 10 1010 93 10000 4.6 200 20:58 09.10.2019
475 Clouds 10 1010 93 10000 4.6 200 20:39 09.10.2019
476 Clouds 10 1009 93 10000 4.1 210 20:21 09.10.2019
477 Clouds 10 1009 93 10000 4.1 210 19:59 09.10.2019
478 Clouds 10 1009 93 10000 4.1 210 19:59 09.10.2019
479 Clouds 10 1009 93 10000 4.1 210 19:59 09.10.2019
480 Clouds 11 1009 87 10000 4.6 200 19:40 09.10.2019
481 Rain 11 1009 87 10000 5.1 200 19:22 09.10.2019
482 Rain 11 1009 87 10000 5.1 200 18:39 09.10.2019
483 Clouds 11 1009 87 10000 5.1 200 18:21 09.10.2019
484 Clouds 12 1009 87 10000 5.1 200 17:58 09.10.2019
485 Rain 12 1009 87 10000 6.2 210 17:40 09.10.2019
486 Rain 12 1009 87 10000 5.7 210 17:22 09.10.2019
487 Rain 12 1009 87 10000 5.7 210 16:57 09.10.2019
488 Clouds 12 1009 87 10000 5.7 210 16:39 09.10.2019
489 Rain 12 1009 87 10000 7.2 210 16:20 09.10.2019
490 Rain 12 1009 87 10000 7.2 210 16:20 09.10.2019
491 Rain 12 1009 93 10000 6.2 200 15:56 09.10.2019
492 Rain 12 1009 93 10000 6.2 200 15:37 09.10.2019
493 Rain 12 1009 87 10000 5.1 190 15:19 09.10.2019
494 Rain 13 1009 87 10000 4.1 200 14:46 09.10.2019
495 Rain 13 1009 76 10000 5.1 190 14:20 09.10.2019
496 Rain 13 1009 76 10000 5.1 190 14:00 09.10.2019
497 Rain 14 1009 76 10000 4.6 200 13:38 09.10.2019
498 Rain 14 1010 76 10000 5.1 200 13:19 09.10.2019
499 Rain 13 1010 82 10000 5.1 210 12:55 09.10.2019
500 Rain 13 1010 82 10000 5.1 210 12:37 09.10.2019
501 Clouds 13 1010 76 10000 5.1 210 12:18 09.10.2019
502 Dust 13 1011 76 10000 6.2 220 11:40 09.10.2019
503 Dust 13 1011 76 10000 6.2 220 11:40 09.10.2019
504 Dust 13 1011 82 10000 3.6 190 11:21 09.10.2019
505 Clouds 13 1011 82 10000 4.1 190 10:59 09.10.2019
506 Clouds 12 1011 82 10000 4.1 190 10:40 09.10.2019
507 Clouds 12 1011 93 10000 3.6 190 10:20 09.10.2019
508 Clouds 11 1011 93 10000 3.6 190 09:56 09.10.2019
509 Clouds 11 1011 93 10000 4.1 180 09:38 09.10.2019
510 Clouds 10 1012 100 10000 2.6 220 09:18 09.10.2019
511 Clouds 10 1012 93 10000 2.1 200 08:39 09.10.2019
512 Clouds 10 1012 93 10000 2.6 180 08:20 09.10.2019
513 Clouds 10 1012 93 10000 2.6 180 08:20 09.10.2019
514 Clouds 10 1012 93 10000 3.6 190 07:47 09.10.2019
515 Clouds 10 1012 93 10000 3.6 190 07:47 09.10.2019
516 Clouds 10 1012 93 10000 3.1 190 07:26 09.10.2019
517 Clouds 10 1012 87 10000 2.6 260 06:59 09.10.2019
518 Clouds 10 1012 100 10000 4.6 190 06:41 09.10.2019
519 Clouds 10 1011 93 10000 4.1 190 05:53 09.10.2019
520 Clouds 10 1011 93 10000 4.6 200 05:19 09.10.2019
521 Clouds 10 1011 93 10000 5.1 190 03:54 09.10.2019
522 Clouds 10 1011 93 10000 5.1 190 02:42 09.10.2019
523 Clouds 11 1010 100 10000 3.6 190 01:39 09.10.2019
524 Clouds 11 1010 93 10000 3.6 210 01:19 09.10.2019
525 Clouds 12 1010 93 10000 2.6 210 00:56 09.10.2019
526 Clouds 12 1010 93 10000 2.6 210 00:37 09.10.2019
527 Clouds 12 1010 93 10000 2.6 210 00:37 09.10.2019
528 Clouds 12 1009 93 10000 4.1 220 00:19 09.10.2019
529 Rain 13 1009 100 10000 4.1 220 23:39 08.10.2019
530 Rain 13 1009 100 8000 3.6 220 23:18 08.10.2019
531 Rain 13 1009 100 6000 2.1 270 22:56 08.10.2019
532 Rain 13 1009 100 6000 2.1 270 22:38 08.10.2019
533 Rain 13 1009 93 9000 1.5 260 22:19 08.10.2019
534 Rain 13 1008 100 7000 3.6 210 21:57 08.10.2019
535 Rain 13 1008 100 7000 3.6 210 21:38 08.10.2019
536 Rain 13 1008 100 4800 4.6 210 21:18 08.10.2019
537 Rain 13 1008 100 4800 4.6 210 20:55 08.10.2019
538 Rain 13 1008 100 10000 4.1 200 20:37 08.10.2019
539 Rain 13 1008 100 10000 4.1 200 20:37 08.10.2019
540 Rain 13 1008 100 4500 4.6 200 20:19 08.10.2019
541 Rain 13 1008 100 10000 3.1 190 19:56 08.10.2019
542 Rain 13 1008 100 10000 3.1 190 19:37 08.10.2019
543 Rain 13 1008 93 10000 3.1 200 19:18 08.10.2019
544 Drizzle 13 1008 100 6000 4.1 190 18:46 08.10.2019
545 Rain 13 1008 100 6000 4.1 190 18:25 08.10.2019
546 Rain 13 1009 100 4000 4.1 200 17:58 08.10.2019
547 Rain 13 1009 93 5000 3.1 240 17:39 08.10.2019
548 Rain 13 1008 100 8000 4.6 190 17:20 08.10.2019
549 Rain 13 1009 93 4500 4.1 180 16:56 08.10.2019
550 Rain 13 1009 93 4500 4.1 180 16:56 08.10.2019
551 Rain 13 1009 93 4500 4.1 180 16:37 08.10.2019
552 Rain 13 1009 82 10000 4.6 240 16:19 08.10.2019
553 Clouds 13 1009 93 10000 4.1 180 15:40 08.10.2019
554 Rain 13 1009 93 10000 5.1 190 15:21 08.10.2019
555 Drizzle 13 1009 93 10000 5.1 190 14:57 08.10.2019
556 Rain 13 1009 93 10000 5.7 190 14:39 08.10.2019
557 Rain 13 1009 93 10000 5.1 230 14:20 08.10.2019
558 Rain 13 1010 87 10000 4.1 250 13:56 08.10.2019
559 Drizzle 12 1010 93 10000 6.2 190 13:37 08.10.2019
560 Clouds 12 1010 100 10000 6.2 200 13:18 08.10.2019
561 Clouds 12 1010 93 10000 5.7 190 12:56 08.10.2019
562 Rain 12 1010 93 10000 5.7 190 12:37 08.10.2019
563 Rain 12 1010 93 10000 5.7 190 12:37 08.10.2019
564 Rain 12 1010 100 10000 5.7 200 12:18 08.10.2019
565 Rain 12 1011 93 4800 5.1 200 11:41 08.10.2019
566 Rain 11 1011 93 10000 4.1 230 11:23 08.10.2019
567 Rain 11 1011 100 9000 5.1 190 10:56 08.10.2019
568 Rain 11 1011 100 9000 5.1 190 10:36 08.10.2019
569 Rain 11 1011 87 10000 3.6 220 10:18 08.10.2019
570 Rain 11 1011 100 3500 4.1 200 09:55 08.10.2019
571 Rain 11 1011 100 10000 4.6 200 09:37 08.10.2019
572 Rain 11 1012 93 10000 3.1 220 09:18 08.10.2019
573 Rain 11 1012 93 10000 2.6 210 08:41 08.10.2019
574 Rain 11 1012 100 3400 4.1 200 08:23 08.10.2019
575 Rain 11 1012 93 6000 4.1 190 07:44 08.10.2019
576 Rain 11 1013 93 10000 3.1 220 07:21 08.10.2019
577 Rain 11 1013 93 10000 3.6 210 06:50 08.10.2019
578 Rain 11 1013 93 10000 4.1 180 06:28 08.10.2019
579 Rain 11 1013 93 10000 5.1 190 05:46 08.10.2019
580 Rain 11 1013 93 10000 5.1 190 05:46 08.10.2019
581 Rain 11 1014 93 10000 4.6 180 05:25 08.10.2019
582 Clouds 11 1014 93 10000 4.1 180 04:31 08.10.2019
583 Rain 11 1015 93 10000 2.1 200 03:27 08.10.2019
584 Rain 11 1016 93 10000 3.1 210 02:36 08.10.2019
585 Clouds 10 1016 93 10000 3.1 210 01:47 08.10.2019
586 Clouds 10 1016 93 10000 3.1 210 01:27 08.10.2019
587 Clouds 10 1017 100 10000 1 220 00:46 08.10.2019
588 Clouds 10 1017 93 10000 1 250 00:21 08.10.2019
589 Clouds 10 1017 93 10000 1 0 23:40 07.10.2019
590 Rain 10 1017 93 10000 1 0 23:20 07.10.2019
591 Rain 10 1017 93 10000 1 0 23:20 07.10.2019
592 Rain 10 1017 93 10000 1 0 22:57 07.10.2019
593 Clouds 10 1018 87 10000 1.62 162.817 22:39 07.10.2019
594 Clouds 10 1018 87 10000 1.5 110 22:20 07.10.2019
595 Clouds 10 1018 93 10000 1.5 100 21:57 07.10.2019
596 Clouds 10 1018 93 10000 1.5 100 21:38 07.10.2019
597 Clouds 10 1018 93 10000 1.5 80 21:20 07.10.2019
598 Clouds 10 1018 93 10000 1.5 80 21:20 07.10.2019
599 Clouds 10 1018 93 10000 1.5 80 20:57 07.10.2019
600 Rain 10 1018 93 10000 1 0 20:39 07.10.2019
601 Rain 10 1018 81 10000 1.5 90 20:20 07.10.2019
602 Rain 10 1018 81 10000 1 0 19:58 07.10.2019
603 Clouds 10 1018 81 10000 1 0 19:39 07.10.2019
604 Clouds 10 1018 81 10000 2.1 110 19:19 07.10.2019
605 Clouds 11 1018 76 10000 1.5 130 18:56 07.10.2019
606 Clouds 11 1018 76 10000 1.5 130 18:56 07.10.2019
607 Clouds 11 1018 76 10000 1.5 130 18:38 07.10.2019
608 Clouds 11 1018 76 10000 2.1 110 18:18 07.10.2019
609 Clouds 11 1018 76 10000 2.1 170 17:43 07.10.2019
610 Clouds 11 1018 76 10000 1.5 150 17:20 07.10.2019
611 Clouds 11 1019 76 10000 1.5 160 16:57 07.10.2019
612 Clouds 11 1019 76 10000 1.5 160 16:38 07.10.2019
613 Clouds 11 1019 76 10000 2.1 150 16:20 07.10.2019
614 Clouds 11 1019 71 10000 2.6 140 15:45 07.10.2019
615 Clouds 11 1019 81 10000 2.6 190 15:26 07.10.2019
616 Clouds 11 1019 81 10000 2.1 180 14:55 07.10.2019
617 Clouds 11 1019 81 10000 2.1 180 14:37 07.10.2019
618 Clouds 11 1019 81 10000 1.5 150 14:19 07.10.2019
619 Clouds 11 1019 81 10000 1.5 180 13:43 07.10.2019
620 Clouds 11 1019 81 10000 2.1 190 13:20 07.10.2019
621 Clouds 11 1019 81 10000 2.1 190 12:56 07.10.2019
622 Clouds 10 1019 81 10000 2.6 140 12:38 07.10.2019
623 Clouds 10 1019 81 10000 2.6 120 12:19 07.10.2019
624 Rain 10 1019 81 10000 2.6 120 11:57 07.10.2019
625 Clouds 10 1019 87 10000 2.1 130 11:37 07.10.2019
626 Clouds 10 1019 87 10000 2.6 70 11:18 07.10.2019
627 Clouds 9 1019 87 10000 3.6 70 10:41 07.10.2019
628 Clouds 9 1019 81 10000 3.1 80 10:20 07.10.2019
629 Clouds 8 1018 87 10000 3.1 60 09:43 07.10.2019
630 Clouds 8 1018 81 10000 4.1 50 09:24 07.10.2019
631 Clouds 8 1018 87 10000 3.6 50 08:57 07.10.2019
632 Clouds 8 1017 87 10000 2.6 30 08:39 07.10.2019
633 Clouds 8 1017 87 10000 3.6 50 08:19 07.10.2019
634 Clouds 8 1017 93 10000 3.1 20 07:43 07.10.2019
635 Clouds 8 1016 93 10000 3.6 40 07:25 07.10.2019
636 Clouds 8 1016 93 10000 2.6 70 06:55 07.10.2019
637 Clouds 8 1016 93 10000 2.6 70 06:37 07.10.2019
638 Clouds 8 1016 93 10000 3.6 20 05:50 07.10.2019
639 Clouds 8 1016 93 10000 3.6 20 05:24 07.10.2019
640 Rain 8 1015 100 6000 2.6 70 04:44 07.10.2019
641 Clouds 8 1015 87 10000 3.6 10 03:45 07.10.2019
642 Clouds 8 1014 93 10000 3.1 30 03:23 07.10.2019
643 Clouds 8 1014 93 9000 4.6 360 02:23 07.10.2019
644 Clouds 8 1014 93 9000 4.6 360 01:58 07.10.2019
645 Rain 8 1013 93 7000 5.1 30 01:23 07.10.2019
646 Rain 8 1013 93 7000 5.7 20 00:45 07.10.2019
647 Rain 8 1012 93 7000 4.6 10 00:23 07.10.2019
648 Rain 8 1012 93 7000 4.6 10 23:59 06.10.2019
649 Drizzle 8 1012 93 4000 4.1 10 23:39 06.10.2019
650 Drizzle 8 1012 87 10000 2.6 60 23:18 06.10.2019
651 Drizzle 8 1011 93 3500 5.1 20 22:54 06.10.2019
652 Drizzle 8 1011 93 3500 5.1 20 22:36 06.10.2019
653 Drizzle 8 1011 87 10000 3.1 70 22:18 06.10.2019
654 Rain 8 1011 93 5000 5.7 50 21:54 06.10.2019
655 Rain 8 1011 93 5000 5.7 50 21:36 06.10.2019
656 Rain 8 1011 87 9000 4.6 80 21:18 06.10.2019
657 Rain 8 1011 87 9000 4.6 80 21:18 06.10.2019
658 Rain 8 1011 93 5000 4.6 40 20:54 06.10.2019
659 Rain 8 1011 93 7000 4.6 60 20:36 06.10.2019
660 Rain 8 1011 93 5000 4.6 40 20:36 06.10.2019
661 Rain 8 1011 93 7000 4.6 60 20:36 06.10.2019
662 Rain 8 1011 93 7000 4.6 60 20:18 06.10.2019
663 Rain 8 1011 93 7000 4.6 50 19:54 06.10.2019
664 Rain 8 1011 93 7000 4.6 50 19:36 06.10.2019
665 Rain 8 1011 93 4500 3.6 70 19:18 06.10.2019
666 Rain 8 1011 93 6000 5.1 60 18:54 06.10.2019
667 Rain 9 1011 100 4600 4.6 60 18:36 06.10.2019
668 Rain 9 1011 100 4600 4.6 60 18:18 06.10.2019
669 Rain 9 1011 100 4200 4.6 60 17:42 06.10.2019
670 Rain 9 1012 93 8000 6.2 90 17:20 06.10.2019
671 Rain 9 1012 93 9000 5.1 90 16:55 06.10.2019
672 Rain 9 1012 93 3300 4.6 70 16:36 06.10.2019
673 Rain 9 1013 93 3000 4.6 80 16:18 06.10.2019
674 Rain 9 1013 93 3000 4.6 70 15:42 06.10.2019
675 Rain 9 1013 87 6000 5.1 90 15:19 06.10.2019
676 Rain 9 1014 87 9000 4.6 90 14:44 06.10.2019
677 Rain 8 1014 93 4800 4.6 70 14:26 06.10.2019
678 Rain 8 1015 93 6000 5.1 100 13:59 06.10.2019
679 Rain 8 1015 100 6000 4.6 60 13:40 06.10.2019
680 Rain 8 1015 93 9000 5.1 70 13:21 06.10.2019
681 Rain 8 1015 93 9000 5.1 70 12:58 06.10.2019
682 Rain 8 1015 93 10000 5.1 80 12:39 06.10.2019
683 Rain 8 1015 93 10000 5.1 80 12:21 06.10.2019
684 Rain 8 1016 87 10000 4.6 80 11:58 06.10.2019
685 Rain 8 1016 87 10000 4.6 80 11:39 06.10.2019
686 Rain 8 1016 87 10000 4.6 90 11:21 06.10.2019
687 Rain 8 1016 87 10000 3.1 70 10:54 06.10.2019
688 Rain 8 1016 87 10000 3.1 70 10:36 06.10.2019
689 Rain 8 1017 76 10000 3.6 60 10:18 06.10.2019
690 Clouds 8 1017 81 10000 4.6 50 09:41 06.10.2019
691 Clouds 7 1017 81 10000 4.1 60 09:19 06.10.2019
692 Clouds 7 1017 81 10000 4.6 50 08:48 06.10.2019
693 Clouds 7 1017 81 10000 4.1 50 08:21 06.10.2019
694 Clouds 7 1017 81 10000 4.6 50 07:57 06.10.2019
695 Clouds 7 1017 81 10000 4.6 50 07:39 06.10.2019
696 Clouds 7 1017 81 10000 4.6 50 06:49 06.10.2019
697 Clouds 7 1018 81 10000 3.6 50 05:41 06.10.2019
698 Clouds 7 1018 87 10000 4.1 40 04:32 06.10.2019
699 Clear 7 1019 93 10000 4.1 60 02:53 06.10.2019
700 Clear 7 1019 93 10000 4.1 60 02:30 06.10.2019
701 Clear 7 1019 93 10000 2.1 60 01:48 06.10.2019
702 Clear 7 1019 93 10000 2.6 70 01:30 06.10.2019
703 Clouds 7 1019 93 10000 2.6 70 00:59 06.10.2019
704 Clear 7 1019 93 10000 2.6 70 00:59 06.10.2019
705 Clouds 7 1019 93 10000 2.6 70 00:31 06.10.2019
706 Clouds 7 1019 87 10000 3.1 80 23:58 05.10.2019
707 Clouds 7 1019 87 10000 3.1 80 23:40 05.10.2019
708 Clouds 7 1019 87 10000 3.1 80 23:40 05.10.2019
709 Clouds 8 1019 81 10000 3.1 80 23:19 05.10.2019
710 Clouds 8 1019 81 10000 4.1 70 22:54 05.10.2019
711 Clouds 8 1019 81 10000 4.1 70 22:36 05.10.2019
712 Clouds 8 1019 76 10000 3.1 60 22:18 05.10.2019
713 Clouds 8 1019 81 10000 2.1 30 21:41 05.10.2019
714 Clouds 8 1019 81 10000 2.1 30 21:41 05.10.2019
715 Clouds 8 1019 76 10000 3.1 10 21:22 05.10.2019
716 Clouds 8 1019 76 10000 3.1 10 20:58 05.10.2019
717 Clouds 9 1018 71 10000 3.6 20 20:39 05.10.2019
718 Clouds 9 1018 71 10000 4.1 30 20:19 05.10.2019
719 Clouds 9 1018 71 10000 4.1 30 20:19 05.10.2019
720 Clouds 10 1018 71 10000 5.1 30 19:56 05.10.2019
721 Clouds 10 1018 71 10000 5.1 30 19:37 05.10.2019
722 Clouds 10 1018 71 10000 4.6 30 19:18 05.10.2019
723 Clouds 11 1018 66 10000 5.7 30 18:55 05.10.2019
724 Clouds 11 1018 66 10000 5.7 30 18:36 05.10.2019
725 Clouds 11 1018 62 10000 3.6 20 18:18 05.10.2019
726 Clouds 12 1017 58 10000 3.6 40 17:42 05.10.2019
727 Clouds 12 1017 58 10000 3.6 20 17:21 05.10.2019
728 Clouds 12 1017 58 10000 3.6 20 16:55 05.10.2019
729 Clouds 12 1016 62 10000 3.6 10 16:37 05.10.2019
730 Clouds 12 1016 58 10000 3.1 10 16:18 05.10.2019
731 Clouds 12 1016 62 10000 4.6 40 15:55 05.10.2019
732 Clouds 12 1016 62 10000 4.6 40 15:37 05.10.2019
733 Clouds 12 1016 62 10000 4.6 30 15:18 05.10.2019
734 Clouds 12 1016 66 10000 4.1 10 14:42 05.10.2019
735 Clouds 12 1015 62 10000 4.1 10 14:23 05.10.2019
736 Clouds 12 1015 62 10000 4.1 30 13:44 05.10.2019
737 Clouds 11 1015 66 10000 5.7 20 13:26 05.10.2019
738 Clouds 11 1015 66 10000 5.7 20 12:59 05.10.2019
739 Clouds 11 1015 62 10000 5.1 10 12:41 05.10.2019
740 Clouds 11 1015 66 10000 5.7 10 12:19 05.10.2019
741 Clouds 11 1014 71 10000 4.6 10 11:41 05.10.2019
742 Clouds 11 1014 71 10000 4.6 10 11:41 05.10.2019
743 Clouds 11 1014 71 10000 4.6 10 11:20 05.10.2019
744 Clouds 10 1013 71 10000 4.6 10 10:57 05.10.2019
745 Clouds 10 1014 71 10000 4.6 10 10:57 05.10.2019
746 Clouds 10 1013 71 10000 4.6 10 10:38 05.10.2019
747 Clouds 10 1012 71 10000 5.7 360 10:20 05.10.2019
748 Clouds 10 1012 81 10000 3.6 340 09:41 05.10.2019
749 Clouds 10 1011 81 10000 2.6 320 09:23 05.10.2019
750 Clouds 9 1011 81 10000 3.1 320 08:43 05.10.2019
751 Clouds 9 1010 87 10000 2.6 340 08:24 05.10.2019
752 Clouds 9 1010 87 10000 2.6 340 07:59 05.10.2019
753 Clouds 10 1009 81 10000 4.6 320 07:40 05.10.2019
754 Rain 10 1009 76 10000 4.6 340 07:21 05.10.2019
755 Rain 10 1009 81 10000 4.6 340 06:56 05.10.2019
756 Rain 10 1008 87 10000 4.1 310 06:22 05.10.2019
757 Clouds 11 1007 87 10000 3.6 260 05:20 05.10.2019
758 Clouds 11 1007 87 10000 5.1 220 03:32 05.10.2019
759 Clouds 11 1007 87 10000 2.6 230 02:38 05.10.2019
760 Clouds 11 1007 93 10000 4.1 200 01:27 05.10.2019
761 Clouds 11 1007 87 10000 5.1 210 00:49 05.10.2019
762 Clouds 11 1007 87 10000 5.1 210 00:49 05.10.2019
763 Clouds 11 1007 87 10000 5.1 210 00:28 05.10.2019
764 Clouds 11 1007 87 10000 5.7 210 23:58 04.10.2019
765 Clouds 11 1007 87 10000 5.7 210 23:40 04.10.2019
766 Clouds 11 1007 87 10000 3.6 260 23:21 04.10.2019
767 Clouds 11 1006 87 10000 4.6 270 22:57 04.10.2019
768 Clouds 11 1006 87 10000 4.6 270 22:57 04.10.2019
769 Clouds 11 1006 87 10000 5.7 220 22:37 04.10.2019
770 Clouds 11 1006 93 10000 3.1 260 22:19 04.10.2019
771 Clouds 11 1006 93 10000 5.1 210 21:40 04.10.2019
772 Clouds 11 1006 87 10000 4.1 250 21:22 04.10.2019
773 Rain 11 1006 93 10000 3.1 220 20:59 04.10.2019
774 Rain 11 1006 93 10000 3.1 220 20:41 04.10.2019
775 Rain 11 1006 87 10000 2.6 270 20:23 04.10.2019
776 Rain 11 1005 93 10000 4.1 200 19:57 04.10.2019
777 Rain 11 1005 93 10000 4.1 200 19:39 04.10.2019
778 Rain 11 1005 93 10000 3.6 200 19:20 04.10.2019
779 Rain 11 1005 93 10000 3.1 190 18:56 04.10.2019
780 Rain 11 1005 93 10000 3.1 190 18:37 04.10.2019
781 Rain 11 1005 87 10000 4.35 221.89 18:18 04.10.2019
782 Rain 12 1005 93 10000 4.6 180 17:41 04.10.2019
783 Clouds 11 1005 87 10000 4.35 221.89 17:22 04.10.2019
784 Clouds 12 1005 93 10000 5.1 180 16:58 04.10.2019
785 Clouds 11 1005 93 10000 5.1 200 16:40 04.10.2019
786 Clouds 11 1005 93 10000 5.1 190 16:19 04.10.2019
787 Clouds 11 1005 93 10000 5.1 190 16:19 04.10.2019
788 Rain 11 1006 93 10000 3.6 190 15:58 04.10.2019
789 Rain 10 1006 93 10000 3.6 190 15:39 04.10.2019
790 Rain 10 1006 100 8000 4.1 180 15:20 04.10.2019
791 Drizzle 10 1006 100 8000 4.1 180 14:57 04.10.2019
792 Rain 9 1006 93 3000 4.6 190 14:39 04.10.2019
793 Rain 9 1007 93 3500 5.1 190 14:21 04.10.2019
794 Rain 9 1007 100 5000 4.6 180 13:45 04.10.2019
795 Rain 9 1007 100 3000 4.6 170 13:23 04.10.2019
796 Rain 9 1007 100 3000 4.6 170 12:58 04.10.2019
797 Rain 9 1008 93 2500 4.6 180 12:40 04.10.2019
798 Rain 9 1008 93 4400 5.7 190 12:21 04.10.2019
799 Rain 9 1008 87 8000 4.6 180 11:43 04.10.2019
800 Rain 9 1008 87 8000 4.6 180 11:43 04.10.2019
801 Rain 9 1008 87 8000 4.6 180 11:42 04.10.2019
802 Rain 9 1009 87 10000 4.6 190 11:22 04.10.2019
803 Rain 9 1009 81 10000 2.1 170 10:56 04.10.2019
804 Rain 9 1009 81 10000 2.1 170 10:37 04.10.2019
805 Rain 9 1010 87 10000 2.6 160 10:19 04.10.2019
806 Rain 9 1010 93 10000 1.5 170 09:43 04.10.2019
807 Clouds 9 1010 87 10000 2.6 80 09:25 04.10.2019
808 Clouds 8 1011 87 10000 1.5 120 08:46 04.10.2019
809 Clouds 8 1011 100 10000 0.5 0 08:27 04.10.2019
810 Rain 8 1011 100 10000 0.5 0 07:48 04.10.2019
811 Clouds 8 1012 100 10000 1 0 07:26 04.10.2019
812 Clouds 8 1012 100 10000 2.1 250 06:59 04.10.2019
813 Clouds 8 1012 100 10000 2.1 250 06:40 04.10.2019
814 Clouds 8 1012 100 10000 0.5 0 06:21 04.10.2019
815 Clear 8 1012 93 10000 1.5 180 05:21 04.10.2019
816 Clear 8 1013 93 10000 2.1 200 04:39 04.10.2019
817 Clear 8 1015 93 10000 1 190 03:32 04.10.2019
818 Clear 8 1015 93 10000 1 0 02:45 04.10.2019
819 -273 0 0 0 0 0 01:54 04.10.2019
820 Clear 8 1015 100 10000 0.5 0 01:54 04.10.2019
821 Clear 8 1015 100 10000 0.5 0 01:54 04.10.2019
822 Clear 8 1015 100 10000 0.5 0 01:54 04.10.2019
823 Clear 8 1015 100 10000 0.5 0 01:26 04.10.2019
824 Clouds 8 1016 100 10000 1 210 00:36 04.10.2019
825 Clouds 9 1016 100 10000 1 0 23:41 03.10.2019
826 Clouds 9 1016 93 10000 1.5 210 23:22 03.10.2019
827 Clouds 9 1017 87 10000 2.1 180 22:58 03.10.2019
828 Clouds 9 1017 87 10000 2.1 180 22:39 03.10.2019
829 Clouds 9 1017 87 10000 2.1 180 22:39 03.10.2019
830 Clouds 10 1017 93 10000 1 130 22:21 03.10.2019
831 Clouds 10 1017 93 10000 1 130 21:59 03.10.2019
832 Clear 10 1017 93 10000 1 0 21:40 03.10.2019
833 Clouds 10 1017 81 10000 1.82 255.117 21:21 03.10.2019
834 Clouds 10 1017 87 10000 2.1 230 20:58 03.10.2019
835 Clouds 10 1017 87 10000 2.1 230 20:40 03.10.2019
836 Rain 11 1017 87 10000 1.5 220 20:22 03.10.2019
837 Rain 11 1017 87 10000 1.5 220 19:59 03.10.2019
838 Rain 10 1017 87 10000 1.5 220 19:59 03.10.2019
839 Rain 11 1017 87 10000 1.5 220 19:40 03.10.2019
840 Rain 11 1017 87 10000 2.6 210 19:20 03.10.2019
841 Rain 11 1017 81 10000 3.6 230 18:57 03.10.2019
842 Rain 11 1017 81 10000 3.6 230 18:57 03.10.2019
843 Rain 11 1017 81 10000 3.6 230 18:38 03.10.2019
844 Rain 11 1017 81 10000 3.6 230 18:38 03.10.2019
845 Rain 12 1017 76 10000 4.6 230 18:19 03.10.2019
846 Rain 12 1017 81 10000 3.1 230 17:43 03.10.2019
847 Rain 12 1018 76 10000 3.1 250 17:23 03.10.2019
848 Rain 12 1018 66 10000 4.6 270 16:59 03.10.2019
849 Rain 12 1018 66 10000 4.6 270 16:40 03.10.2019
850 Rain 13 1018 67 10000 5.1 230 16:22 03.10.2019
851 Rain 13 1018 71 10000 4.6 240 15:55 03.10.2019
852 Rain 12 1018 71 10000 4.6 240 15:37 03.10.2019
853 Rain 12 1018 76 10000 4.6 260 15:18 03.10.2019
854 Rain 12 1018 76 10000 4.1 270 14:43 03.10.2019
855 Rain 13 1018 62 10000 4.6 270 14:24 03.10.2019
856 Rain 13 1019 71 10000 5.1 220 13:56 03.10.2019
857 Rain 12 1018 66 10000 3.6 230 13:56 03.10.2019
858 Rain 12 1019 71 10000 5.1 220 13:38 03.10.2019
859 Rain 13 1019 71 10000 5.1 220 13:38 03.10.2019
860 Clouds 13 1019 66 10000 4.6 260 13:19 03.10.2019
861 Clouds 12 1019 71 10000 5.7 230 12:55 03.10.2019
862 Clouds 12 1019 71 10000 5.7 230 12:55 03.10.2019
863 Clouds 12 1019 71 10000 5.7 230 12:36 03.10.2019
864 Clouds 12 1019 66 10000 4.1 250 12:18 03.10.2019
865 Clouds 11 1019 76 10000 4.6 220 11:41 03.10.2019
866 Clouds 11 1019 71 10000 5.1 250 11:22 03.10.2019
867 Clouds 11 1019 71 10000 5.1 250 10:58 03.10.2019
868 Clouds 11 1020 71 10000 4.6 260 10:40 03.10.2019
869 Clouds 10 1019 71 10000 4.6 240 10:19 03.10.2019
870 Clouds 10 1019 76 10000 4.6 220 09:58 03.10.2019
871 Clouds 9 1019 76 10000 4.6 220 09:39 03.10.2019
872 Clouds 9 1019 81 10000 5.7 230 09:20 03.10.2019
873 Clouds 8 1019 76 10000 5.7 240 08:45 03.10.2019
874 Clouds 8 1018 81 10000 5.1 230 08:27 03.10.2019
875 Clouds 8 1018 81 10000 5.1 230 07:57 03.10.2019
876 Clouds 8 1018 81 10000 5.1 220 07:39 03.10.2019
877 Clouds 8 1018 81 10000 4.6 200 07:19 03.10.2019
878 Clouds 8 1018 76 10000 5.7 210 06:47 03.10.2019
879 Clouds 7 1018 81 10000 5.1 210 06:24 03.10.2019
880 Clouds 7 1017 81 10000 4.6 210 05:44 03.10.2019
881 Clouds 8 1018 81 10000 3.1 280 05:19 03.10.2019
882 Clouds 8 1018 81 10000 4.1 200 04:27 03.10.2019
883 Clouds 8 1018 81 10000 4.1 210 03:24 03.10.2019
884 Clouds 8 1018 81 10000 3.6 210 02:39 03.10.2019
885 Clouds 8 1018 81 10000 3.6 220 01:52 03.10.2019
886 Clouds 8 1018 81 10000 3.6 220 01:33 03.10.2019
887 Clouds 8 1018 81 10000 2.6 230 00:49 03.10.2019
888 Clouds 7 1018 76 10000 3.1 230 00:19 03.10.2019
889 Clouds 8 1017 81 10000 3.6 220 23:43 02.10.2019
890 Clouds 8 1017 81 10000 3.6 240 23:22 02.10.2019
891 Clouds 8 1017 76 10000 3.6 230 22:46 02.10.2019
892 Clouds 8 1016 71 10000 4.1 260 22:23 02.10.2019
893 Clouds 9 1016 71 10000 4.1 260 21:58 02.10.2019
894 Clouds 9 1016 71 10000 4.1 260 21:58 02.10.2019
895 Clear 9 1016 66 10000 4.1 290 21:39 02.10.2019
896 Clear 10 1015 62 10000 4.6 290 21:20 02.10.2019
897 Clear 10 1015 62 10000 4.6 290 20:57 02.10.2019
898 Clouds 10 1014 62 10000 4.6 300 20:39 02.10.2019
899 Clouds 10 1014 62 10000 5.7 300 20:20 02.10.2019
900 Clouds 10 1014 62 10000 5.7 300 19:57 02.10.2019
901 Clouds 10 1013 58 10000 3.6 280 19:39 02.10.2019
902 Clouds 11 1013 54 10000 4.6 290 19:21 02.10.2019
903 Rain 11 1012 54 10000 6.7 290 18:57 02.10.2019
904 Rain 12 1012 54 10000 6.7 290 18:38 02.10.2019
905 Rain 13 1012 50 10000 5.1 330 18:20 02.10.2019
906 Rain 13 1012 44 10000 5.7 310 17:56 02.10.2019
907 Rain 13 1012 44 10000 5.7 310 17:37 02.10.2019
908 Rain 13 1011 48 10000 5.7 320 17:19 02.10.2019
909 Rain 14 1011 47 10000 5.7 280 16:42 02.10.2019
910 Clouds 14 1011 50 10000 6.7 300 16:22 02.10.2019
911 Clouds 14 1010 50 10000 5.1 320 15:59 02.10.2019
912 Clouds 14 1010 54 10000 3.1 320 15:40 02.10.2019
913 Clouds 13 1010 54 10000 3.1 320 15:22 02.10.2019
914 Clouds 13 1010 62 10000 2.6 0 14:57 02.10.2019
915 Clouds 13 1010 62 10000 4.6 310 14:39 02.10.2019
916 Clouds 13 1010 62 10000 4.6 310 14:20 02.10.2019
917 Clouds 13 1010 58 10000 4.6 340 13:45 02.10.2019
918 Clouds 13 1010 66 10000 5.7 320 13:25 02.10.2019
919 Rain 12 1009 66 10000 4.1 340 12:58 02.10.2019
920 Rain 12 1009 66 10000 6.7 350 12:37 02.10.2019
921 Clouds 12 1009 66 10000 6.7 350 12:19 02.10.2019
922 Rain 12 1007 76 10000 5.1 360 11:44 02.10.2019
923 Rain 11 1007 76 10000 5.1 360 11:23 02.10.2019
924 Rain 11 1007 81 10000 4.6 330 10:42 02.10.2019
925 Rain 12 1006 82 10000 6.7 320 10:20 02.10.2019
926 Rain 12 1005 82 10000 7.7 300 09:59 02.10.2019
927 Rain 12 1005 82 10000 4.1 330 09:38 02.10.2019
928 Rain 13 1004 87 10000 6.2 260 09:20 02.10.2019
929 Rain 13 1003 87 10000 3.6 240 08:45 02.10.2019
930 Rain 13 1002 87 10000 5.7 250 08:25 02.10.2019
931 Rain 13 1002 87 10000 4.6 230 07:59 02.10.2019
932 Rain 13 1002 87 10000 4.1 280 07:39 02.10.2019
933 Clouds 13 1002 87 10000 4.6 220 07:20 02.10.2019
934 Clouds 13 1002 87 10000 4.6 220 07:20 02.10.2019
935 Clouds 14 1001 87 10000 5.7 230 06:40 02.10.2019
936 Rain 14 1001 93 10000 5.7 210 05:55 02.10.2019
937 Rain 14 1001 93 10000 5.7 210 05:55 02.10.2019
938 Rain 14 1002 87 10000 3.1 260 05:24 02.10.2019
939 Clouds 14 1001 87 10000 5.1 210 04:53 02.10.2019
940 Clouds 14 1001 93 10000 4.1 210 03:52 02.10.2019
941 Clouds 14 1002 93 10000 3.1 190 02:42 02.10.2019
942 Clouds 14 1002 93 10000 3.6 190 02:23 02.10.2019
943 Clouds 15 1002 93 10000 3.6 190 01:40 02.10.2019
944 Clouds 15 1002 93 10000 4.1 190 00:50 02.10.2019
945 Clouds 14 1001 93 10000 4.6 190 00:27 02.10.2019
946 Clouds 15 1002 93 10000 5.7 200 23:44 01.10.2019
947 Clouds 15 1002 93 10000 4.1 190 23:25 01.10.2019
948 Clouds 15 1002 87 10000 3.1 220 22:59 01.10.2019
949 Clouds 15 1002 93 10000 4.6 180 22:40 01.10.2019
950 Clouds 15 1002 93 10000 4.6 180 22:20 01.10.2019
951 Clouds 15 1002 93 10000 4.6 180 21:58 01.10.2019
952 Clouds 15 1002 93 10000 4.6 190 21:40 01.10.2019
953 Clouds 15 1002 93 10000 4.6 190 21:22 01.10.2019
954 Clouds 15 1002 93 10000 5.1 180 20:57 01.10.2019
955 Rain 15 1002 93 10000 4.6 180 20:38 01.10.2019
956 Rain 15 1002 93 10000 4.6 180 20:20 01.10.2019
957 Rain 16 1002 100 10000 4.1 190 19:56 01.10.2019
958 Rain 16 1002 93 8000 5.1 190 19:38 01.10.2019
959 Rain 16 1002 88 10000 4.1 230 19:19 01.10.2019
960 Rain 17 1003 88 10000 3.6 230 18:41 01.10.2019
961 Rain 17 1002 93 10000 3.1 190 18:22 01.10.2019
962 Rain 17 1002 93 10000 4.1 170 17:59 01.10.2019
963 Rain 17 1003 77 10000 4.6 170 17:40 01.10.2019
964 Rain 18 1003 77 10000 4.6 170 17:20 01.10.2019
965 Clouds 18 1003 77 10000 5.1 220 16:58 01.10.2019
966 Clouds 18 1003 72 10000 6.2 250 16:40 01.10.2019
967 Clouds 19 1003 72 10000 7.2 230 16:21 01.10.2019
968 Clouds 19 1003 72 10000 6.7 210 15:47 01.10.2019
969 Clouds 18 1004 77 10000 8.7 210 15:24 01.10.2019
970 Clouds 18 1004 72 10000 6.7 210 14:56 01.10.2019
971 Clouds 18 1004 77 10000 5.1 230 14:37 01.10.2019
972 Clouds 18 1004 77 10000 6.7 220 14:19 01.10.2019
973 Clouds 17 1005 77 10000 6.2 210 13:55 01.10.2019
974 -273 0 0 0 0 0 13:54 01.10.2019
975 Clouds 17 1005 77 10000 6.2 210 13:54 01.10.2019
976 Clouds 17 1005 77 10000 7.7 220 13:36 01.10.2019
977 Clouds 17 1005 77 10000 7.7 220 13:18 01.10.2019
978 Clouds 17 1005 82 10000 6.7 230 12:42 01.10.2019
979 Clouds 16 1005 77 10000 7.7 220 12:20 01.10.2019
980 Clouds 16 1005 82 10000 4.1 190 11:58 01.10.2019
981 Clouds 15 1006 82 10000 5.1 200 11:39 01.10.2019
982 -273 0 0 0 0 0 11:19 01.10.2019
983 Clouds 15 1006 82 10000 5.1 200 11:19 01.10.2019
984 Clouds 15 1006 87 10000 5.1 200 10:59 01.10.2019
985 Clouds 15 1006 87 10000 5.1 200 10:41 01.10.2019
986 Clouds 14 1006 82 10000 5.1 210 10:23 01.10.2019
987 Clouds 14 1006 87 10000 3.1 250 09:43 01.10.2019
988 Clouds 13 1006 82 10000 3.6 190 09:25 01.10.2019
989 Clouds 13 1006 82 10000 4.1 200 08:43 01.10.2019
990 Clouds 13 1006 82 10000 5.1 190 08:25 01.10.2019
991 Clouds 12 1006 82 10000 4.6 190 07:49 01.10.2019
992 Rain 12 1007 82 10000 4.1 200 07:26 01.10.2019
993 Rain 12 1007 87 10000 4.1 190 06:50 01.10.2019
994 Rain 12 1008 87 10000 4.6 190 06:25 01.10.2019
995 Rain 12 1008 87 10000 4.1 190 05:46 01.10.2019
996 Rain 12 1008 87 10000 4.1 190 05:46 01.10.2019
997 Clouds 12 1009 87 10000 2.6 190 05:20 01.10.2019
998 Clear 12 1010 93 10000 1.5 230 04:35 01.10.2019
999 Clear 12 1010 93 10000 1.5 230 04:35 01.10.2019
1000 Clear 12 1011 93 10000 1 300 03:32 01.10.2019
1001 Clouds 11 1011 93 10000 1 0 02:18 01.10.2019
1002 Clouds 11 1012 87 10000 1 220 01:41 01.10.2019
1003 Clear 12 1012 82 10000 3.1 180 00:42 01.10.2019
1004 Clear 12 1012 82 10000 3.1 180 00:24 01.10.2019
1005 Clear 12 1013 82 10000 2.6 180 23:41 30.09.2019
1006 Clear 12 1013 82 10000 2.6 180 23:41 30.09.2019
1007 Clear 12 1013 82 10000 2.6 180 23:22 30.09.2019
1008 Clear 12 1013 82 10000 3.1 180 22:55 30.09.2019
1009 Clear 12 1013 76 10000 2.6 170 22:37 30.09.2019
1010 Clear 12 1013 76 10000 2.6 170 22:19 30.09.2019
1011 Clear 13 1013 77 10000 2.6 210 21:55 30.09.2019
1012 Clear 13 1013 77 10000 4.6 240 21:36 30.09.2019
1013 Clear 14 1013 77 10000 4.6 240 21:18 30.09.2019
1014 Clouds 14 1013 77 10000 6.2 230 20:54 30.09.2019
1015 Clouds 14 1013 72 10000 6.2 220 20:36 30.09.2019
1016 Clouds 14 1013 72 10000 6.2 220 20:18 30.09.2019
1017 Clouds 15 1013 67 10000 5.7 220 19:41 30.09.2019
1018 Clouds 15 1013 63 10000 5.7 220 19:20 30.09.2019
1019 Clouds 16 1013 59 10000 4.1 230 18:58 30.09.2019
1020 Clouds 16 1013 52 10000 5.1 230 18:40 30.09.2019
1021 Clouds 17 1013 52 10000 5.1 230 18:20 30.09.2019
1022 Clouds 17 1013 52 10000 6.2 250 17:56 30.09.2019
1023 -273 0 0 0 0 0 17:38 30.09.2019
1024 Clouds 17 1013 48 10000 5.7 250 17:19 30.09.2019
1025 Clouds 17 1013 52 10000 5.1 240 16:42 30.09.2019
1026 Clouds 17 1013 52 10000 5.1 240 16:20 30.09.2019
1027 Clouds 17 1013 52 10000 5.1 240 16:20 30.09.2019
1028 Clouds 17 1013 52 10000 4.6 260 15:59 30.09.2019
1029 Clouds 17 1013 55 10000 5.1 250 15:39 30.09.2019
1030 Clouds 17 1013 55 10000 5.1 250 15:20 30.09.2019
1031 Clouds 17 1013 55 10000 6.2 250 14:58 30.09.2019
1032 Clouds 17 1013 55 10000 7.7 240 14:38 30.09.2019
1033 Clouds 17 1013 55 10000 7.7 240 14:19 30.09.2019
1034 Clouds 17 1013 59 10000 6.7 240 13:59 30.09.2019
1035 Clouds 17 1013 59 10000 6.7 240 13:41 30.09.2019
1036 Clouds 17 1013 59 10000 7.2 250 13:22 30.09.2019
1037 Clouds 17 1013 59 10000 7.7 240 12:56 30.09.2019
1038 Clouds 16 1012 59 10000 6.2 250 12:38 30.09.2019
1039 Clouds 16 1012 59 10000 6.2 250 12:18 30.09.2019
1040 Rain 16 1012 63 10000 8.7 250 11:43 30.09.2019
1041 Rain 15 1012 63 10000 8.7 250 11:21 30.09.2019
1042 Rain 15 1011 67 10000 7.2 240 10:58 30.09.2019
1043 Clouds 15 1011 67 10000 7.7 250 10:38 30.09.2019
1044 Clouds 15 1011 67 10000 7.7 250 10:18 30.09.2019
1045 Clouds 15 1010 67 10000 7.2 240 09:58 30.09.2019
1046 Clouds 14 1010 67 10000 8.2 240 09:39 30.09.2019
1047 Clouds 14 1010 67 10000 8.2 240 09:19 30.09.2019
1048 Rain 14 1009 67 10000 8.2 250 08:46 30.09.2019
1049 Rain 14 1008 76 10000 8.2 240 08:27 30.09.2019
1050 Rain 14 1007 87 10000 6.2 280 07:44 30.09.2019
1051 Rain 14 1007 77 10000 8.7 230 07:25 30.09.2019
1052 Rain 14 1006 77 10000 7.7 230 06:50 30.09.2019
1053 Rain 14 1006 77 10000 8.7 220 06:31 30.09.2019
1054 Rain 14 1005 72 10000 10.8 230 05:46 30.09.2019
1055 Clouds 15 1003 72 10000 9.3 240 03:33 30.09.2019
1056 Clouds 15 1002 72 10000 9.8 230 02:45 30.09.2019
1057 Clouds 16 1000 77 10000 8.7 240 01:33 30.09.2019
1058 Rain 16 1000 87 10000 10.3 240 00:42 30.09.2019
1059 Rain 16 1000 88 4800 6.2 210 00:21 30.09.2019
1060 Rain 16 999 82 10000 7.2 250 23:45 29.09.2019
1061 Rain 16 1000 88 9000 8.2 200 23:23 29.09.2019
1062 Drizzle 16 1000 77 10000 7.2 210 22:55 29.09.2019
1063 Rain 16 1000 88 10000 7.7 200 22:37 29.09.2019
1064 Rain 16 1000 93 10000 3.6 240 22:19 29.09.2019
1065 Rain 16 1000 82 10000 6.2 210 21:57 29.09.2019
1066 Rain 16 1001 87 10000 2.1 260 21:37 29.09.2019
1067 Rain 16 1001 87 10000 2.1 260 21:19 29.09.2019
1068 Rain 16 1001 87 10000 7.7 200 20:44 29.09.2019
1069 Rain 16 1001 82 10000 5.1 210 20:20 29.09.2019
1070 Clouds 17 1002 87 10000 3.6 200 19:59 29.09.2019
1071 Rain 17 1002 82 10000 2.6 250 19:38 29.09.2019
1072 Rain 17 1003 82 10000 7.2 240 19:19 29.09.2019
1073 Rain 17 1003 68 10000 6.7 210 18:56 29.09.2019
1074 Rain 17 1003 72 10000 6.2 250 18:38 29.09.2019
1075 Rain 17 1003 72 10000 6.2 250 18:38 29.09.2019
1076 Rain 17 1003 68 10000 6.2 210 18:19 29.09.2019
1077 Rain 17 1003 68 10000 6.2 210 18:19 29.09.2019
1078 Rain 17 1003 68 10000 8.2 210 17:58 29.09.2019
1079 Rain 18 1004 77 10000 5.7 240 17:40 29.09.2019
1080 Rain 18 1004 72 10000 8.2 210 17:20 29.09.2019
1081 Clouds 18 1004 77 10000 5.1 230 16:59 29.09.2019
1082 Rain 18 1004 72 10000 6.2 240 16:40 29.09.2019
1083 Rain 18 1004 77 10000 7.2 220 16:19 29.09.2019
1084 Rain 17 1005 68 10000 5.1 210 15:57 29.09.2019
1085 Clouds 17 1005 77 10000 4.6 210 15:37 29.09.2019
1086 Clouds 17 1005 77 10000 4.6 210 15:18 29.09.2019
1087 Rain 18 1005 59 10000 7.2 200 14:55 29.09.2019
1088 Rain 18 1005 55 10000 5.7 240 14:37 29.09.2019
1089 Clouds 18 1006 59 10000 8.2 210 14:18 29.09.2019
1090 -273 0 0 0 0 0 13:55 29.09.2019
1091 Clouds 18 1006 59 10000 9.3 220 13:55 29.09.2019
1092 Clouds 18 1007 56 10000 10.8 220 13:36 29.09.2019
1093 Clouds 18 1007 56 10000 10.8 220 13:18 29.09.2019
1094 Clouds 18 1007 63 10000 6.2 190 12:55 29.09.2019
1095 Clouds 18 1007 63 10000 6.2 190 12:55 29.09.2019
1096 Clouds 18 1008 63 10000 9.3 210 12:37 29.09.2019
1097 Clouds 18 1008 59 10000 7.7 230 12:18 29.09.2019
1098 Clouds 17 1009 67 10000 6.7 200 11:41 29.09.2019
1099 Clouds 17 1009 67 10000 6.7 200 11:19 29.09.2019
1100 Clouds 16 1009 67 10000 5.7 200 10:58 29.09.2019
1101 Clouds 16 1009 72 10000 5.7 190 10:39 29.09.2019
1102 Clouds 15 1009 72 10000 5.7 190 10:20 29.09.2019
1103 Clouds 14 1009 76 10000 5.1 190 09:57 29.09.2019
1104 Clouds 14 1009 76 10000 5.1 190 09:38 29.09.2019
1105 Clouds 14 1009 76 10000 5.1 190 09:19 29.09.2019
1106 Clouds 13 1010 82 10000 5.1 190 08:43 29.09.2019
1107 Clouds 13 1010 82 10000 5.1 190 08:22 29.09.2019
1108 Clouds 12 1011 82 10000 5.1 190 07:44 29.09.2019
1109 Clouds 12 1011 82 10000 5.1 190 07:44 29.09.2019
1110 Clear 13 1011 82 10000 5.7 190 07:26 29.09.2019
1111 Clear 12 1011 87 10000 3.6 190 06:50 29.09.2019
1112 Clear 12 1012 93 10000 2.1 180 06:22 29.09.2019
1113 Clear 12 1013 87 10000 2.1 190 04:52 29.09.2019
1114 Clear 12 1013 82 10000 2.1 190 04:24 29.09.2019
1115 Clouds 13 1014 82 10000 3.1 180 03:42 29.09.2019
1116 Clear 13 1014 82 10000 4.6 200 02:19 29.09.2019
1117 Clear 13 1014 82 10000 4.6 200 02:19 29.09.2019
1118 Clear 13 1015 82 10000 5.7 200 01:45 29.09.2019
1119 Clear 13 1015 82 10000 4.1 190 01:20 29.09.2019
1120 Clear 13 1015 82 10000 4.1 190 00:41 29.09.2019
1121 Clear 13 1015 82 10000 4.1 190 00:19 29.09.2019
1122 Clear 13 1015 76 10000 4.6 190 23:39 28.09.2019
1123 Clear 13 1015 76 10000 4.6 190 23:39 28.09.2019
1124 Clear 13 1015 76 10000 4.6 190 23:21 28.09.2019
1125 Clouds 14 1015 67 10000 5.7 220 22:41 28.09.2019
1126 Clouds 14 1015 67 10000 5.7 220 22:23 28.09.2019
1127 Clouds 14 1015 67 10000 5.7 220 21:59 28.09.2019
1128 Clouds 14 1015 67 10000 5.1 210 21:40 28.09.2019
1129 Clouds 14 1015 67 10000 5.1 210 21:21 28.09.2019
1130 Clouds 14 1015 67 10000 4.1 200 20:59 28.09.2019
1131 Clouds 15 1015 67 10000 6.2 210 20:41 28.09.2019
1132 Clouds 15 1015 67 10000 6.2 210 20:21 28.09.2019
1133 Clouds 15 1015 63 10000 6.2 220 19:58 28.09.2019
1134 Clouds 15 1015 63 10000 7.2 230 19:40 28.09.2019
1135 Clouds 16 1015 63 10000 7.2 230 19:22 28.09.2019
1136 Clouds 16 1015 67 10000 7.2 230 18:58 28.09.2019
1137 Clouds 16 1015 63 10000 7.7 220 18:40 28.09.2019
1138 Clouds 17 1015 63 10000 7.7 220 18:21 28.09.2019
1139 Clouds 17 1015 63 10000 7.7 220 18:21 28.09.2019
1140 Clouds 17 1015 63 10000 7.7 220 18:21 28.09.2019
1141 Rain 17 1015 59 10000 8.2 230 17:57 28.09.2019
1142 Clouds 17 1015 63 10000 6.2 220 17:39 28.09.2019
1143 Clouds 17 1015 63 10000 6.2 220 17:21 28.09.2019
1144 Clouds 17 1015 59 10000 7.2 230 16:48 28.09.2019
1145 Clouds 17 1015 63 10000 9.8 230 16:28 28.09.2019
1146 Clouds 18 1015 63 10000 8.2 230 15:59 28.09.2019
1147 Clouds 17 1015 59 10000 8.7 240 15:39 28.09.2019
1148 Clouds 17 1015 59 10000 8.7 240 15:21 28.09.2019
1149 Clouds 17 1015 59 10000 9.3 220 14:54 28.09.2019
1150 Clouds 17 1015 59 10000 8.7 230 14:36 28.09.2019
1151 Clouds 17 1015 59 10000 9.8 250 14:18 28.09.2019
1152 Clouds 17 1015 59 10000 9.8 250 14:18 28.09.2019
1153 Clouds 17 1015 59 10000 7.7 220 13:43 28.09.2019
1154 Clouds 17 1015 63 10000 8.7 220 13:20 28.09.2019
1155 Clouds 17 1015 67 10000 6.7 210 12:55 28.09.2019
1156 Clouds 16 1015 72 10000 6.2 220 12:36 28.09.2019
1157 Clouds 16 1015 72 10000 6.2 220 12:18 28.09.2019
1158 Rain 16 1015 77 10000 6.7 210 11:40 28.09.2019
1159 Rain 15 1015 77 10000 6.7 210 11:20 28.09.2019
1160 Rain 15 1015 77 10000 7.7 210 10:56 28.09.2019
1161 Clouds 15 1015 82 10000 6.2 240 10:38 28.09.2019
1162 Clouds 15 1015 82 10000 5.1 190 10:18 28.09.2019
1163 Rain 14 1014 87 10000 4.6 190 09:41 28.09.2019
1164 Rain 14 1014 87 10000 5.1 180 09:20 28.09.2019
1165 Clouds 14 1014 87 10000 4.6 190 08:48 28.09.2019
1166 Clouds 13 1014 87 10000 4.6 190 08:29 28.09.2019
1167 Clouds 13 1014 93 10000 3.6 190 07:59 28.09.2019
1168 Clouds 13 1014 93 10000 4.6 200 07:41 28.09.2019
1169 Clouds 13 1014 100 10000 4.6 235.94 07:19 28.09.2019
1170 Clouds 13 1013 100 10000 3.6 190 06:41 28.09.2019
1171 Clouds 13 1013 100 10000 2.6 190 06:21 28.09.2019
1172 Clouds 13 1014 100 10000 1.5 30 05:41 28.09.2019
1173 Clouds 13 1014 100 10000 1.5 30 05:19 28.09.2019
1174 Rain 13 994 88 0 3.71 236.541 04:36 28.09.2019
1175 Rain 12 1006 92 0 3.71 236.541 03:42 28.09.2019
1176 Mist 12 1013 93 9000 3.55 228.811 03:20 28.09.2019
1177 Clouds 12 1013 100 10000 0.5 0 02:42 28.09.2019
1178 Clouds 12 1013 100 10000 0.5 0 02:23 28.09.2019
1179 Clouds 12 1013 100 10000 2.1 180 01:45 28.09.2019
1180 Clouds 12 1013 93 10000 2.1 190 01:24 28.09.2019
1181 Clouds 12 1013 93 10000 3.1 180 00:49 28.09.2019
1182 Clouds 12 1013 93 10000 3.1 180 00:49 28.09.2019
1183 Clouds 12 1013 93 10000 2.1 210 00:30 28.09.2019
1184 Clouds 12 1013 93 10000 3.11 225.039 23:41 27.09.2019
1185 Clouds 12 1013 93 10000 1.5 160 23:22 27.09.2019
1186 Clouds 13 1013 100 10000 2.1 0 22:59 27.09.2019
1187 Clouds 13 1013 93 10000 1.5 120 22:41 27.09.2019
1188 Clouds 13 1013 93 10000 1.5 120 22:19 27.09.2019
1189 Clouds 13 1013 93 10000 1.5 120 22:19 27.09.2019
1190 Clouds 13 1013 93 10000 1.5 170 21:55 27.09.2019
1191 Clouds 13 1012 93 10000 3.1 190 21:36 27.09.2019
1192 Clouds 13 1012 93 10000 3.1 190 21:18 27.09.2019
1193 Clouds 14 1012 87 10000 4.1 200 20:55 27.09.2019
1194 Clouds 14 1012 87 10000 4.6 190 20:36 27.09.2019
1195 Clouds 14 1012 87 10000 4.6 190 20:18 27.09.2019
1196 Clouds 14 1011 82 10000 4.6 200 19:42 27.09.2019
1197 Clouds 14 1011 82 10000 4.6 200 19:23 27.09.2019
1198 Clouds 15 1011 82 10000 3.6 200 18:57 27.09.2019
1199 Clouds 15 1011 82 10000 4.6 210 18:38 27.09.2019
1200 Clouds 16 1011 82 10000 4.6 210 18:20 27.09.2019
1201 Clouds 16 1011 82 10000 4.6 210 18:20 27.09.2019
1202 Clouds 16 1011 87 10000 4.1 210 17:54 27.09.2019
1203 Clouds 16 1011 87 10000 4.6 190 17:36 27.09.2019
1204 Clouds 16 1011 87 10000 4.6 190 17:18 27.09.2019
1205 Rain 16 1011 93 10000 6.2 200 16:54 27.09.2019
1206 Clouds 16 1011 93 10000 7.2 210 16:36 27.09.2019
1207 Clouds 16 1011 93 10000 7.2 210 16:18 27.09.2019
1208 Rain 16 1012 87 10000 5.7 230 15:42 27.09.2019
1209 Rain 16 1011 93 10000 4.1 200 15:20 27.09.2019
1210 Rain 16 1011 87 10000 4.6 190 14:56 27.09.2019
1211 Rain 15 1012 93 10000 5.1 200 14:38 27.09.2019
1212 Rain 15 1012 93 10000 5.1 200 14:38 27.09.2019
1213 Rain 15 1012 93 10000 5.1 200 14:18 27.09.2019
1214 Rain 15 1011 93 10000 4.1 200 13:57 27.09.2019
1215 Rain 15 1011 93 10000 3.1 200 13:38 27.09.2019
1216 Rain 15 1011 93 10000 3.1 200 13:19 27.09.2019
1217 Rain 15 1011 93 10000 5.1 210 12:44 27.09.2019
1218 Rain 15 1011 93 10000 5.1 210 12:22 27.09.2019
1219 Drizzle 15 1011 87 10000 6.2 220 11:55 27.09.2019
1220 Rain 15 1011 93 10000 2.6 230 11:37 27.09.2019
1221 Rain 15 1011 93 10000 2.6 230 11:19 27.09.2019
1222 Rain 15 1012 93 10000 3.6 250 10:41 27.09.2019
1223 Rain 15 1011 100 7000 3.6 240 10:21 27.09.2019
1224 Rain 15 1012 93 10000 3.1 250 09:56 27.09.2019
1225 Rain 15 1012 93 10000 3.1 250 09:56 27.09.2019
1226 Rain 15 1012 93 10000 3.1 250 09:37 27.09.2019
1227 Rain 15 1011 100 9000 7.2 270 09:18 27.09.2019
1228 Rain 15 1011 93 10000 3.1 200 08:41 27.09.2019
1229 Rain 15 1011 93 10000 3.1 200 08:21 27.09.2019
1230 Rain 15 1011 93 10000 3.1 200 08:21 27.09.2019
1231 Rain 15 1011 93 10000 3.1 200 08:20 27.09.2019
1232 Rain 15 1011 100 10000 1.5 250 07:49 27.09.2019
1233 Rain 15 1011 93 10000 1.5 270 07:26 27.09.2019
1234 Rain 15 1011 93 10000 2.1 220 06:46 27.09.2019
1235 Rain 15 1011 93 10000 4.1 180 06:28 27.09.2019
1236 Rain 15 1011 93 10000 4.6 170 05:54 27.09.2019
1237 Rain 15 1011 93 10000 4.6 170 05:54 27.09.2019
1238 Rain 15 1011 93 10000 5.1 180 05:33 27.09.2019
1239 Rain 16 1011 82 10000 5.1 190 04:52 27.09.2019
1240 Rain 16 1012 87 10000 3.6 190 03:38 27.09.2019
1241 Clouds 16 1012 93 10000 4.1 190 01:56 27.09.2019
1242 Rain 16 1012 93 10000 4.1 180 01:30 27.09.2019
1243 Rain 16 1013 93 10000 4.6 210 00:41 27.09.2019
1244 Rain 16 1013 88 10000 2.6 220 23:57 26.09.2019
1245 Rain 16 1013 82 10000 4.6 200 23:39 26.09.2019
1246 Rain 16 1013 82 10000 4.6 200 23:20 26.09.2019
1247 Rain 16 1013 82 10000 3.6 190 22:58 26.09.2019
1248 Clouds 16 1013 87 10000 4.1 190 22:40 26.09.2019
1249 Clouds 16 1013 87 10000 4.1 190 22:18 26.09.2019
1250 Clouds 16 1012 93 10000 3.6 180 21:59 26.09.2019
1251 Clouds 16 1012 88 10000 4.6 200 21:38 26.09.2019
1252 Clouds 16 1012 88 10000 4.6 200 21:19 26.09.2019
1253 Clouds 16 1012 93 10000 4.6 180 20:58 26.09.2019
1254 Clouds 16 1012 93 10000 4.6 180 20:58 26.09.2019
1255 Clouds 16 1012 93 10000 2.6 200 20:40 26.09.2019
1256 Clouds 16 1012 93 10000 4.1 180 20:21 26.09.2019
1257 Rain 16 1012 93 10000 4.6 180 19:59 26.09.2019
1258 Rain 16 1012 93 10000 3.6 190 19:40 26.09.2019
1259 Rain 17 1012 93 10000 4.1 180 19:18 26.09.2019
1260 Rain 17 1012 93 10000 2.6 200 18:57 26.09.2019
1261 Rain 17 1012 93 10000 4.1 180 18:37 26.09.2019
1262 Rain 17 1012 93 10000 4.1 180 18:19 26.09.2019
1263 Rain 17 1012 93 10000 4.6 180 17:38 26.09.2019
1264 Rain 17 1012 93 10000 4.6 180 17:38 26.09.2019
1265 Rain 17 1012 93 10000 4.6 180 17:19 26.09.2019
1266 Rain 17 1012 82 10000 3.1 210 16:58 26.09.2019
1267 Clouds 17 1012 88 10000 4.6 170 16:39 26.09.2019
1268 Clouds 17 1012 88 10000 4.6 170 16:20 26.09.2019
1269 Clouds 17 1012 93 10000 4.1 180 15:57 26.09.2019
1270 Clouds 17 1012 93 10000 3.6 180 15:37 26.09.2019
1271 Clouds 17 1012 93 10000 3.6 180 15:18 26.09.2019
1272 Rain 17 1012 100 8000 3.6 230 15:18 26.09.2019
1273 Rain 17 1012 93 10000 4.6 180 14:55 26.09.2019
1274 Rain 16 1012 93 10000 4.6 180 14:36 26.09.2019
1275 Rain 16 1012 93 10000 4.6 180 14:18 26.09.2019
1276 Drizzle 16 1012 100 6000 4.1 190 13:40 26.09.2019
1277 Drizzle 16 1012 100 6000 4.1 190 13:20 26.09.2019
1278 Rain 16 1012 93 9000 4.1 180 12:56 26.09.2019
1279 Rain 15 1013 100 10000 3.1 180 12:38 26.09.2019
1280 Rain 15 1013 100 6000 3.6 180 12:20 26.09.2019
1281 Rain 15 1012 100 3200 3.6 180 11:42 26.09.2019
1282 Rain 15 1012 100 3200 3.6 180 11:22 26.09.2019
1283 Drizzle 15 1012 93 4000 3.1 180 10:56 26.09.2019
1284 Rain 15 1012 87 10000 4.1 180 10:38 26.09.2019
1285 Rain 15 1012 87 10000 4.1 180 10:20 26.09.2019
1286 Rain 15 1012 93 10000 3.6 190 09:44 26.09.2019
1287 Clouds 14 1011 87 10000 3.6 180 09:26 26.09.2019
1288 Clouds 14 1012 93 10000 2.6 200 08:58 26.09.2019
1289 Clouds 14 1012 93 10000 2.6 200 08:40 26.09.2019
1290 Clouds 14 1012 93 10000 1.92 191.838 08:22 26.09.2019
1291 Clouds 14 1011 93 10000 2.6 180 07:44 26.09.2019
1292 Clouds 14 1011 100 10000 2.6 0 07:22 26.09.2019
1293 Clouds 14 1010 93 10000 3.1 190 06:50 26.09.2019
1294 Clouds 13 1010 93 10000 3.1 180 06:27 26.09.2019
1295 Clouds 13 1010 93 10000 3.6 180 05:51 26.09.2019
1296 Clouds 13 1011 100 10000 1.5 90 05:25 26.09.2019
1297 Clouds 14 1010 93 10000 2.6 190 03:18 26.09.2019
1298 Clouds 14 1010 93 10000 2.6 190 01:55 26.09.2019
1299 Clouds 14 1010 93 10000 2.6 190 01:55 26.09.2019
1300 Clouds 14 1010 100 10000 3.1 190 01:37 26.09.2019
1301 Clouds 14 1010 100 10000 3.1 190 01:19 26.09.2019
1302 Rain 14 1010 100 10000 2.1 190 00:41 26.09.2019
1303 Rain 14 1009 100 10000 3.6 190 00:21 26.09.2019
1304 Clouds 14 1010 93 10000 2.1 190 23:43 25.09.2019
1305 Rain 14 1010 93 10000 2.1 200 23:19 25.09.2019
1306 Clouds 14 1009 93 10000 2.1 200 22:54 25.09.2019
1307 Clouds 14 1009 93 10000 2.6 190 22:36 25.09.2019
1308 Clouds 14 1009 93 10000 2.6 190 22:18 25.09.2019
1309 Clouds 14 1009 93 10000 3.6 180 21:55 25.09.2019
1310 Clouds 14 1009 82 10000 3.6 200 21:36 25.09.2019
1311 Clouds 14 1009 82 10000 3.6 200 21:18 25.09.2019
1312 Clouds 14 1009 82 10000 3.6 190 20:55 25.09.2019
1313 Clouds 14 1009 82 10000 5.1 200 20:37 25.09.2019
1314 Clouds 14 1009 82 10000 5.1 200 20:18 25.09.2019
1315 Clouds 15 1008 77 10000 4.1 200 19:39 25.09.2019
1316 Clouds 15 1008 77 10000 4.1 200 19:20 25.09.2019
1317 Rain 16 1008 67 10000 6.2 220 18:56 25.09.2019
1318 Rain 16 1008 67 10000 6.2 220 18:37 25.09.2019
1319 Rain 17 1008 67 10000 6.2 220 18:18 25.09.2019
1320 Rain 17 1008 77 10000 4.6 210 17:40 25.09.2019
1321 Rain 17 1008 63 10000 4.6 220 17:21 25.09.2019
1322 Rain 17 1008 72 10000 4.1 240 16:58 25.09.2019
1323 Rain 17 1008 72 10000 4.1 250 16:40 25.09.2019
1324 Rain 17 1008 72 10000 4.1 250 16:22 25.09.2019
1325 Rain 17 1008 77 10000 7.2 270 15:56 25.09.2019
1326 Clouds 18 1008 67 10000 6.2 260 15:38 25.09.2019
1327 Clouds 18 1008 67 10000 6.2 260 15:19 25.09.2019
1328 Clouds 18 1008 56 10000 6.2 220 14:42 25.09.2019
1329 Rain 18 1008 56 10000 6.2 220 14:22 25.09.2019
1330 Rain 18 1008 59 10000 7.7 230 13:58 25.09.2019
1331 Rain 17 1008 68 10000 5.7 240 13:40 25.09.2019
1332 Rain 17 1008 68 10000 5.7 240 13:20 25.09.2019
1333 Rain 17 1009 67 10000 6.7 230 12:56 25.09.2019
1334 Rain 17 1009 72 10000 6.7 230 12:37 25.09.2019
1335 Rain 16 1009 72 10000 6.7 230 12:18 25.09.2019
1336 Rain 15 1009 87 10000 4.1 200 11:40 25.09.2019
1337 Rain 15 1009 87 10000 4.1 200 11:20 25.09.2019
1338 Clouds 15 1009 82 10000 4.6 210 10:48 25.09.2019
1339 Clouds 15 1008 93 10000 3.6 190 10:27 25.09.2019
1340 Clouds 15 1008 87 10000 2.6 190 09:59 25.09.2019
1341 Clouds 14 1008 93 10000 3.1 200 09:41 25.09.2019
1342 Clouds 14 1008 93 10000 3.1 200 09:23 25.09.2019
1343 Clouds 14 1008 93 10000 4.6 210 08:59 25.09.2019
1344 Clouds 14 1008 93 10000 4.6 210 08:40 25.09.2019
1345 Clouds 14 1008 93 10000 4.6 210 08:20 25.09.2019
1346 Rain 14 1007 93 10000 4.6 220 07:41 25.09.2019
1347 Rain 14 1007 100 10000 3.1 260 07:23 25.09.2019
1348 Rain 14 1007 100 10000 4.1 270 06:58 25.09.2019
1349 Rain 14 1007 100 10000 4.1 270 06:37 25.09.2019
1350 Rain 14 1007 100 10000 3.6 270 05:47 25.09.2019
1351 Rain 14 1006 93 10000 4.6 210 05:20 25.09.2019
1352 Rain 14 1007 93 10000 2.1 240 03:21 25.09.2019
1353 Rain 14 1007 100 10000 2.6 190 01:44 25.09.2019
1354 Rain 14 1007 93 10000 1.78 172.56 00:42 25.09.2019
1355 Rain 14 1007 93 10000 2.15 157.823 00:23 25.09.2019
1356 Rain 14 1008 87 10000 1.5 200 23:45 24.09.2019
1357 Rain 14 1008 82 10000 1.5 170 23:23 24.09.2019
1358 Rain 14 1008 87 10000 2.6 170 22:59 24.09.2019
1359 Rain 14 1009 87 10000 2.6 170 22:38 24.09.2019
1360 Rain 14 1009 87 10000 2.6 170 22:20 24.09.2019
1361 Rain 14 1009 87 10000 2.6 160 21:56 24.09.2019
1362 Rain 14 1009 93 10000 1.5 180 21:37 24.09.2019
1363 Rain 14 1009 93 10000 1.5 180 21:37 24.09.2019
1364 Rain 14 1009 93 10000 1.5 180 21:19 24.09.2019
1365 Rain 14 1009 93 10000 1.5 180 20:57 24.09.2019
1366 Rain 14 1009 93 10000 1.5 180 20:57 24.09.2019
1367 Rain 15 1009 93 10000 3.1 210 20:38 24.09.2019
1368 Rain 15 1009 93 10000 3.1 210 20:19 24.09.2019
1369 Rain 15 1009 93 10000 2.1 200 19:43 24.09.2019
1370 Rain 16 1009 82 10000 1.5 160 19:21 24.09.2019
1371 Rain 16 1009 77 10000 2.1 170 18:59 24.09.2019
1372 Rain 16 1009 77 10000 2.1 170 18:40 24.09.2019
1373 Rain 17 1009 77 10000 2.6 170 18:21 24.09.2019
1374 Rain 17 1009 77 10000 3.6 190 17:57 24.09.2019
1375 Rain 17 1009 77 10000 3.6 190 17:38 24.09.2019
1376 Rain 17 1010 68 10000 2.6 200 17:20 24.09.2019
1377 Clouds 18 1010 63 10000 2.1 190 16:57 24.09.2019
1378 Clouds 18 1010 59 10000 2.6 210 16:38 24.09.2019
1379 Clouds 18 1010 59 10000 2.6 210 16:18 24.09.2019
1380 Clouds 18 1011 63 10000 2.1 180 15:41 24.09.2019
1381 Clouds 19 1011 63 10000 2.1 180 15:23 24.09.2019
1382 Clouds 18 1011 64 10000 2.1 160 14:44 24.09.2019
1383 Clouds 18 1011 72 10000 1 0 14:20 24.09.2019
1384 Clouds 18 1012 72 10000 1.5 300 13:57 24.09.2019
1385 Clouds 17 1013 100 10000 1.5 0 13:38 24.09.2019
1386 Clouds 17 1013 100 10000 1.5 0 13:20 24.09.2019
1387 Clouds 17 1013 100 10000 3.32 155.582 12:40 24.09.2019
1388 Clouds 16 1013 77 10000 1 0 12:21 24.09.2019
1389 Clouds 15 1014 82 10000 1.5 0 11:57 24.09.2019
1390 Clouds 15 1014 100 10000 2.22 142.159 11:39 24.09.2019
1391 Mist 14 1014 93 10000 1 0 11:18 24.09.2019
1392 Mist 14 1015 100 400 1.5 160 10:40 24.09.2019
1393 Mist 13 1014 93 1700 1.5 180 10:21 24.09.2019
1394 Fog 13 1015 100 900 1.5 160 09:57 24.09.2019
1395 Fog 13 1015 100 400 1.5 130 09:39 24.09.2019
1396 Fog 12 1015 100 400 1.5 130 09:19 24.09.2019
1397 Fog 11 1015 100 800 2.1 200 08:55 24.09.2019
1398 Fog 11 1015 100 800 2.1 200 08:55 24.09.2019
1399 -273 0 0 0 0 0 08:55 24.09.2019
1400 Fog 11 1015 100 800 2.1 200 08:55 24.09.2019
1401 Fog 11 1016 100 200 2.6 220 08:36 24.09.2019
1402 Fog 11 1016 100 200 2.6 220 08:18 24.09.2019
1403 Fog 10 1016 93 800 1.06 124.948 07:41 24.09.2019
1404 Fog 10 1015 93 1600 1.5 240 07:23 24.09.2019
1405 Clouds 10 1015 93 10000 0.5 0 06:46 24.09.2019
1406 Clouds 10 1015 93 10000 1 160 06:27 24.09.2019
1407 Clouds 11 1016 93 10000 0.5 0 05:26 24.09.2019
1408 Clouds 11 1016 100 10000 1 250 04:58 24.09.2019
1409 Clear 11 1017 100 10000 2.1 210 03:42 24.09.2019
1410 Clear 11 1017 93 10000 2.6 200 02:45 24.09.2019
1411 Clear 11 1017 100 10000 0.5 0 01:44 24.09.2019
1412 Clear 12 1017 93 10000 0.5 220 00:42 24.09.2019
1413 Clear 12 1017 93 10000 0.5 220 00:23 24.09.2019
1414 Clear 12 1017 93 10000 1.5 180 23:44 23.09.2019
1415 Clear 13 1017 93 10000 1.5 180 23:24 23.09.2019
1416 Clouds 13 1017 93 10000 1.5 190 22:59 23.09.2019
1417 Clouds 13 1017 87 10000 1.5 200 22:39 23.09.2019
1418 Clouds 13 1017 87 10000 1.5 200 22:20 23.09.2019
1419 Clouds 14 1017 82 10000 1.5 220 21:56 23.09.2019
1420 Clouds 14 1017 72 10000 2.6 230 21:37 23.09.2019
1421 Clouds 14 1017 72 10000 2.6 230 21:19 23.09.2019
1422 Clouds 15 1016 67 10000 4.1 220 20:41 23.09.2019
1423 Clouds 15 1016 67 10000 4.1 220 20:20 23.09.2019
1424 Clouds 16 1016 63 10000 4.1 220 19:58 23.09.2019
1425 Clouds 16 1016 59 10000 4.1 270 19:38 23.09.2019
1426 Clouds 17 1015 52 10000 4.6 230 19:20 23.09.2019
1427 Clouds 17 1015 52 10000 4.6 230 19:20 23.09.2019
1428 Clouds 17 1015 52 10000 4.1 240 18:55 23.09.2019
1429 Clouds 17 1015 56 10000 5.1 240 18:36 23.09.2019
1430 Clouds 18 1015 56 10000 5.1 240 18:18 23.09.2019
1431 -273 0 0 0 0 0 17:54 23.09.2019
1432 Rain 18 1015 56 10000 5.1 240 17:36 23.09.2019
1433 Rain 18 1015 56 10000 5.1 240 17:18 23.09.2019
1434 Rain 19 1015 56 10000 5.1 270 16:39 23.09.2019
1435 Rain 19 1015 56 10000 5.1 270 16:21 23.09.2019
1436 Rain 19 1015 64 10000 3.6 190 15:59 23.09.2019
1437 Rain 19 1015 72 10000 3.6 190 15:40 23.09.2019
1438 Rain 18 1015 72 10000 3.6 190 15:19 23.09.2019
1439 Rain 18 1015 72 10000 3.1 310 14:58 23.09.2019
1440 Rain 18 1015 77 10000 3.6 210 14:37 23.09.2019
1441 Rain 18 1015 77 10000 3.6 210 14:19 23.09.2019
1442 Clouds 18 1015 82 10000 3.1 210 13:57 23.09.2019
1443 Rain 17 1016 88 10000 3.1 190 13:36 23.09.2019
1444 Rain 17 1016 88 10000 3.1 190 13:18 23.09.2019
1445 Rain 17 1016 88 10000 3.1 190 13:18 23.09.2019
1446 Clouds 16 1016 93 10000 2.1 240 12:40 23.09.2019
1447 Clouds 16 1016 93 10000 3.1 210 12:21 23.09.2019
1448 Drizzle 15 1016 87 10000 1.5 260 11:55 23.09.2019
1449 Clouds 15 1016 100 10000 2.6 200 11:37 23.09.2019
1450 Clouds 15 1016 100 10000 2.6 200 11:18 23.09.2019
1451 Clouds 15 1016 100 10000 2.6 200 11:18 23.09.2019
1452 Rain 15 1016 93 10000 1.5 270 10:44 23.09.2019
1453 Rain 14 1016 93 10000 1.5 270 10:20 23.09.2019
1454 Rain 14 1015 100 10000 3.1 210 09:49 23.09.2019
1455 Rain 14 1015 100 10000 1.5 250 09:29 23.09.2019
1456 Rain 14 1015 93 10000 3.1 220 08:59 23.09.2019
1457 Rain 14 1014 93 10000 3.1 220 08:39 23.09.2019
1458 Rain 14 1014 93 10000 3.1 220 08:20 23.09.2019
1459 Rain 14 1015 100 10000 2.6 240 07:44 23.09.2019
1460 Rain 14 1014 100 10000 2.1 270 07:23 23.09.2019
1461 Rain 15 1013 93 10000 5.1 220 06:20 23.09.2019
1462 Rain 15 1012 82 10000 5.1 310 05:44 23.09.2019
1463 Drizzle 15 1012 82 10000 5.1 310 05:18 23.09.2019
1464 Rain 15 1012 77 10000 5.7 290 04:52 23.09.2019
1465 Haze 16 1010 67 5000 0.49 281.84 01:29 23.09.2019
1466 Haze 16 1009 63 10000 1 0 00:40 23.09.2019
1467 Haze 16 1009 63 10000 1 0 00:21 23.09.2019
1468 Haze 16 1009 63 2600 1.5 260 23:46 22.09.2019
1469 Haze 17 1009 63 10000 2.1 70 23:27 22.09.2019
1470 Haze 17 1009 63 10000 2.1 70 22:57 22.09.2019
1471 Haze 17 1009 63 10000 0.5 0 22:38 22.09.2019
1472 Haze 17 1009 63 10000 0.5 0 22:20 22.09.2019
1473 Haze 18 1009 59 10000 1 0 21:43 22.09.2019
1474 Haze 18 1009 59 10000 1 0 21:21 22.09.2019
1475 Haze 19 1009 55 10000 0.5 0 20:54 22.09.2019
1476 Rain 19 1009 52 10000 0.5 0 20:36 22.09.2019
1477 Rain 19 1009 52 10000 0.5 0 20:18 22.09.2019
1478 Haze 19 1009 43 1600 1.09 138.345 19:41 22.09.2019
1479 Haze 20 1009 46 1200 1.09 138.345 19:22 22.09.2019
1480 Haze 21 1009 43 1800 2.1 170 18:59 22.09.2019
1481 Haze 22 1009 40 10000 3.1 210 18:39 22.09.2019
1482 Haze 23 1009 40 10000 3.1 210 18:19 22.09.2019
1483 Haze 23 1009 40 1800 2.1 190 17:57 22.09.2019
1484 Haze 23 1009 40 1600 1.5 150 17:39 22.09.2019
1485 Haze 23 1009 40 1600 1.5 150 17:18 22.09.2019
1486 Haze 24 1009 36 10000 1.5 140 16:44 22.09.2019
1487 Haze 24 1009 34 10000 2.1 0 16:25 22.09.2019
1488 Haze 24 1010 36 1800 1.73 121.122 15:56 22.09.2019
1489 Haze 24 1010 36 1800 1.73 121.122 15:37 22.09.2019
1490 Haze 23 1010 36 10000 1.5 0 15:19 22.09.2019
1491 Haze 23 1011 38 2600 1.75 129.209 14:43 22.09.2019
1492 Haze 23 1011 38 10000 2.1 0 14:24 22.09.2019
1493 Clear 22 1011 40 10000 1 0 13:55 22.09.2019
1494 Clear 22 1011 43 10000 1 0 13:37 22.09.2019
1495 Clear 21 1011 43 10000 1 0 13:19 22.09.2019
1496 Clear 21 1012 45 10000 2.1 50 12:43 22.09.2019
1497 Clear 20 1012 45 10000 2.1 50 12:24 22.09.2019
1498 Clear 19 1012 48 10000 1.5 100 11:56 22.09.2019
1499 Clear 19 1013 51 10000 2.6 60 11:38 22.09.2019
1500 Clear 18 1013 51 10000 2.6 60 11:19 22.09.2019
1501 Clear 18 1013 51 10000 2.6 60 11:19 22.09.2019
1502 Clear 17 1013 51 10000 2.1 80 10:44 22.09.2019
1503 Clear 16 1013 55 10000 3.6 50 10:20 22.09.2019
1504 Clear 15 1013 58 10000 3.1 50 09:57 22.09.2019
1505 Clear 14 1013 58 10000 3.6 20 09:38 22.09.2019
1506 Clear 12 1013 58 10000 3.6 20 09:19 22.09.2019
1507 Clear 11 1013 62 10000 4.6 40 08:45 22.09.2019
1508 Clear 10 1013 66 10000 4.1 20 08:24 22.09.2019
1509 Clear 10 1013 71 10000 3.1 20 07:54 22.09.2019
1510 Clear 10 1013 66 10000 4.1 30 07:36 22.09.2019
1511 Clear 10 1013 66 10000 4.1 30 07:18 22.09.2019
1512 Clear 10 1013 66 10000 4.1 30 07:18 22.09.2019
1513 Clear 10 1013 71 10000 2.1 50 06:46 22.09.2019
1514 Clear 10 1013 66 10000 2.6 20 05:25 22.09.2019
1515 Clear 11 1014 66 10000 3.1 10 03:31 22.09.2019
1516 Clear 11 1014 66 10000 1 0 02:37 22.09.2019
1517 Clear 11 1014 66 10000 1 0 02:18 22.09.2019
1518 Clear 12 1015 58 10000 3.1 70 00:58 22.09.2019
1519 Clear 13 1015 58 10000 2.6 90 00:33 22.09.2019
1520 Clear 13 1015 51 10000 3.6 80 23:58 21.09.2019
1521 Clear 14 1015 45 10000 4.1 80 23:40 21.09.2019
1522 Clear 14 1015 45 10000 4.1 80 23:19 21.09.2019
1523 Clear 13 1016 42 10000 3.1 80 22:39 21.09.2019
1524 Clear 14 1016 42 10000 3.1 80 22:21 21.09.2019
1525 Clear 15 1016 48 10000 2.6 80 21:42 21.09.2019
1526 Clear 16 1016 42 10000 3.1 80 21:20 21.09.2019
1527 Clear 16 1016 34 10000 2.6 80 20:59 21.09.2019
1528 Clear 17 1016 34 10000 1.5 30 20:38 21.09.2019
1529 Clear 17 1016 34 10000 1.5 30 20:19 21.09.2019
1530 Clear 20 1016 28 10000 2.1 120 19:47 21.09.2019
1531 Clear 19 1016 30 10000 2.6 100 19:23 21.09.2019
1532 Clear 23 1016 25 10000 3.6 90 18:55 21.09.2019
1533 Clear 23 1016 25 10000 4.6 90 18:37 21.09.2019
1534 Clear 22 1016 25 10000 4.6 110 18:18 21.09.2019
1535 Clear 23 1017 25 10000 5.1 120 17:40 21.09.2019
1536 Clear 23 1017 25 10000 5.1 120 17:21 21.09.2019
1537 Clear 23 1018 25 10000 4.6 80 16:44 21.09.2019
1538 Clear 23 1018 25 10000 4.6 80 16:24 21.09.2019
1539 Clear 23 1018 25 10000 5.7 90 15:56 21.09.2019
1540 Clear 22 1019 25 10000 5.7 120 15:38 21.09.2019
1541 Clear 22 1019 25 10000 5.7 120 15:19 21.09.2019
1542 Clear 22 1020 24 10000 5.7 90 14:43 21.09.2019
1543 Clear 22 1020 24 10000 5.7 90 14:43 21.09.2019
1544 Clear 22 1020 24 10000 5.7 90 14:24 21.09.2019
1545 Clear 20 1021 30 10000 6.2 90 13:42 21.09.2019
1546 Clear 21 1021 30 10000 6.2 90 13:23 21.09.2019
1547 Clear 20 1021 34 10000 4.6 90 12:57 21.09.2019
1548 Clear 19 1021 39 10000 4.6 80 12:39 21.09.2019
1549 Clear 18 1022 36 10000 5.1 120 12:20 21.09.2019
1550 Clear 18 1022 42 10000 4.1 80 11:51 21.09.2019
1551 Clear 17 1022 47 10000 4.1 80 11:26 21.09.2019
1552 Clear 15 1022 50 10000 4.6 70 10:57 21.09.2019
1553 Clear 14 1023 54 10000 5.1 70 10:38 21.09.2019
1554 Clear 14 1023 54 10000 5.1 70 10:20 21.09.2019
1555 Clear 12 1023 58 10000 4.6 60 09:55 21.09.2019
1556 Clear 10 1023 66 10000 4.1 60 09:37 21.09.2019
1557 Clear 10 1023 66 10000 4.1 60 09:19 21.09.2019
1558 Clear 8 1023 70 10000 4.1 70 08:45 21.09.2019
1559 Clear 7 1023 70 10000 3.6 70 08:20 21.09.2019
1560 Clear 7 1023 81 10000 2.6 70 07:40 21.09.2019
1561 -273 0 0 0 0 0 07:20 21.09.2019
1562 Clear 6 1023 81 10000 2.6 70 07:20 21.09.2019
1563 Clear 6 1023 75 10000 3.1 80 06:36 21.09.2019
1564 Clear 7 1023 75 10000 3.1 70 05:51 21.09.2019
1565 Clear 7 1023 75 10000 3.1 70 05:51 21.09.2019
1566 Clear 7 1023 70 10000 2.1 70 04:40 21.09.2019
1567 Clear 8 1024 75 10000 3.1 70 03:39 21.09.2019
1568 Clear 8 1024 75 10000 1.5 80 02:26 21.09.2019
1569 Clear 9 1024 70 10000 1.5 70 01:50 21.09.2019
1570 Clear 9 1024 70 10000 2.1 70 01:32 21.09.2019
1571 Clear 9 1024 66 10000 1.5 80 00:38 21.09.2019
1572 Clear 9 1024 66 10000 1.5 80 00:18 21.09.2019
1573 Clear 9 1025 61 10000 2.6 70 23:41 20.09.2019
1574 Clear 10 1025 61 10000 2.6 70 23:21 20.09.2019
1575 Clear 10 1025 57 10000 1.5 60 22:41 20.09.2019
1576 Clear 11 1025 57 10000 1.5 60 22:22 20.09.2019
1577 Clear 12 1025 47 10000 1.5 40 21:56 20.09.2019
1578 Clear 12 1025 47 10000 1.5 40 21:37 20.09.2019
1579 Clear 12 1025 47 10000 1.5 40 21:18 20.09.2019
1580 Clear 13 1026 41 10000 1.5 50 20:42 20.09.2019
1581 Clear 13 1025 42 10000 3.1 80 20:21 20.09.2019
1582 Clear 13 1025 42 10000 3.1 80 20:21 20.09.2019
1583 Clear 14 1025 42 10000 3.6 60 19:59 20.09.2019
1584 Clear 15 1025 36 10000 3.6 80 19:40 20.09.2019
1585 Clear 16 1025 36 10000 3.6 80 19:20 20.09.2019
1586 Clear 17 1026 37 10000 4.1 60 18:40 20.09.2019
1587 Clear 18 1026 37 10000 4.1 60 18:21 20.09.2019
1588 Clear 18 1026 34 10000 3.6 70 17:59 20.09.2019
1589 Clear 19 1026 32 10000 3.1 80 17:41 20.09.2019
1590 Clear 19 1026 32 10000 3.1 80 17:23 20.09.2019
1591 Clear 19 1027 34 10000 3.1 60 16:43 20.09.2019
1592 Clear 19 1027 34 10000 3.1 60 16:21 20.09.2019
1593 Clear 19 1027 32 10000 2.1 0 15:58 20.09.2019
1594 Clear 19 1028 32 10000 2.1 0 15:40 20.09.2019
1595 Clear 19 1028 32 10000 2.1 0 15:22 20.09.2019
1596 Clear 18 1028 34 10000 3.1 110 14:43 20.09.2019
1597 Clear 18 1028 36 10000 1.5 50 14:19 20.09.2019
1598 Clear 17 1028 39 10000 3.1 60 13:48 20.09.2019
1599 Clear 17 1029 38 10000 2.6 100 13:29 20.09.2019
1600 Clear 16 1029 44 10000 2.1 100 12:58 20.09.2019
1601 Clear 16 1029 47 10000 2.6 80 12:37 20.09.2019
1602 Clear 15 1029 44 10000 2.6 120 12:19 20.09.2019
1603 Clear 14 1030 47 10000 3.1 80 11:50 20.09.2019
1604 Clear 14 1030 50 10000 2.6 90 11:22 20.09.2019
1605 Clear 12 1030 54 10000 3.1 80 10:57 20.09.2019
1606 Clear 12 1030 62 10000 3.6 70 10:39 20.09.2019
1607 Clear 11 1030 62 10000 3.6 70 10:19 20.09.2019
1608 Clear 9 1029 66 10000 2.6 90 09:38 20.09.2019
1609 Clear 8 1029 66 10000 2.6 90 09:18 20.09.2019
1610 Clear 7 1029 75 10000 2.1 80 08:46 20.09.2019
1611 Clear 6 1029 81 10000 2.1 80 08:26 20.09.2019
1612 Clear 5 1029 75 10000 2.1 70 07:51 20.09.2019
1613 Clear 5 1029 75 10000 3.1 80 07:29 20.09.2019
1614 Clear 5 1029 75 10000 2.6 80 06:50 20.09.2019
1615 Clear 5 1029 80 10000 1.5 70 06:32 20.09.2019
1616 Clear 6 1029 75 10000 1.5 70 05:59 20.09.2019
1617 Clear 6 1029 75 10000 2.1 80 04:29 20.09.2019
1618 Clear 6 1029 70 10000 1.5 60 03:26 20.09.2019
1619 Clear 7 1030 70 10000 2.6 30 01:50 20.09.2019
1620 Clear 8 1030 57 10000 3.6 20 01:31 20.09.2019
1621 Clear 8 1030 53 10000 3.6 30 00:33 20.09.2019
1622 Clear 8 1030 50 10000 1.5 10 23:46 19.09.2019
1623 Clear 9 1030 47 10000 4.6 20 23:27 19.09.2019
1624 Clear 9 1029 57 10000 3.6 20 22:59 19.09.2019
1625 Clear 9 1029 57 10000 3.6 20 22:39 19.09.2019
1626 Clear 10 1029 57 10000 3.6 20 22:21 19.09.2019
1627 Clear 10 1029 53 10000 2.6 20 21:57 19.09.2019
1628 Clear 10 1029 44 10000 3.6 50 21:38 19.09.2019
1629 Clear 11 1029 44 10000 3.6 50 21:19 19.09.2019
1630 Clear 11 1029 41 10000 4.1 60 20:43 19.09.2019
1631 Clear 12 1029 38 10000 4.1 30 20:23 19.09.2019
1632 Clear 13 1028 38 10000 4.6 20 19:58 19.09.2019
1633 Clear 14 1028 36 10000 3.6 10 19:39 19.09.2019
1634 Clear 14 1028 36 10000 3.6 10 19:21 19.09.2019
1635 Clear 15 1028 33 10000 4.6 10 18:58 19.09.2019
1636 Clear 15 1028 33 10000 5.1 10 18:40 19.09.2019
1637 Clear 16 1028 33 10000 5.1 10 18:21 19.09.2019
1638 Clear 17 1028 36 10000 4.1 20 17:42 19.09.2019
1639 Clear 17 1028 36 10000 4.1 20 17:24 19.09.2019
1640 Clear 17 1029 33 10000 5.1 40 16:59 19.09.2019
1641 Clear 17 1029 33 10000 5.1 40 16:59 19.09.2019
1642 Clear 17 1029 33 10000 5.1 10 16:40 19.09.2019
1643 Clear 17 1029 33 10000 5.1 10 16:20 19.09.2019
1644 Clear 17 1029 36 10000 6.2 10 15:40 19.09.2019
1645 Clear 17 1029 36 10000 6.2 10 15:21 19.09.2019
1646 Clear 16 1029 38 10000 6.2 10 14:58 19.09.2019
1647 Clear 16 1029 41 10000 5.7 20 14:38 19.09.2019
1648 Clear 16 1029 41 10000 5.7 20 14:20 19.09.2019
1649 Clouds 16 1030 41 10000 6.7 50 13:40 19.09.2019
1650 Clouds 16 1030 41 10000 6.7 50 13:21 19.09.2019
1651 Clouds 15 1030 41 10000 6.7 50 12:58 19.09.2019
1652 Clouds 15 1030 47 10000 5.1 30 12:36 19.09.2019
1653 Clouds 15 1030 47 10000 5.1 30 12:18 19.09.2019
1654 Clouds 14 1030 50 10000 5.1 30 11:41 19.09.2019
1655 Clear 13 1030 50 10000 4.1 60 11:22 19.09.2019
1656 Clouds 13 1030 58 10000 4.6 30 10:58 19.09.2019
1657 Clouds 13 1030 58 10000 4.6 30 10:58 19.09.2019
1658 Clouds 12 1030 62 10000 5.1 20 10:39 19.09.2019
1659 Clouds 12 1030 62 10000 5.1 20 10:21 19.09.2019
1660 Clouds 11 1029 66 10000 5.1 20 09:55 19.09.2019
1661 Clouds 11 1029 66 10000 5.1 20 09:55 19.09.2019
1662 Clouds 11 1029 66 10000 5.1 20 09:55 19.09.2019
1663 Clear 10 1029 66 10000 4.6 10 09:36 19.09.2019
1664 Clear 9 1029 66 10000 4.6 10 09:18 19.09.2019
1665 Clear 8 1029 71 10000 4.1 30 08:48 19.09.2019
1666 Clear 7 1028 71 10000 5.1 10 08:22 19.09.2019
1667 Clear 6 1028 76 10000 3.6 20 07:43 19.09.2019
1668 Clear 6 1028 76 10000 3.6 20 07:22 19.09.2019
1669 Clear 7 1028 71 10000 4.1 20 06:51 19.09.2019
1670 Clear 7 1027 71 10000 3.6 20 06:32 19.09.2019
1671 Clear 7 1027 71 10000 3.6 20 05:53 19.09.2019
1672 Clear 7 1027 71 10000 3.1 30 05:33 19.09.2019
1673 Clear 8 1027 71 10000 2.1 50 03:55 19.09.2019
1674 Clear 8 1027 76 10000 2.6 30 03:19 19.09.2019
1675 Clear 8 1027 70 10000 2.1 70 01:35 19.09.2019
1676 Clear 9 1027 62 10000 3.6 20 00:53 19.09.2019
1677 Clear 9 1026 58 10000 3.6 30 00:26 19.09.2019
1678 Clear 9 1026 58 10000 3.6 30 00:26 19.09.2019
1679 Clear 9 1026 58 10000 3.1 60 23:57 18.09.2019
1680 Clear 10 1026 54 10000 4.6 20 23:36 18.09.2019
1681 Clear 10 1026 54 10000 4.6 20 23:18 18.09.2019
1682 Clear 10 1026 47 10000 3.6 20 22:38 18.09.2019
1683 Clear 11 1026 47 10000 3.6 20 22:19 18.09.2019
1684 Clear 11 1026 47 10000 3.6 10 21:57 18.09.2019
1685 Clear 11 1026 44 10000 3.6 20 21:39 18.09.2019
1686 Clear 12 1026 44 10000 3.6 20 21:18 18.09.2019
1687 Clear 12 1025 41 10000 4.6 10 20:57 18.09.2019
1688 Clear 12 1025 41 10000 4.6 10 20:57 18.09.2019
1689 Clear 13 1025 38 10000 4.6 10 20:39 18.09.2019
1690 Clear 13 1025 38 10000 4.6 10 20:20 18.09.2019
1691 Clear 13 1025 38 10000 4.6 10 20:20 18.09.2019
1692 Clear 13 1025 38 10000 4.6 10 20:20 18.09.2019
1693 Clear 14 1024 36 10000 4.1 360 19:56 18.09.2019
1694 Clear 15 1024 36 10000 4.6 10 19:37 18.09.2019
1695 Clear 16 1024 36 10000 4.6 10 19:18 18.09.2019
1696 Clear 16 1024 36 10000 4.6 10 19:18 18.09.2019
1697 Clear 16 1024 36 10000 4.1 20 18:54 18.09.2019
1698 Clear 17 1024 36 10000 3.6 50 18:36 18.09.2019
1699 Clear 17 1024 36 10000 3.6 50 18:18 18.09.2019
1700 Clear 18 1024 34 10000 3.6 10 17:54 18.09.2019
1701 Clear 18 1024 34 10000 4.1 40 17:36 18.09.2019
1702 Clear 18 1024 34 10000 4.1 40 17:18 18.09.2019
1703 Clear 18 1024 37 10000 3.1 10 16:43 18.09.2019
1704 Clear 18 1025 39 10000 2.1 0 16:22 18.09.2019
1705 Clear 18 1025 39 10000 3.6 20 15:59 18.09.2019
1706 Clear 18 1025 39 10000 3.6 20 15:59 18.09.2019
1707 Clear 18 1025 39 10000 3.6 20 15:59 18.09.2019
1708 Clear 18 1025 39 10000 4.1 30 15:40 18.09.2019
1709 Clear 18 1025 39 10000 4.1 30 15:21 18.09.2019
1710 Clear 18 1025 42 10000 4.1 60 14:58 18.09.2019
1711 Clouds 18 1026 42 10000 3.1 0 14:40 18.09.2019
1712 Clouds 17 1026 42 10000 3.1 0 14:22 18.09.2019
1713 Clouds 17 1026 42 10000 3.1 0 14:22 18.09.2019
1714 Clouds 17 1026 48 10000 3.6 30 13:59 18.09.2019
1715 Clouds 17 1026 48 10000 3.6 30 13:59 18.09.2019
1716 Clouds 17 1026 45 10000 3.1 70 13:39 18.09.2019
1717 Clouds 16 1026 48 10000 2.1 100 13:18 18.09.2019
1718 Clouds 16 1026 51 10000 5.1 70 12:47 18.09.2019
1719 Clouds 16 1026 51 10000 5.1 70 12:29 18.09.2019
1720 -273 0 0 0 0 0 11:55 18.09.2019
1721 Clouds 15 1027 54 10000 2.6 40 11:37 18.09.2019
1722 Clouds 14 1027 54 10000 2.6 40 11:18 18.09.2019
1723 Clouds 13 1026 62 10000 2.1 50 10:40 18.09.2019
1724 Clouds 12 1026 62 10000 2.1 50 10:21 18.09.2019
1725 Clear 11 1026 71 10000 2.1 70 09:58 18.09.2019
1726 Clear 11 1026 71 10000 1 0 09:38 18.09.2019
1727 Clear 10 1026 71 10000 1 0 09:20 18.09.2019
1728 Clear 7 1025 87 10000 0.5 0 08:42 18.09.2019
1729 Clear 7 1025 87 10000 0.5 0 08:24 18.09.2019
1730 Clear 6 1025 87 10000 2.1 180 07:58 18.09.2019
1731 Clear 6 1025 93 10000 1 0 07:40 18.09.2019
1732 Clear 6 1025 93 10000 1 0 07:22 18.09.2019
1733 Clear 6 1025 87 10000 1.5 290 06:40 18.09.2019
1734 Clear 6 1024 87 10000 2.1 250 05:50 18.09.2019
1735 Clear 7 1024 87 10000 1.5 210 04:57 18.09.2019
1736 Clear 8 1024 81 10000 2.6 10 03:21 18.09.2019
1737 Clear 9 1024 66 10000 3.1 340 02:39 18.09.2019
1738 Clear 10 1024 66 10000 3.1 350 01:25 18.09.2019
1739 Clouds 11 1023 62 10000 3.1 340 00:49 18.09.2019
1740 Clouds 11 1023 62 10000 3.1 340 00:22 18.09.2019
1741 Clouds 12 1023 62 10000 3.1 330 23:46 17.09.2019
1742 Clouds 12 1022 62 10000 3.6 320 23:46 17.09.2019
1743 Clouds 12 1022 62 10000 3.6 320 23:23 17.09.2019
1744 Clouds 12 1022 58 10000 4.1 320 22:43 17.09.2019
1745 Clouds 13 1021 58 10000 4.1 300 22:24 17.09.2019
1746 Clear 13 1021 58 10000 3.6 270 21:56 17.09.2019
1747 Clear 14 1021 55 10000 4.1 270 21:37 17.09.2019
1748 Clear 14 1021 55 10000 4.1 270 21:19 17.09.2019
1749 Clear 15 1021 51 10000 2.6 290 20:59 17.09.2019
1750 Clear 15 1020 48 10000 3.1 300 20:41 17.09.2019
1751 Clear 15 1020 48 10000 3.1 300 20:22 17.09.2019
1752 Clear 15 1020 48 10000 3.6 290 19:59 17.09.2019
1753 Clear 16 1020 45 10000 4.6 320 19:39 17.09.2019
1754 Clear 17 1020 45 10000 4.6 320 19:20 17.09.2019
1755 Clear 17 1020 45 10000 3.6 310 18:58 17.09.2019
1756 Clear 17 1020 45 10000 6.2 330 18:40 17.09.2019
1757 Clear 18 1020 45 10000 6.2 330 18:21 17.09.2019
1758 Clear 18 1020 42 10000 6.7 300 17:47 17.09.2019
1759 Clear 18 1020 42 10000 6.7 300 17:21 17.09.2019
1760 Clear 18 1020 45 10000 6.7 330 16:59 17.09.2019
1761 Clouds 18 1020 42 10000 5.7 270 16:41 17.09.2019
1762 Clouds 19 1020 42 10000 5.7 270 16:22 17.09.2019
1763 Clouds 19 1020 42 10000 5.1 310 15:55 17.09.2019
1764 Clouds 19 1020 42 10000 5.1 310 15:36 17.09.2019
1765 Clouds 19 1020 45 10000 4.6 310 15:18 17.09.2019
1766 Clouds 19 1020 45 10000 4.6 0 14:55 17.09.2019
1767 Clouds 19 1020 48 10000 3.6 310 14:37 17.09.2019
1768 Clouds 19 1020 48 10000 3.6 310 14:18 17.09.2019
1769 Clouds 19 1020 48 10000 3.6 310 14:18 17.09.2019
1770 Clouds 19 1020 52 10000 4.6 300 13:41 17.09.2019
1771 Clouds 19 1020 52 10000 4.6 300 13:23 17.09.2019
1772 Clouds 18 1020 55 10000 4.6 300 12:55 17.09.2019
1773 Clouds 18 1021 59 10000 5.1 320 12:37 17.09.2019
1774 Clouds 17 1021 59 10000 5.1 320 12:18 17.09.2019
1775 Clouds 17 1020 59 10000 3.1 310 11:41 17.09.2019
1776 Clouds 16 1020 59 10000 3.1 310 11:19 17.09.2019
1777 Clouds 16 1020 63 10000 2.1 310 10:42 17.09.2019
1778 Clouds 15 1020 63 10000 2.1 310 10:23 17.09.2019
1779 Clouds 15 1020 62 10000 2.6 300 09:59 17.09.2019
1780 Clouds 15 1020 62 10000 3.1 310 09:40 17.09.2019
1781 Clouds 13 1020 62 10000 3.1 310 09:21 17.09.2019
1782 Clouds 13 1020 62 10000 2.6 300 08:46 17.09.2019
1783 Clouds 13 1020 62 10000 2.6 360 08:26 17.09.2019
1784 Clouds 13 1020 67 10000 2.1 330 07:58 17.09.2019
1785 Clouds 13 1020 72 10000 4.6 310 07:39 17.09.2019
1786 Clouds 13 1020 72 10000 4.6 310 07:19 17.09.2019
1787 Clouds 13 1019 72 10000 1.5 350 06:45 17.09.2019
1788 Clouds 14 1019 72 10000 1.5 350 06:19 17.09.2019
1789 Clouds 14 1019 72 10000 1.5 350 06:19 17.09.2019
1790 Clouds 14 1019 72 10000 3.1 10 05:44 17.09.2019
1791 Clouds 15 1019 72 10000 5.1 320 04:28 17.09.2019
1792 Clouds 15 1020 77 10000 3.1 330 02:57 17.09.2019
1793 Clouds 15 1020 77 10000 3.1 330 02:38 17.09.2019
1794 Clouds 16 1020 72 10000 2.6 350 01:24 17.09.2019
1795 Clouds 16 1019 72 10000 4.1 320 00:33 17.09.2019
1796 Clouds 17 1019 72 10000 2.6 0 23:39 16.09.2019
1797 Clouds 17 1019 72 10000 2.6 0 23:19 16.09.2019
1798 Rain 17 1019 72 10000 2.6 340 22:56 16.09.2019
1799 Rain 17 1019 72 10000 2.6 340 22:56 16.09.2019
1800 Rain 17 1019 63 10000 3.1 350 22:37 16.09.2019
1801 Rain 17 1019 63 10000 3.1 350 22:19 16.09.2019
1802 Rain 18 1019 72 10000 3.1 350 21:41 16.09.2019
1803 Rain 18 1019 72 10000 3.1 350 21:22 16.09.2019
1804 Rain 18 1018 68 10000 4.6 320 20:59 16.09.2019
1805 Rain 18 1019 63 10000 2.6 350 20:40 16.09.2019
1806 Rain 19 1018 60 10000 2.6 300 20:20 16.09.2019
1807 Rain 19 1018 49 10000 2.6 320 19:57 16.09.2019
1808 Rain 19 1018 49 10000 2.6 320 19:39 16.09.2019
1809 Clear 20 1018 46 10000 3.1 290 19:19 16.09.2019
1810 Clear 20 1017 43 10000 3.1 250 18:47 16.09.2019
1811 Clear 21 1017 43 10000 3.1 250 18:28 16.09.2019
1812 Clear 21 1018 40 10000 2.6 220 17:57 16.09.2019
1813 Clear 21 1018 40 10000 2.6 220 17:57 16.09.2019
1814 Clear 22 1018 53 10000 2.1 180 17:39 16.09.2019
1815 Clear 22 1018 53 10000 2.1 180 17:21 16.09.2019
1816 Clear 22 1018 43 10000 2.6 240 16:55 16.09.2019
1817 Clear 22 1018 49 10000 2.1 240 16:37 16.09.2019
1818 Clear 22 1018 49 10000 2.1 240 16:18 16.09.2019
1819 Clear 22 1018 53 10000 2.6 190 15:54 16.09.2019
1820 Clear 22 1018 53 10000 2.6 190 15:54 16.09.2019
1821 Clear 22 1019 53 10000 2.1 200 15:36 16.09.2019
1822 Clear 22 1019 53 10000 2.1 200 15:18 16.09.2019
1823 Clouds 22 1019 56 10000 2.1 250 14:42 16.09.2019
1824 Clear 22 1019 56 10000 3.1 190 14:22 16.09.2019
1825 Clear 22 1019 56 10000 3.1 230 13:57 16.09.2019
1826 Clear 21 1020 56 10000 1.5 0 13:38 16.09.2019
1827 Clear 21 1020 56 10000 1.5 0 13:38 16.09.2019
1828 Clear 21 1020 56 10000 1.5 0 13:20 16.09.2019
1829 Clear 20 1020 55 10000 1.5 240 12:42 16.09.2019
1830 Clear 20 1020 55 10000 1.5 240 12:24 16.09.2019
1831 Clear 19 1020 59 10000 1.5 200 11:55 16.09.2019
1832 Clear 19 1020 59 10000 1 0 11:37 16.09.2019
1833 Clear 18 1020 59 10000 1 0 11:19 16.09.2019
1834 Clear 17 1021 77 10000 1.5 240 10:38 16.09.2019
1835 Clear 16 1021 77 10000 1.5 240 10:19 16.09.2019
1836 Clear 16 1021 76 10000 0.5 0 09:57 16.09.2019
1837 Clear 15 1020 87 10000 1 0 09:38 16.09.2019
1838 Clear 14 1020 87 10000 1 0 09:19 16.09.2019
1839 Clear 12 1021 87 10000 1 0 08:44 16.09.2019
1840 Clear 12 1021 87 10000 1 0 08:25 16.09.2019
1841 Clear 11 1021 93 10000 1 0 07:56 16.09.2019
1842 Clear 11 1020 87 10000 0.5 0 07:37 16.09.2019
1843 Clear 11 1020 87 10000 0.5 0 07:18 16.09.2019
1844 Clear 11 1020 93 10000 1 0 06:44 16.09.2019
1845 Clear 11 1020 93 10000 1 0 06:26 16.09.2019
1846 Clear 10 1021 87 10000 0.5 0 05:49 16.09.2019
1847 Clear 10 1021 87 10000 0.5 0 05:29 16.09.2019
1848 Clear 11 1021 87 10000 1 0 04:33 16.09.2019
1849 Clear 11 1021 87 10000 1 0 04:33 16.09.2019
1850 Clear 12 1021 81 10000 1.5 160 02:33 16.09.2019
1851 Clear 14 1021 67 10000 1.5 200 00:44 16.09.2019
1852 Clear 14 1021 67 10000 1.5 200 00:25 16.09.2019
1853 Clear 15 1021 63 10000 3.6 340 23:44 15.09.2019
1854 Clear 16 1021 63 10000 3.6 340 23:21 15.09.2019
1855 Clear 16 1021 59 10000 2.6 340 22:58 15.09.2019
1856 Clear 17 1021 67 10000 3.1 320 22:37 15.09.2019
1857 Clear 17 1021 67 10000 3.1 320 22:18 15.09.2019
1858 Clear 18 1021 63 10000 3.1 340 21:55 15.09.2019
1859 Clear 18 1021 63 10000 2.6 340 21:37 15.09.2019
1860 Clear 18 1021 63 10000 2.6 340 21:37 15.09.2019
1861 Clear 18 1021 63 10000 2.6 340 21:18 15.09.2019
1862 Clear 19 1020 52 10000 3.6 320 20:44 15.09.2019
1863 Clear 20 1020 52 10000 3.6 320 20:25 15.09.2019
1864 Clear 22 1020 41 10000 2.6 240 19:47 15.09.2019
1865 Clear 23 1020 47 10000 2.6 190 19:27 15.09.2019
1866 Clear 24 1020 30 10000 2.6 190 18:56 15.09.2019
1867 Clear 24 1020 34 10000 3.6 230 18:38 15.09.2019
1868 Clear 26 1020 34 10000 3.6 230 18:20 15.09.2019
1869 Clear 26 1021 36 10000 3.1 190 17:43 15.09.2019
1870 Clear 26 1021 36 10000 3.1 190 17:22 15.09.2019
1871 Clear 26 1021 39 10000 3.1 230 16:58 15.09.2019
1872 Clear 26 1022 39 10000 3.6 200 16:40 15.09.2019
1873 Clear 26 1022 39 10000 3.6 200 16:21 15.09.2019
1874 Clear 26 1022 41 10000 2.6 0 15:56 15.09.2019
1875 Clear 26 1022 41 10000 4.1 260 15:37 15.09.2019
1876 Clear 26 1022 41 10000 4.1 260 15:18 15.09.2019
1877 Clear 25 1023 41 10000 3.1 0 14:43 15.09.2019
1878 Clear 25 1023 41 10000 3.1 200 14:24 15.09.2019
1879 Clear 25 1023 47 10000 2.6 210 13:55 15.09.2019
1880 Clear 25 1024 49 10000 2.1 0 13:37 15.09.2019
1881 Clear 24 1024 49 10000 2.1 0 13:19 15.09.2019
1882 Clear 23 1024 52 10000 2.1 0 12:42 15.09.2019
1883 Clear 22 1024 52 10000 2.1 0 12:23 15.09.2019
1884 Clear 21 1024 56 10000 1 0 11:58 15.09.2019
1885 Clear 20 1025 63 10000 1.5 220 11:40 15.09.2019
1886 Clear 20 1025 63 10000 1.5 220 11:20 15.09.2019
1887 Clear 19 1025 67 10000 1 0 10:42 15.09.2019
1888 Clear 17 1025 67 10000 1 0 10:22 15.09.2019
1889 Clear 17 1025 67 10000 1 0 09:58 15.09.2019
1890 Clear 17 1025 71 10000 0.5 0 09:37 15.09.2019
1891 Clear 14 1025 71 10000 0.5 0 09:19 15.09.2019
1892 Clear 12 1025 81 10000 1 0 08:45 15.09.2019
1893 Clear 11 1025 87 10000 0.5 0 08:26 15.09.2019
1894 Clear 10 1025 81 10000 1.5 10 07:48 15.09.2019
1895 Clear 10 1025 81 10000 2.6 10 07:26 15.09.2019
1896 Clear 10 1025 87 10000 1.5 10 06:42 15.09.2019
1897 Clear 11 1026 87 10000 1.5 80 03:31 15.09.2019
1898 Clear 12 1027 81 10000 1.5 40 02:35 15.09.2019
1899 Haze 13 1027 82 10000 2.1 10 01:40 15.09.2019
1900 Haze 13 1027 82 10000 2.1 10 01:40 15.09.2019
1901 Haze 13 1027 82 10000 2.1 10 01:19 15.09.2019
1902 Haze 13 1027 76 10000 2.1 10 00:43 15.09.2019
1903 Haze 13 1027 76 10000 2.1 10 00:21 15.09.2019
1904 Haze 14 1027 72 10000 2.1 10 23:58 14.09.2019
1905 Haze 14 1028 67 10000 3.1 40 23:39 14.09.2019
1906 Haze 14 1028 67 10000 3.1 40 23:39 14.09.2019
1907 Haze 14 1028 67 10000 3.1 40 23:39 14.09.2019
1908 Haze 14 1028 67 10000 3.1 40 23:21 14.09.2019
1909 Haze 15 1028 72 10000 2.6 20 22:59 14.09.2019
1910 Haze 15 1028 67 10000 2.6 360 22:40 14.09.2019
1911 Haze 16 1028 67 10000 2.6 360 22:20 14.09.2019
1912 Clear 16 1028 67 10000 3.1 360 21:56 14.09.2019
1913 Clear 16 1028 67 10000 4.1 10 21:38 14.09.2019
1914 Clear 17 1028 67 10000 4.1 10 21:19 14.09.2019
1915 Clear 17 1028 63 10000 3.6 20 20:54 14.09.2019
1916 Clear 17 1028 59 10000 3.6 10 20:36 14.09.2019
1917 Clear 18 1028 59 10000 3.6 10 20:18 14.09.2019
1918 Clear 20 1028 43 10000 2.1 0 19:41 14.09.2019
1919 Clear 21 1028 43 10000 2.1 0 19:20 14.09.2019
1920 Clear 21 1028 43 10000 2.1 360 18:54 14.09.2019
1921 Clear 22 1028 41 10000 3.1 30 18:36 14.09.2019
1922 Clear 23 1028 41 10000 3.1 30 18:18 14.09.2019
1923 Clear 23 1029 41 10000 3.1 70 17:41 14.09.2019
1924 Clear 23 1029 41 10000 3.1 70 17:22 14.09.2019
1925 Clear 23 1029 44 10000 2.6 10 16:46 14.09.2019
1926 Clear 23 1029 46 10000 2.1 0 16:26 14.09.2019
1927 Clear 23 1030 43 10000 1.5 0 15:56 14.09.2019
1928 Clear 23 1030 43 10000 1.5 0 15:56 14.09.2019
1929 Clouds 23 1030 49 10000 1.5 0 15:38 14.09.2019
1930 Clouds 23 1030 49 10000 1.5 0 15:19 14.09.2019
1931 Clouds 22 1031 49 10000 3.6 50 14:43 14.09.2019
1932 Clouds 22 1031 49 10000 3.6 50 14:19 14.09.2019
1933 Clouds 22 1031 52 10000 3.6 40 13:48 14.09.2019
1934 Clouds 22 1032 56 10000 3.6 70 13:48 14.09.2019
1935 Clouds 22 1032 56 10000 3.6 70 13:23 14.09.2019
1936 Clouds 21 1032 56 10000 4.1 40 12:59 14.09.2019
1937 Clouds 20 1032 59 10000 4.6 20 12:38 14.09.2019
1938 Clouds 19 1032 59 10000 4.6 20 12:18 14.09.2019
1939 Clear 19 1032 59 10000 3.1 40 11:40 14.09.2019
1940 Clear 18 1032 59 10000 3.1 40 11:19 14.09.2019
1941 Clear 17 1032 63 10000 3.6 30 10:39 14.09.2019
1942 Clear 16 1032 63 10000 3.6 30 10:21 14.09.2019
1943 Clear 15 1033 67 10000 3.1 50 09:57 14.09.2019
1944 Clear 15 1033 67 10000 4.1 40 09:39 14.09.2019
1945 Clear 14 1033 77 10000 1.5 200 09:19 14.09.2019
1946 Clear 13 1033 71 10000 4.6 40 08:47 14.09.2019
1947 Clear 13 1033 76 10000 5.1 40 08:25 14.09.2019
1948 Clear 12 1033 76 10000 6.2 20 07:48 14.09.2019
1949 Clear 12 1033 76 10000 6.2 20 07:48 14.09.2019
1950 Clear 12 1033 76 10000 6.2 20 07:29 14.09.2019
1951 Clear 12 1032 82 10000 5.1 20 06:53 14.09.2019
1952 Clear 12 1032 76 10000 4.1 30 06:31 14.09.2019
1953 Clear 13 1033 82 10000 4.6 20 05:27 14.09.2019
1954 Clear 13 1032 82 10000 4.6 20 03:47 14.09.2019
1955 Clear 14 1033 77 10000 4.1 20 02:55 14.09.2019
1956 Clear 14 1033 72 10000 3.6 30 02:23 14.09.2019
1957 Clear 15 1033 72 10000 3.1 30 01:42 14.09.2019
1958 Clear 15 1033 72 10000 3.1 30 01:18 14.09.2019
1959 Clear 15 1033 72 10000 4.1 20 00:40 14.09.2019
1960 Clear 15 1033 72 10000 4.1 20 00:21 14.09.2019
1961 Clear 16 1033 72 10000 5.1 20 23:54 13.09.2019
1962 Clear 16 1032 72 10000 5.1 20 23:36 13.09.2019
1963 Clear 16 1032 72 10000 5.1 20 23:18 13.09.2019
1964 Clouds 16 1032 77 10000 3.6 10 22:39 13.09.2019
1965 Clouds 16 1032 77 10000 3.6 10 22:21 13.09.2019
1966 Clouds 17 1032 68 10000 4.6 20 21:58 13.09.2019
1967 Clouds 17 1032 82 10000 4.1 40 21:38 13.09.2019
1968 Clouds 17 1032 82 10000 4.1 40 21:19 13.09.2019
1969 Clouds 18 1032 77 10000 3.1 350 20:57 13.09.2019
1970 Clouds 18 1031 72 10000 3.6 320 20:37 13.09.2019
1971 Clouds 19 1031 72 10000 3.6 320 20:19 13.09.2019
1972 Clouds 20 1031 64 10000 3.6 300 19:44 13.09.2019
1973 Clouds 21 1031 64 10000 3.6 300 19:22 13.09.2019
1974 Clouds 21 1031 60 10000 3.6 310 18:59 13.09.2019
1975 Clouds 22 1031 60 10000 4.1 310 18:38 13.09.2019
1976 Clouds 22 1031 60 10000 4.1 310 18:19 13.09.2019
1977 Clouds 22 1031 60 10000 4.1 310 18:19 13.09.2019
1978 Clouds 22 1031 60 10000 4.1 310 18:19 13.09.2019
1979 Clouds 22 1031 53 10000 4.1 320 17:44 13.09.2019
1980 Clouds 22 1031 53 10000 4.1 320 17:23 13.09.2019
1981 Clouds 22 1031 60 10000 4.1 340 17:00 13.09.2019
1982 Clouds 22 1031 64 10000 3.1 290 16:40 13.09.2019
1983 Clouds 22 1031 64 10000 3.1 290 16:20 13.09.2019
1984 Clouds 22 1031 56 10000 3.1 290 15:43 13.09.2019
1985 Clouds 22 1032 60 10000 3.6 290 15:25 13.09.2019
1986 Clouds 22 1031 57 10000 3.1 0 14:56 13.09.2019
1987 Clouds 22 1032 60 10000 2.1 0 14:37 13.09.2019
1988 Clouds 22 1032 60 10000 2.1 0 14:19 13.09.2019
1989 Clouds 22 1032 60 10000 3.1 260 13:44 13.09.2019
1990 Clouds 22 1032 68 10000 4.1 260 13:22 13.09.2019
1991 Clouds 21 1032 60 10000 3.6 240 12:54 13.09.2019
1992 Clouds 21 1032 68 10000 3.6 240 12:36 13.09.2019
1993 Clouds 20 1032 72 10000 1.5 240 12:18 13.09.2019
1994 Clouds 20 1032 72 10000 3.1 230 11:54 13.09.2019
1995 Clouds 19 1032 77 10000 3.1 210 11:18 13.09.2019
1996 Clouds 18 1032 82 10000 2.6 240 10:37 13.09.2019
1997 Clouds 17 1032 93 10000 1.5 190 10:19 13.09.2019
1998 Clouds 17 1031 93 10000 1.5 190 09:44 13.09.2019
1999 Clouds 16 1031 93 10000 1.5 190 09:23 13.09.2019
2000 Clouds 15 1031 100 10000 1.5 190 08:58 13.09.2019
2001 Clouds 15 1031 93 10000 1 0 08:40 13.09.2019
2002 Clouds 15 1031 93 10000 1 0 08:20 13.09.2019
2003 Clouds 13 1030 93 10000 2.1 0 07:45 13.09.2019
2004 Clouds 13 1030 93 10000 2.1 0 07:27 13.09.2019
2005 Clouds 13 1031 93 10000 1.5 160 06:45 13.09.2019
2006 Clear 13 1030 100 10000 1 0 05:47 13.09.2019
2007 Clear 14 1030 93 10000 1.83 225.775 04:51 13.09.2019
2008 Clear 14 1030 93 10000 0.5 0 03:38 13.09.2019
2009 Clear 14 1030 93 10000 1.5 190 02:20 13.09.2019
2010 Clear 15 1030 93 10000 1.5 190 01:42 13.09.2019
2011 Clear 15 1030 93 10000 1.5 190 01:22 13.09.2019
2012 Clear 15 1030 87 10000 1.5 200 00:38 13.09.2019
2013 Clear 16 1030 82 10000 0.5 0 23:58 12.09.2019
2014 Clear 16 1030 87 10000 1.5 190 23:35 12.09.2019
2015 Clear 17 1030 82 10000 2.1 180 22:59 12.09.2019
2016 Clear 17 1030 77 10000 1.98 251.95 22:41 12.09.2019
2017 Clear 17 1030 77 10000 1.98 251.95 22:23 12.09.2019
2018 Clear 17 1030 72 10000 3.6 210 21:57 12.09.2019
2019 Clear 18 1030 72 10000 2.6 210 21:38 12.09.2019
2020 Clear 18 1030 72 10000 2.6 210 21:19 12.09.2019
2021 Clouds 19 1029 68 10000 2.6 200 20:55 12.09.2019
2022 Clouds 19 1029 64 10000 3.1 210 20:37 12.09.2019
2023 Clouds 20 1029 64 10000 3.1 210 20:19 12.09.2019
2024 Clouds 20 1029 64 10000 3.1 210 20:19 12.09.2019
2025 Clouds 21 1029 56 10000 4.6 200 19:41 12.09.2019
2026 Clouds 22 1029 56 10000 4.6 200 19:20 12.09.2019
2027 Clouds 22 1029 60 10000 4.6 210 18:58 12.09.2019
2028 Clouds 23 1029 60 10000 5.7 210 18:37 12.09.2019
2029 Clouds 23 1029 60 10000 5.7 210 18:19 12.09.2019
2030 Clouds 23 1029 57 10000 5.1 220 17:56 12.09.2019
2031 Clouds 23 1029 57 10000 6.7 240 17:38 12.09.2019
2032 Clouds 23 1029 57 10000 6.7 240 17:19 12.09.2019
2033 Clouds 23 1029 64 10000 5.1 230 16:41 12.09.2019
2034 Clouds 23 1029 64 10000 5.1 230 16:21 12.09.2019
2035 Clouds 23 1030 64 10000 4.6 230 15:45 12.09.2019
2036 Clouds 23 1030 64 10000 4.6 230 15:27 12.09.2019
2037 Rain 22 1030 73 10000 3.1 210 14:58 12.09.2019
2038 Rain 22 1030 68 10000 3.6 250 14:40 12.09.2019
2039 Rain 22 1030 68 10000 3.6 250 14:40 12.09.2019
2040 Rain 22 1030 68 10000 5.1 250 14:21 12.09.2019
2041 Clouds 21 1030 77 10000 3.1 210 13:39 12.09.2019
2042 Clouds 21 1030 77 10000 3.1 210 13:21 12.09.2019
2043 Rain 21 1030 72 10000 3.1 240 12:49 12.09.2019
2044 Clouds 20 1030 72 10000 3.1 230 12:20 12.09.2019
2045 Clouds 20 1030 72 10000 3.1 230 12:20 12.09.2019
2046 Clouds 20 1030 68 10000 3.6 230 11:59 12.09.2019
2047 Clouds 20 1029 72 10000 4.1 220 11:41 12.09.2019
2048 Clouds 19 1029 72 10000 4.1 220 11:21 12.09.2019
2049 Clouds 19 1029 68 10000 3.6 200 10:57 12.09.2019
2050 Clouds 19 1029 72 10000 2.6 200 10:39 12.09.2019
2051 Clouds 18 1029 72 10000 2.6 200 10:20 12.09.2019
2052 Clouds 17 1028 72 10000 3.1 210 09:43 12.09.2019
2053 Rain 17 1028 77 10000 1.5 230 09:20 12.09.2019
2054 Rain 16 1028 77 10000 2.1 210 08:57 12.09.2019
2055 Rain 16 1028 77 10000 2.6 200 08:38 12.09.2019
2056 Rain 16 1028 77 10000 2.6 200 08:20 12.09.2019
2057 Rain 16 1027 72 10000 2.6 200 07:38 12.09.2019
2058 Clouds 16 1027 77 10000 2.32 242.715 07:18 12.09.2019
2059 Clouds 16 1027 72 10000 1.5 200 06:49 12.09.2019
2060 Clouds 16 1027 72 10000 1.5 200 06:49 12.09.2019
2061 Clouds 15 1026 72 10000 2.1 190 06:19 12.09.2019
2062 Clouds 15 1026 72 10000 2.6 200 05:48 12.09.2019
2063 Clouds 15 1026 72 10000 2.6 190 05:27 12.09.2019
2064 Clouds 15 1026 72 10000 2.1 190 04:31 12.09.2019
2065 Rain 16 1026 77 10000 2.6 190 01:48 12.09.2019
2066 Rain 16 1026 77 10000 1 0 01:30 12.09.2019
2067 Rain 16 1026 77 10000 2.6 180 00:58 12.09.2019
2068 Rain 16 1026 77 10000 2.82 223.016 00:40 12.09.2019
2069 Rain 16 1026 67 10000 2.1 200 00:22 12.09.2019
2070 Rain 17 1026 67 10000 2.2 205.04 23:41 11.09.2019
2071 Clouds 17 1025 52 10000 4.1 260 23:20 11.09.2019
2072 Clouds 17 1025 52 10000 3.6 250 22:56 11.09.2019
2073 Clouds 17 1025 52 10000 3.1 230 22:37 11.09.2019
2074 Clouds 17 1025 52 10000 3.1 230 22:18 11.09.2019
2075 Clear 17 1025 52 10000 2.6 230 21:42 11.09.2019
2076 Clear 18 1025 55 10000 3.1 220 21:24 11.09.2019
2077 Clouds 18 1024 52 10000 2.6 220 20:57 11.09.2019
2078 Rain 18 1024 52 10000 4.1 220 20:39 11.09.2019
2079 Rain 18 1024 52 10000 2.6 270 20:19 11.09.2019
2080 Rain 18 1024 45 10000 5.1 230 19:58 11.09.2019
2081 Rain 18 1024 45 10000 5.1 240 19:39 11.09.2019
2082 Rain 18 1024 45 10000 5.1 240 19:21 11.09.2019
2083 Clear 19 1023 43 10000 6.2 250 18:56 11.09.2019
2084 Clear 20 1023 43 10000 7.2 220 18:38 11.09.2019
2085 Clear 20 1023 43 10000 7.2 220 18:19 11.09.2019
2086 Clear 20 1023 43 10000 7.2 220 18:19 11.09.2019
2087 Clear 20 1023 43 10000 7.2 220 18:19 11.09.2019
2088 Clear 21 1023 40 10000 7.2 220 17:55 11.09.2019
2089 Clear 21 1023 37 10000 4.1 190 17:37 11.09.2019
2090 Clear 21 1023 37 10000 4.1 190 17:19 11.09.2019
2091 Clear 22 1023 43 10000 3.1 200 16:46 11.09.2019
2092 Clear 22 1023 40 10000 5.1 210 16:25 11.09.2019
2093 Clear 22 1023 40 10000 4.6 200 15:54 11.09.2019
2094 Clear 22 1023 40 10000 4.1 200 15:36 11.09.2019
2095 Clear 22 1023 40 10000 4.1 200 15:18 11.09.2019
2096 Clouds 22 1023 37 10000 4.6 210 14:42 11.09.2019
2097 Clouds 22 1023 40 10000 3.1 240 14:21 11.09.2019
2098 Clouds 22 1023 43 10000 3.1 190 13:59 11.09.2019
2099 Clouds 21 1023 49 10000 3.6 200 13:38 11.09.2019
2100 Clouds 21 1023 49 10000 3.6 200 13:20 11.09.2019
2101 Clouds 21 1023 49 10000 3.6 200 13:20 11.09.2019
2102 Clouds 20 1024 52 10000 2.6 180 12:56 11.09.2019
2103 Clouds 20 1024 55 10000 1.5 0 12:38 11.09.2019
2104 Clouds 19 1024 55 10000 1.5 0 12:20 11.09.2019
2105 Clouds 18 1024 63 10000 1 0 11:39 11.09.2019
2106 Clouds 17 1024 63 10000 1 0 11:21 11.09.2019
2107 Clear 16 1024 67 10000 1 0 10:57 11.09.2019
2108 Clear 15 1024 71 10000 1 0 10:38 11.09.2019
2109 Clear 14 1024 71 10000 2.13 190.692 10:19 11.09.2019
2110 Clear 13 1023 81 10000 2.1 90 09:40 11.09.2019
2111 Clear 11 1023 81 10000 2.1 90 09:20 11.09.2019
2112 Clear 10 1023 93 10000 2.6 80 08:56 11.09.2019
2113 Clear 9 1023 100 10000 1.5 60 08:38 11.09.2019
2114 Clear 8 1023 100 10000 1.5 60 08:20 11.09.2019
2115 Clear 7 1023 93 10000 0.5 0 07:40 11.09.2019
2116 Clear 7 1023 93 10000 0.5 0 07:22 11.09.2019
2117 Clear 7 1022 93 10000 0.5 0 06:48 11.09.2019
2118 Clear 7 1022 100 10000 1.5 360 06:30 11.09.2019
2119 Clear 7 1022 100 10000 0.54 265.396 05:37 11.09.2019
2120 Clear 7 1022 81 10000 0.54 265.396 05:19 11.09.2019
2121 Clear 8 1021 93 10000 0.5 170 04:39 11.09.2019
2122 Clear 8 1021 93 10000 1 0 03:32 11.09.2019
2123 Clear 9 1021 93 10000 1 210 02:42 11.09.2019
2124 Clear 9 1021 93 10000 1 210 02:18 11.09.2019
2125 Clear 10 1021 93 10000 1 0 00:52 11.09.2019
2126 Clear 10 1021 93 10000 1 0 00:23 11.09.2019
2127 Clear 11 1021 87 10000 1 0 23:55 10.09.2019
2128 Clear 11 1020 81 10000 1.5 0 23:37 10.09.2019
2129 Clear 11 1020 81 10000 1.5 0 23:19 10.09.2019
2130 Clear 11 1021 66 10000 1.5 280 23:19 10.09.2019
2131 Clear 12 1020 76 10000 0.5 0 22:41 10.09.2019
2132 Clear 12 1020 76 10000 0.5 0 22:19 10.09.2019
2133 Clear 12 1020 76 10000 2.1 300 21:56 10.09.2019
2134 Clear 13 1020 71 10000 1 0 21:38 10.09.2019
2135 Clear 13 1020 71 10000 1 0 21:20 10.09.2019
2136 Clear 13 1019 66 10000 1.5 240 20:58 10.09.2019
2137 Clear 14 1019 58 10000 1 230 20:39 10.09.2019
2138 Clear 15 1019 58 10000 1 230 20:21 10.09.2019
2139 Clear 16 1018 55 10000 1.5 200 19:57 10.09.2019
2140 Clear 17 1018 52 10000 2.1 270 19:37 10.09.2019
2141 Clear 18 1018 52 10000 2.1 270 19:19 10.09.2019
2142 Clear 19 1018 40 10000 2.1 260 18:56 10.09.2019
2143 Clear 19 1018 32 10000 3.1 300 18:37 10.09.2019
2144 Clear 20 1018 32 10000 3.1 300 18:19 10.09.2019
2145 Clear 20 1018 32 10000 1.5 0 17:54 10.09.2019
2146 Clear 20 1018 30 10000 3.6 240 17:36 10.09.2019
2147 Clear 20 1018 30 10000 3.6 240 17:18 10.09.2019
2148 Clear 20 1018 32 10000 2.6 0 16:55 10.09.2019
2149 Clear 20 1018 34 10000 3.6 200 16:36 10.09.2019
2150 Clear 20 1018 34 10000 3.6 200 16:18 10.09.2019
2151 Clear 20 1018 34 10000 3.6 200 16:18 10.09.2019
2152 Clouds 20 1018 42 10000 1.5 0 15:42 10.09.2019
2153 Clouds 19 1018 42 10000 1.5 0 15:21 10.09.2019
2154 Clouds 20 1018 48 10000 1.5 0 14:55 10.09.2019
2155 Clouds 19 1018 52 10000 1.5 0 14:36 10.09.2019
2156 Clouds 19 1018 52 10000 1.5 0 14:18 10.09.2019
2157 Clouds 19 1018 52 10000 1.5 90 13:43 10.09.2019
2158 Clouds 19 1018 52 10000 1.5 90 13:22 10.09.2019
2159 Clouds 18 1018 67 10000 1.5 0 12:50 10.09.2019
2160 Clouds 17 1018 77 10000 2.1 90 12:28 10.09.2019
2161 Clouds 15 1018 82 9000 2.6 10 11:58 10.09.2019
2162 Mist 15 1018 87 5000 3.1 350 11:40 10.09.2019
2163 Mist 14 1018 87 10000 0.94 218.459 11:21 10.09.2019
2164 Mist 14 1018 100 3500 1.5 90 10:42 10.09.2019
2165 Mist 13 1018 100 3500 1.5 90 10:21 10.09.2019
2166 Fog 12 1018 93 10000 1.5 160 09:58 10.09.2019
2167 Fog 11 1017 100 700 2.6 80 09:40 10.09.2019
2168 Fog 10 1017 100 700 2.6 80 09:19 10.09.2019
2169 Fog 9 1017 100 200 3.1 70 08:47 10.09.2019
2170 Fog 9 1017 100 200 3.1 70 08:28 10.09.2019
2171 Fog 8 1016 100 2500 3.1 70 07:56 10.09.2019
2172 Fog 8 1016 93 400 2.1 30 07:37 10.09.2019
2173 Fog 8 1016 93 10000 0.1 75.403 07:19 10.09.2019
2174 Clouds 8 1016 100 10000 1 0 06:39 10.09.2019
2175 Clouds 8 1016 100 10000 1 0 06:39 10.09.2019
2176 Clouds 8 1016 100 10000 1 0 06:19 10.09.2019
2177 Clear 8 1016 93 10000 0.5 0 04:18 10.09.2019
2178 Clear 9 1015 100 10000 0.5 0 02:38 10.09.2019
2179 Clear 9 1015 100 10000 0.5 0 02:38 10.09.2019
2180 Clear 9 1016 87 10000 0.11 215.417 02:20 10.09.2019
2181 Clear 9 1016 87 10000 0.11 215.417 02:20 10.09.2019
2182 Clear 9 1015 100 10000 0.5 0 01:50 10.09.2019
2183 Clear 9 1015 93 10000 1 0 01:50 10.09.2019
2184 Clear 9 1015 93 10000 1 0 01:50 10.09.2019
2185 Clear 9 1015 100 10000 0.5 0 01:50 10.09.2019
2186 Clear 10 1015 93 10000 1 0 01:22 10.09.2019
2187 Clear 10 1015 93 10000 1 0 00:36 10.09.2019
2188 Clear 10 1015 93 10000 1 0 00:36 10.09.2019
2189 Clear 10 1015 100 10000 2.1 340 23:58 09.09.2019
2190 Clear 11 1015 93 10000 1 0 23:40 09.09.2019
2191 Clear 11 1015 93 10000 1 0 23:18 09.09.2019
2192 Clear 11 1015 81 10000 0.5 0 22:54 09.09.2019
2193 Clear 11 1015 81 10000 0.5 0 22:36 09.09.2019
2194 Clear 11 1015 87 10000 1 0 22:18 09.09.2019
2195 Clear 12 1015 87 10000 1 0 21:55 09.09.2019
2196 Clear 12 1015 87 10000 1 0 21:55 09.09.2019
2197 Clear 12 1015 81 10000 1 0 21:36 09.09.2019
2198 Clouds 12 1015 76 10000 0.59 240.038 21:18 09.09.2019
2199 Clear 13 1015 87 10000 1 220 20:55 09.09.2019
2200 Clear 13 1014 76 10000 1.5 270 20:36 09.09.2019
2201 Clouds 14 1015 62 10000 1.21 251.056 20:18 09.09.2019
2202 Clouds 15 1014 67 10000 1.5 270 19:55 09.09.2019
2203 Clouds 15 1014 67 10000 1.5 270 19:37 09.09.2019
2204 Clouds 16 1014 59 10000 2.1 270 19:18 09.09.2019
2205 Clouds 15 1014 59 10000 2.1 270 19:18 09.09.2019
2206 Clouds 16 1014 59 10000 2.1 270 18:54 09.09.2019
2207 Clouds 16 1014 59 10000 1 0 18:36 09.09.2019
2208 Clouds 16 1014 59 10000 2.6 300 18:18 09.09.2019
2209 Clouds 16 1014 59 10000 2.6 300 17:55 09.09.2019
2210 Clouds 16 1014 59 10000 2.6 280 17:37 09.09.2019
2211 Clouds 17 1014 63 10000 1.5 290 17:19 09.09.2019
2212 Clouds 17 1014 63 10000 2.6 300 16:40 09.09.2019
2213 Clouds 17 1014 63 10000 2.6 300 16:21 09.09.2019
2214 Clouds 16 1015 63 10000 4.1 300 15:56 09.09.2019
2215 Clouds 16 1015 67 10000 3.1 310 15:38 09.09.2019
2216 Clouds 16 1015 67 10000 3.1 310 15:20 09.09.2019
2217 Clouds 16 1015 67 10000 3.1 320 14:57 09.09.2019
2218 Clouds 16 1015 72 10000 4.1 0 14:39 09.09.2019
2219 Clouds 16 1015 72 10000 4.1 0 14:39 09.09.2019
2220 Clouds 16 1015 72 10000 4.1 0 14:21 09.09.2019
2221 -273 0 0 0 0 0 13:55 09.09.2019
2222 Clouds 15 1016 72 10000 4.1 330 13:36 09.09.2019
2223 Rain 15 1015 76 10000 3.6 0 13:18 09.09.2019
2224 Rain 14 1015 82 10000 3.6 300 12:42 09.09.2019
2225 Rain 14 1015 82 10000 3.6 300 12:22 09.09.2019
2226 Clouds 14 1015 87 10000 5.1 290 11:58 09.09.2019
2227 Clouds 14 1015 87 10000 5.1 290 11:40 09.09.2019
2228 Clouds 13 1016 76 10000 2.6 320 11:18 09.09.2019
2229 Clouds 13 1015 87 10000 3.6 280 10:42 09.09.2019
2230 Clouds 13 1015 87 10000 3.6 280 10:23 09.09.2019
2231 Clouds 13 1015 87 10000 4.1 260 09:58 09.09.2019
2232 Clouds 12 1015 93 10000 4.1 270 09:40 09.09.2019
2233 Clouds 12 1015 82 10000 3.1 300 09:21 09.09.2019
2234 Clouds 12 1015 93 10000 3.1 250 08:55 09.09.2019
2235 Clouds 12 1015 93 10000 3.1 250 08:37 09.09.2019
2236 Clouds 11 1015 93 10000 3.1 250 08:18 09.09.2019
2237 Rain 11 1015 87 10000 2.6 260 07:40 09.09.2019
2238 Clouds 11 1016 87 10000 1.5 300 07:20 09.09.2019
2239 Clear 11 1015 93 10000 2.6 230 06:50 09.09.2019
2240 Rain 11 1015 100 10000 1.5 230 05:56 09.09.2019
2241 Clouds 11 1016 93 10000 1.5 250 03:21 09.09.2019
2242 Rain 12 1016 93 10000 2.1 320 02:41 09.09.2019
2243 Rain 12 1016 93 10000 2.1 300 01:22 09.09.2019
2244 Rain 12 1017 82 10000 3.6 10 00:24 09.09.2019
2245 Rain 12 1017 93 10000 1.5 330 23:55 08.09.2019
2246 Rain 12 1017 100 10000 2.6 340 23:37 08.09.2019
2247 Clouds 12 1017 87 10000 3.1 350 23:19 08.09.2019
2248 Rain 12 1017 87 10000 2.6 310 22:40 08.09.2019
2249 Rain 12 1017 87 10000 2.6 310 22:22 08.09.2019
2250 Rain 13 1017 87 10000 1.5 300 21:58 08.09.2019
2251 Rain 13 1017 93 10000 2.6 300 21:39 08.09.2019
2252 Rain 13 1017 93 10000 2.6 300 21:39 08.09.2019
2253 Rain 13 1017 93 10000 2.6 300 21:21 08.09.2019
2254 Rain 13 1017 93 10000 3.1 310 20:54 08.09.2019
2255 Rain 13 1017 93 10000 2.1 320 20:36 08.09.2019
2256 Rain 13 1017 93 10000 3.1 10 20:18 08.09.2019
2257 Rain 13 1017 93 10000 3.1 10 20:18 08.09.2019
2258 Rain 13 1016 82 10000 2.1 30 19:39 08.09.2019
2259 Rain 14 1016 82 10000 2.1 30 19:21 08.09.2019
2260 Rain 14 1016 72 10000 3.1 40 18:58 08.09.2019
2261 Rain 14 1017 77 10000 2.6 30 18:39 08.09.2019
2262 Drizzle 15 1017 77 10000 2.6 30 18:19 08.09.2019
2263 Clouds 15 1016 67 10000 2.6 10 17:58 08.09.2019
2264 Rain 15 1017 72 10000 2.6 30 17:37 08.09.2019
2265 Rain 15 1017 72 10000 2.6 30 17:19 08.09.2019
2266 Rain 15 1016 77 10000 2.6 10 16:56 08.09.2019
2267 Clouds 15 1017 77 10000 2.6 360 16:37 08.09.2019
2268 Clouds 15 1017 77 10000 2.6 360 16:19 08.09.2019
2269 Clouds 15 1017 77 10000 3.6 360 15:42 08.09.2019
2270 Clouds 14 1017 77 10000 3.6 360 15:22 08.09.2019
2271 Clouds 14 1017 82 10000 4.1 10 14:59 08.09.2019
2272 Clouds 14 1018 87 10000 4.1 30 14:40 08.09.2019
2273 Clouds 14 1018 87 10000 4.1 30 14:21 08.09.2019
2274 Clouds 14 1017 82 10000 2.6 360 13:58 08.09.2019
2275 Clouds 14 1017 82 10000 3.1 10 13:40 08.09.2019
2276 Clouds 14 1017 82 10000 3.1 10 13:21 08.09.2019
2277 Clouds 14 1017 82 10000 3.1 10 13:21 08.09.2019
2278 Clouds 13 1018 87 10000 3.6 360 12:55 08.09.2019
2279 Rain 13 1018 82 10000 3.1 20 12:37 08.09.2019
2280 Rain 13 1018 87 10000 3.1 360 12:19 08.09.2019
2281 Rain 13 1018 87 10000 3.6 30 11:56 08.09.2019
2282 Rain 13 1018 87 10000 2.1 10 11:37 08.09.2019
2283 Rain 13 1018 87 10000 2.1 10 11:19 08.09.2019
2284 Rain 12 1018 82 10000 2.6 40 10:42 08.09.2019
2285 Rain 12 1018 82 10000 2.6 40 10:23 08.09.2019
2286 Rain 12 1017 100 10000 2.6 360 09:56 08.09.2019
2287 Rain 12 1018 93 10000 2.1 360 09:37 08.09.2019
2288 Rain 12 1018 93 10000 2.1 360 09:19 08.09.2019
2289 Rain 12 1017 93 6000 2.1 360 08:40 08.09.2019
2290 Rain 12 1018 93 10000 2.1 350 08:19 08.09.2019
2291 Rain 11 1018 93 6000 2.6 330 07:58 08.09.2019
2292 Rain 11 1018 93 6000 2.6 320 07:37 08.09.2019
2293 Rain 11 1018 93 9000 1.5 360 07:19 08.09.2019
2294 Rain 11 1018 93 8000 2.1 310 06:41 08.09.2019
2295 Rain 11 1018 93 10000 1.5 300 05:40 08.09.2019
2296 Rain 11 1018 93 10000 0.76 287.39 05:21 08.09.2019
2297 Rain 12 1018 93 10000 0.86 256.512 03:24 08.09.2019
2298 Rain 12 1018 93 10000 1.5 250 02:48 08.09.2019
2299 Rain 12 1018 93 10000 2.1 250 01:54 08.09.2019
2300 Rain 12 1018 93 10000 2.1 250 01:33 08.09.2019
2301 Rain 12 1018 93 10000 2.1 250 01:33 08.09.2019
2302 Rain 12 1019 93 10000 0.32 179.823 00:49 08.09.2019
2303 Rain 12 1019 93 10000 2.1 240 00:31 08.09.2019
2304 Rain 12 1019 93 10000 2.1 260 23:59 07.09.2019
2305 Rain 12 1019 93 10000 2.6 0 23:37 07.09.2019
2306 Rain 12 1019 93 10000 2.6 0 23:19 07.09.2019
2307 Rain 12 1019 93 10000 1 0 22:44 07.09.2019
2308 Rain 12 1019 93 10000 1 0 22:25 07.09.2019
2309 Rain 12 1019 93 10000 0.32 195.271 21:59 07.09.2019
2310 Rain 13 1019 93 10000 1.5 200 21:40 07.09.2019
2311 Rain 12 1019 93 10000 1.5 200 21:22 07.09.2019
2312 Rain 13 1019 87 10000 1.5 190 20:41 07.09.2019
2313 Rain 13 1019 87 10000 1.5 190 20:22 07.09.2019
2314 Rain 14 1019 82 10000 0.39 171.766 19:57 07.09.2019
2315 Clouds 14 1019 77 10000 0.39 171.766 19:39 07.09.2019
2316 Clouds 14 1019 77 10000 0.39 171.766 19:20 07.09.2019
2317 Clouds 14 1018 82 10000 1.5 200 18:59 07.09.2019
2318 Clouds 15 1018 77 10000 1.5 190 18:40 07.09.2019
2319 Clouds 15 1018 77 10000 1.5 190 18:22 07.09.2019
2320 Clouds 15 1018 77 10000 1.5 190 17:59 07.09.2019
2321 Clouds 15 1019 87 10000 1.5 206.155 17:40 07.09.2019
2322 Clouds 15 1019 87 10000 1.5 206.155 17:19 07.09.2019
2323 Clouds 15 1019 87 10000 1.5 206.155 17:19 07.09.2019
2324 Clouds 14 1019 87 10000 1.5 206.155 16:59 07.09.2019
2325 Clouds 14 1019 87 10000 1.5 206.155 16:59 07.09.2019
2326 Clouds 14 1019 82 10000 3.1 180 16:40 07.09.2019
2327 Clouds 14 1019 82 10000 3.1 180 16:19 07.09.2019
2328 Clouds 14 1019 93 10000 1.5 206.155 15:47 07.09.2019
2329 Rain 13 1019 87 10000 4.1 230 15:26 07.09.2019
2330 Rain 13 1019 93 10000 4.1 220 14:57 07.09.2019
2331 Rain 13 1019 87 10000 3.6 200 14:37 07.09.2019
2332 Rain 13 1019 87 10000 3.6 200 14:19 07.09.2019
2333 Rain 13 1019 93 10000 1.5 200 13:57 07.09.2019
2334 Rain 13 1019 87 10000 1.5 190 13:39 07.09.2019
2335 Rain 13 1019 87 10000 1.5 190 13:39 07.09.2019
2336 Rain 13 1020 93 10000 2.1 210 13:21 07.09.2019
2337 Rain 13 1020 93 10000 2.6 170 12:44 07.09.2019
2338 Rain 13 1020 93 10000 2.1 210 12:25 07.09.2019
2339 Rain 13 1020 93 10000 2.6 180 11:57 07.09.2019
2340 Rain 13 1020 93 10000 2.1 250 11:39 07.09.2019
2341 Rain 12 1020 87 6000 1.11 146.937 11:19 07.09.2019
2342 Rain 12 1020 87 10000 1 0 11:19 07.09.2019
2343 Rain 12 1020 93 10000 1 0 10:40 07.09.2019
2344 Rain 12 1020 93 10000 1 0 10:22 07.09.2019
2345 Rain 12 1019 87 10000 1.5 130 09:56 07.09.2019
2346 Rain 12 1019 81 10000 1.5 210 09:37 07.09.2019
2347 Rain 12 1019 76 10000 1.5 260 09:19 07.09.2019
2348 Rain 12 1019 76 10000 1 0 08:44 07.09.2019
2349 Rain 11 1019 76 10000 1 0 08:25 07.09.2019
2350 Clear 11 1019 81 10000 2.6 190 07:46 07.09.2019
2351 Clear 11 1019 81 10000 2.6 190 07:27 07.09.2019
2352 Clear 11 1019 81 10000 1 0 06:50 07.09.2019
2353 Clear 10 1019 81 10000 1 0 06:20 07.09.2019
2354 Clear 10 1019 76 10000 1 0 04:49 07.09.2019
2355 Clear 10 1019 76 10000 1.5 150 04:23 07.09.2019
2356 Clear 11 1019 76 10000 1.5 210 02:50 07.09.2019
2357 Clear 11 1019 76 10000 1 0 02:20 07.09.2019
2358 Clear 11 1019 71 10000 2.1 250 01:26 07.09.2019
2359 Clear 11 1020 71 10000 1 0 00:42 07.09.2019
2360 Clouds 11 1020 66 10000 1.5 330 00:19 07.09.2019
2361 Clear 11 1020 66 10000 1 200 23:41 06.09.2019
2362 Clear 11 1020 66 10000 1 200 23:22 06.09.2019
2363 Clear 11 1020 66 10000 1 200 23:22 06.09.2019
2364 Clear 12 1020 66 10000 1.5 240 22:58 06.09.2019
2365 Clear 12 1020 62 10000 1 0 22:39 06.09.2019
2366 Clear 12 1020 62 10000 1 0 22:19 06.09.2019
2367 Clear 13 1020 58 10000 1 0 21:58 06.09.2019
2368 Clear 13 1020 58 10000 1 0 21:58 06.09.2019
2369 Clear 13 1020 54 10000 2.1 150 21:39 06.09.2019
2370 Clear 14 1020 54 10000 2.1 150 21:21 06.09.2019
2371 Clear 14 1020 47 10000 2.1 160 20:58 06.09.2019
2372 Clear 15 1020 42 10000 2.1 180 20:40 06.09.2019
2373 Clear 16 1020 42 10000 2.1 180 20:21 06.09.2019
2374 Clear 17 1020 34 10000 2.6 200 19:58 06.09.2019
2375 Clear 18 1020 32 10000 2.6 220 19:39 06.09.2019
2376 Clear 19 1021 32 10000 2.6 230 19:20 06.09.2019
2377 Clear 19 1020 32 10000 2.6 220 19:20 06.09.2019
2378 Clear 19 1021 34 10000 3.6 230 18:47 06.09.2019
2379 Clear 20 1021 34 10000 3.6 230 18:28 06.09.2019
2380 Clear 21 1021 30 10000 3.1 170 17:59 06.09.2019
2381 Clear 20 1021 30 10000 4.6 220 17:38 06.09.2019
2382 Clear 20 1021 30 10000 4.6 220 17:20 06.09.2019
2383 Clear 21 1022 35 10000 2.1 0 16:42 06.09.2019
2384 Clear 20 1022 35 10000 2.1 0 16:19 06.09.2019
2385 Clear 20 1022 32 10000 2.1 0 15:59 06.09.2019
2386 Clear 20 1022 37 10000 2.1 0 15:40 06.09.2019
2387 Clear 20 1022 37 10000 2.1 0 15:22 06.09.2019
2388 Clear 20 1023 42 10000 1 0 14:41 06.09.2019
2389 Clear 19 1023 42 10000 1 0 14:19 06.09.2019
2390 Clouds 19 1024 45 10000 1.5 0 13:44 06.09.2019
2391 Clouds 18 1024 45 10000 1.5 0 13:23 06.09.2019
2392 Clouds 18 1024 45 10000 2.1 150 12:56 06.09.2019
2393 Clouds 18 1025 48 10000 2.1 140 12:36 06.09.2019
2394 Clouds 17 1025 51 10000 2.6 100 12:18 06.09.2019
2395 Clouds 17 1025 55 10000 2.6 80 11:40 06.09.2019
2396 Clouds 16 1025 55 10000 2.6 80 11:22 06.09.2019
2397 Clouds 15 1025 55 10000 3.6 40 10:56 06.09.2019
2398 Clouds 15 1025 58 10000 4.1 40 10:38 06.09.2019
2399 Clouds 14 1025 58 10000 4.1 40 10:18 06.09.2019
2400 Clear 13 1026 66 10000 3.1 30 09:38 06.09.2019
2401 Clear 12 1026 66 10000 3.1 30 09:20 06.09.2019
2402 Clear 11 1026 71 10000 2.1 30 08:56 06.09.2019
2403 Clear 11 1026 81 10000 2.6 10 08:37 06.09.2019
2404 Clear 9 1025 87 10000 3.1 360 08:19 06.09.2019
2405 Clear 9 1025 93 10000 2.1 10 07:44 06.09.2019
2406 Clear 8 1025 93 10000 2.1 10 07:25 06.09.2019
2407 Clear 8 1025 93 10000 2.1 10 07:25 06.09.2019
2408 Clear 8 1025 87 10000 1 70 06:53 06.09.2019
2409 Clear 9 1025 81 10000 0.5 0 05:58 06.09.2019
2410 Clear 9 1025 81 10000 0.5 0 05:58 06.09.2019
2411 Clear 9 1025 93 10000 1.5 160 05:19 06.09.2019
2412 Clear 9 1025 81 10000 1.5 360 04:38 06.09.2019
2413 Clear 10 1025 81 10000 2.1 330 03:42 06.09.2019
2414 Clear 12 1025 71 10000 3.6 330 01:51 06.09.2019
2415 Clear 13 1025 62 10000 3.1 320 00:32 06.09.2019
2416 Clear 14 1024 67 10000 4.6 0 23:44 05.09.2019
2417 Clear 14 1024 67 10000 4.6 0 23:24 05.09.2019
2418 Clear 14 1024 63 10000 5.1 300 22:55 05.09.2019
2419 Clear 14 1024 63 10000 5.1 300 22:55 05.09.2019
2420 Clear 14 1024 63 10000 6.2 300 22:37 05.09.2019
2421 Clouds 15 1024 62 10000 3.1 330 22:19 05.09.2019
2422 Clear 15 1024 59 10000 5.1 300 21:56 05.09.2019
2423 Clouds 15 1023 59 10000 5.1 300 21:37 05.09.2019
2424 Clouds 16 1023 59 10000 5.1 300 21:19 05.09.2019
2425 Clouds 16 1023 59 10000 6.7 310 20:55 05.09.2019
2426 Clouds 16 1022 55 10000 4.1 300 20:36 05.09.2019
2427 Clouds 16 1022 51 10000 5.1 330 20:18 05.09.2019
2428 Clouds 17 1022 55 10000 6.2 310 19:42 05.09.2019
2429 Clear 17 1022 55 10000 5.1 0 19:23 05.09.2019
2430 Clear 18 1022 55 10000 5.1 0 18:57 05.09.2019
2431 Clear 18 1021 48 10000 8.2 330 18:39 05.09.2019
2432 Clear 19 1021 40 10000 7.7 310 18:19 05.09.2019
2433 Clear 19 1021 40 10000 7.7 310 17:55 05.09.2019
2434 Clear 20 1020 42 10000 6.7 300 17:37 05.09.2019
2435 Clouds 19 1021 42 10000 6.2 310 17:18 05.09.2019
2436 Clear 20 1020 42 10000 4.6 320 16:40 05.09.2019
2437 Clouds 20 1020 40 10000 4.1 330 16:20 05.09.2019
2438 Clear 20 1020 42 10000 4.6 310 15:58 05.09.2019
2439 Clouds 19 1020 42 10000 3.1 280 15:39 05.09.2019
2440 Clouds 20 1020 52 10000 4.1 310 15:18 05.09.2019
2441 Clouds 19 1019 45 10000 4.6 290 14:43 05.09.2019
2442 Clouds 19 1019 45 10000 4.6 290 14:22 05.09.2019
2443 Clouds 18 1019 48 10000 3.6 290 13:44 05.09.2019
2444 Clouds 19 1019 48 10000 3.6 290 13:24 05.09.2019
2445 Clouds 18 1019 52 10000 4.6 310 12:59 05.09.2019
2446 Clouds 18 1019 55 10000 3.6 230 12:41 05.09.2019
2447 Clouds 17 1019 52 10000 5.1 310 12:23 05.09.2019
2448 Clouds 17 1019 63 10000 3.6 250 11:44 05.09.2019
2449 Clear 17 1019 59 10000 3.6 320 11:20 05.09.2019
2450 Clouds 16 1019 67 10000 3.6 250 10:59 05.09.2019
2451 Clouds 16 1019 67 10000 4.6 250 10:37 05.09.2019
2452 Clouds 16 1019 67 10000 4.6 250 10:19 05.09.2019
2453 Clouds 15 1018 72 10000 3.6 250 09:41 05.09.2019
2454 Clouds 15 1018 72 10000 3.6 250 09:22 05.09.2019
2455 Clouds 14 1018 82 10000 2.6 250 08:57 05.09.2019
2456 Clouds 14 1017 87 10000 3.6 270 08:39 05.09.2019
2457 Clouds 13 1017 87 10000 3.6 270 08:21 05.09.2019
2458 Clouds 13 1017 93 10000 2.6 250 07:44 05.09.2019
2459 Clouds 13 1017 93 10000 2.6 250 07:25 05.09.2019
2460 Clouds 13 1016 93 10000 3.6 290 06:50 05.09.2019
2461 Clouds 14 1016 93 10000 3.6 290 06:29 05.09.2019
2462 Clouds 14 1016 82 10000 3.1 280 05:49 05.09.2019
2463 Clouds 14 1016 82 10000 3.1 280 05:28 05.09.2019
2464 Clouds 15 1015 93 10000 1.5 190 04:47 05.09.2019
2465 Clouds 15 1016 82 10000 2.6 280 04:19 05.09.2019
2466 Clouds 16 1016 87 10000 2.6 290 03:27 05.09.2019
2467 Clouds 16 1015 87 10000 2.1 190 02:42 05.09.2019
2468 Clouds 16 1015 87 10000 2.1 190 02:18 05.09.2019
2469 Drizzle 16 1015 72 10000 2.6 320 01:25 05.09.2019
2470 Rain 17 1015 82 10000 4.1 290 00:42 05.09.2019
2471 Clouds 18 1015 77 10000 2.6 300 00:20 05.09.2019
2472 Rain 18 1015 63 10000 5.1 310 23:46 04.09.2019
2473 Clear 19 1014 63 10000 5.1 300 23:23 04.09.2019
2474 Clear 18 1014 60 10000 6.2 320 22:59 04.09.2019
2475 Clear 18 1014 52 10000 7.2 320 22:38 04.09.2019
2476 Clouds 18 1014 60 10000 5.1 340 22:18 04.09.2019
2477 Clear 20 1013 43 10000 3.6 260 21:39 04.09.2019
2478 Clear 21 1013 43 10000 3.6 260 21:20 04.09.2019
2479 Clear 21 1013 38 10000 4.6 250 20:56 04.09.2019
2480 Clear 21 1013 38 10000 4.1 240 20:37 04.09.2019
2481 Clouds 22 1013 38 10000 5.1 280 20:18 04.09.2019
2482 Clear 22 1013 36 10000 5.1 230 19:55 04.09.2019
2483 Clear 23 1013 36 10000 5.1 230 19:36 04.09.2019
2484 Clear 23 1013 34 10000 5.7 230 19:18 04.09.2019
2485 Clear 24 1013 34 10000 6.2 220 18:38 04.09.2019
2486 Clear 25 1013 34 10000 6.2 240 18:19 04.09.2019
2487 Clear 26 1013 32 10000 5.7 230 17:41 04.09.2019
2488 Clear 26 1013 32 10000 5.7 230 17:23 04.09.2019
2489 Clear 26 1014 34 10000 6.2 230 16:58 04.09.2019
2490 Clear 26 1014 34 10000 6.2 240 16:40 04.09.2019
2491 Clear 26 1014 34 10000 6.2 240 16:21 04.09.2019
2492 Clear 25 1014 34 10000 5.1 210 15:55 04.09.2019
2493 Clear 25 1014 34 10000 5.1 210 15:55 04.09.2019
2494 Clear 25 1015 38 10000 5.1 220 15:37 04.09.2019
2495 Clouds 25 1015 36 10000 4.6 220 15:19 04.09.2019
2496 Clear 25 1015 39 10000 3.1 170 14:54 04.09.2019
2497 Clouds 25 1015 41 10000 4.6 180 14:36 04.09.2019
2498 Clear 24 1016 38 10000 3.1 240 14:18 04.09.2019
2499 Clouds 24 1017 49 10000 4.6 200 13:40 04.09.2019
2500 Clouds 23 1017 49 10000 4.6 200 13:21 04.09.2019
2501 Clouds 23 1017 46 10000 3.6 230 12:56 04.09.2019
2502 Clouds 22 1017 49 10000 3.6 180 12:37 04.09.2019
2503 Clouds 22 1018 52 10000 2.6 190 12:19 04.09.2019
2504 Clouds 21 1018 56 10000 2.1 0 11:41 04.09.2019
2505 Clouds 20 1018 56 10000 2.1 0 11:21 04.09.2019
2506 Clouds 19 1019 63 10000 2.1 230 10:59 04.09.2019
2507 Clouds 19 1019 63 10000 2.1 230 10:59 04.09.2019
2508 Clouds 19 1019 63 10000 2.1 240 10:41 04.09.2019
2509 Clouds 18 1019 63 10000 2.1 240 10:23 04.09.2019
2510 Clear 17 1019 67 10000 1 0 09:47 04.09.2019
2511 Clear 16 1019 67 10000 1 0 09:27 04.09.2019
2512 Clear 14 1019 76 10000 1 0 08:59 04.09.2019
2513 Clear 12 1019 87 10000 1 220 08:40 04.09.2019
2514 Clear 12 1019 87 10000 1 220 08:21 04.09.2019
2515 Clear 11 1019 93 10000 0.5 0 07:48 04.09.2019
2516 Clear 11 1019 93 10000 0.5 0 07:29 04.09.2019
2517 Clear 11 1020 93 10000 1.5 150 06:40 04.09.2019
2518 Clear 11 1020 93 10000 1.5 150 05:51 04.09.2019
2519 Clear 11 1020 87 10000 1 230 04:52 04.09.2019
2520 Clear 12 1022 71 10000 0.53 276.99 03:52 04.09.2019
2521 Clear 13 1022 76 10000 1.5 360 01:39 04.09.2019
2522 Clear 14 1022 76 10000 1.5 360 00:54 04.09.2019
2523 Clear 15 1022 72 10000 1.5 350 00:33 04.09.2019
2524 Clear 15 1022 59 10000 4.1 20 23:56 03.09.2019
2525 Clear 16 1022 59 10000 4.1 40 23:38 03.09.2019
2526 Clear 16 1022 59 10000 4.1 40 23:19 03.09.2019
2527 Clear 17 1022 59 10000 3.1 10 22:40 03.09.2019
2528 Clear 17 1022 59 10000 3.1 10 22:22 03.09.2019
2529 Clear 17 1022 56 10000 4.6 340 21:56 03.09.2019
2530 Clear 17 1022 56 10000 4.6 340 21:56 03.09.2019
2531 Clear 17 1022 56 10000 4.6 340 21:56 03.09.2019
2532 Clear 18 1022 49 10000 4.6 330 21:37 03.09.2019
2533 Clear 18 1022 56 10000 4.1 10 21:19 03.09.2019
2534 Clear 19 1022 46 10000 4.1 0 20:43 03.09.2019
2535 Clear 19 1022 46 10000 4.1 0 20:43 03.09.2019
2536 Clear 19 1022 46 10000 4.1 0 20:24 03.09.2019
2537 Clear 21 1021 40 10000 3.6 290 19:57 03.09.2019
2538 Clear 22 1021 31 10000 3.6 290 19:38 03.09.2019
2539 Clear 22 1021 29 10000 3.6 270 19:19 03.09.2019
2540 Clear 23 1022 27 10000 3.1 250 18:56 03.09.2019
2541 Clear 23 1022 27 10000 3.1 250 18:38 03.09.2019
2542 Clear 24 1022 27 10000 4.1 220 18:18 03.09.2019
2543 Clear 24 1022 27 10000 4.1 280 17:42 03.09.2019
2544 Clear 25 1022 27 10000 4.1 280 17:21 03.09.2019
2545 Clear 25 1022 27 10000 4.6 260 16:59 03.09.2019
2546 Clear 25 1023 27 10000 4.1 0 16:41 03.09.2019
2547 Clear 24 1023 27 10000 4.1 0 16:22 03.09.2019
2548 Clear 24 1023 29 10000 5.7 240 15:41 03.09.2019
2549 Clear 24 1023 29 10000 5.7 240 15:22 03.09.2019
2550 Clear 24 1023 31 10000 5.1 260 14:59 03.09.2019
2551 Clear 24 1024 29 10000 4.1 240 14:40 03.09.2019
2552 Clear 24 1024 29 10000 4.1 240 14:40 03.09.2019
2553 Clear 24 1024 29 10000 4.1 240 14:21 03.09.2019
2554 Clear 23 1024 35 10000 3.6 210 13:58 03.09.2019
2555 Clear 23 1024 33 10000 3.6 0 13:38 03.09.2019
2556 Clear 23 1024 33 10000 3.6 0 13:20 03.09.2019
2557 Clear 23 1024 33 10000 3.6 0 13:20 03.09.2019
2558 Clear 22 1024 33 10000 3.6 0 12:57 03.09.2019
2559 Clear 22 1024 33 10000 2.6 0 12:39 03.09.2019
2560 Clear 21 1024 33 10000 2.6 0 12:21 03.09.2019
2561 Clear 20 1025 45 10000 2.6 200 11:42 03.09.2019
2562 Clear 19 1025 45 10000 2.6 200 11:23 03.09.2019
2563 Clear 18 1025 51 10000 1.5 0 10:57 03.09.2019
2564 Clear 18 1025 55 10000 1.5 210 10:39 03.09.2019
2565 Clear 17 1025 55 10000 1.5 210 10:20 03.09.2019
2566 Clear 16 1025 62 10000 1.5 230 09:48 03.09.2019
2567 Clear 16 1025 62 10000 1.5 230 09:48 03.09.2019
2568 Clear 14 1025 66 10000 1 0 09:30 03.09.2019
2569 Clear 12 1025 81 10000 1 230 08:57 03.09.2019
2570 Clear 11 1025 81 10000 1 230 08:37 03.09.2019
2571 Clear 11 1025 81 10000 1 230 08:19 03.09.2019
2572 Clear 9 1024 93 10000 1 0 07:42 03.09.2019
2573 Clear 9 1024 93 10000 1 0 07:24 03.09.2019
2574 Clear 8 1024 93 10000 1 190 06:47 03.09.2019
2575 Clear 8 1024 93 10000 1 190 06:28 03.09.2019
2576 Clear 9 1024 81 10000 1 0 03:44 03.09.2019
2577 Clear 10 1025 76 10000 1.5 230 02:48 03.09.2019
2578 Clear 10 1025 76 10000 1.5 230 02:27 03.09.2019
2579 Clear 11 1025 76 10000 0.5 0 01:58 03.09.2019
2580 Clear 11 1025 76 10000 0.5 0 01:39 03.09.2019
2581 Clear 11 1025 76 10000 0.5 0 01:20 03.09.2019
2582 Clear 12 1024 76 10000 1 220 00:28 03.09.2019
2583 Clear 12 1024 66 10000 1 0 23:56 02.09.2019
2584 Clear 13 1025 58 10000 2.1 340 23:36 02.09.2019
2585 Clear 13 1025 51 10000 2.1 30 23:18 02.09.2019
2586 Clear 14 1024 58 10000 1.5 360 22:54 02.09.2019
2587 Clear 14 1024 58 10000 3.1 0 22:36 02.09.2019
2588 Clear 14 1024 48 10000 3.6 40 22:18 02.09.2019
2589 Clear 14 1024 54 10000 2.1 320 21:54 02.09.2019
2590 Clear 14 1024 51 10000 2.6 0 21:36 02.09.2019
2591 Clear 15 1024 51 10000 2.6 0 21:18 02.09.2019
2592 Clear 17 1023 34 10000 3.6 310 20:40 02.09.2019
2593 Clear 17 1023 34 10000 3.6 310 20:21 02.09.2019
2594 Clear 18 1023 34 10000 3.6 310 19:57 02.09.2019
2595 Clear 19 1023 32 10000 4.1 330 19:39 02.09.2019
2596 Clear 20 1023 32 10000 4.1 0 19:21 02.09.2019
2597 Clear 21 1023 30 10000 4.1 320 18:41 02.09.2019
2598 Clear 21 1023 30 10000 5.1 0 18:22 02.09.2019
2599 Clear 21 1023 30 10000 5.1 0 17:59 02.09.2019
2600 Clear 21 1022 30 10000 3.6 270 17:40 02.09.2019
2601 Clear 21 1022 30 10000 3.6 270 17:21 02.09.2019
2602 Clear 21 1022 30 10000 3.6 270 17:21 02.09.2019
2603 Clouds 21 1023 30 10000 3.1 350 17:21 02.09.2019
2604 Clear 22 1022 30 10000 3.1 300 16:58 02.09.2019
2605 Clear 22 1022 32 10000 3.6 0 16:38 02.09.2019
2606 Clouds 22 1023 32 10000 4.6 360 16:20 02.09.2019
2607 Clouds 22 1023 28 10000 6.2 350 15:45 02.09.2019
2608 Clouds 22 1023 30 10000 2.6 40 15:26 02.09.2019
2609 Clear 21 1023 28 10000 3.6 280 14:57 02.09.2019
2610 Clear 21 1023 35 10000 4.1 0 14:39 02.09.2019
2611 Clear 21 1023 35 10000 4.1 0 14:21 02.09.2019
2612 Clear 21 1023 32 10000 3.6 300 13:56 02.09.2019
2613 Clear 21 1023 37 10000 1.5 0 13:36 02.09.2019
2614 Clear 20 1023 40 10000 2.1 0 13:18 02.09.2019
2615 Clear 20 1023 40 10000 2.1 360 12:45 02.09.2019
2616 Clear 20 1023 40 10000 2.1 360 12:25 02.09.2019
2617 Clouds 19 1023 42 10000 2.1 0 11:58 02.09.2019
2618 Clouds 19 1023 42 10000 2.6 0 11:39 02.09.2019
2619 Clouds 19 1023 42 10000 2.6 0 11:21 02.09.2019
2620 Clouds 18 1023 52 10000 1.5 0 10:57 02.09.2019
2621 Clouds 18 1023 52 10000 1.5 0 10:38 02.09.2019
2622 Clouds 17 1023 52 10000 1.5 0 10:19 02.09.2019
2623 Clear 16 1022 59 10000 1 0 09:46 02.09.2019
2624 Clear 15 1022 59 10000 1 0 09:22 02.09.2019
2625 Clouds 14 1022 71 10000 2.1 340 08:58 02.09.2019
2626 Clouds 13 1022 71 10000 2.1 340 08:38 02.09.2019
2627 Clear 13 1022 67 10000 1.13 274.663 08:18 02.09.2019
2628 Clouds 12 1021 71 10000 2.1 310 07:40 02.09.2019
2629 Clouds 11 1021 71 10000 2.1 310 07:21 02.09.2019
2630 Clear 12 1021 81 10000 2.1 340 06:45 02.09.2019
2631 Clear 12 1021 81 10000 2.1 340 06:25 02.09.2019
2632 Clear 12 1020 82 10000 4.6 330 05:48 02.09.2019
2633 Clear 12 1020 82 10000 4.6 330 05:19 02.09.2019
2634 Clear 12 1020 87 10000 1.5 310 04:20 02.09.2019
2635 Clear 14 1019 87 10000 1 0 01:48 02.09.2019
2636 Clear 15 1019 77 10000 2.1 310 00:49 02.09.2019
2637 Clear 15 1019 77 10000 2.1 310 00:31 02.09.2019
2638 Clear 16 1018 67 10000 3.1 320 23:46 01.09.2019
2639 Clear 16 1018 67 10000 3.1 320 23:23 01.09.2019
2640 Clear 17 1018 63 10000 2.1 330 22:59 01.09.2019
2641 Clear 17 1018 59 10000 4.1 320 22:40 01.09.2019
2642 Clouds 18 1018 59 10000 1.5 10 22:19 01.09.2019
2643 Clear 18 1017 59 10000 3.1 0 21:57 01.09.2019
2644 Clouds 18 1017 52 10000 4.6 320 21:39 01.09.2019
2645 Clouds 19 1017 52 10000 4.6 320 21:21 01.09.2019
2646 Clouds 19 1016 56 10000 4.6 320 20:57 01.09.2019
2647 Clouds 19 1016 56 10000 4.6 320 20:38 01.09.2019
2648 Clouds 19 1016 52 10000 4.6 330 20:18 01.09.2019
2649 Clouds 20 1015 52 10000 4.6 320 19:58 01.09.2019
2650 Clouds 19 1016 52 10000 4.6 330 19:58 01.09.2019
2651 Clouds 20 1015 52 10000 4.6 320 19:38 01.09.2019
2652 Clouds 20 1015 56 10000 3.6 330 19:19 01.09.2019
2653 Clouds 20 1015 56 10000 4.1 0 18:43 01.09.2019
2654 Clouds 21 1015 56 10000 4.1 0 18:25 01.09.2019
2655 Clouds 21 1015 60 10000 4.1 340 17:57 01.09.2019
2656 Clouds 22 1014 56 10000 4.6 320 17:38 01.09.2019
2657 Clouds 21 1014 56 10000 4.6 320 17:19 01.09.2019
2658 Clouds 22 1014 49 10000 3.6 250 16:41 01.09.2019
2659 Clouds 23 1014 49 10000 3.6 250 16:20 01.09.2019
2660 Clouds 23 1015 53 10000 3.1 300 15:56 01.09.2019
2661 Clouds 23 1015 53 10000 3.1 300 15:55 01.09.2019
2662 Clouds 23 1015 56 10000 4.6 260 15:37 01.09.2019
2663 Clouds 23 1015 53 10000 3.1 280 15:19 01.09.2019
2664 Clouds 23 1015 49 10000 3.6 240 14:41 01.09.2019
2665 Clouds 23 1015 49 10000 3.6 240 14:21 01.09.2019
2666 Clouds 23 1015 53 10000 3.6 280 13:58 01.09.2019
2667 Clouds 23 1015 53 10000 3.6 280 13:39 01.09.2019
2668 Clouds 23 1015 53 10000 3.6 280 13:20 01.09.2019
2669 Clouds 23 1015 53 10000 3.6 280 13:20 01.09.2019
2670 Clouds 22 1015 60 10000 6.2 280 12:43 01.09.2019
2671 Clouds 22 1015 60 10000 6.2 280 12:25 01.09.2019
2672 Clouds 21 1014 60 10000 5.1 260 11:55 01.09.2019
2673 Clouds 21 1014 60 10000 5.1 260 11:37 01.09.2019
2674 Clouds 21 1015 64 10000 4.1 320 11:18 01.09.2019
2675 Clouds 21 1013 64 10000 3.6 260 10:43 01.09.2019
2676 Clouds 21 1013 64 10000 3.6 260 10:23 01.09.2019
2677 Clouds 21 1013 64 10000 3.6 290 09:47 01.09.2019
2678 Clouds 20 1013 64 10000 3.6 290 09:26 01.09.2019
2679 Clouds 19 1012 77 10000 3.6 260 08:46 01.09.2019
2680 Clouds 18 1012 77 10000 3.6 260 08:25 01.09.2019
2681 Clear 18 1011 77 10000 2.6 260 07:59 01.09.2019
2682 Clear 18 1011 77 10000 5.7 300 07:41 01.09.2019
2683 Clear 18 1011 77 10000 5.7 300 07:19 01.09.2019
2684 Clear 19 1010 68 10000 6.2 300 06:38 01.09.2019
2685 Clear 19 1010 63 10000 5.7 310 05:57 01.09.2019
2686 Clear 20 1010 93 10000 2.1 210 04:36 01.09.2019
2687 Clouds 20 1010 88 10000 2.1 270 03:44 01.09.2019
2688 Clouds 21 1010 88 10000 2.1 270 03:19 01.09.2019
2689 Rain 21 1009 94 10000 3.1 150 02:30 01.09.2019
2690 Rain 21 1009 83 10000 2.6 240 01:58 01.09.2019
2691 Rain 22 1010 73 10000 5.7 260 01:27 01.09.2019
2692 Thunderstorm 23 1011 83 10000 6.2 310 00:48 01.09.2019
2693 Thunderstorm 23 1010 57 10000 6.2 240 00:25 01.09.2019
2694 Rain 24 1010 47 10000 6.7 210 23:59 31.08.2019
2695 Clouds 24 1009 50 10000 3.1 150 23:39 31.08.2019
2696 Clear 24 1010 47 10000 1.43 171.717 23:19 31.08.2019
2697 Clear 24 1010 47 10000 1.43 171.717 23:19 31.08.2019
2698 Clouds 24 1010 50 10000 2.6 150 22:54 31.08.2019
2699 Clouds 23 1010 50 10000 3.1 150 22:36 31.08.2019
2700 Clouds 23 1010 50 10000 3.1 150 22:36 31.08.2019
2701 Clouds 24 1010 50 10000 3.1 150 22:36 31.08.2019
2702 Clouds 24 1010 50 10000 2.6 150 22:18 31.08.2019
2703 Clouds 25 1009 47 10000 2.6 150 21:42 31.08.2019
2704 Clear 26 1009 44 10000 2.1 150 21:21 31.08.2019
2705 Clear 26 1009 44 10000 2.1 150 20:51 31.08.2019
2706 Clear 27 1010 39 10000 2.1 160 20:31 31.08.2019
2707 Clouds 27 1009 36 0 0.88 204.326 19:59 31.08.2019
2708 Clear 28 1010 31 10000 3.1 170 19:41 31.08.2019
2709 Clear 29 1010 31 10000 3.1 170 19:22 31.08.2019
2710 Clouds 29 1009 31 0 0.88 204.326 18:55 31.08.2019
2711 Clouds 29 1009 31 0 0.88 204.326 18:55 31.08.2019
2712 Clear 31 1010 27 10000 3.1 170 18:36 31.08.2019
2713 Clear 31 1011 29 10000 4.6 170 18:18 31.08.2019
2714 Clear 31 1011 29 10000 4.6 170 17:54 31.08.2019
2715 Clear 31 1011 31 10000 4.6 200 17:36 31.08.2019
2716 Clear 32 1011 31 10000 4.6 200 17:18 31.08.2019
2717 Clear 32 1012 35 10000 2.6 210 16:41 31.08.2019
2718 Clear 32 1012 35 10000 2.6 210 16:23 31.08.2019
2719 Clear 31 1012 35 10000 4.6 180 15:59 31.08.2019
2720 Clear 31 1013 38 10000 2.1 0 15:38 31.08.2019
2721 Clear 31 1013 38 10000 2.1 0 15:38 31.08.2019
2722 Clear 31 1013 38 10000 3.1 290 15:18 31.08.2019
2723 Clear 31 1014 38 10000 3.1 0 14:42 31.08.2019
2724 Clear 31 1014 38 10000 3.1 0 14:24 31.08.2019
2725 Clear 31 1014 40 10000 2.6 220 13:57 31.08.2019
2726 Clear 31 1015 40 10000 3.1 110 13:38 31.08.2019
2727 Clear 31 1015 40 10000 3.1 110 13:19 31.08.2019
2728 Clear 30 1015 42 10000 2.1 0 12:42 31.08.2019
2729 Clear 28 1015 42 10000 2.1 0 12:21 31.08.2019
2730 Clear 28 1016 45 10000 2.1 60 11:59 31.08.2019
2731 Clear 27 1016 47 10000 2.1 80 11:41 31.08.2019
2732 Clear 27 1016 47 10000 2.1 80 11:41 31.08.2019
2733 Clear 27 1016 47 10000 2.1 80 11:23 31.08.2019
2734 Clear 25 1016 47 10000 2.1 60 10:55 31.08.2019
2735 Clear 25 1016 50 10000 2.6 60 10:36 31.08.2019
2736 Clear 24 1016 50 10000 2.6 60 10:18 31.08.2019
2737 Clear 22 1017 60 10000 3.1 30 09:40 31.08.2019
2738 Clear 21 1017 60 10000 3.1 30 09:21 31.08.2019
2739 Clear 20 1017 64 10000 2.6 30 08:57 31.08.2019
2740 Clear 19 1017 72 10000 3.1 10 08:38 31.08.2019
2741 Clear 18 1017 72 10000 3.1 10 08:19 31.08.2019
2742 Clear 17 1017 72 10000 1.5 60 07:38 31.08.2019
2743 Clear 17 1017 72 10000 1.5 60 07:18 31.08.2019
2744 Clear 17 1017 72 10000 3.1 70 06:27 31.08.2019
2745 Clear 16 1017 72 10000 3.1 70 05:54 31.08.2019
2746 Clear 16 1018 77 10000 3.1 80 05:28 31.08.2019
2747 Clear 17 1018 72 10000 1.5 20 04:29 31.08.2019
2748 Clear 17 1019 63 10000 3.1 80 03:42 31.08.2019
2749 Clear 18 1019 63 10000 3.1 80 02:23 31.08.2019
2750 Clear 18 1019 68 10000 3.1 80 01:47 31.08.2019
2751 Clear 19 1019 68 10000 3.1 80 01:29 31.08.2019
2752 Clear 19 1019 68 10000 1.5 30 00:47 31.08.2019
2753 Clear 19 1019 68 10000 1.5 30 00:47 31.08.2019
2754 Clear 19 1019 68 10000 1.5 30 00:27 31.08.2019
2755 Clear 20 1020 56 10000 2.6 30 23:51 30.08.2019
2756 Clear 20 1020 56 10000 2.6 30 23:20 30.08.2019
2757 Clear 20 1020 56 10000 1.5 30 22:59 30.08.2019
2758 Clear 21 1020 53 10000 2.1 350 22:39 30.08.2019
2759 Clear 21 1020 50 10000 3.1 30 22:21 30.08.2019
2760 Clear 21 1020 53 10000 1.5 140 21:57 30.08.2019
2761 Clear 21 1019 49 10000 1 210 21:37 30.08.2019
2762 Clear 21 1019 49 10000 1 210 21:37 30.08.2019
2763 Clear 23 1019 47 10000 1.5 0 21:18 30.08.2019
2764 Clear 23 1019 47 10000 1.5 0 20:57 30.08.2019
2765 Clear 24 1019 41 10000 1 260 20:38 30.08.2019
2766 Clear 25 1020 34 10000 0.2 63.941 20:20 30.08.2019
2767 Clear 26 1019 32 10000 1.5 240 19:56 30.08.2019
2768 Clear 27 1019 32 10000 1.5 240 19:38 30.08.2019
2769 Clear 27 1020 30 10000 2.1 0 19:18 30.08.2019
2770 Clear 28 1020 28 10000 1 0 18:45 30.08.2019
2771 Clear 29 1020 28 10000 1 0 18:24 30.08.2019
2772 Clear 29 1020 27 10000 3.1 290 17:57 30.08.2019
2773 Clouds 29 1020 28 10000 2.6 260 17:39 30.08.2019
2774 Clouds 29 1020 28 10000 2.6 260 17:19 30.08.2019
2775 Clear 30 1020 27 10000 2.6 250 16:57 30.08.2019
2776 Clear 29 1021 26 10000 2.6 0 16:39 30.08.2019
2777 Clear 29 1021 22 10000 3.6 270 16:20 30.08.2019
2778 Clouds 29 1021 28 10000 3.1 270 15:42 30.08.2019
2779 Clouds 29 1021 28 10000 3.1 270 15:21 30.08.2019
2780 Clear 28 1022 37 10000 3.6 200 14:45 30.08.2019
2781 Clear 28 1022 37 10000 3.6 200 14:26 30.08.2019
2782 Clear 28 1022 39 10000 3.1 210 13:57 30.08.2019
2783 Clear 28 1022 42 10000 2.6 0 13:39 30.08.2019
2784 Clear 27 1022 47 10000 2.6 180 13:21 30.08.2019
2785 Clouds 27 1022 54 10000 3.6 260 12:45 30.08.2019
2786 Clouds 26 1022 54 10000 3.6 260 12:26 30.08.2019
2787 Clouds 26 1022 57 10000 3.6 260 11:58 30.08.2019
2788 Clouds 25 1022 57 10000 2.1 0 11:39 30.08.2019
2789 Clouds 25 1022 57 10000 2.1 0 11:39 30.08.2019
2790 Clouds 25 1022 57 10000 2.1 0 11:21 30.08.2019
2791 Clouds 23 1022 64 10000 1.5 0 10:37 30.08.2019
2792 Clear 22 1023 64 10000 0.72 29.785 10:19 30.08.2019
2793 Clear 22 1022 68 10000 1 0 09:56 30.08.2019
2794 Clear 20 1022 73 10000 1 0 09:36 30.08.2019
2795 Clear 20 1022 73 10000 1 0 09:18 30.08.2019
2796 Clear 19 1022 88 10000 1.5 220 08:44 30.08.2019
2797 Clear 19 1022 88 10000 1.5 220 08:24 30.08.2019
2798 Clear 18 1022 93 10000 1 220 07:47 30.08.2019
2799 Clear 17 1022 93 10000 1 220 07:27 30.08.2019
2800 Clear 17 1021 93 10000 1.5 250 06:58 30.08.2019
2801 Clear 18 1021 93 10000 1.5 250 06:40 30.08.2019
2802 Clear 18 1022 88 10000 0.59 40.105 06:20 30.08.2019
2803 Clear 18 1021 93 10000 2.6 30 05:32 30.08.2019
2804 Clear 19 1021 82 10000 2.1 310 03:57 30.08.2019
2805 Clear 19 1021 82 10000 2.1 310 03:57 30.08.2019
2806 Clear 19 1021 82 10000 2.1 310 03:57 30.08.2019
2807 Clear 19 1021 77 10000 1.5 300 03:37 30.08.2019
2808 Clear 20 1021 73 10000 2.1 320 02:41 30.08.2019
2809 Clear 20 1021 82 10000 3.1 310 01:51 30.08.2019
2810 Clear 20 1021 77 10000 1 0 00:55 30.08.2019
2811 Clear 21 1020 69 10000 2.6 330 00:23 30.08.2019
2812 Clear 21 1020 69 10000 2.6 330 23:48 29.08.2019
2813 Clear 21 1020 69 10000 3.1 310 23:23 29.08.2019
2814 Clear 21 1020 64 10000 2.6 320 22:58 29.08.2019
2815 Clear 22 1020 64 10000 3.1 0 22:38 29.08.2019
2816 Clear 22 1020 64 10000 3.1 0 22:20 29.08.2019
2817 Clouds 23 1019 57 10000 3.6 330 21:42 29.08.2019
2818 Clouds 23 1019 57 10000 3.6 330 21:22 29.08.2019
2819 Clouds 23 1019 57 10000 3.6 330 21:22 29.08.2019
2820 Clouds 23 1019 57 10000 3.6 330 21:22 29.08.2019
2821 Clear 24 1019 54 10000 2.6 300 20:59 29.08.2019
2822 Clear 24 1019 54 10000 2.6 300 20:41 29.08.2019
2823 Clouds 25 1018 61 10000 2.6 200 20:20 29.08.2019
2824 Rain 26 1018 45 10000 3.6 250 19:57 29.08.2019
2825 Rain 26 1018 45 10000 3.6 250 19:39 29.08.2019
2826 Rain 26 1018 45 10000 3.6 290 19:21 29.08.2019
2827 Clouds 27 1018 42 10000 4.1 270 18:41 29.08.2019
2828 Thunderstorm 28 1018 42 10000 3.6 290 18:20 29.08.2019
2829 Clouds 28 1018 42 10000 3.6 300 17:56 29.08.2019
2830 Rain 28 1018 45 10000 5.1 280 17:38 29.08.2019
2831 Rain 28 1018 45 10000 5.1 280 17:19 29.08.2019
2832 Clouds 29 1018 42 10000 4.6 280 16:57 29.08.2019
2833 Rain 29 1018 51 10000 5.1 290 16:38 29.08.2019
2834 Rain 29 1018 51 10000 5.1 290 16:20 29.08.2019
2835 Rain 29 1018 48 10000 4.1 280 15:39 29.08.2019
2836 Rain 29 1018 48 10000 4.1 280 15:20 29.08.2019
2837 Rain 29 1018 45 10000 4.6 280 14:50 29.08.2019
2838 Rain 29 1018 42 10000 4.1 250 14:24 29.08.2019
2839 Clouds 30 1018 38 10000 3.1 240 13:59 29.08.2019
2840 Clouds 30 1018 40 10000 3.1 270 13:39 29.08.2019
2841 Clouds 30 1018 40 10000 3.1 270 13:20 29.08.2019
2842 Clouds 30 1018 42 10000 1.5 230 12:59 29.08.2019
2843 Clear 29 1018 48 10000 2.1 320 12:39 29.08.2019
2844 Clear 28 1018 51 10000 1.5 290 12:21 29.08.2019
2845 Clear 27 1018 51 10000 1.5 0 11:59 29.08.2019
2846 Clear 27 1018 54 10000 2.1 0 11:39 29.08.2019
2847 Clear 26 1018 54 10000 2.44 253.172 11:20 29.08.2019
2848 Clear 26 1018 69 10000 1.5 220 10:45 29.08.2019
2849 Clear 24 1018 69 10000 1.5 220 10:25 29.08.2019
2850 Clear 23 1017 64 10000 1.5 220 09:56 29.08.2019
2851 Clear 23 1017 73 10000 1.5 200 09:38 29.08.2019
2852 Clear 22 1017 73 10000 1.5 200 09:18 29.08.2019
2853 Clouds 20 1017 93 10000 1 0 08:41 29.08.2019
2854 Clouds 20 1017 93 10000 1 0 08:23 29.08.2019
2855 Rain 19 1017 72 10000 1.5 350 07:52 29.08.2019
2856 Clear 19 1016 93 10000 0.5 200 07:30 29.08.2019
2857 Clear 18 1016 93 10000 0.5 0 06:54 29.08.2019
2858 Clear 18 1016 93 10000 0.5 0 06:33 29.08.2019
2859 Clear 19 1016 93 10000 1.5 210 05:51 29.08.2019
2860 Clear 19 1015 88 10000 1.5 0 04:52 29.08.2019
2861 Clouds 19 1015 88 10000 1 0 04:30 29.08.2019
2862 Clouds 19 1015 88 10000 1.5 190 03:54 29.08.2019
2863 Clear 21 1015 88 10000 0.5 0 01:54 29.08.2019
2864 Clear 21 1016 88 10000 0.5 0 01:35 29.08.2019
2865 Clear 21 1016 82 10000 0.5 0 00:47 29.08.2019
2866 Clear 22 1016 82 10000 0.5 0 00:23 29.08.2019
2867 Clear 22 1015 88 10000 2.1 280 23:57 28.08.2019
2868 Clear 22 1015 77 10000 2.6 150 23:38 28.08.2019
2869 Clear 22 1016 64 10000 0.63 244.623 23:19 28.08.2019
2870 Clear 22 1015 88 10000 1.5 220 22:56 28.08.2019
2871 Clear 23 1015 88 10000 0.5 240 22:37 28.08.2019
2872 Clear 23 1015 53 10000 0.63 244.623 22:18 28.08.2019
2873 Clear 24 1014 88 10000 1 0 21:41 28.08.2019
2874 Clear 24 1014 88 10000 1 0 21:22 28.08.2019
2875 Clear 25 1014 88 10000 1.5 220 20:56 28.08.2019
2876 Clear 26 1014 88 10000 3.6 280 20:38 28.08.2019
2877 Clouds 26 1015 39 10000 1.65 319.24 20:20 28.08.2019
2878 Clouds 27 1015 42 10000 1.5 10 19:42 28.08.2019
2879 Clouds 28 1015 42 10000 1.5 10 19:22 28.08.2019
2880 Rain 28 1014 83 10000 4.6 220 18:57 28.08.2019
2881 Rain 30 1014 35 10000 3.6 190 18:37 28.08.2019
2882 Clouds 30 1014 37 10000 3.1 350 18:19 28.08.2019
2883 Rain 31 1014 27 10000 4.6 200 17:38 28.08.2019
2884 Rain 31 1014 27 10000 4.6 200 17:19 28.08.2019
2885 Drizzle 31 1014 29 10000 5.7 260 16:45 28.08.2019
2886 Clear 31 1014 27 10000 5.1 230 16:23 28.08.2019
2887 Clear 31 1014 27 10000 4.1 220 15:59 28.08.2019
2888 Clear 32 1014 27 10000 3.6 230 15:38 28.08.2019
2889 Clouds 31 1015 29 10000 3.1 270 15:20 28.08.2019
2890 Clear 31 1015 29 10000 3.6 0 14:57 28.08.2019
2891 Clear 31 1015 31 10000 3.6 230 14:39 28.08.2019
2892 Clear 31 1015 31 10000 3.6 230 14:20 28.08.2019
2893 Clear 31 1015 38 10000 2.1 0 13:58 28.08.2019
2894 Clear 31 1015 42 10000 3.6 250 13:38 28.08.2019
2895 Clouds 30 1015 42 10000 1.5 230 13:19 28.08.2019
2896 Clear 29 1015 45 10000 4.1 210 12:42 28.08.2019
2897 Clear 28 1015 45 10000 4.1 210 12:24 28.08.2019
2898 Clouds 28 1016 45 10000 3.6 230 11:57 28.08.2019
2899 Clouds 27 1016 47 10000 3.1 200 11:38 28.08.2019
2900 Clouds 26 1016 57 10000 3.6 210 11:20 28.08.2019
2901 -273 0 0 0 0 0 10:55 28.08.2019
2902 Clouds 26 1016 60 10000 4.1 190 10:37 28.08.2019
2903 Clear 25 1016 61 10000 2.1 180 10:18 28.08.2019
2904 Clear 24 1015 73 10000 2.1 190 09:41 28.08.2019
2905 Clear 24 1015 73 10000 2.1 190 09:41 28.08.2019
2906 Clear 23 1015 73 10000 2.1 190 09:20 28.08.2019
2907 Clear 21 1015 82 10000 2.1 210 08:40 28.08.2019
2908 Clear 20 1015 82 10000 2.1 190 08:21 28.08.2019
2909 Clear 20 1015 82 10000 2.1 190 07:57 28.08.2019
2910 Clear 19 1015 82 10000 1 0 07:36 28.08.2019
2911 Clear 19 1015 82 10000 0.5 0 07:18 28.08.2019
2912 Clear 20 1015 82 10000 1 0 06:40 28.08.2019
2913 Clear 19 1015 82 10000 1.5 360 05:47 28.08.2019
2914 Clear 20 1015 82 10000 1.5 210 03:55 28.08.2019
2915 Clear 21 1015 77 10000 1.5 80 01:56 28.08.2019
2916 Clear 21 1015 77 10000 1.5 90 01:30 28.08.2019
2917 Clear 22 1015 68 10000 1.5 100 00:43 28.08.2019
2918 Clear 22 1015 68 10000 1.5 100 00:21 28.08.2019
2919 Clouds 23 1015 60 10000 1.5 50 23:43 27.08.2019
2920 Clouds 23 1015 60 10000 1.5 50 23:22 27.08.2019
2921 Clouds 23 1015 60 10000 1.5 50 23:22 27.08.2019
2922 Clouds 24 1015 57 10000 1.5 50 22:57 27.08.2019
2923 Clouds 24 1014 54 10000 0.5 0 22:39 27.08.2019
2924 Clouds 24 1014 54 10000 0.5 0 22:39 27.08.2019
2925 Clouds 24 1014 54 10000 0.5 0 22:20 27.08.2019
2926 Clouds 24 1014 57 10000 1.5 190 21:56 27.08.2019
2927 Clouds 25 1014 54 10000 1.5 190 21:37 27.08.2019
2928 Clear 25 1015 50 10000 1.28 134.243 21:18 27.08.2019
2929 -273 0 0 0 0 0 20:55 27.08.2019
2930 Clouds 27 1014 42 10000 1.5 190 20:37 27.08.2019
2931 Clear 27 1014 37 10000 1.28 134.243 20:18 27.08.2019
2932 Clouds 28 1014 35 10000 2.1 150 19:42 27.08.2019
2933 Clouds 29 1014 35 10000 2.1 150 19:24 27.08.2019
2934 Clouds 30 1014 35 10000 2.1 150 18:55 27.08.2019
2935 Clouds 31 1014 35 10000 2.1 170 18:36 27.08.2019
2936 Clouds 30 1014 35 10000 2.1 170 18:36 27.08.2019
2937 Clouds 31 1014 31 10000 3.1 170 18:18 27.08.2019
2938 Clouds 31 1014 33 10000 3.6 140 17:43 27.08.2019
2939 Clouds 32 1014 33 10000 3.6 140 17:24 27.08.2019
2940 Clouds 31 1014 31 10000 2.6 0 16:57 27.08.2019
2941 Clouds 31 1014 33 10000 2.6 70 16:36 27.08.2019
2942 Clear 31 1015 33 10000 2.32 92.349 16:18 27.08.2019
2943 Clouds 31 1015 38 10000 2.1 0 15:41 27.08.2019
2944 Clouds 31 1015 38 10000 2.1 0 15:23 27.08.2019
2945 Clouds 31 1015 35 10000 2.6 0 14:59 27.08.2019
2946 Clouds 31 1016 38 10000 1.5 0 14:41 27.08.2019
2947 Clouds 31 1016 38 10000 1.5 0 14:41 27.08.2019
2948 Clouds 31 1016 38 10000 1.5 0 14:23 27.08.2019
2949 Clear 31 1016 43 10000 2.1 0 13:43 27.08.2019
2950 Clear 31 1016 43 10000 2.1 0 13:24 27.08.2019
2951 Clear 30 1017 42 10000 1.5 0 12:56 27.08.2019
2952 Clouds 30 1017 48 10000 1.5 200 12:38 27.08.2019
2953 Clear 29 1017 48 10000 2.6 190 12:19 27.08.2019
2954 Clear 28 1017 54 10000 1 0 11:45 27.08.2019
2955 Clear 28 1017 54 10000 1 0 11:26 27.08.2019
2956 Clear 26 1017 61 10000 1 0 10:46 27.08.2019
2957 Clear 25 1017 61 10000 1 0 10:26 27.08.2019
2958 Clear 25 1017 61 10000 2.1 70 09:59 27.08.2019
2959 Clear 24 1017 61 10000 2.1 70 09:59 27.08.2019
2960 Clear 24 1017 69 10000 2.1 30 09:39 27.08.2019
2961 Clear 23 1017 69 10000 2.1 30 09:21 27.08.2019
2962 Clear 21 1017 73 10000 3.6 50 08:56 27.08.2019
2963 Clear 21 1017 73 10000 2.6 70 08:37 27.08.2019
2964 Clear 20 1017 73 10000 2.6 70 08:18 27.08.2019
2965 Clear 19 1016 77 10000 3.1 60 07:41 27.08.2019
2966 Clear 19 1016 77 10000 3.1 60 07:41 27.08.2019
2967 Clear 18 1017 82 10000 0.6 39.33 07:20 27.08.2019
2968 Clear 18 1017 82 10000 0.6 39.33 07:20 27.08.2019
2969 Clear 18 1016 82 10000 2.1 20 06:54 27.08.2019
2970 Clear 18 1016 77 10000 1.5 60 06:27 27.08.2019
2971 Clear 18 1016 82 10000 1.5 70 05:47 27.08.2019
2972 Clear 19 1016 82 10000 1.5 70 04:54 27.08.2019
2973 Clear 19 1016 73 10000 3.1 60 03:39 27.08.2019
2974 Clear 20 1016 68 10000 1.5 90 02:26 27.08.2019
2975 Clear 20 1016 73 10000 2.1 10 01:44 27.08.2019
2976 Clear 21 1016 73 10000 2.1 10 01:23 27.08.2019
2977 Clear 21 1016 77 10000 3.1 10 00:45 27.08.2019
2978 Clear 22 1016 77 10000 3.1 10 00:24 27.08.2019
2979 Clear 22 1016 64 10000 2.6 10 23:40 26.08.2019
2980 Clear 22 1016 64 10000 2.6 10 23:21 26.08.2019
2981 Clear 23 1016 69 10000 2.6 350 22:54 26.08.2019
2982 Clear 23 1016 64 10000 1 0 22:36 26.08.2019
2983 Clear 23 1016 64 10000 1 0 22:36 26.08.2019
2984 Clear 24 1016 64 10000 1 0 22:18 26.08.2019
2985 Clear 24 1016 61 10000 1 0 21:39 26.08.2019
2986 Clear 25 1016 54 10000 1.5 360 21:20 26.08.2019
2987 Clear 26 1016 54 10000 1.5 250 20:57 26.08.2019
2988 Clear 26 1016 54 10000 1.5 250 20:39 26.08.2019
2989 Clear 27 1016 48 10000 1.5 350 20:19 26.08.2019
2990 Clouds 27 1016 38 10000 2.6 320 19:56 26.08.2019
2991 Clouds 28 1016 38 10000 2.6 320 19:38 26.08.2019
2992 Clouds 30 1016 38 10000 1.5 180 19:18 26.08.2019
2993 Thunderstorm 30 1016 35 10000 2.1 0 18:39 26.08.2019
2994 Clouds 31 1016 35 10000 2.6 130 18:20 26.08.2019
2995 Clouds 31 1016 35 10000 4.1 120 17:56 26.08.2019
2996 Clouds 31 1016 35 10000 4.1 120 17:38 26.08.2019
2997 Clouds 32 1016 35 10000 1.5 0 17:18 26.08.2019
2998 Clouds 32 1016 33 10000 2.1 0 16:56 26.08.2019
2999 Clouds 32 1016 33 10000 2.1 0 16:37 26.08.2019
3000 Clouds 32 1016 31 10000 2.1 0 16:18 26.08.2019
3001 Clouds 32 1017 35 10000 2.6 160 15:42 26.08.2019
3002 Clouds 32 1017 40 10000 2.1 200 15:21 26.08.2019
3003 Clouds 31 1017 38 10000 2.6 0 14:46 26.08.2019
3004 Clouds 31 1017 40 10000 3.1 60 14:23 26.08.2019
3005 Clear 31 1018 43 10000 3.1 80 13:59 26.08.2019
3006 Clear 31 1018 43 10000 3.1 80 13:40 26.08.2019
3007 Clear 31 1018 45 10000 2.6 120 13:21 26.08.2019
3008 Clouds 30 1018 48 10000 2.1 80 12:43 26.08.2019
3009 Clouds 29 1018 48 10000 2.6 110 12:25 26.08.2019
3010 Clouds 28 1018 54 10000 2.6 120 11:56 26.08.2019
3011 Clear 27 1019 57 10000 1.5 100 11:37 26.08.2019
3012 Clear 27 1019 57 10000 1.5 100 11:18 26.08.2019
3013 Clear 26 1019 61 10000 2.6 90 10:44 26.08.2019
3014 Clear 25 1019 61 10000 2.1 0 10:24 26.08.2019
3015 Clear 24 1019 64 10000 2.1 30 09:59 26.08.2019
3016 Clear 23 1019 64 10000 2.1 30 09:39 26.08.2019
3017 Clear 22 1019 69 10000 2.6 40 09:21 26.08.2019
3018 Clear 21 1018 73 10000 2.1 80 08:55 26.08.2019
3019 Clear 20 1018 73 10000 2.1 80 08:37 26.08.2019
3020 Clear 19 1018 82 10000 2.1 70 08:18 26.08.2019
3021 Clear 19 1018 82 10000 0.5 0 07:42 26.08.2019
3022 Clear 18 1018 88 10000 0.5 0 07:23 26.08.2019
3023 Clear 18 1018 77 10000 1.5 100 06:49 26.08.2019
3024 Clear 18 1018 88 10000 2.1 360 06:25 26.08.2019
3025 Clear 18 1018 82 10000 2.1 360 05:51 26.08.2019
3026 Clear 18 1018 82 10000 0.5 20 04:35 26.08.2019
3027 Clear 19 1018 82 10000 1 0 03:30 26.08.2019
3028 Clear 20 1018 77 10000 1.5 260 01:41 26.08.2019
3029 Clear 20 1018 72 10000 1 220 01:21 26.08.2019
3030 Clear 21 1018 68 10000 0.5 0 00:42 26.08.2019
3031 Clear 21 1018 68 10000 1.5 230 00:24 26.08.2019
3032 Clear 21 1018 68 10000 0.5 0 23:43 25.08.2019
3033 Clear 22 1018 64 10000 1 0 23:20 25.08.2019
3034 Clear 22 1018 60 10000 1.5 0 22:58 25.08.2019
3035 Clear 22 1018 60 10000 1.5 0 22:39 25.08.2019
3036 Clear 23 1018 60 10000 1.5 290 22:20 25.08.2019
3037 Clouds 24 1018 57 10000 1.5 250 21:58 25.08.2019
3038 Clouds 23 1018 57 10000 1.5 250 21:58 25.08.2019
3039 Clouds 24 1018 57 10000 1.5 250 21:39 25.08.2019
3040 Clouds 25 1018 53 10000 2.1 240 21:18 25.08.2019
3041 Clouds 26 1018 44 10000 2.1 250 20:41 25.08.2019
3042 Clouds 27 1018 39 10000 2.6 230 20:20 25.08.2019
3043 Clouds 27 1018 39 10000 2.6 230 20:20 25.08.2019
3044 Clouds 28 1018 37 10000 2.1 230 19:59 25.08.2019
3045 Clouds 28 1018 37 10000 2.1 230 19:39 25.08.2019
3046 Clouds 29 1017 35 10000 2.1 220 19:20 25.08.2019
3047 Clouds 30 1017 33 10000 2.6 0 18:58 25.08.2019
3048 Clouds 30 1017 31 10000 2.6 180 18:40 25.08.2019
3049 Clouds 31 1017 31 10000 2.6 180 18:21 25.08.2019
3050 Clouds 31 1017 31 10000 2.6 140 17:55 25.08.2019
3051 Clouds 31 1017 31 10000 2.6 170 17:36 25.08.2019
3052 Clouds 31 1017 31 10000 2.6 170 17:18 25.08.2019
3053 Clear 31 1018 35 10000 3.1 230 16:39 25.08.2019
3054 Clear 31 1018 35 10000 3.1 230 16:21 25.08.2019
3055 Clear 31 1018 38 10000 2.6 0 15:44 25.08.2019
3056 Clear 31 1018 38 10000 3.1 0 15:26 25.08.2019
3057 Clouds 31 1018 42 10000 2.6 140 14:55 25.08.2019
3058 Clouds 31 1018 42 10000 2.6 140 14:55 25.08.2019
3059 Clouds 31 1018 40 10000 2.1 0 14:37 25.08.2019
3060 Clouds 30 1018 48 10000 2.1 90 14:19 25.08.2019
3061 Clouds 30 1018 51 10000 2.6 80 13:43 25.08.2019
3062 Clear 29 1018 51 10000 1.5 0 13:21 25.08.2019
3063 Clear 29 1019 51 10000 2.6 80 12:54 25.08.2019
3064 Clear 28 1019 54 10000 1.5 110 12:36 25.08.2019
3065 Clear 27 1019 54 10000 1.5 110 12:18 25.08.2019
3066 Clear 27 1019 57 10000 2.1 110 11:54 25.08.2019
3067 Clear 27 1019 57 10000 2.1 110 11:36 25.08.2019
3068 Clear 26 1019 61 10000 2.1 100 11:18 25.08.2019
3069 Clear 25 1019 64 10000 2.6 110 10:40 25.08.2019
3070 Clear 24 1019 64 10000 2.1 90 10:20 25.08.2019
3071 Clouds 23 1019 64 10000 1.5 130 09:56 25.08.2019
3072 Rain 22 1019 64 10000 2.6 100 09:38 25.08.2019
3073 Rain 21 1019 68 10000 1.5 150 09:20 25.08.2019
3074 Clear 20 1019 68 10000 1.5 120 08:42 25.08.2019
3075 Clear 19 1018 77 10000 0.5 0 08:22 25.08.2019
3076 Clear 18 1018 82 10000 1.5 100 07:38 25.08.2019
3077 Clear 18 1018 77 10000 2.1 80 07:19 25.08.2019
3078 Clear 17 1018 77 10000 2.1 70 06:23 25.08.2019
3079 Clear 18 1018 77 10000 1 359.942 04:45 25.08.2019
3080 Clear 19 1018 77 10000 1.5 320 03:36 25.08.2019
3081 Clear 19 1018 72 10000 1.5 270 02:40 25.08.2019
3082 Clear 20 1018 60 10000 4.6 20 01:35 25.08.2019
3083 Clear 21 1018 64 10000 2.6 360 00:40 25.08.2019
3084 Clear 21 1018 64 10000 1 0 00:21 25.08.2019
3085 Clear 22 1018 60 10000 1 0 23:52 24.08.2019
3086 Clear 21 1018 60 10000 2.6 350 23:23 24.08.2019
3087 Clear 22 1018 57 10000 2.6 360 22:56 24.08.2019
3088 Clear 22 1018 57 10000 2.6 360 22:38 24.08.2019
3089 Clear 22 1018 60 10000 2.1 340 22:19 24.08.2019
3090 Clear 22 1018 60 10000 2.1 340 22:19 24.08.2019
3091 Clear 23 1018 47 10000 2.6 70 21:56 24.08.2019
3092 Clear 23 1018 47 10000 2.6 70 21:38 24.08.2019
3093 Clear 23 1019 47 10000 2.1 30 21:19 24.08.2019
3094 Clear 25 1018 44 10000 2.6 60 20:55 24.08.2019
3095 Clear 25 1018 44 10000 2.6 60 20:37 24.08.2019
3096 Clear 26 1018 42 10000 3.1 70 20:18 24.08.2019
3097 Clear 26 1018 42 10000 3.1 70 20:18 24.08.2019
3098 Clear 27 1018 37 10000 2.1 80 19:57 24.08.2019
3099 Clear 27 1018 37 10000 2.1 80 19:57 24.08.2019
3100 Clear 27 1018 39 10000 1 0 19:37 24.08.2019
3101 Clear 28 1018 39 10000 1 0 19:18 24.08.2019
3102 Clear 28 1018 37 10000 1.5 0 18:42 24.08.2019
3103 Clear 29 1019 35 10000 2.1 120 18:23 24.08.2019
3104 Clear 29 1019 35 10000 3.1 80 17:45 24.08.2019
3105 Clear 29 1019 37 10000 3.1 0 17:25 24.08.2019
3106 Clear 29 1019 37 10000 3.1 110 16:55 24.08.2019
3107 Clear 29 1019 37 10000 3.1 110 16:36 24.08.2019
3108 Clear 29 1019 35 10000 3.1 80 16:18 24.08.2019
3109 Clear 29 1020 35 10000 3.1 110 15:41 24.08.2019
3110 Clear 29 1020 32 10000 2.6 0 15:23 24.08.2019
3111 Clear 28 1020 30 10000 3.1 360 14:55 24.08.2019
3112 Clear 29 1020 30 10000 3.1 360 14:37 24.08.2019
3113 Clear 28 1020 34 10000 3.6 0 14:18 24.08.2019
3114 Clear 28 1020 37 10000 3.1 50 13:42 24.08.2019
3115 Clear 28 1021 37 10000 3.1 80 13:22 24.08.2019
3116 Clear 27 1021 39 10000 3.6 60 12:58 24.08.2019
3117 Clear 27 1021 39 10000 3.6 60 12:39 24.08.2019
3118 Clear 26 1021 41 10000 4.1 50 12:21 24.08.2019
3119 Clear 25 1021 44 10000 4.1 50 11:46 24.08.2019
3120 Clear 24 1022 44 10000 3.6 40 11:24 24.08.2019
3121 Clear 24 1022 49 10000 3.1 50 10:57 24.08.2019
3122 Clear 23 1022 49 10000 3.1 50 10:38 24.08.2019
3123 Clear 22 1022 53 10000 3.1 60 10:19 24.08.2019
3124 Clear 21 1022 52 10000 3.1 60 09:40 24.08.2019
3125 Clear 19 1022 52 10000 2.6 40 09:18 24.08.2019
3126 Clear 18 1022 59 10000 2.6 20 08:42 24.08.2019
3127 Clear 17 1022 63 10000 2.6 20 08:23 24.08.2019
3128 Clear 16 1022 67 10000 1 0 07:51 24.08.2019
3129 Clear 15 1022 72 10000 1.5 30 07:29 24.08.2019
3130 Clear 14 1022 63 10000 3.6 70 06:31 24.08.2019
3131 Clear 14 1022 67 10000 3.1 70 05:59 24.08.2019
3132 Clear 14 1022 67 10000 3.1 70 05:35 24.08.2019
3133 Clear 15 1022 59 10000 4.1 30 03:40 24.08.2019
3134 Clear 16 1022 55 10000 2.6 40 02:41 24.08.2019
3135 Clear 16 1022 52 10000 2.6 10 01:54 24.08.2019
3136 Clear 16 1022 67 10000 1 0 01:24 24.08.2019
3137 Clear 17 1022 67 10000 1.5 70 00:46 24.08.2019
3138 Clear 17 1022 67 10000 0.5 0 00:22 24.08.2019
3139 Clear 18 1022 67 10000 1.5 100 23:45 23.08.2019
3140 Clear 19 1022 52 10000 3.1 40 23:20 23.08.2019
3141 Clear 19 1022 56 10000 3.6 20 22:44 23.08.2019
3142 Clear 20 1022 52 10000 3.6 20 22:25 23.08.2019
3143 Clear 20 1022 49 10000 3.6 20 21:55 23.08.2019
3144 Clear 20 1022 49 10000 3.6 20 21:37 23.08.2019
3145 Clear 22 1022 46 10000 3.1 20 21:19 23.08.2019
3146 Clear 23 1022 36 10000 3.6 60 20:51 23.08.2019
3147 Clear 24 1022 32 10000 2.6 70 20:33 23.08.2019
3148 Clear 26 1022 32 10000 3.6 0 19:47 23.08.2019
3149 Clear 26 1022 28 10000 5.1 60 19:19 23.08.2019
3150 Clear 27 1022 26 10000 4.6 80 18:56 23.08.2019
3151 Clear 27 1022 26 10000 4.6 80 18:37 23.08.2019
3152 Clear 28 1022 25 10000 5.1 40 18:19 23.08.2019
3153 Clear 29 1022 26 10000 4.1 40 17:42 23.08.2019
3154 Clear 28 1023 26 10000 4.1 100 17:24 23.08.2019
3155 Clear 28 1023 28 10000 3.6 70 16:57 23.08.2019
3156 Clear 28 1023 28 10000 3.6 70 16:39 23.08.2019
3157 Clear 28 1023 30 10000 1.5 0 16:21 23.08.2019
3158 Clear 28 1023 28 10000 3.6 80 15:40 23.08.2019
3159 Clear 28 1024 30 10000 4.6 70 15:22 23.08.2019
3160 Clear 27 1024 32 10000 4.1 100 14:57 23.08.2019
3161 Clear 27 1024 32 10000 4.1 100 14:39 23.08.2019
3162 Clear 27 1024 32 10000 5.1 100 14:20 23.08.2019
3163 Clear 27 1025 32 10000 3.1 40 13:54 23.08.2019
3164 Clear 27 1025 32 10000 3.1 40 13:36 23.08.2019
3165 Clear 27 1025 32 10000 3.1 40 13:36 23.08.2019
3166 Clear 27 1025 36 10000 3.1 110 13:18 23.08.2019
3167 Clear 26 1025 38 10000 1.5 0 12:42 23.08.2019
3168 Clear 25 1026 41 10000 2.6 110 12:22 23.08.2019
3169 Clear 24 1026 44 10000 3.1 100 11:59 23.08.2019
3170 Clear 24 1026 44 10000 3.1 100 11:40 23.08.2019
3171 Clear 23 1026 46 10000 2.1 0 11:20 23.08.2019
3172 Clear 22 1026 53 10000 2.6 80 10:58 23.08.2019
3173 Clear 22 1026 53 10000 2.6 80 10:58 23.08.2019
3174 Clear 22 1026 53 10000 2.6 80 10:40 23.08.2019
3175 Clear 20 1026 60 10000 2.6 70 10:21 23.08.2019
3176 Clear 19 1026 63 10000 2.6 60 09:45 23.08.2019
3177 Clear 19 1026 63 10000 2.6 60 09:45 23.08.2019
3178 Clear 18 1026 67 10000 3.1 50 09:26 23.08.2019
3179 Clear 16 1026 72 10000 3.1 70 08:57 23.08.2019
3180 Clear 15 1026 72 10000 3.1 70 08:38 23.08.2019
3181 Clear 15 1026 77 10000 3.1 70 08:19 23.08.2019
3182 Clear 13 1026 76 10000 2.1 20 07:42 23.08.2019
3183 Clear 13 1025 76 10000 2.1 60 07:23 23.08.2019
3184 Clear 12 1026 82 10000 1.5 50 06:56 23.08.2019
3185 Clear 12 1026 82 10000 1.5 50 06:37 23.08.2019
3186 Clear 12 1025 76 10000 3.1 70 06:19 23.08.2019
3187 Clear 12 1025 76 10000 2.6 60 05:32 23.08.2019
3188 Clear 13 1025 76 10000 1 0 04:20 23.08.2019
3189 Clear 14 1025 76 10000 2.6 10 02:53 23.08.2019
3190 Clear 14 1025 76 10000 1.5 10 02:22 23.08.2019
3191 Clear 15 1025 76 10000 1 0 01:39 23.08.2019
3192 Clear 15 1025 67 10000 1 70 00:45 23.08.2019
3193 Clear 16 1025 67 10000 2.1 20 00:19 23.08.2019
3194 Clear 17 1025 59 10000 1.5 10 23:47 22.08.2019
3195 Clear 17 1025 55 10000 2.1 30 23:24 22.08.2019
3196 Clear 17 1025 59 10000 1 0 22:56 22.08.2019
3197 Clear 18 1025 59 10000 1 0 22:38 22.08.2019
3198 Clear 18 1025 43 10000 0.5 50.398 22:19 22.08.2019
3199 Clear 18 1025 52 10000 3.1 10 21:55 22.08.2019
3200 Clear 19 1025 52 10000 3.1 10 21:36 22.08.2019
3201 Clear 20 1025 43 10000 0.72 43.367 21:18 22.08.2019
3202 Clear 20 1024 52 10000 2.1 60 20:55 22.08.2019
3203 Clear 21 1024 52 10000 2.1 60 20:37 22.08.2019
3204 Clear 22 1024 33 10000 1.5 70 20:18 22.08.2019
3205 Clear 25 1024 34 10000 2.6 60 19:40 22.08.2019
3206 Clear 25 1024 29 10000 1.5 70 19:22 22.08.2019
3207 Clear 25 1024 34 10000 1 0 18:59 22.08.2019
3208 Clear 25 1024 34 10000 1 0 18:41 22.08.2019
3209 Clear 26 1024 31 10000 2.1 80 18:20 22.08.2019
3210 Clear 26 1024 34 10000 2.1 0 17:58 22.08.2019
3211 Clear 26 1024 34 10000 2.1 0 17:58 22.08.2019
3212 Clear 26 1024 34 10000 2.1 0 17:58 22.08.2019
3213 Clear 26 1024 34 10000 2.1 0 17:39 22.08.2019
3214 Clear 26 1024 34 10000 2.1 0 17:20 22.08.2019
3215 Clear 26 1024 34 10000 2.1 0 16:57 22.08.2019
3216 Clear 26 1024 34 10000 2.1 0 16:38 22.08.2019
3217 Clear 26 1025 34 10000 1.94 90.943 16:20 22.08.2019
3218 Clear 26 1025 34 10000 1.94 90.943 16:20 22.08.2019
3219 Clear 26 1025 34 10000 1.94 90.943 16:20 22.08.2019
3220 Clear 26 1025 34 10000 1.94 90.943 16:20 22.08.2019
3221 Clear 26 1025 36 10000 2.6 0 15:55 22.08.2019
3222 Clear 25 1025 36 10000 2.6 0 15:36 22.08.2019
3223 Clear 26 1025 36 10000 3.1 150 15:18 22.08.2019
3224 Clear 26 1025 36 10000 3.1 150 15:18 22.08.2019
3225 Clear 26 1025 36 10000 3.1 150 15:18 22.08.2019
3226 Clear 25 1025 38 10000 2.6 0 14:41 22.08.2019
3227 Clear 25 1025 38 10000 2.6 0 14:22 22.08.2019
3228 Clear 25 1025 41 10000 3.6 60 13:59 22.08.2019
3229 Clear 25 1025 41 10000 3.6 60 13:41 22.08.2019
3230 Clear 25 1026 41 10000 4.1 90 13:21 22.08.2019
3231 Clouds 24 1026 46 10000 3.1 100 12:58 22.08.2019
3232 Clouds 24 1026 46 10000 3.1 100 12:38 22.08.2019
3233 Clouds 23 1026 49 10000 3.6 90 12:19 22.08.2019
3234 Clouds 22 1026 53 10000 3.1 70 11:42 22.08.2019
3235 Clouds 21 1027 56 10000 3.1 60 11:21 22.08.2019
3236 Clouds 21 1027 56 10000 3.1 60 10:59 22.08.2019
3237 Clouds 20 1027 56 10000 3.1 60 10:40 22.08.2019
3238 Clear 19 1027 55 10000 3.6 50 10:22 22.08.2019
3239 Clear 18 1027 63 10000 4.6 70 09:58 22.08.2019
3240 Clear 17 1027 63 10000 4.6 70 09:39 22.08.2019
3241 Clear 16 1027 63 10000 3.1 30 09:21 22.08.2019
3242 Clear 16 1027 63 10000 3.1 30 09:21 22.08.2019
3243 Clear 15 1027 63 10000 3.1 40 08:56 22.08.2019
3244 Clear 14 1027 63 10000 3.1 40 08:38 22.08.2019
3245 Clear 14 1027 76 10000 1.13 47.645 08:20 22.08.2019
3246 Clear 12 1026 76 10000 2.6 10 07:41 22.08.2019
3247 Clear 12 1026 76 10000 2.6 10 07:20 22.08.2019
3248 Clear 11 1026 81 10000 2.1 10 06:55 22.08.2019
3249 Clear 11 1026 81 10000 2.1 50 06:24 22.08.2019
3250 Clear 12 1026 87 10000 3.1 70 05:58 22.08.2019
3251 Clear 12 1026 82 10000 2.6 70 04:39 22.08.2019
3252 Clear 13 1026 67 10000 2.6 20 02:51 22.08.2019
3253 Clear 13 1026 67 10000 2.6 20 02:33 22.08.2019
3254 Clear 14 1026 67 10000 2.6 20 01:25 22.08.2019
3255 Clear 15 1027 72 10000 2.6 360 00:45 22.08.2019
3256 Clear 15 1027 77 10000 1.5 40 00:27 22.08.2019
3257 Clear 15 1027 72 10000 2.6 50 23:55 21.08.2019
3258 Clear 15 1027 72 10000 2.6 50 23:37 21.08.2019
3259 Clear 16 1027 59 10000 0.5 0 23:18 21.08.2019
3260 Clear 16 1027 63 10000 1.5 80 22:55 21.08.2019
3261 Clear 17 1026 67 10000 3.1 90 22:37 21.08.2019
3262 Clear 17 1026 67 10000 3.1 90 22:19 21.08.2019
3263 Clear 17 1026 46 10000 3.1 70 21:55 21.08.2019
3264 Clouds 17 1019 50 0 2.68 22 21:36 21.08.2019
3265 Clear 18 1026 46 10000 2.6 80 21:18 21.08.2019
3266 Clear 19 1026 40 10000 3.6 70 20:42 21.08.2019
3267 Clear 20 1026 40 10000 3.1 60 20:24 21.08.2019
3268 Clear 21 1026 38 10000 2.1 90 19:56 21.08.2019
3269 Clear 22 1026 38 10000 2.1 90 19:38 21.08.2019
3270 Clear 22 1026 35 10000 3.6 80 19:20 21.08.2019
3271 Clear 23 1026 33 10000 1.5 70 18:55 21.08.2019
3272 Clear 23 1026 33 10000 1.5 70 18:37 21.08.2019
3273 Clear 23 1026 36 10000 2.6 130 18:19 21.08.2019
3274 Clear 24 1026 35 10000 3.1 10 17:42 21.08.2019
3275 Clear 24 1026 33 10000 3.6 40 17:20 21.08.2019
3276 Clear 24 1026 38 10000 2.6 0 16:55 21.08.2019
3277 Clear 24 1026 38 10000 2.6 0 16:36 21.08.2019
3278 Clear 23 1027 36 10000 2.1 190 16:18 21.08.2019
3279 Clear 23 1027 40 10000 1 0 15:42 21.08.2019
3280 Clear 23 1027 46 10000 1.5 180 15:22 21.08.2019
3281 Clear 23 1027 43 10000 2.1 210 14:59 21.08.2019
3282 Clear 23 1027 43 10000 2.1 210 14:39 21.08.2019
3283 Clear 23 1028 40 10000 0.5 0 14:21 21.08.2019
3284 Clouds 23 1028 46 10000 2.6 100 13:58 21.08.2019
3285 Clouds 23 1028 46 10000 2.6 100 13:40 21.08.2019
3286 Clouds 22 1028 49 10000 1.5 0 13:19 21.08.2019
3287 Clouds 22 1028 56 10000 2.1 90 12:57 21.08.2019
3288 Clouds 22 1028 56 10000 2.1 90 12:38 21.08.2019
3289 Clouds 21 1028 64 10000 1.5 0 12:19 21.08.2019
3290 Clouds 20 1029 68 10000 1 0 11:43 21.08.2019
3291 Clouds 19 1029 72 10000 2.1 70 11:23 21.08.2019
3292 Clouds 19 1029 77 10000 1 0 10:58 21.08.2019
3293 Clouds 18 1029 82 10000 1 0 10:38 21.08.2019
3294 Clouds 18 1029 82 10000 1 0 10:20 21.08.2019
3295 Clouds 17 1029 87 10000 1 0 09:58 21.08.2019
3296 Clouds 16 1029 87 10000 1 0 09:40 21.08.2019
3297 Clouds 15 1029 93 10000 1.5 190 09:21 21.08.2019
3298 Clouds 14 1029 87 10000 0.5 0 08:49 21.08.2019
3299 Clouds 13 1029 93 10000 0.5 130 08:25 21.08.2019
3300 Clear 12 1029 93 10000 1 220 07:45 21.08.2019
3301 Clear 11 1028 100 10000 0.5 0 07:26 21.08.2019
3302 Clear 11 1028 100 10000 1 0 06:59 21.08.2019
3303 Clear 10 1028 100 10000 1 0 06:40 21.08.2019
3304 Clear 10 1028 93 10000 1 0 06:18 21.08.2019
3305 Clear 11 1027 93 10000 1 0 05:29 21.08.2019
3306 Clear 11 1027 93 10000 0.5 0 04:42 21.08.2019
3307 Clear 13 1027 93 10000 3.1 210 02:44 21.08.2019
3308 Clear 13 1027 87 10000 2.1 250 01:36 21.08.2019
3309 Clear 14 1026 82 10000 3.1 190 00:43 21.08.2019
3310 Clear 15 1026 77 10000 4.1 190 00:21 21.08.2019
3311 Clear 15 1026 77 10000 4.6 180 23:45 20.08.2019
3312 Clear 15 1026 77 10000 4.6 180 23:45 20.08.2019
3313 Clear 16 1026 72 10000 4.6 180 23:21 20.08.2019
3314 Clear 16 1026 72 10000 4.6 180 22:59 20.08.2019
3315 Clear 16 1026 72 10000 4.6 180 22:41 20.08.2019
3316 Clear 16 1026 72 10000 3.6 170 22:22 20.08.2019
3317 Clear 16 1025 72 10000 2.6 170 21:58 20.08.2019
3318 Clear 16 1025 72 10000 2.6 170 21:39 20.08.2019
3319 Clear 16 1025 72 10000 2.6 170 21:39 20.08.2019
3320 Clear 17 1025 72 10000 2.6 170 21:20 20.08.2019
3321 Clear 17 1025 68 10000 2.6 180 20:59 20.08.2019
3322 Clear 17 1025 68 10000 2.6 180 20:59 20.08.2019
3323 Clear 18 1025 68 10000 2.6 180 20:41 20.08.2019
3324 Clear 18 1025 68 10000 2.6 190 20:23 20.08.2019
3325 Clear 19 1024 63 10000 2.1 200 19:41 20.08.2019
3326 Clear 19 1024 56 10000 3.1 190 19:22 20.08.2019
3327 Clear 19 1023 52 10000 2.6 190 18:59 20.08.2019
3328 Clear 20 1023 52 10000 2.6 190 18:40 20.08.2019
3329 Clear 20 1024 37 10000 2.59 284.701 18:20 20.08.2019
3330 Clear 20 1024 43 10000 3.1 270 17:59 20.08.2019
3331 Clear 20 1024 43 10000 3.1 250 17:39 20.08.2019
3332 Clear 20 1024 43 10000 3.1 250 17:20 20.08.2019
3333 Clear 20 1023 46 10000 1.5 0 16:46 20.08.2019
3334 Clear 20 1023 46 10000 1.5 0 16:28 20.08.2019
3335 Clear 20 1023 45 10000 1 0 15:59 20.08.2019
3336 Clear 20 1023 45 10000 2.1 290 15:40 20.08.2019
3337 Clouds 20 1023 40 10000 2.1 340 15:18 20.08.2019
3338 Clear 20 1023 45 10000 2.1 290 14:44 20.08.2019
3339 Clear 20 1023 45 10000 2.1 290 14:22 20.08.2019
3340 Clear 20 1023 49 10000 1 0 13:59 20.08.2019
3341 Clear 20 1023 52 10000 1 0 13:40 20.08.2019
3342 Clouds 19 1023 49 10000 2.7 266.261 13:21 20.08.2019
3343 Clear 19 1023 63 10000 1.5 180 12:59 20.08.2019
3344 Clear 19 1023 68 10000 1 0 12:40 20.08.2019
3345 Clear 19 1023 68 10000 1 0 12:22 20.08.2019
3346 Clear 19 1023 68 10000 1.5 170 11:42 20.08.2019
3347 Clear 18 1023 68 10000 1.5 170 11:22 20.08.2019
3348 Clear 18 1022 67 10000 1 0 10:58 20.08.2019
3349 Clear 17 1022 72 10000 1 0 10:40 20.08.2019
3350 Clear 17 1022 72 10000 1 0 10:22 20.08.2019
3351 Clear 17 1022 77 10000 0.5 0 09:59 20.08.2019
3352 Clear 16 1022 82 10000 0.5 0 09:40 20.08.2019
3353 Clear 16 1022 82 10000 0.5 0 09:21 20.08.2019
3354 Clear 15 1022 87 10000 1.5 190 08:42 20.08.2019
3355 Clear 14 1022 87 10000 1.5 190 08:24 20.08.2019
3356 Clear 13 1021 93 10000 1.5 220 07:58 20.08.2019
3357 Clear 13 1021 87 10000 1.5 230 07:39 20.08.2019
3358 Clear 13 1021 87 10000 1.5 230 07:21 20.08.2019
3359 Clear 13 1021 93 10000 2.1 220 06:47 20.08.2019
3360 Clear 13 1021 93 10000 2.1 220 06:21 20.08.2019
3361 Clear 13 1021 93 10000 1.5 210 05:48 20.08.2019
3362 Clear 13 1021 87 10000 0.5 230 04:42 20.08.2019
3363 Clear 15 1021 82 10000 1 230 02:58 20.08.2019
3364 Clear 15 1021 82 10000 1 220 02:24 20.08.2019
3365 Clear 15 1020 77 10000 0.5 0 01:22 20.08.2019
3366 Clear 16 1020 72 10000 2.1 210 00:45 20.08.2019
3367 Clear 16 1020 72 10000 2.1 210 00:26 20.08.2019
3368 Clear 16 1019 72 10000 1.5 260 23:52 19.08.2019
3369 Clear 16 1019 72 10000 1.5 260 23:52 19.08.2019
3370 Clear 16 1019 77 10000 3.1 0 23:19 19.08.2019
3371 Clear 17 1019 72 10000 2.1 280 22:59 19.08.2019
3372 Clear 17 1019 67 10000 3.1 290 22:41 19.08.2019
3373 Clear 17 1019 67 10000 3.1 290 22:21 19.08.2019
3374 Clear 18 1018 63 10000 2.6 290 21:58 19.08.2019
3375 Clear 18 1018 59 10000 3.1 290 21:39 19.08.2019
3376 Clear 19 1019 49 10000 2.1 360 21:20 19.08.2019
3377 Clouds 20 1018 52 0 3.6 260 20:59 19.08.2019
3378 Clear 21 1018 40 10000 3.6 260 20:38 19.08.2019
3379 Clear 21 1018 43 10000 2.6 320 20:20 19.08.2019
3380 -273 0 0 0 0 0 19:55 19.08.2019
3381 Clear 21 1018 36 10000 4.1 250 19:55 19.08.2019
3382 Clear 21 1018 36 10000 4.1 250 19:55 19.08.2019
3383 Clear 22 1018 36 10000 4.1 250 19:37 19.08.2019
3384 Clear 23 1017 36 10000 4.6 240 19:19 19.08.2019
3385 Clear 23 1017 38 10000 3.6 240 18:44 19.08.2019
3386 Clear 24 1017 38 10000 3.6 240 18:26 19.08.2019
3387 Clear 24 1017 36 10000 5.1 260 17:58 19.08.2019
3388 Clear 24 1017 36 10000 4.1 250 17:40 19.08.2019
3389 Clouds 24 1018 33 10000 4.6 240 17:20 19.08.2019
3390 Clear 24 1017 41 10000 4.6 230 16:58 19.08.2019
3391 Clear 24 1017 41 10000 4.6 230 16:37 19.08.2019
3392 Clear 24 1017 41 10000 4.6 240 16:18 19.08.2019
3393 Clear 24 1017 38 10000 5.7 270 15:55 19.08.2019
3394 Clear 23 1017 41 10000 2.6 250 15:36 19.08.2019
3395 Clear 24 1017 41 10000 2.6 250 15:18 19.08.2019
3396 Clear 24 1017 46 10000 5.1 230 14:40 19.08.2019
3397 Clouds 24 1017 38 10000 2.6 0 14:21 19.08.2019
3398 Clouds 23 1017 49 10000 3.6 230 13:57 19.08.2019
3399 Clouds 23 1017 49 10000 3.6 230 13:37 19.08.2019
3400 Clouds 23 1017 53 10000 4.1 240 13:19 19.08.2019
3401 Clouds 23 1017 53 10000 3.6 280 12:44 19.08.2019
3402 Clouds 22 1017 56 10000 3.1 240 12:24 19.08.2019
3403 Haze 21 1017 60 10000 4.1 230 11:59 19.08.2019
3404 Haze 21 1017 60 10000 4.1 230 11:39 19.08.2019
3405 Haze 21 1017 68 10000 2.6 190 11:20 19.08.2019
3406 Clouds 20 1017 82 10000 2.6 220 10:55 19.08.2019
3407 Clouds 20 1017 82 10000 2.6 220 10:36 19.08.2019
3408 Clouds 20 1017 82 10000 2.6 210 10:18 19.08.2019
3409 Clouds 18 1017 82 10000 3.1 230 09:41 19.08.2019
3410 Clouds 18 1016 88 10000 2.6 200 09:22 19.08.2019
3411 Clouds 18 1016 88 10000 2.6 200 09:22 19.08.2019
3412 Clouds 17 1016 93 10000 2.1 200 08:56 19.08.2019
3413 Clouds 17 1016 93 10000 2.1 200 08:38 19.08.2019
3414 Clouds 16 1016 100 10000 1.5 190 08:18 19.08.2019
3415 Clouds 16 1015 93 10000 1.5 190 07:44 19.08.2019
3416 Clouds 15 1015 100 10000 1 0 07:26 19.08.2019
3417 Clouds 15 1015 93 10000 1 0 06:45 19.08.2019
3418 Clouds 16 1015 93 10000 1 0 06:25 19.08.2019
3419 Clouds 16 1014 100 10000 1 200 04:54 19.08.2019
3420 Clouds 16 1014 93 10000 2.1 230 04:23 19.08.2019
3421 Clouds 17 1014 93 10000 1.5 200 03:20 19.08.2019
3422 Clouds 17 1013 100 10000 1.5 210 02:19 19.08.2019
3423 Rain 18 1012 93 10000 2.1 300 01:21 19.08.2019
3424 Rain 18 1012 100 10000 2.6 330 00:43 19.08.2019
3425 Clouds 19 1012 93 10000 1 0 00:23 19.08.2019
3426 Clouds 19 1011 93 10000 2.6 210 23:42 18.08.2019
3427 Clouds 19 1011 93 10000 2.1 220 23:21 18.08.2019
3428 Clouds 19 1011 93 10000 2.1 200 22:42 18.08.2019
3429 Clouds 19 1010 93 10000 2.6 220 22:22 18.08.2019
3430 Clouds 19 1010 94 10000 1.5 190 21:59 18.08.2019
3431 Clouds 21 1010 94 10000 1.5 190 21:41 18.08.2019
3432 Clouds 20 1010 93 10000 1.5 180 21:22 18.08.2019
3433 Clouds 20 1009 93 10000 2.1 170 20:59 18.08.2019
3434 Clouds 20 1009 93 10000 2.1 170 20:41 18.08.2019
3435 Rain 21 1010 94 10000 2.6 180 20:23 18.08.2019
3436 Thunderstorm 21 1009 88 10000 3.6 280 19:54 18.08.2019
3437 Thunderstorm 21 1009 94 10000 5.1 250 19:36 18.08.2019
3438 Rain 21 1008 94 10000 5.7 250 19:18 18.08.2019
3439 Thunderstorm 21 1008 94 10000 2.6 190 18:41 18.08.2019
3440 Rain 25 1008 78 10000 6.2 270 18:23 18.08.2019
3441 Drizzle 24 1007 48 10000 8.2 230 17:57 18.08.2019
3442 Clouds 25 1007 48 10000 8.2 230 17:39 18.08.2019
3443 Clear 25 1007 48 10000 9.3 240 17:19 18.08.2019
3444 Rain 25 1007 45 10000 10.3 240 16:56 18.08.2019
3445 Rain 25 1007 45 10000 10.3 240 16:38 18.08.2019
3446 Rain 26 1007 48 10000 10.8 240 16:19 18.08.2019
3447 Clear 26 1007 48 10000 8.7 230 15:55 18.08.2019
3448 Clear 26 1007 48 10000 8.7 230 15:37 18.08.2019
3449 Clouds 27 1007 61 10000 7.7 260 15:19 18.08.2019
3450 Clear 28 1007 48 10000 9.8 220 14:40 18.08.2019
3451 Clear 28 1007 45 10000 9.8 220 14:21 18.08.2019
3452 Clouds 28 1007 48 10000 8.2 220 13:59 18.08.2019
3453 Clouds 28 1007 48 10000 8.2 220 13:59 18.08.2019
3454 Clouds 28 1007 48 10000 8.2 220 13:41 18.08.2019
3455 Clouds 27 1007 54 10000 8.2 210 13:22 18.08.2019
3456 Clouds 27 1007 65 10000 7.2 190 12:58 18.08.2019
3457 Clouds 27 1007 65 10000 7.2 190 12:39 18.08.2019
3458 Clouds 27 1007 65 10000 7.2 200 12:20 18.08.2019
3459 Clouds 23 1007 73 10000 6.7 190 11:43 18.08.2019
3460 Clouds 23 1007 73 10000 6.7 190 11:43 18.08.2019
3461 Clouds 22 1007 78 10000 5.7 210 11:23 18.08.2019
3462 Clouds 22 1008 83 10000 4.6 170 10:59 18.08.2019
3463 Clouds 20 1008 83 10000 4.6 170 10:40 18.08.2019
3464 Clouds 20 1008 88 10000 5.1 160 10:19 18.08.2019
3465 Clouds 21 1008 94 10000 3.1 180 09:43 18.08.2019
3466 Clouds 20 1008 93 10000 2.6 170 09:20 18.08.2019
3467 Clouds 19 1009 93 10000 1.5 150 08:44 18.08.2019
3468 Clouds 18 1008 93 10000 1.5 100 08:25 18.08.2019
3469 Clouds 18 1008 100 10000 3.1 190 07:59 18.08.2019
3470 Clouds 17 1008 100 10000 3.1 190 07:39 18.08.2019
3471 Clouds 17 1008 93 10000 5.1 190 07:21 18.08.2019
3472 Clouds 17 1008 93 10000 3.1 190 05:45 18.08.2019
3473 Rain 17 1008 93 10000 2.1 180 04:44 18.08.2019
3474 Rain 17 1009 100 10000 3.6 180 03:20 18.08.2019
3475 Rain 17 1010 93 10000 3.1 180 02:43 18.08.2019
3476 Rain 17 1010 93 8000 3.6 180 02:18 18.08.2019
3477 Rain 17 1011 100 10000 3.1 190 01:29 18.08.2019
3478 Rain 17 1011 93 10000 3.6 180 00:43 18.08.2019
3479 Drizzle 17 1011 100 10000 2.1 190 00:24 18.08.2019
3480 Rain 17 1011 93 10000 4.1 170 23:58 17.08.2019
3481 Rain 17 1011 93 10000 4.1 170 23:39 17.08.2019
3482 Rain 17 1011 93 10000 4.1 200 23:21 17.08.2019
3483 Clouds 18 1011 93 10000 4.1 180 22:59 17.08.2019
3484 Clouds 18 1011 93 10000 4.1 180 22:41 17.08.2019
3485 Clouds 18 1012 88 10000 4.1 180 22:23 17.08.2019
3486 Clouds 18 1011 93 10000 3.6 170 21:56 17.08.2019
3487 Clouds 18 1011 93 10000 3.6 170 21:38 17.08.2019
3488 Clouds 18 1012 93 10000 2.6 170 21:20 17.08.2019
3489 Rain 18 1012 93 10000 2.6 190 20:39 17.08.2019
3490 Rain 19 1012 88 10000 1.5 240 20:21 17.08.2019
3491 Rain 19 1012 88 10000 2.6 240 19:57 17.08.2019
3492 Rain 19 1012 93 10000 3.1 200 19:39 17.08.2019
3493 Rain 19 1012 82 10000 3.1 220 19:20 17.08.2019
3494 Rain 20 1012 77 10000 3.1 220 18:41 17.08.2019
3495 Rain 20 1012 68 10000 3.6 250 18:19 17.08.2019
3496 Rain 20 1012 72 10000 2.6 220 17:58 17.08.2019
3497 Rain 20 1011 77 10000 2.6 190 17:40 17.08.2019
3498 Rain 20 1012 77 10000 3.1 190 17:21 17.08.2019
3499 Rain 20 1012 77 10000 3.1 190 17:21 17.08.2019
3500 Rain 20 1012 72 10000 5.1 200 16:45 17.08.2019
3501 Rain 21 1012 64 10000 7.2 210 16:26 17.08.2019
3502 Rain 21 1012 64 10000 5.7 250 15:59 17.08.2019
3503 Clouds 21 1011 64 10000 4.6 200 15:40 17.08.2019
3504 Clouds 21 1011 64 10000 4.6 200 15:21 17.08.2019
3505 Clouds 21 1011 68 10000 5.1 210 14:43 17.08.2019
3506 Clouds 21 1012 73 10000 4.1 190 14:24 17.08.2019
3507 Rain 21 1012 77 10000 2.6 180 13:56 17.08.2019
3508 Rain 21 1012 77 10000 2.6 180 13:37 17.08.2019
3509 Rain 20 1012 77 10000 2.6 180 13:18 17.08.2019
3510 Rain 20 1012 82 10000 3.6 190 12:42 17.08.2019
3511 Rain 19 1013 88 10000 3.1 180 12:19 17.08.2019
3512 Rain 19 1012 82 10000 2.6 160 11:57 17.08.2019
3513 Rain 19 1013 82 10000 2.1 170 11:37 17.08.2019
3514 Rain 19 1013 82 10000 2.1 170 11:19 17.08.2019
3515 Rain 18 1012 93 10000 1.5 200 10:39 17.08.2019
3516 Rain 18 1012 93 10000 1.5 200 10:39 17.08.2019
3517 Rain 18 1013 93 10000 3.6 190 10:20 17.08.2019
3518 Rain 18 1013 88 10000 2.1 200 09:52 17.08.2019
3519 Rain 18 1012 77 10000 4.1 190 09:33 17.08.2019
3520 Rain 18 1013 77 10000 2.34 197.054 08:58 17.08.2019
3521 Clouds 17 1012 82 10000 2.1 190 08:28 17.08.2019
3522 Clouds 17 1012 82 10000 2.1 190 08:28 17.08.2019
3523 Clouds 17 1011 87 10000 0.5 290 07:56 17.08.2019
3524 Clouds 17 1011 87 10000 0.5 290 07:38 17.08.2019
3525 Rain 17 1012 82 10000 2.6 110 07:19 17.08.2019
3526 Rain 16 1012 87 10000 1 0 05:58 17.08.2019
3527 Clear 16 1012 87 10000 1 0 04:32 17.08.2019
3528 Clear 16 1012 87 10000 1 0 04:32 17.08.2019
3529 Clear 16 1012 87 10000 1 0 04:32 17.08.2019
3530 Clear 16 1013 87 10000 0.5 0 03:37 17.08.2019
3531 Clear 16 1013 82 10000 0.5 0 01:59 17.08.2019
3532 Clear 16 1013 82 10000 0.5 0 01:36 17.08.2019
3533 Clear 16 1014 82 10000 0.5 0 01:18 17.08.2019
3534 Clear 16 1014 77 10000 0.5 0 00:44 17.08.2019
3535 Clear 17 1014 68 10000 3.1 150 23:58 16.08.2019
3536 Clear 17 1014 68 10000 3.1 150 23:39 16.08.2019
3537 Clear 17 1014 63 10000 3.1 150 23:20 16.08.2019
3538 Clear 17 1014 68 10000 3.1 150 22:42 16.08.2019
3539 Clear 18 1014 68 10000 3.1 150 22:20 16.08.2019
3540 Clear 18 1014 68 10000 2.6 150 21:56 16.08.2019
3541 Clear 18 1014 56 10000 2.6 160 21:38 16.08.2019
3542 Clear 19 1014 56 10000 2.6 160 21:18 16.08.2019
3543 Clear 20 1014 52 10000 2.6 170 20:42 16.08.2019
3544 Clear 21 1014 43 10000 2.6 180 20:20 16.08.2019
3545 Clear 21 1014 46 10000 3.1 160 19:56 16.08.2019
3546 Clear 22 1014 46 10000 3.1 160 19:38 16.08.2019
3547 Clear 22 1015 44 10000 3.1 200 19:19 16.08.2019
3548 Clear 23 1015 41 10000 3.1 210 18:42 16.08.2019
3549 Clear 23 1015 41 10000 4.1 240 18:23 16.08.2019
3550 Clear 23 1016 40 10000 3.6 190 17:48 16.08.2019
3551 Clear 23 1016 41 10000 4.1 190 17:28 16.08.2019
3552 Clear 23 1016 46 10000 5.1 230 16:59 16.08.2019
3553 Clear 23 1016 46 10000 5.1 230 16:59 16.08.2019
3554 Clear 23 1016 46 10000 5.1 230 16:40 16.08.2019
3555 Clear 23 1017 43 10000 4.1 220 16:19 16.08.2019
3556 Clear 23 1017 41 10000 3.6 180 15:56 16.08.2019
3557 Clear 23 1017 41 10000 3.6 180 15:38 16.08.2019
3558 Clouds 22 1017 46 10000 3.6 190 15:19 16.08.2019
3559 Clouds 22 1017 49 10000 4.1 190 14:56 16.08.2019
3560 Clouds 22 1017 49 10000 4.1 190 14:37 16.08.2019
3561 Clouds 22 1017 49 10000 4.6 200 14:18 16.08.2019
3562 Clouds 22 1017 49 10000 5.1 200 13:40 16.08.2019
3563 Clouds 22 1018 53 10000 3.6 210 13:21 16.08.2019
3564 Clouds 21 1018 60 10000 4.6 230 12:41 16.08.2019
3565 Clouds 20 1018 60 10000 4.1 230 12:23 16.08.2019
3566 Clouds 20 1018 68 10000 3.6 210 11:59 16.08.2019
3567 Clouds 20 1018 68 10000 3.6 210 11:40 16.08.2019
3568 Clouds 19 1019 72 10000 3.1 200 11:22 16.08.2019
3569 Clouds 19 1019 77 10000 3.1 190 10:43 16.08.2019
3570 Clouds 18 1019 72 10000 2.6 240 10:21 16.08.2019
3571 Clouds 17 1019 82 10000 3.1 200 09:55 16.08.2019
3572 Clouds 17 1019 82 10000 3.1 200 09:36 16.08.2019
3573 Clouds 16 1019 82 10000 4.1 190 09:18 16.08.2019
3574 Clouds 15 1019 93 10000 3.1 200 08:39 16.08.2019
3575 Clouds 15 1019 87 10000 2.1 210 08:20 16.08.2019
3576 Clouds 14 1019 93 10000 1.5 190 07:52 16.08.2019
3577 Clouds 14 1018 93 10000 1.5 210 07:29 16.08.2019
3578 Clouds 13 1018 93 10000 2.1 190 06:55 16.08.2019
3579 Clear 13 1018 100 10000 1.5 140 06:19 16.08.2019
3580 Clear 13 1018 100 10000 2.1 150 05:36 16.08.2019
3581 Clear 15 1018 93 10000 3.1 220 03:22 16.08.2019
3582 Clear 15 1018 93 10000 2.6 190 01:59 16.08.2019
3583 Rain 15 1017 93 10000 3.1 200 01:29 16.08.2019
3584 Clear 15 1017 93 10000 3.1 190 00:57 16.08.2019
3585 Clear 15 1017 93 10000 3.1 190 00:39 16.08.2019
3586 Clear 16 1017 87 10000 2.6 220 00:20 16.08.2019
3587 Clear 16 1017 93 10000 2.1 200 23:42 15.08.2019
3588 Clear 16 1016 87 10000 2.6 210 23:21 15.08.2019
3589 Clear 16 1016 88 10000 2.1 160 22:57 15.08.2019
3590 Clear 16 1016 88 10000 2.1 160 22:39 15.08.2019
3591 Clear 16 1016 88 10000 2.1 190 22:20 15.08.2019
3592 Clear 17 1015 88 10000 4.6 210 21:40 15.08.2019
3593 Clear 17 1015 82 10000 4.1 220 21:20 15.08.2019
3594 Clouds 17 1014 88 10000 4.6 220 20:59 15.08.2019
3595 Clouds 17 1014 88 10000 4.6 220 20:41 15.08.2019
3596 Rain 17 1014 82 10000 4.6 240 20:21 15.08.2019
3597 Rain 18 1014 82 10000 3.6 250 19:57 15.08.2019
3598 Rain 18 1014 82 10000 3.6 250 19:38 15.08.2019
3599 Rain 18 1014 68 10000 10.3 280 19:19 15.08.2019
3600 Rain 20 1013 60 10000 6.7 260 18:46 15.08.2019
3601 Rain 21 1013 60 10000 6.2 250 18:22 15.08.2019
3602 Rain 20 1013 68 10000 5.1 240 17:57 15.08.2019
3603 Rain 20 1013 72 10000 5.1 260 17:37 15.08.2019
3604 Rain 19 1013 77 10000 6.2 230 17:19 15.08.2019
3605 Rain 20 1013 88 10000 4.6 210 16:48 15.08.2019
3606 Rain 20 1013 82 10000 4.1 240 16:27 15.08.2019
3607 Rain 21 1012 56 10000 7.7 230 15:59 15.08.2019
3608 Rain 21 1012 56 10000 7.7 230 15:38 15.08.2019
3609 Rain 21 1012 60 10000 6.2 210 15:19 15.08.2019
3610 Clouds 21 1012 60 10000 5.7 230 14:43 15.08.2019
3611 Clouds 20 1012 72 10000 5.7 220 14:24 15.08.2019
3612 Clouds 20 1012 77 10000 4.6 220 13:59 15.08.2019
3613 Clouds 20 1012 77 10000 4.6 220 13:40 15.08.2019
3614 Rain 19 1012 88 10000 2.6 130 13:21 15.08.2019
3615 Rain 19 1012 93 10000 2.6 160 12:59 15.08.2019
3616 Rain 18 1012 93 10000 2.6 160 12:39 15.08.2019
3617 Rain 17 1012 100 7000 3.1 190 12:20 15.08.2019
3618 Drizzle 17 1013 88 10000 3.6 250 11:57 15.08.2019
3619 Drizzle 17 1012 93 4500 3.6 180 11:37 15.08.2019
3620 Drizzle 17 1013 77 10000 6.7 250 11:37 15.08.2019
3621 Clouds 17 1012 82 10000 3.6 190 11:18 15.08.2019
3622 Clouds 17 1013 87 10000 3.1 180 10:57 15.08.2019
3623 Clouds 17 1013 87 10000 3.1 180 10:36 15.08.2019
3624 Clouds 16 1012 87 10000 3.1 180 10:18 15.08.2019
3625 Rain 16 1013 87 10000 4.6 180 09:42 15.08.2019
3626 Clouds 15 1013 82 10000 4.1 180 09:22 15.08.2019
3627 Clouds 15 1012 87 10000 3.1 190 08:39 15.08.2019
3628 Clouds 15 1013 82 10000 2.1 200 08:21 15.08.2019
3629 Clouds 15 1012 87 10000 1.5 240 07:56 15.08.2019
3630 Clouds 15 1012 87 10000 1.5 240 07:38 15.08.2019
3631 Clouds 15 1012 87 10000 1.5 240 07:20 15.08.2019
3632 Rain 15 1012 87 10000 1 0 06:47 15.08.2019
3633 Rain 15 1013 93 10000 1.5 120 06:25 15.08.2019
3634 Rain 15 1013 93 10000 1 0 05:30 15.08.2019
3635 Rain 15 1013 93 10000 0.5 0 04:57 15.08.2019
3636 Rain 15 1014 82 10000 1.5 70 03:57 15.08.2019
3637 Rain 16 1015 72 10000 2.14 158.552 03:19 15.08.2019
3638 Clouds 16 1015 77 10000 2.14 158.552 02:26 15.08.2019
3639 Clouds 16 1015 72 10000 0.5 0 01:41 15.08.2019
3640 Clear 16 1015 67 10000 2.1 170 00:58 15.08.2019
3641 Clear 16 1015 67 10000 2.1 170 00:37 15.08.2019
3642 Clear 16 1015 72 10000 3.1 170 00:19 15.08.2019
3643 Clear 16 1015 72 10000 3.1 150 23:55 14.08.2019
3644 Clear 16 1015 72 10000 3.1 150 23:37 14.08.2019
3645 Clear 16 1016 72 10000 3.1 160 23:18 14.08.2019
3646 Clear 17 1016 67 10000 2.6 170 22:42 14.08.2019
3647 Clear 17 1016 63 10000 2.6 180 22:22 14.08.2019
3648 Clear 17 1016 63 10000 3.1 180 21:57 14.08.2019
3649 Clear 17 1016 63 10000 3.1 180 21:39 14.08.2019
3650 Clear 18 1016 55 10000 2.6 180 21:21 14.08.2019
3651 Clear 19 1016 49 10000 2.6 190 20:57 14.08.2019
3652 Clear 19 1016 49 10000 2.6 190 20:39 14.08.2019
3653 Clear 20 1016 43 10000 3.6 210 20:19 14.08.2019
3654 Clear 21 1016 49 10000 3.1 170 19:55 14.08.2019
3655 Clear 22 1016 46 10000 3.1 190 19:36 14.08.2019
3656 Clear 22 1016 46 10000 3.1 190 19:18 14.08.2019
3657 Clear 22 1016 43 10000 4.6 190 18:43 14.08.2019
3658 Clear 22 1017 46 10000 5.1 200 18:24 14.08.2019
3659 Clear 22 1017 52 10000 3.6 180 17:59 14.08.2019
3660 Clear 22 1017 52 10000 3.6 180 17:40 14.08.2019
3661 Clear 23 1017 46 10000 4.6 220 17:22 14.08.2019
3662 Clear 21 1017 46 10000 5.1 180 16:58 14.08.2019
3663 Clear 21 1017 46 10000 5.1 180 16:39 14.08.2019
3664 Clear 22 1018 46 10000 3.1 230 16:19 14.08.2019
3665 Clear 23 1018 43 10000 3.1 180 15:43 14.08.2019
3666 Clear 22 1018 43 10000 4.1 210 15:20 14.08.2019
3667 Clear 21 1018 46 10000 3.1 200 14:58 14.08.2019
3668 Clear 21 1018 46 10000 3.1 200 14:39 14.08.2019
3669 Clear 21 1019 45 10000 2.6 0 14:19 14.08.2019
3670 Clear 21 1019 45 10000 2.6 0 14:19 14.08.2019
3671 Clouds 21 1019 40 10000 1.5 0 13:55 14.08.2019
3672 Clouds 21 1019 45 10000 2.6 180 13:37 14.08.2019
3673 Clouds 21 1019 45 10000 2.6 180 13:18 14.08.2019
3674 Clouds 20 1019 45 10000 3.1 0 12:55 14.08.2019
3675 Clouds 20 1019 45 10000 3.1 0 12:36 14.08.2019
3676 Clouds 20 1019 52 10000 3.6 190 12:18 14.08.2019
3677 Clouds 18 1020 63 10000 3.6 240 11:43 14.08.2019
3678 Clouds 18 1020 59 10000 1.5 0 11:22 14.08.2019
3679 Clouds 17 1020 63 10000 1 0 10:46 14.08.2019
3680 Clouds 17 1020 63 10000 1.5 230 10:25 14.08.2019
3681 Clouds 16 1020 63 10000 1 0 09:59 14.08.2019
3682 Clouds 16 1020 63 10000 1 0 09:41 14.08.2019
3683 Clouds 17 1020 67 10000 2.1 300 09:20 14.08.2019
3684 Clear 15 1020 72 0 1 0 08:42 14.08.2019
3685 Clouds 14 1019 82 10000 0.97 241.555 08:24 14.08.2019
3686 Clouds 13 1019 87 10000 1 0 07:55 14.08.2019
3687 Clouds 13 1019 87 10000 1 0 07:35 14.08.2019
3688 Clouds 12 1019 87 10000 1.5 220 06:50 14.08.2019
3689 Clouds 12 1019 93 10000 1.5 230 06:23 14.08.2019
3690 Clear 13 1019 87 10000 1.5 240 05:28 14.08.2019
3691 Clear 14 1019 82 10000 1.5 200 03:41 14.08.2019
3692 Clouds 14 1019 76 10000 1.5 220 02:37 14.08.2019
3693 Clear 15 1019 76 10000 1.5 170 01:59 14.08.2019
3694 Clear 15 1019 72 10000 1 200 01:30 14.08.2019
3695 Clear 15 1019 72 10000 2.1 280 00:25 14.08.2019
3696 Clear 14 1019 72 10000 3.1 330 23:43 13.08.2019
3697 Clear 15 1019 63 10000 3.6 320 23:19 13.08.2019
3698 Clear 15 1019 63 10000 4.6 320 22:56 13.08.2019
3699 Clear 15 1019 63 10000 4.6 320 22:38 13.08.2019
3700 Clear 15 1019 63 10000 6.2 330 22:19 13.08.2019
3701 Clear 16 1018 55 10000 4.6 290 21:55 13.08.2019
3702 Clear 16 1018 55 10000 4.6 290 21:36 13.08.2019
3703 Clear 17 1018 48 10000 2.6 260 21:18 13.08.2019
3704 Clear 18 1017 45 10000 2.6 210 20:42 13.08.2019
3705 Clear 19 1017 40 10000 4.1 230 20:20 13.08.2019
3706 Clear 19 1017 37 10000 4.1 240 19:56 13.08.2019
3707 Clear 20 1017 37 10000 4.6 250 19:38 13.08.2019
3708 Clear 20 1017 37 10000 4.6 250 19:20 13.08.2019
3709 Clear 21 1017 35 10000 4.1 250 18:41 13.08.2019
3710 Clear 21 1018 37 10000 4.1 250 18:22 13.08.2019
3711 Clear 21 1018 35 10000 4.6 240 17:56 13.08.2019
3712 Clear 21 1018 35 10000 4.6 240 17:38 13.08.2019
3713 Clear 21 1018 32 10000 4.6 230 17:18 13.08.2019
3714 Clear 21 1018 35 10000 5.7 240 16:55 13.08.2019
3715 Clear 21 1018 33 10000 5.1 230 16:36 13.08.2019
3716 Clear 21 1018 33 10000 5.1 230 16:18 13.08.2019
3717 Clear 21 1018 37 10000 5.1 250 15:38 13.08.2019
3718 Clear 20 1018 37 10000 6.7 250 15:20 13.08.2019
3719 Clear 20 1019 40 10000 4.1 260 14:55 13.08.2019
3720 Clear 20 1019 40 10000 4.1 260 14:37 13.08.2019
3721 Clouds 20 1019 45 10000 3.6 270 14:18 13.08.2019
3722 Clouds 20 1019 45 10000 4.6 240 13:41 13.08.2019
3723 Clouds 20 1019 45 10000 4.6 250 13:21 13.08.2019
3724 Clouds 19 1019 52 10000 4.6 260 12:58 13.08.2019
3725 Clouds 19 1019 52 10000 4.6 260 12:39 13.08.2019
3726 Clouds 19 1019 55 10000 3.6 250 12:21 13.08.2019
3727 Rain 18 1019 59 10000 4.1 250 11:56 13.08.2019
3728 Rain 18 1019 59 10000 4.1 250 11:37 13.08.2019
3729 Rain 18 1019 72 10000 3.6 210 11:18 13.08.2019
3730 Rain 18 1019 72 10000 3.6 210 11:18 13.08.2019
3731 Clouds 17 1019 77 10000 4.1 200 10:55 13.08.2019
3732 Clouds 17 1019 87 10000 4.1 200 10:36 13.08.2019
3733 Clouds 16 1019 87 10000 4.1 200 10:18 13.08.2019
3734 Clouds 16 1019 82 10000 4.6 190 09:42 13.08.2019
3735 Clouds 15 1019 87 10000 3.6 170 09:23 13.08.2019
3736 Clouds 14 1018 93 10000 3.6 190 08:43 13.08.2019
3737 Clouds 13 1018 93 10000 4.1 200 08:22 13.08.2019
3738 Clouds 13 1018 93 10000 1.5 170 07:56 13.08.2019
3739 Clouds 13 1018 93 10000 1.5 170 07:56 13.08.2019
3740 Clouds 13 1018 100 10000 2.54 246.422 07:32 13.08.2019
3741 Clouds 12 1017 100 10000 1.5 150 06:55 13.08.2019
3742 Clouds 12 1017 100 10000 1.5 150 06:34 13.08.2019
3743 Clouds 12 1017 93 10000 2.1 180 05:35 13.08.2019
3744 Clouds 13 1017 93 10000 2.1 200 02:38 13.08.2019
3745 Clouds 13 1017 100 10000 2.6 220 01:59 13.08.2019
3746 Clouds 13 1017 100 10000 3.6 180 00:59 13.08.2019
3747 Clouds 13 1017 100 10000 3.6 180 00:40 13.08.2019
3748 Clouds 13 1017 93 10000 1.5 220 23:56 12.08.2019
3749 Clouds 13 1017 93 10000 1.5 220 23:36 12.08.2019
3750 Clear 14 1017 93 10000 3.1 240 23:18 12.08.2019
3751 Clear 14 1017 93 10000 1.5 210 22:40 12.08.2019
3752 Clear 14 1016 100 10000 2.1 160 22:19 12.08.2019
3753 Rain 15 1016 93 10000 3.6 170 21:55 12.08.2019
3754 Rain 15 1016 93 10000 3.6 170 21:37 12.08.2019
3755 Rain 15 1016 93 10000 3.1 160 21:18 12.08.2019
3756 Rain 15 1016 93 10000 3.1 140 20:56 12.08.2019
3757 Rain 15 1016 93 10000 3.1 140 20:56 12.08.2019
3758 Rain 16 1016 93 10000 3.1 140 20:37 12.08.2019
3759 Rain 16 1015 82 10000 1 0 20:19 12.08.2019
3760 Rain 17 1016 93 9000 3.1 290 19:55 12.08.2019
3761 Rain 17 1016 93 9000 3.1 290 19:36 12.08.2019
3762 Rain 19 1015 68 4500 10.8 280 19:18 12.08.2019
3763 Rain 20 1014 49 10000 5.1 190 18:54 12.08.2019
3764 Rain 21 1014 49 10000 5.1 190 18:36 12.08.2019
3765 Clouds 22 1014 49 10000 4.1 170 18:18 12.08.2019
3766 Clouds 23 1014 49 10000 5.1 200 17:46 12.08.2019
3767 Clouds 23 1015 49 10000 5.7 220 17:28 12.08.2019
3768 Clouds 23 1015 49 10000 5.7 220 17:28 12.08.2019
3769 -273 0 0 0 0 0 16:56 12.08.2019
3770 -273 0 0 0 0 0 16:56 12.08.2019
3771 Clouds 22 1015 49 10000 4.6 190 16:37 12.08.2019
3772 Clouds 22 1015 53 10000 5.1 200 16:18 12.08.2019
3773 Clouds 22 1015 49 10000 4.6 190 15:54 12.08.2019
3774 Clouds 22 1015 49 10000 4.6 190 15:36 12.08.2019
3775 Clouds 22 1016 53 10000 4.6 170 15:18 12.08.2019
3776 -273 0 0 0 0 0 14:41 12.08.2019
3777 Clouds 22 1016 53 10000 4.6 180 14:41 12.08.2019
3778 Clouds 22 1016 53 10000 4.6 180 14:40 12.08.2019
3779 Clouds 21 1016 53 10000 4.1 180 14:22 12.08.2019
3780 Clouds 21 1016 60 10000 3.6 190 13:57 12.08.2019
3781 Clouds 21 1016 60 10000 3.6 190 13:39 12.08.2019
3782 Clouds 21 1017 64 10000 4.1 200 13:20 12.08.2019
3783 Clouds 20 1017 64 10000 3.1 190 12:43 12.08.2019
3784 Clouds 20 1018 64 10000 3.1 210 12:21 12.08.2019
3785 -273 0 0 0 0 0 11:45 12.08.2019
3786 Clouds 20 1018 64 10000 3.1 190 11:44 12.08.2019
3787 Clouds 20 1018 64 10000 3.1 190 11:44 12.08.2019
3788 Clouds 20 1018 68 10000 2.6 200 11:26 12.08.2019
3789 Clouds 19 1018 68 10000 1.5 240 10:57 12.08.2019
3790 Clouds 19 1017 72 10000 2.6 230 10:38 12.08.2019
3791 Rain 18 1017 72 10000 3.1 180 10:20 12.08.2019
3792 Rain 18 1017 77 10000 2.6 0 09:54 12.08.2019
3793 Rain 17 1017 77 10000 2.6 0 09:36 12.08.2019
3794 Clouds 16 1017 82 10000 2.6 210 09:18 12.08.2019
3795 Clouds 15 1017 82 10000 2.1 200 08:39 12.08.2019
3796 Clouds 15 1017 82 10000 2.1 200 08:39 12.08.2019
3797 Clouds 15 1017 87 10000 0.5 0 08:21 12.08.2019
3798 Clouds 14 1017 93 10000 1 0 07:56 12.08.2019
3799 Clouds 14 1017 93 10000 1 0 07:35 12.08.2019
3800 Clear 13 1017 100 10000 1 190 06:53 12.08.2019
3801 Clear 13 1017 93 10000 2.6 160 05:53 12.08.2019
3802 Clear 13 1017 87 10000 2.6 220 03:47 12.08.2019
3803 Clear 14 1017 87 10000 2.6 190 02:42 12.08.2019
3804 Clear 14 1017 87 10000 3.6 210 01:42 12.08.2019
3805 Clouds 15 1016 93 10000 3.6 210 01:18 12.08.2019
3806 Clouds 15 1017 93 10000 3.6 220 00:54 12.08.2019
3807 Clouds 15 1017 93 10000 3.1 200 00:36 12.08.2019
3808 Clouds 15 1017 93 10000 3.1 200 00:18 12.08.2019
3809 Clouds 15 1017 93 10000 2.6 180 23:39 11.08.2019
3810 Clouds 15 1016 93 10000 1.5 200 23:19 11.08.2019
3811 Rain 15 1016 93 10000 2.1 230 22:56 11.08.2019
3812 Rain 15 1016 93 10000 2.1 230 22:37 11.08.2019
3813 Rain 16 1016 93 10000 2.6 240 22:18 11.08.2019
3814 Rain 16 1016 87 10000 1.01 236.152 21:56 11.08.2019
3815 Rain 16 1016 87 10000 3.6 260 21:38 11.08.2019
3816 Rain 17 1015 82 10000 3.1 250 21:19 11.08.2019
3817 Rain 17 1015 63 10000 2.6 240 20:44 11.08.2019
3818 Rain 18 1016 63 10000 3.1 310 20:23 11.08.2019
3819 -273 0 0 0 0 0 19:55 11.08.2019
3820 Rain 18 1015 68 10000 3.1 320 19:37 11.08.2019
3821 Rain 19 1015 68 10000 3.1 320 19:18 11.08.2019
3822 Rain 20 1014 56 10000 5.7 310 18:40 11.08.2019
3823 Rain 22 1014 43 10000 6.7 290 18:19 11.08.2019
3824 Drizzle 23 1013 41 10000 4.6 290 17:54 11.08.2019
3825 Clear 24 1013 41 10000 4.6 290 17:36 11.08.2019
3826 Clear 24 1013 41 10000 4.6 260 17:18 11.08.2019
3827 Clear 25 1013 41 10000 3.6 230 16:40 11.08.2019
3828 Clear 25 1014 41 10000 5.1 190 16:22 11.08.2019
3829 Clear 26 1014 41 10000 5.1 190 15:59 11.08.2019
3830 Clear 26 1014 41 10000 5.1 190 15:41 11.08.2019
3831 Clear 26 1014 39 10000 3.6 190 15:22 11.08.2019
3832 Clear 26 1014 41 10000 5.7 200 14:56 11.08.2019
3833 Clear 26 1014 41 10000 5.7 200 14:37 11.08.2019
3834 Clear 26 1015 41 10000 4.6 0 14:19 11.08.2019
3835 Clear 26 1015 41 10000 4.1 210 13:43 11.08.2019
3836 Clear 25 1016 44 10000 4.6 220 13:24 11.08.2019
3837 Clear 25 1016 41 10000 4.1 190 12:46 11.08.2019
3838 Clouds 24 1016 44 10000 4.6 210 12:22 11.08.2019
3839 Clouds 24 1016 47 10000 3.1 190 11:42 11.08.2019
3840 Clouds 23 1017 49 10000 3.1 180 11:23 11.08.2019
3841 Clouds 23 1017 53 10000 3.1 190 10:59 11.08.2019
3842 Clouds 23 1017 53 10000 3.1 190 10:40 11.08.2019
3843 Clear 22 1017 56 10000 3.1 200 10:21 11.08.2019
3844 Clear 21 1017 56 10000 3.1 170 09:56 11.08.2019
3845 Clear 20 1017 56 10000 3.1 170 09:38 11.08.2019
3846 Clear 19 1017 63 10000 2.6 180 09:19 11.08.2019
3847 Clear 19 1017 63 10000 2.6 180 09:19 11.08.2019
3848 Clear 18 1017 72 10000 2.1 190 08:44 11.08.2019
3849 Clear 18 1017 77 10000 1.5 200 08:25 11.08.2019
3850 Clear 16 1017 87 10000 1 0 07:54 11.08.2019
3851 Clear 15 1017 87 10000 1.5 210 07:22 11.08.2019
3852 Clear 15 1017 87 10000 1.5 200 06:41 11.08.2019
3853 Clear 15 1017 87 10000 1.5 160 05:34 11.08.2019
3854 Clear 16 1017 82 10000 1 0 03:41 11.08.2019
3855 Clear 16 1017 82 10000 1 0 02:48 11.08.2019
3856 Clear 17 1017 77 10000 1 150 01:38 11.08.2019
3857 Clear 17 1017 72 10000 1.5 220 01:19 11.08.2019
3858 Clear 17 1017 67 10000 1 0 00:43 11.08.2019
3859 Clear 17 1017 72 10000 2.1 190 00:23 11.08.2019
3860 Clear 18 1017 63 10000 2.6 210 23:43 10.08.2019
3861 Clear 18 1017 63 10000 2.1 210 23:24 10.08.2019
3862 Clear 19 1016 49 10000 3.1 220 22:43 10.08.2019
3863 Clear 20 1016 46 10000 3.1 240 22:25 10.08.2019
3864 Clear 20 1016 40 10000 4.1 250 21:58 10.08.2019
3865 Clear 20 1016 40 10000 4.1 250 21:38 10.08.2019
3866 Clear 21 1016 38 10000 4.6 260 21:20 10.08.2019
3867 Clear 22 1015 36 10000 6.7 260 20:56 10.08.2019
3868 Clear 23 1015 36 10000 6.7 260 20:37 10.08.2019
3869 Clear 23 1015 41 10000 5.7 230 20:18 10.08.2019
3870 Clear 23 1015 41 10000 5.7 220 19:39 10.08.2019
3871 Clear 24 1014 41 10000 6.7 220 19:21 10.08.2019
3872 Clear 24 1014 39 10000 7.7 220 18:41 10.08.2019
3873 Clear 25 1014 39 10000 7.7 220 18:23 10.08.2019
3874 Clear 25 1014 36 10000 9.8 230 17:55 10.08.2019
3875 Clear 25 1014 36 10000 9.8 230 17:36 10.08.2019
3876 Clear 25 1014 36 10000 8.7 220 17:18 10.08.2019
3877 Clear 25 1014 39 10000 8.7 220 16:42 10.08.2019
3878 Clear 25 1014 39 10000 9.8 220 16:20 10.08.2019
3879 Clear 25 1014 41 10000 7.7 230 15:43 10.08.2019
3880 Clouds 24 1015 50 10000 8.2 210 15:21 10.08.2019
3881 Clouds 24 1014 53 10000 6.7 200 14:43 10.08.2019
3882 Clouds 24 1014 53 10000 7.2 200 14:19 10.08.2019
3883 Clouds 23 1014 56 10000 6.7 200 13:41 10.08.2019
3884 Clouds 23 1014 56 10000 6.7 210 13:19 10.08.2019
3885 Clouds 23 1015 60 10000 8.2 210 12:44 10.08.2019
3886 Clouds 22 1014 56 10000 7.2 210 12:24 10.08.2019
3887 Clouds 22 1015 60 10000 7.2 220 11:59 10.08.2019
3888 Clouds 21 1015 60 10000 7.2 220 11:40 10.08.2019
3889 Clouds 21 1014 60 10000 6.2 210 11:21 10.08.2019
3890 Clouds 21 1014 68 10000 5.1 210 10:55 10.08.2019
3891 Clouds 21 1014 68 10000 5.1 220 10:36 10.08.2019
3892 Clouds 21 1014 68 10000 5.1 220 10:18 10.08.2019
3893 Clouds 21 1014 73 10000 5.1 230 09:40 10.08.2019
3894 Clouds 20 1013 73 10000 6.2 230 09:22 10.08.2019
3895 Clouds 20 1013 82 10000 4.6 230 08:41 10.08.2019
3896 Clouds 20 1012 82 10000 4.1 230 08:20 10.08.2019
3897 Clouds 19 1012 93 10000 4.1 220 07:54 10.08.2019
3898 Clouds 19 1012 93 10000 4.1 220 07:54 10.08.2019
3899 Clouds 19 1012 88 10000 3.6 220 07:29 10.08.2019
3900 Clouds 19 1012 93 10000 2.1 200 06:49 10.08.2019
3901 Clouds 19 1011 93 10000 3.6 180 06:28 10.08.2019
3902 Clouds 20 1011 88 10000 4.1 210 05:27 10.08.2019
3903 Clouds 20 1011 94 10000 3.6 180 04:37 10.08.2019
3904 Clouds 20 1010 100 10000 4.1 180 03:26 10.08.2019
3905 Clouds 20 1010 100 10000 2.6 190 02:28 10.08.2019
3906 Rain 20 1010 100 10000 3.1 190 01:43 10.08.2019
3907 Rain 20 1010 100 10000 2.1 170 01:23 10.08.2019
3908 Rain 20 1011 94 10000 3.1 160 00:53 10.08.2019
3909 Clouds 20 1010 88 10000 2.1 40 00:27 10.08.2019
3910 Rain 21 1011 94 10000 1.35 220.034 23:59 09.08.2019
3911 Rain 21 1009 88 10000 3.1 340 23:38 09.08.2019
3912 Clouds 20 1010 94 10000 1.35 220.034 23:19 09.08.2019
3913 Rain 21 1009 88 10000 3.1 150 22:41 09.08.2019
3914 Rain 21 1009 88 10000 2.1 320 22:23 09.08.2019
3915 Rain 21 1009 83 10000 3.1 20 21:59 09.08.2019
3916 Rain 22 1009 94 10000 4.1 330 21:39 09.08.2019
3917 Rain 22 1008 94 10000 2.6 270 21:21 09.08.2019
3918 Rain 22 1007 83 10000 3.1 80 20:56 09.08.2019
3919 Rain 23 1007 83 10000 3.1 80 20:38 09.08.2019
3920 Rain 23 1007 83 10000 2.6 110 20:18 09.08.2019
3921 Rain 25 1007 78 10000 1.5 40 19:43 09.08.2019
3922 Rain 26 1007 54 10000 1.5 100 19:22 09.08.2019
3923 Clouds 27 1007 54 10000 2.6 100 18:56 09.08.2019
3924 Clouds 27 1007 54 10000 2.6 100 18:37 09.08.2019
3925 Clouds 28 1007 48 10000 3.1 110 18:19 09.08.2019
3926 Clouds 28 1008 48 10000 3.6 130 17:42 09.08.2019
3927 Clouds 28 1008 48 10000 3.6 110 17:24 09.08.2019
3928 -273 0 0 0 0 0 16:55 09.08.2019
3929 Rain 28 1009 51 10000 1.5 0 16:36 09.08.2019
3930 Rain 27 1009 51 10000 1.5 0 16:18 09.08.2019
3931 Rain 27 1009 51 10000 1.5 0 16:18 09.08.2019
3932 Rain 27 1009 54 10000 2.1 210 15:41 09.08.2019
3933 Rain 27 1009 54 10000 3.1 170 15:21 09.08.2019
3934 Rain 28 1009 51 10000 3.1 140 14:58 09.08.2019
3935 Rain 28 1009 51 10000 3.1 140 14:38 09.08.2019
3936 Clouds 27 1009 51 10000 1.5 0 14:20 09.08.2019
3937 Clouds 27 1010 54 10000 1.5 190 13:46 09.08.2019
3938 Clear 27 1010 54 10000 1.5 200 13:21 09.08.2019
3939 Clear 27 1010 54 10000 1.5 0 12:56 09.08.2019
3940 Clear 27 1010 54 10000 1.5 0 12:37 09.08.2019
3941 Clouds 26 1010 57 10000 2.1 0 12:18 09.08.2019
3942 Clouds 25 1010 57 10000 2.1 90 11:41 09.08.2019
3943 Clear 24 1010 57 10000 2.1 100 11:21 09.08.2019
3944 Clear 23 1011 64 10000 1.5 0 10:57 09.08.2019
3945 Clear 22 1011 68 10000 1.5 0 10:38 09.08.2019
3946 Clear 22 1011 68 10000 1.5 0 10:20 09.08.2019
3947 Clear 21 1011 72 10000 2.1 80 09:41 09.08.2019
3948 Clear 20 1011 72 10000 2.6 60 09:19 09.08.2019
3949 Clear 19 1011 77 10000 2.6 20 08:45 09.08.2019
3950 Clear 18 1011 82 10000 1.5 30 08:25 09.08.2019
3951 Clear 18 1012 77 10000 2.1 20 07:59 09.08.2019
3952 Clear 17 1012 77 10000 2.1 20 07:41 09.08.2019
3953 Clear 17 1012 82 10000 2.6 360 07:21 09.08.2019
3954 Clear 16 1012 82 10000 2.1 50 06:50 09.08.2019
3955 Clear 15 1012 93 10000 2.1 350 06:22 09.08.2019
3956 Clear 15 1012 93 10000 1.5 20 05:45 09.08.2019
3957 Haze 17 1013 82 4000 0.55 113.212 02:30 09.08.2019
3958 Clear 17 1013 87 10000 0.5 130 01:30 09.08.2019
3959 Clear 18 1013 77 10000 0.5 0 00:43 09.08.2019
3960 Clear 18 1013 82 10000 1 0 00:24 09.08.2019
3961 Clear 18 1012 72 10000 1 0 23:57 08.08.2019
3962 Clear 18 1012 72 10000 1 0 23:38 08.08.2019
3963 Clear 18 1012 77 10000 1 0 23:19 08.08.2019
3964 Clear 19 1012 72 10000 1 0 22:56 08.08.2019
3965 Clear 20 1012 64 10000 1.5 180 22:36 08.08.2019
3966 Clear 20 1012 64 10000 1.5 180 22:18 08.08.2019
3967 Clear 20 1012 60 10000 2.1 170 21:43 08.08.2019
3968 Clear 21 1012 56 10000 2.1 180 21:24 08.08.2019
3969 Clear 23 1012 53 10000 2.1 190 20:59 08.08.2019
3970 Clear 23 1012 53 10000 2.1 190 20:41 08.08.2019
3971 Clear 24 1012 44 10000 3.1 230 20:20 08.08.2019
3972 Clear 24 1012 39 10000 4.1 220 19:56 08.08.2019
3973 Clear 25 1012 36 10000 4.1 0 19:36 08.08.2019
3974 Clear 25 1012 36 10000 4.1 0 19:18 08.08.2019
3975 Clear 26 1012 39 10000 4.1 200 18:41 08.08.2019
3976 Clear 26 1012 41 10000 4.1 230 18:20 08.08.2019
3977 Clear 26 1012 39 10000 5.7 220 17:42 08.08.2019
3978 Clear 26 1012 39 10000 4.1 240 17:24 08.08.2019
3979 Clear 26 1012 42 10000 3.6 0 16:59 08.08.2019
3980 Clear 26 1012 42 10000 3.6 0 16:41 08.08.2019
3981 Clear 26 1012 42 10000 3.6 0 16:41 08.08.2019
3982 Clouds 26 1013 44 10000 2.6 260 16:23 08.08.2019
3983 Clear 25 1013 42 10000 4.1 200 15:57 08.08.2019
3984 Clear 25 1013 42 10000 4.1 200 15:38 08.08.2019
3985 Clear 25 1013 41 10000 5.1 210 15:20 08.08.2019
3986 Clear 25 1013 41 10000 5.1 210 15:20 08.08.2019
3987 Clear 25 1013 44 10000 4.1 200 14:40 08.08.2019
3988 Clear 25 1013 47 10000 6.2 220 14:22 08.08.2019
3989 Clouds 25 1013 47 10000 3.6 190 13:57 08.08.2019
3990 Clouds 24 1013 41 10000 6.2 220 13:36 08.08.2019
3991 Clouds 24 1013 41 10000 6.2 220 13:18 08.08.2019
3992 Clouds 24 1013 50 10000 4.1 200 12:39 08.08.2019
3993 Clouds 23 1013 56 10000 4.1 190 12:19 08.08.2019
3994 Clouds 23 1013 56 10000 3.1 210 11:48 08.08.2019
3995 Clouds 22 1013 68 10000 3.6 220 11:27 08.08.2019
3996 Clouds 21 1013 73 10000 3.1 190 10:59 08.08.2019
3997 Clouds 21 1013 73 10000 3.1 190 10:40 08.08.2019
3998 Clouds 20 1013 77 10000 2.6 200 10:20 08.08.2019
3999 Clouds 19 1013 82 10000 2.1 190 09:44 08.08.2019
4000 Clouds 18 1013 88 10000 2.6 210 09:25 08.08.2019
4001 Clouds 18 1013 93 10000 2.1 200 08:56 08.08.2019
4002 Clouds 17 1013 93 10000 2.1 200 08:36 08.08.2019
4003 Clouds 16 1013 93 8000 2.6 200 08:18 08.08.2019
4004 Clouds 16 1013 93 7000 3.6 220 07:39 08.08.2019
4005 Clouds 16 1012 100 8000 3.6 220 07:19 08.08.2019
4006 Fog 15 1012 100 4800 2.6 210 06:47 08.08.2019
4007 Clouds 15 1012 100 10000 2.6 210 06:23 08.08.2019
4008 Clouds 15 1012 93 10000 1 180 05:51 08.08.2019
4009 Clear 16 1012 93 10000 1 210 04:53 08.08.2019
4010 Clear 16 1012 93 10000 3.1 180 03:52 08.08.2019
4011 Rain 16 1011 88 10000 2.1 230 02:21 08.08.2019
4012 Clear 16 1012 93 10000 3.1 220 01:36 08.08.2019
4013 Rain 17 1012 88 10000 2.1 240 00:26 08.08.2019
4014 Clear 17 1012 88 10000 1.69 238.206 23:50 07.08.2019
4015 Rain 17 1012 88 10000 2.1 330 23:19 07.08.2019
4016 Clouds 17 1011 93 10000 3.6 180 22:56 07.08.2019
4017 Clouds 18 1010 82 10000 3.1 170 22:38 07.08.2019
4018 Clouds 18 1010 82 10000 3.1 170 22:19 07.08.2019
4019 Clouds 18 1010 88 10000 3.6 180 21:55 07.08.2019
4020 Clouds 19 1010 77 10000 2.6 200 21:37 07.08.2019
4021 Clouds 19 1010 77 10000 2.6 200 21:18 07.08.2019
4022 Clouds 20 1009 64 10000 3.1 220 20:42 07.08.2019
4023 Clouds 20 1009 60 10000 3.6 180 20:23 07.08.2019
4024 Clouds 20 1009 60 10000 3.6 200 19:58 07.08.2019
4025 Clouds 21 1009 60 10000 3.6 200 19:39 07.08.2019
4026 Clouds 21 1009 64 10000 3.1 210 19:21 07.08.2019
4027 Clouds 21 1009 64 10000 4.1 220 18:44 07.08.2019
4028 Clouds 21 1009 60 10000 4.6 210 18:22 07.08.2019
4029 Clouds 21 1009 64 10000 3.6 210 17:59 07.08.2019
4030 Clouds 21 1009 64 10000 3.6 210 17:40 07.08.2019
4031 Clouds 21 1009 68 10000 4.1 200 17:21 07.08.2019
4032 Clouds 21 1009 60 10000 3.6 200 16:57 07.08.2019
4033 Clouds 21 1009 60 10000 3.6 200 16:39 07.08.2019
4034 Clouds 21 1009 64 10000 2.1 260 16:21 07.08.2019
4035 Clouds 21 1009 56 10000 3.1 220 15:57 07.08.2019
4036 Clouds 21 1009 56 10000 3.1 220 15:38 07.08.2019
4037 Clouds 21 1009 64 10000 3.1 250 15:19 07.08.2019
4038 Clouds 21 1008 68 10000 2.6 270 14:49 07.08.2019
4039 Clouds 21 1009 73 10000 2.6 230 14:29 07.08.2019
4040 Clouds 21 1009 73 10000 3.1 230 13:57 07.08.2019
4041 Clouds 21 1009 73 10000 3.1 230 13:38 07.08.2019
4042 Clouds 21 1009 73 10000 3.1 250 13:18 07.08.2019
4043 -273 0 0 0 0 0 12:56 07.08.2019
4044 Clouds 21 1009 73 10000 3.1 240 12:36 07.08.2019
4045 Clouds 20 1009 73 10000 3.6 220 12:18 07.08.2019
4046 Clouds 20 1009 77 10000 3.6 240 11:43 07.08.2019
4047 Clouds 20 1009 77 10000 4.1 240 11:21 07.08.2019
4048 Clouds 20 1009 82 10000 4.1 240 10:58 07.08.2019
4049 Clouds 20 1009 82 10000 4.1 240 10:39 07.08.2019
4050 Clouds 20 1009 88 10000 4.1 240 10:19 07.08.2019
4051 Clouds 19 1008 93 10000 3.6 220 09:46 07.08.2019
4052 Clouds 18 1008 100 10000 3.1 210 09:23 07.08.2019
4053 Rain 18 1008 100 10000 2.6 280 08:59 07.08.2019
4054 Rain 18 1008 93 10000 2.6 230 08:41 07.08.2019
4055 Rain 18 1008 100 10000 1.5 260 08:23 07.08.2019
4056 Rain 17 1008 100 10000 1.5 190 07:43 07.08.2019
4057 Rain 17 1009 100 10000 1.85 229.617 07:21 07.08.2019
4058 Rain 17 1008 100 4500 1 0 06:40 07.08.2019
4059 Rain 17 1008 100 10000 1.5 210 05:59 07.08.2019
4060 Clouds 17 1008 100 10000 1.5 210 05:40 07.08.2019
4061 Clouds 17 1010 93 10000 1.04 208.312 03:23 07.08.2019
4062 Clouds 17 1009 93 10000 1.5 180 02:51 07.08.2019
4063 Clouds 17 1010 93 10000 1.5 270 02:30 07.08.2019
4064 Clouds 17 1010 100 10000 2.6 280 01:48 07.08.2019
4065 Rain 18 1010 100 10000 1.5 60 00:53 07.08.2019
4066 Rain 18 1010 93 10000 1.5 100 00:23 07.08.2019
4067 Rain 18 1010 93 8000 3.6 300 23:48 06.08.2019
4068 Rain 18 1011 88 10000 4.6 290 23:23 06.08.2019
4069 Clouds 18 1010 93 10000 2.6 90 22:59 06.08.2019
4070 Clouds 18 1010 93 10000 2.6 90 22:40 06.08.2019
4071 Clouds 18 1010 93 10000 2.6 90 22:40 06.08.2019
4072 Rain 18 1010 88 10000 1.13 211.112 22:21 06.08.2019
4073 Rain 19 1010 88 6000 10.3 320 21:57 06.08.2019
4074 Rain 20 1010 88 6000 10.3 320 21:38 06.08.2019
4075 Rain 21 1010 88 6000 5.1 350 21:19 06.08.2019
4076 Rain 22 1009 83 10000 1.5 110 20:43 06.08.2019
4077 Rain 22 1009 69 10000 1.31 202.078 20:24 06.08.2019
4078 Clouds 23 1009 64 10000 3.1 150 19:56 06.08.2019
4079 Clouds 23 1009 64 10000 3.1 150 19:37 06.08.2019
4080 Clouds 23 1009 64 10000 3.1 150 19:18 06.08.2019
4081 Clouds 23 1010 61 10000 2.1 160 18:41 06.08.2019
4082 Clouds 24 1009 61 10000 1.5 0 18:21 06.08.2019
4083 Clouds 23 1010 61 10000 1 260 17:57 06.08.2019
4084 Clouds 23 1010 61 10000 2.1 230 17:37 06.08.2019
4085 Clouds 23 1010 61 10000 2.1 230 17:19 06.08.2019
4086 Clouds 23 1011 64 10000 2.1 170 16:47 06.08.2019
4087 Clouds 23 1011 64 10000 2.1 240 16:25 06.08.2019
4088 Rain 22 1012 64 10000 3.1 270 15:59 06.08.2019
4089 Rain 22 1012 64 10000 3.1 270 15:41 06.08.2019
4090 Rain 22 1012 69 10000 1.5 200 15:22 06.08.2019
4091 Rain 22 1012 78 10000 2.1 190 14:59 06.08.2019
4092 Clouds 22 1012 78 10000 2.1 190 14:38 06.08.2019
4093 Clouds 22 1012 78 10000 3.6 190 14:20 06.08.2019
4094 Rain 21 1013 83 10000 3.1 180 13:55 06.08.2019
4095 -273 0 0 0 0 0 13:36 06.08.2019
4096 Rain 21 1013 83 10000 3.1 210 13:18 06.08.2019
4097 Rain 21 1013 82 10000 2.6 190 12:40 06.08.2019
4098 Clouds 21 1013 82 10000 3.1 180 12:22 06.08.2019
4099 Rain 21 1013 82 10000 1.5 250 11:46 06.08.2019
4100 Rain 20 1013 93 10000 2.6 200 11:21 06.08.2019
4101 Rain 21 1013 88 10000 1.5 240 10:59 06.08.2019
4102 Rain 21 1013 88 10000 3.1 190 10:40 06.08.2019
4103 Rain 21 1013 88 10000 2.6 200 10:22 06.08.2019
4104 Rain 21 1012 88 10000 2.6 190 09:43 06.08.2019
4105 Rain 21 1013 82 10000 1.5 300 09:23 06.08.2019
4106 Rain 21 1012 64 10000 2.6 250 08:56 06.08.2019
4107 Clouds 20 1012 68 10000 1.25 221.466 08:37 06.08.2019
4108 Clouds 20 1012 68 10000 1.25 221.466 08:19 06.08.2019
4109 Clear 19 1011 72 10000 2.1 230 07:31 06.08.2019
4110 Clear 19 1012 72 10000 1.5 190 06:45 06.08.2019
4111 Clear 18 1012 77 10000 2.1 170 06:26 06.08.2019
4112 Clear 18 1012 72 10000 0.5 0 05:46 06.08.2019
4113 Clear 18 1011 72 10000 0.5 0 02:59 06.08.2019
4114 Clear 18 1012 72 10000 1 220 01:46 06.08.2019
4115 Clouds 19 1012 63 10000 1.5 210 01:21 06.08.2019
4116 Clouds 20 1012 60 10000 2.1 340 00:26 06.08.2019
4117 Clear 21 1012 56 10000 3.1 320 23:40 05.08.2019
4118 Clear 21 1011 50 10000 3.1 290 23:18 05.08.2019
4119 Clear 21 1011 50 10000 3.6 270 22:40 05.08.2019
4120 Clear 21 1011 44 10000 2.6 280 22:22 05.08.2019
4121 Clear 23 1011 47 10000 2.6 270 21:44 05.08.2019
4122 Clear 24 1011 42 10000 3.1 0 21:21 05.08.2019
4123 Clear 25 1010 37 10000 3.6 320 20:59 05.08.2019
4124 Clear 25 1010 37 10000 3.6 320 20:41 05.08.2019
4125 Clouds 25 1010 34 10000 4.1 290 20:23 05.08.2019
4126 Clouds 25 1010 32 10000 3.6 270 19:59 05.08.2019
4127 Clouds 26 1010 32 10000 3.6 270 19:39 05.08.2019
4128 Clouds 26 1010 32 10000 6.2 250 19:20 05.08.2019
4129 Clouds 27 1010 35 10000 4.1 280 18:45 05.08.2019
4130 Clouds 28 1010 33 10000 5.7 280 18:22 05.08.2019
4131 Clouds 28 1010 35 10000 4.6 260 17:58 05.08.2019
4132 Clouds 28 1010 35 10000 4.6 260 17:40 05.08.2019
4133 Clouds 28 1010 40 10000 4.6 240 17:22 05.08.2019
4134 Clouds 28 1010 42 10000 2.6 0 16:45 05.08.2019
4135 Clouds 28 1010 48 10000 3.6 160 16:24 05.08.2019
4136 Clear 27 1011 51 10000 5.1 190 15:44 05.08.2019
4137 Clouds 26 1011 51 10000 5.1 190 15:21 05.08.2019
4138 Clear 26 1011 57 10000 4.6 190 14:55 05.08.2019
4139 Clear 26 1011 57 10000 4.6 190 14:37 05.08.2019
4140 Clear 26 1011 57 10000 4.6 180 14:19 05.08.2019
4141 Clouds 24 1012 60 10000 3.6 200 13:40 05.08.2019
4142 Rain 24 1012 64 10000 3.6 210 13:20 05.08.2019
4143 Rain 23 1012 73 10000 3.1 200 12:44 05.08.2019
4144 Rain 23 1012 73 10000 3.6 190 12:20 05.08.2019
4145 Rain 21 1012 68 10000 3.6 180 11:45 05.08.2019
4146 Clear 21 1012 73 10000 2.6 180 11:26 05.08.2019
4147 Clouds 20 1013 77 10000 3.1 170 10:51 05.08.2019
4148 Clouds 20 1013 77 10000 3.1 170 10:33 05.08.2019
4149 Rain 19 1012 72 10000 2.6 20 09:59 05.08.2019
4150 Rain 19 1012 72 10000 2.6 20 09:40 05.08.2019
4151 Rain 19 1013 82 10000 2.6 230 09:21 05.08.2019
4152 Rain 19 1013 68 10000 3.1 220 08:47 05.08.2019
4153 Rain 19 1013 64 10000 1.5 210 08:25 05.08.2019
4154 Clear 19 1012 68 10000 2.1 180 07:54 05.08.2019
4155 Clear 19 1012 68 10000 2.1 180 07:31 05.08.2019
4156 Clear 19 1012 82 10000 1 0 06:59 05.08.2019
4157 Clear 19 1012 72 10000 1 0 06:29 05.08.2019
4158 Clear 18 1012 72 10000 1.5 70 05:46 05.08.2019
4159 Clear 18 1012 82 10000 0.5 270 05:18 05.08.2019
4160 Clear 18 1013 72 10000 1.5 70 03:58 05.08.2019
4161 Clear 18 1013 72 10000 0.5 0 03:30 05.08.2019
4162 Clear 19 1013 72 10000 0.5 0 02:34 05.08.2019
4163 Clear 19 1013 68 10000 1 0 01:33 05.08.2019
4164 Clear 19 1013 63 10000 0.5 0 00:41 05.08.2019
4165 Clear 20 1013 60 10000 1 0 00:21 05.08.2019
4166 Clear 20 1013 60 10000 0.5 0 23:57 04.08.2019
4167 Clear 20 1013 60 10000 0.5 0 23:39 04.08.2019
4168 Clear 20 1013 46 10000 2.1 140 23:19 04.08.2019
4169 Clear 20 1013 60 10000 2.6 150 22:54 04.08.2019
4170 Clear 21 1013 53 10000 1.5 160 22:36 04.08.2019
4171 Clear 21 1013 53 10000 1.5 160 22:36 04.08.2019
4172 Clear 21 1013 53 10000 1.5 160 22:18 04.08.2019
4173 Clear 21 1013 56 10000 1.5 170 21:43 04.08.2019
4174 Clear 23 1013 53 10000 2.1 180 21:20 04.08.2019
4175 Clear 24 1013 47 10000 2.1 190 20:46 04.08.2019
4176 Clear 25 1013 39 10000 3.1 180 20:21 04.08.2019
4177 Clear 26 1013 37 10000 3.1 200 19:59 04.08.2019
4178 Clear 26 1013 37 10000 3.1 200 19:39 04.08.2019
4179 Clear 27 1014 32 10000 1.5 0 19:21 04.08.2019
4180 Clear 27 1014 30 10000 2.1 250 18:42 04.08.2019
4181 Clear 28 1014 34 10000 2.1 0 18:21 04.08.2019
4182 Clear 28 1014 32 10000 3.1 220 17:54 04.08.2019
4183 Clear 28 1014 32 10000 3.1 170 17:36 04.08.2019
4184 Clear 28 1014 32 10000 3.1 170 17:18 04.08.2019
4185 Clear 28 1014 34 10000 2.6 0 16:41 04.08.2019
4186 Clear 27 1015 37 10000 2.6 170 16:22 04.08.2019
4187 Clear 27 1015 39 10000 2.6 0 15:45 04.08.2019
4188 Clear 27 1015 39 10000 2.6 0 15:23 04.08.2019
4189 Clear 27 1016 41 10000 1.5 0 14:46 04.08.2019
4190 Clear 26 1016 44 10000 2.6 0 14:27 04.08.2019
4191 Clear 26 1016 44 10000 2.6 230 13:59 04.08.2019
4192 Clear 26 1016 44 10000 2.6 230 13:41 04.08.2019
4193 Clouds 26 1016 44 10000 2.1 250 13:22 04.08.2019
4194 Clouds 26 1017 47 10000 2.6 240 12:44 04.08.2019
4195 Clouds 25 1017 50 10000 1 0 12:25 04.08.2019
4196 Clouds 24 1017 53 10000 2.1 220 11:57 04.08.2019
4197 Clouds 24 1017 53 10000 2.1 220 11:37 04.08.2019
4198 Clouds 23 1017 53 10000 1.5 140 11:19 04.08.2019
4199 Clouds 22 1017 56 10000 1.5 0 10:41 04.08.2019
4200 Clouds 21 1017 60 10000 1.5 0 10:20 04.08.2019
4201 Clouds 20 1017 64 10000 2.6 70 09:45 04.08.2019
4202 Clouds 19 1017 64 10000 2.6 30 09:22 04.08.2019
4203 Clear 18 1017 68 10000 2.6 80 08:47 04.08.2019
4204 Clear 17 1017 72 10000 2.1 80 08:26 04.08.2019
4205 Clear 16 1017 77 10000 1.5 80 07:52 04.08.2019
4206 Clear 14 1017 82 10000 1.5 90 07:20 04.08.2019
4207 Clear 14 1017 82 10000 3.1 30 06:28 04.08.2019
4208 Clear 15 1017 82 10000 2.6 20 04:29 04.08.2019
4209 Clear 15 1017 82 10000 2.1 20 02:43 04.08.2019
4210 Clear 16 1017 72 10000 3.1 360 01:44 04.08.2019
4211 Clear 17 1017 72 10000 3.1 10 01:25 04.08.2019
4212 Clear 17 1017 63 10000 2.1 340 00:41 04.08.2019
4213 Clear 17 1017 63 10000 2.1 340 00:19 04.08.2019
4214 Clear 18 1017 60 10000 3.6 340 23:41 03.08.2019
4215 Clear 18 1017 60 10000 3.6 340 23:19 03.08.2019
4216 Clear 18 1017 60 10000 3.1 330 22:55 03.08.2019
4217 Clear 18 1017 60 10000 3.1 330 22:37 03.08.2019
4218 Clear 19 1017 56 10000 2.6 320 22:18 03.08.2019
4219 Clear 20 1016 53 10000 3.6 320 21:37 03.08.2019
4220 Clear 21 1016 49 10000 4.6 320 21:19 03.08.2019
4221 Clear 22 1016 47 10000 4.6 310 20:42 03.08.2019
4222 Clear 22 1016 47 10000 4.6 320 20:22 03.08.2019
4223 Clear 23 1016 44 10000 5.1 320 19:43 03.08.2019
4224 Clear 24 1016 44 10000 5.1 320 19:24 03.08.2019
4225 Clear 24 1016 39 10000 4.1 330 18:56 03.08.2019
4226 Clouds 25 1016 41 10000 5.1 360 18:27 03.08.2019
4227 Clouds 25 1016 44 10000 2.6 320 17:50 03.08.2019
4228 Clouds 25 1016 47 10000 4.1 310 17:22 03.08.2019
4229 Clouds 24 1016 44 10000 5.1 300 16:58 03.08.2019
4230 Clouds 24 1016 44 10000 5.1 300 16:37 03.08.2019
4231 Clouds 24 1016 41 10000 4.6 330 16:19 03.08.2019
4232 Clouds 24 1016 47 10000 4.6 310 15:45 03.08.2019
4233 Clouds 23 1016 44 10000 2.6 0 15:23 03.08.2019
4234 Clouds 23 1016 47 10000 2.6 0 14:43 03.08.2019
4235 Clouds 23 1016 53 10000 4.1 340 14:22 03.08.2019
4236 Clouds 23 1016 53 10000 3.1 0 13:53 03.08.2019
4237 Clouds 23 1016 56 10000 4.1 10 13:26 03.08.2019
4238 Clouds 22 1016 56 10000 4.6 20 12:59 03.08.2019
4239 Clouds 22 1016 56 10000 4.6 20 12:40 03.08.2019
4240 Clouds 21 1016 56 10000 4.6 10 12:22 03.08.2019
4241 Clouds 21 1016 64 10000 5.1 360 11:49 03.08.2019
4242 Clouds 20 1016 64 10000 5.1 360 11:28 03.08.2019
4243 Clouds 19 1016 72 10000 4.6 360 10:46 03.08.2019
4244 Clouds 19 1016 72 10000 4.6 350 10:24 03.08.2019
4245 Clouds 18 1015 82 10000 4.6 360 09:45 03.08.2019
4246 Clouds 17 1015 88 10000 3.6 10 09:24 03.08.2019
4247 Clouds 17 1015 88 10000 4.1 360 08:56 03.08.2019
4248 Rain 16 1015 77 10000 5.1 340 08:21 03.08.2019
4249 Rain 16 1014 82 10000 4.1 360 07:38 03.08.2019
4250 Clouds 16 1013 88 10000 6.2 330 06:47 03.08.2019
4251 Drizzle 16 1012 88 10000 5.1 230 05:47 03.08.2019
4252 Clear 16 1014 93 10000 2.1 180 02:43 03.08.2019
4253 Clear 16 1014 93 10000 1.5 200 01:56 03.08.2019
4254 Drizzle 16 1015 88 10000 2.15 239.997 00:57 03.08.2019
4255 Clear 17 1014 93 10000 1.5 250 00:31 03.08.2019
4256 Clear 17 1014 100 10000 1.5 220 23:42 02.08.2019
4257 Clear 17 1014 100 10000 1.5 220 23:20 02.08.2019
4258 Rain 18 1014 93 10000 1 0 22:57 02.08.2019
4259 Rain 18 1014 93 10000 1 0 22:39 02.08.2019
4260 Rain 18 1014 82 10000 3.1 20 22:20 02.08.2019
4261 Rain 19 1015 77 10000 2.6 250 21:55 02.08.2019
4262 Rain 19 1015 77 10000 2.6 250 21:37 02.08.2019
4263 Rain 19 1014 82 10000 2.1 230 21:18 02.08.2019
4264 Rain 19 1014 82 10000 2.1 230 21:18 02.08.2019
4265 Rain 20 1014 64 10000 2.1 290 20:42 02.08.2019
4266 Rain 21 1013 68 10000 1.5 280 20:21 02.08.2019
4267 Rain 21 1013 68 10000 3.1 240 19:49 02.08.2019
4268 Rain 21 1014 77 10000 3.36 267.493 19:29 02.08.2019
4269 Clouds 22 1013 60 10000 2.1 170 18:47 02.08.2019
4270 Clouds 22 1014 64 10000 2.1 140 18:29 02.08.2019
4271 Rain 22 1014 73 10000 2.6 190 17:56 02.08.2019
4272 Rain 22 1014 77 10000 3.1 170 17:38 02.08.2019
4273 Rain 22 1014 77 10000 3.1 170 17:18 02.08.2019
4274 Rain 22 1015 73 10000 2.1 0 16:39 02.08.2019
4275 Rain 22 1015 53 10000 5.1 280 16:20 02.08.2019
4276 Rain 23 1015 68 10000 3.1 40 15:45 02.08.2019
4277 Rain 23 1015 82 10000 4.1 260 15:20 02.08.2019
4278 Rain 24 1015 47 10000 4.6 0 14:57 02.08.2019
4279 Rain 24 1015 47 10000 4.6 0 14:39 02.08.2019
4280 Rain 25 1014 41 10000 2.6 340 14:18 02.08.2019
4281 Rain 25 1014 47 10000 1 0 13:42 02.08.2019
4282 Rain 25 1015 47 10000 3.6 300 13:19 02.08.2019
4283 Rain 25 1015 47 10000 3.6 270 12:41 02.08.2019
4284 Rain 25 1015 44 10000 2.1 0 12:19 02.08.2019
4285 Clouds 24 1015 47 10000 2.1 0 11:40 02.08.2019
4286 Clouds 23 1015 49 10000 1.5 140 11:22 02.08.2019
4287 Clear 23 1015 49 10000 1.5 0 10:44 02.08.2019
4288 Clear 22 1015 53 10000 1 0 10:24 02.08.2019
4289 Clear 21 1015 56 10000 1 0 09:55 02.08.2019
4290 Rain 20 1015 60 10000 1.5 100 09:37 02.08.2019
4291 Rain 20 1015 60 10000 1.5 100 09:18 02.08.2019
4292 Rain 18 1015 64 10000 1.5 130 08:40 02.08.2019
4293 Clear 17 1015 72 10000 1.5 150 08:18 02.08.2019
4294 Clear 17 1015 77 10000 0.88 287.031 07:40 02.08.2019
4295 Clear 17 1015 77 10000 1 250 07:21 02.08.2019
4296 Clear 16 1015 77 10000 1.5 10 06:31 02.08.2019
4297 Clear 16 1015 77 10000 2.6 360 05:43 02.08.2019
4298 Clear 17 1016 72 10000 0.5 0 03:34 02.08.2019
4299 Clear 17 1016 72 10000 1.5 190 02:42 02.08.2019
4300 Clear 18 1016 72 10000 1 0 01:38 02.08.2019
4301 Clear 18 1016 60 10000 2.1 10 00:32 02.08.2019
4302 Clear 18 1016 56 10000 2.6 340 23:45 01.08.2019
4303 Clear 19 1016 52 10000 2.6 330 23:26 01.08.2019
4304 Clear 19 1016 63 10000 2.1 330 22:46 01.08.2019
4305 Clear 19 1016 56 10000 1.5 310 22:25 01.08.2019
4306 Clear 20 1016 49 10000 2.1 310 21:59 01.08.2019
4307 Clear 20 1016 49 10000 2.1 310 21:41 01.08.2019
4308 Clear 21 1015 43 10000 2.6 300 21:22 01.08.2019
4309 Clear 23 1015 41 10000 3.6 0 20:47 01.08.2019
4310 Clear 23 1015 38 10000 4.1 290 20:23 01.08.2019
4311 Clear 24 1015 36 10000 3.6 270 19:59 01.08.2019
4312 Clear 24 1015 36 10000 3.6 270 19:37 01.08.2019
4313 Clear 24 1015 36 10000 5.1 290 19:18 01.08.2019
4314 Clear 25 1015 34 10000 3.6 280 18:43 01.08.2019
4315 Clear 25 1016 34 10000 3.1 260 18:24 01.08.2019
4316 Clear 25 1016 34 10000 2.6 260 17:50 01.08.2019
4317 Clear 25 1016 34 10000 3.6 0 17:31 01.08.2019
4318 Clear 25 1016 34 10000 5.1 230 16:45 01.08.2019
4319 Clear 26 1016 34 10000 4.1 270 16:23 01.08.2019
4320 Clear 25 1017 34 10000 4.6 260 15:59 01.08.2019
4321 Clear 25 1017 34 10000 4.6 260 15:41 01.08.2019
4322 Clear 25 1017 36 10000 3.1 240 15:19 01.08.2019
4323 Clear 25 1017 38 10000 4.1 250 14:42 01.08.2019
4324 Clear 25 1017 36 10000 2.1 0 14:19 01.08.2019
4325 -273 0 0 0 0 0 13:58 01.08.2019
4326 Clear 24 1017 36 10000 3.6 240 13:39 01.08.2019
4327 Clear 24 1017 38 10000 2.6 250 13:20 01.08.2019
4328 Clear 24 1017 38 10000 4.1 250 12:45 01.08.2019
4329 Clear 23 1018 40 10000 3.6 220 12:26 01.08.2019
4330 Clouds 23 1018 40 10000 3.1 230 11:43 01.08.2019
4331 Clouds 22 1018 46 10000 2.6 210 11:24 01.08.2019
4332 Clouds 22 1018 49 10000 2.6 200 10:56 01.08.2019
4333 Clouds 22 1018 49 10000 2.6 200 10:38 01.08.2019
4334 Clouds 21 1018 52 10000 1.5 0 10:20 01.08.2019
4335 Clouds 20 1018 60 10000 1 0 09:45 01.08.2019
4336 Clouds 18 1018 63 10000 1.5 170 09:23 01.08.2019
4337 Clear 17 1019 68 10000 1.5 210 08:47 01.08.2019
4338 Clear 15 1019 72 10000 1.5 180 08:21 01.08.2019
4339 Clear 15 1018 82 10000 1.5 190 07:52 01.08.2019
4340 Clear 14 1018 87 10000 1.5 190 07:29 01.08.2019
4341 Clear 14 1018 87 10000 2.1 180 06:49 01.08.2019
4342 Clouds 14 1018 87 10000 0.5 0 06:29 01.08.2019
4343 Clear 14 1018 82 10000 1 0 05:31 01.08.2019
4344 Clear 15 1018 82 10000 1.5 240 02:36 01.08.2019
4345 Clear 16 1018 72 10000 2.1 230 00:55 01.08.2019
4346 Clear 17 1018 67 10000 1.5 230 00:27 01.08.2019
4347 Clear 17 1018 63 10000 2.1 270 23:57 31.07.2019
4348 Clear 17 1018 63 10000 2.1 270 23:39 31.07.2019
4349 Clear 17 1017 59 10000 2.1 280 23:19 31.07.2019
4350 Clear 18 1017 52 10000 1.5 290 22:44 31.07.2019
4351 Clear 19 1017 46 10000 3.6 300 22:24 31.07.2019
4352 Clear 19 1017 46 10000 3.6 300 22:24 31.07.2019
4353 Clear 21 1017 43 10000 4.1 260 21:41 31.07.2019
4354 Clear 21 1016 38 10000 4.1 260 21:23 31.07.2019
4355 Clear 22 1016 36 10000 4.1 260 20:49 31.07.2019
4356 Clear 23 1016 36 10000 5.1 250 20:24 31.07.2019
4357 Clear 23 1016 36 10000 5.1 250 20:24 31.07.2019
4358 Clear 23 1016 33 10000 5.1 240 19:55 31.07.2019
4359 Clear 23 1016 33 10000 5.1 240 19:37 31.07.2019
4360 Clear 24 1016 31 10000 5.7 230 19:19 31.07.2019
4361 Clear 25 1016 27 10000 5.7 230 18:39 31.07.2019
4362 Clear 26 1016 29 10000 6.7 220 18:19 31.07.2019
4363 Clear 25 1015 29 10000 6.2 220 17:45 31.07.2019
4364 Clear 25 1016 29 10000 6.7 240 17:20 31.07.2019
4365 Clear 26 1016 31 10000 7.7 230 16:54 31.07.2019
4366 Clear 25 1016 31 10000 7.7 230 16:34 31.07.2019
4367 Clear 25 1016 33 10000 7.2 230 16:00 31.07.2019
4368 Clear 25 1016 33 10000 7.2 230 15:40 31.07.2019
4369 Clear 25 1016 33 10000 8.2 220 15:21 31.07.2019
4370 Clear 24 1016 33 10000 7.7 250 14:42 31.07.2019
4371 Clear 24 1017 33 10000 7.7 240 14:20 31.07.2019
4372 Clouds 24 1017 33 10000 6.7 280 13:56 31.07.2019
4373 Clear 24 1017 38 10000 6.7 240 13:37 31.07.2019
4374 Clear 24 1017 40 10000 6.7 230 13:19 31.07.2019
4375 Clear 24 1017 41 10000 6.7 220 12:43 31.07.2019
4376 Clear 24 1017 36 10000 7.2 230 12:25 31.07.2019
4377 Clear 23 1017 43 10000 7.7 210 11:41 31.07.2019
4378 Clouds 23 1017 49 10000 4.6 230 11:23 31.07.2019
4379 Clouds 23 1017 49 10000 5.1 220 10:57 31.07.2019
4380 Clouds 22 1017 53 10000 4.6 230 10:39 31.07.2019
4381 Clouds 22 1017 53 10000 4.6 230 10:20 31.07.2019
4382 Clouds 21 1017 53 10000 3.6 230 09:43 31.07.2019
4383 Clear 20 1017 60 10000 4.1 210 09:24 31.07.2019
4384 Clear 19 1016 68 10000 3.1 170 08:44 31.07.2019
4385 Rain 19 1016 68 10000 3.6 210 08:25 31.07.2019
4386 Clear 19 1016 77 10000 3.6 210 07:56 31.07.2019
4387 Clear 19 1016 77 10000 3.6 210 07:56 31.07.2019
4388 Clear 18 1016 77 10000 3.6 210 07:33 31.07.2019
4389 Clear 17 1015 82 10000 4.6 170 05:54 31.07.2019
4390 Clear 18 1015 77 10000 2.1 200 04:41 31.07.2019
4391 Clear 19 1014 60 10000 2.6 200 00:58 31.07.2019
4392 Rain 20 1014 53 10000 3.6 220 23:56 30.07.2019
4393 Rain 21 1014 53 10000 3.6 220 23:38 30.07.2019
4394 Rain 21 1014 53 10000 3.6 210 23:18 30.07.2019
4395 Rain 21 1014 47 10000 4.1 250 22:42 30.07.2019
4396 Clouds 22 1014 56 10000 1.5 310 22:22 30.07.2019
4397 Clear 23 1013 41 10000 4.6 260 21:38 30.07.2019
4398 Clear 24 1012 36 10000 6.2 250 21:20 30.07.2019
4399 Clear 25 1012 34 10000 6.2 250 20:58 30.07.2019
4400 Clouds 25 1012 34 10000 5.7 260 20:39 30.07.2019
4401 Clouds 25 1012 34 10000 5.7 260 20:20 30.07.2019
4402 Clouds 25 1012 34 10000 8.2 260 19:49 30.07.2019
4403 Clouds 27 1011 35 10000 7.2 240 19:30 30.07.2019
4404 Clouds 28 1011 33 10000 5.7 240 18:48 30.07.2019
4405 Clouds 29 1011 30 10000 5.7 240 18:27 30.07.2019
4406 Clear 30 1011 33 10000 4.6 190 17:59 30.07.2019
4407 Clear 29 1011 33 10000 4.6 190 17:41 30.07.2019
4408 Clear 29 1011 35 10000 5.7 200 17:19 30.07.2019
4409 Clear 29 1011 35 10000 4.1 210 16:46 30.07.2019
4410 Clear 30 1011 33 10000 3.6 200 16:20 30.07.2019
4411 Clear 29 1012 35 10000 4.6 200 15:55 30.07.2019
4412 Clear 29 1012 35 10000 4.1 210 15:36 30.07.2019
4413 Clear 29 1012 35 10000 4.1 210 15:18 30.07.2019
4414 Clear 29 1012 39 10000 4.1 230 14:41 30.07.2019
4415 Clear 29 1012 39 10000 4.6 0 14:19 30.07.2019
4416 Clear 29 1012 39 10000 4.1 220 13:44 30.07.2019
4417 Clear 28 1012 39 10000 3.6 160 13:25 30.07.2019
4418 Clouds 28 1012 45 10000 2.1 0 12:57 30.07.2019
4419 Clouds 28 1012 45 10000 2.1 0 12:38 30.07.2019
4420 Clouds 27 1012 51 10000 2.1 0 12:19 30.07.2019
4421 Clouds 26 1013 61 10000 2.6 210 11:39 30.07.2019
4422 Clouds 26 1013 61 10000 2.6 210 11:20 30.07.2019
4423 Clouds 26 1013 61 10000 2.6 210 11:20 30.07.2019
4424 Clouds 25 1013 61 10000 2.1 0 10:46 30.07.2019
4425 Clear 23 1013 69 10000 2.6 180 10:26 30.07.2019
4426 Clear 22 1013 69 10000 1.5 210 09:49 30.07.2019
4427 Clear 22 1013 73 10000 1 0 09:31 30.07.2019
4428 Clear 21 1013 77 10000 1.5 110 08:53 30.07.2019
4429 Clear 20 1013 82 10000 1.5 20 08:31 30.07.2019
4430 Clouds 19 1013 88 10000 1.5 10 07:47 30.07.2019
4431 Clear 18 1012 88 10000 1.5 40 07:29 30.07.2019
4432 Clear 17 1012 93 10000 2.6 70 06:48 30.07.2019
4433 Clear 17 1012 93 10000 2.6 60 06:21 30.07.2019
4434 Clear 17 1012 93 10000 2.6 70 05:33 30.07.2019
4435 Clouds 18 1012 88 10000 2.1 70 02:31 30.07.2019
4436 Clouds 18 1012 82 10000 3.1 60 01:20 30.07.2019
4437 Clouds 19 1012 73 10000 2.6 60 00:21 30.07.2019
4438 Clouds 19 1012 77 10000 1 0 23:46 29.07.2019
4439 Clear 19 1012 68 10000 0.78 2.709 23:26 29.07.2019
4440 Clouds 20 1011 64 10000 2.6 90 22:57 29.07.2019
4441 Clouds 20 1011 60 10000 3.6 100 22:38 29.07.2019
4442 Clouds 21 1011 60 10000 3.6 100 22:20 29.07.2019
4443 Clouds 22 1011 57 10000 2.1 130 21:57 29.07.2019
4444 Clouds 22 1011 57 10000 2.1 130 21:38 29.07.2019
4445 Clouds 23 1010 53 10000 2.1 140 21:20 29.07.2019
4446 Clouds 23 1010 53 10000 2.1 140 21:20 29.07.2019
4447 Clouds 24 1010 50 10000 1.5 210 20:48 29.07.2019
4448 Clouds 25 1010 50 10000 2.1 210 20:25 29.07.2019
4449 Clouds 25 1010 50 10000 1.5 200 19:59 29.07.2019
4450 Clouds 25 1010 50 10000 1.5 200 19:41 29.07.2019
4451 Clouds 25 1010 50 10000 1.5 0 19:20 29.07.2019
4452 Clouds 26 1010 50 10000 2.1 200 18:43 29.07.2019
4453 Clouds 26 1010 47 10000 1.5 0 18:23 29.07.2019
4454 Clouds 26 1010 47 10000 2.1 0 17:56 29.07.2019
4455 Clouds 26 1010 47 10000 2.1 0 17:37 29.07.2019
4456 Clouds 26 1011 50 10000 2.1 130 17:19 29.07.2019
4457 Clouds 26 1011 53 10000 2.6 110 16:42 29.07.2019
4458 Clouds 26 1011 53 10000 3.6 80 16:23 29.07.2019
4459 Clouds 26 1010 50 10000 2.1 260 15:53 29.07.2019
4460 Clouds 26 1011 47 10000 2.1 280 15:34 29.07.2019
4461 Clouds 25 1011 50 10000 3.1 0 14:57 29.07.2019
4462 Clouds 25 1011 50 10000 3.1 0 14:38 29.07.2019
4463 Clouds 25 1011 53 10000 3.1 0 14:20 29.07.2019
4464 Clouds 25 1011 53 10000 2.6 0 13:43 29.07.2019
4465 Clouds 24 1011 53 10000 1.5 0 13:23 29.07.2019
4466 Clouds 24 1011 57 10000 3.6 0 12:43 29.07.2019
4467 Clouds 23 1011 56 10000 3.1 240 12:24 29.07.2019
4468 Clouds 22 1011 64 10000 4.1 260 11:45 29.07.2019
4469 Clouds 21 1011 64 10000 3.6 280 11:23 29.07.2019
4470 Clouds 21 1011 64 10000 4.6 260 10:57 29.07.2019
4471 Clouds 21 1011 64 10000 4.6 260 10:57 29.07.2019
4472 Clouds 21 1011 64 10000 4.6 260 10:39 29.07.2019
4473 Clouds 20 1011 68 10000 3.6 280 10:20 29.07.2019
4474 Clouds 19 1011 68 10000 4.6 300 09:40 29.07.2019
4475 Clouds 19 1011 72 10000 5.1 0 09:19 29.07.2019
4476 Clouds 19 1011 72 10000 4.6 300 08:42 29.07.2019
4477 Clouds 18 1011 72 10000 5.1 300 08:22 29.07.2019
4478 Clouds 18 1011 77 10000 5.7 290 07:45 29.07.2019
4479 Clouds 18 1010 77 10000 5.1 280 07:24 29.07.2019
4480 Clouds 18 1009 77 10000 3.6 270 05:57 29.07.2019
4481 Clouds 18 1009 77 10000 3.6 270 05:31 29.07.2019
4482 Clouds 18 1009 77 10000 4.1 280 02:43 29.07.2019
4483 Clouds 18 1009 77 10000 3.6 300 01:47 29.07.2019
4484 Clouds 19 1009 77 10000 4.1 300 01:26 29.07.2019
4485 Clouds 19 1009 77 10000 5.1 280 00:56 29.07.2019
4486 Clouds 19 1008 77 10000 5.7 280 00:23 29.07.2019
4487 Clouds 19 1008 77 10000 5.7 290 23:41 28.07.2019
4488 Clouds 19 1008 82 10000 6.2 280 23:22 28.07.2019
4489 Clouds 19 1008 82 10000 6.2 280 23:22 28.07.2019
4490 Clouds 19 1008 77 10000 5.1 280 22:43 28.07.2019
4491 Clouds 19 1007 77 10000 7.2 280 22:25 28.07.2019
4492 Clouds 19 1007 77 10000 6.2 290 21:51 28.07.2019
4493 Clouds 20 1006 77 10000 6.2 270 21:20 28.07.2019
4494 Clouds 20 1006 77 10000 5.7 270 20:49 28.07.2019
4495 Clouds 20 1005 77 10000 6.7 280 20:31 28.07.2019
4496 Clouds 21 1005 77 10000 6.7 270 19:58 28.07.2019
4497 Clouds 21 1004 73 10000 7.2 280 19:40 28.07.2019
4498 Clouds 21 1004 73 10000 7.2 280 19:20 28.07.2019
4499 Clouds 21 1004 69 10000 6.2 270 18:46 28.07.2019
4500 Rain 22 1004 69 10000 5.7 270 18:25 28.07.2019
4501 Rain 22 1003 69 10000 4.6 260 17:56 28.07.2019
4502 Rain 22 1003 69 10000 4.6 260 17:37 28.07.2019
4503 Rain 22 1003 69 10000 5.1 260 17:19 28.07.2019
4504 Rain 22 1003 69 10000 5.1 260 17:19 28.07.2019
4505 Rain 22 1003 69 10000 5.7 260 16:41 28.07.2019
4506 Rain 23 1002 69 10000 5.7 260 16:22 28.07.2019
4507 Thunderstorm 23 1002 69 10000 3.6 280 15:44 28.07.2019
4508 Rain 23 1002 69 10000 4.1 0 15:25 28.07.2019
4509 Rain 23 1001 78 10000 4.6 320 14:40 28.07.2019
4510 Rain 23 1001 78 10000 4.6 320 14:20 28.07.2019
4511 Rain 24 1001 61 10000 2.1 0 13:56 28.07.2019
4512 Rain 23 1001 61 10000 2.1 0 13:38 28.07.2019
4513 Rain 23 1001 64 10000 1.5 0 13:19 28.07.2019
4514 Clouds 23 1001 73 10000 1.5 0 12:43 28.07.2019
4515 Clouds 22 1001 78 10000 1.5 0 12:25 28.07.2019
4516 Clouds 22 1001 83 10000 2.1 180 11:50 28.07.2019
4517 Clouds 22 1001 83 10000 1 0 11:29 28.07.2019
4518 Clouds 21 1000 88 10000 1.5 170 10:59 28.07.2019
4519 Clouds 21 1000 88 10000 1.5 170 10:38 28.07.2019
4520 Clouds 21 1000 88 10000 1.5 180 10:18 28.07.2019
4521 Clouds 20 1000 94 10000 1.5 210 09:40 28.07.2019
4522 Clouds 20 1000 94 10000 1.5 210 09:22 28.07.2019
4523 Clouds 19 1000 94 10000 1 0 08:42 28.07.2019
4524 Clouds 19 1000 100 10000 0.97 309.534 08:22 28.07.2019
4525 Clouds 19 1000 93 10000 2.1 220 07:44 28.07.2019
4526 Clouds 19 1000 93 10000 2.1 170 07:25 28.07.2019
4527 Rain 18 1000 100 10000 1.5 160 06:36 28.07.2019
4528 Rain 18 1000 100 10000 1.5 130 05:21 28.07.2019
4529 Rain 19 1000 100 9000 1 0 02:43 28.07.2019
4530 Rain 19 1001 73 10000 8.7 120 02:00 28.07.2019
4531 Clouds 20 1000 88 10000 1 0 01:18 28.07.2019
4532 Clouds 20 1000 78 10000 3.1 330 00:43 28.07.2019
4533 Clouds 21 1000 78 10000 3.1 320 23:54 27.07.2019
4534 Clouds 21 1000 78 10000 3.1 310 23:29 27.07.2019
4535 Clouds 21 1001 73 10000 3.1 320 22:56 27.07.2019
4536 Clouds 22 1001 73 10000 3.1 320 22:37 27.07.2019
4537 Clouds 22 1001 73 10000 3.1 330 22:18 27.07.2019
4538 Clouds 22 1001 73 10000 3.6 310 21:38 27.07.2019
4539 Clouds 23 1000 69 10000 3.6 0 21:19 27.07.2019
4540 Clouds 23 1000 65 10000 2.1 300 20:49 27.07.2019
4541 Clouds 24 1000 65 10000 1.5 300 20:23 27.07.2019
4542 Rain 24 1000 61 10000 1 0 19:43 27.07.2019
4543 Rain 24 1000 61 10000 1 0 19:43 27.07.2019
4544 Clouds 25 1000 61 10000 2.1 300 19:25 27.07.2019
4545 Clouds 25 1000 61 10000 2.6 260 18:51 27.07.2019
4546 Clouds 25 1001 65 10000 2.1 0 18:32 27.07.2019
4547 Clouds 25 1001 65 10000 1.5 290 17:52 27.07.2019
4548 Clouds 25 1001 65 10000 1.5 290 17:33 27.07.2019
4549 Rain 24 1002 69 10000 2.1 230 16:59 27.07.2019
4550 Rain 24 1002 69 10000 2.1 230 16:39 27.07.2019
4551 Rain 24 1002 73 10000 1.5 0 16:21 27.07.2019
4552 Rain 24 1002 73 10000 2.1 230 15:48 27.07.2019
4553 Clouds 24 1003 73 10000 2.1 210 15:20 27.07.2019
4554 Clouds 24 1003 78 10000 1.5 200 14:50 27.07.2019
4555 Clouds 24 1003 83 10000 2.1 220 14:31 27.07.2019
4556 Rain 24 1004 83 10000 3.6 200 13:56 27.07.2019
4557 Rain 24 1004 83 10000 3.6 200 13:37 27.07.2019
4558 Rain 23 1004 88 10000 3.6 200 13:18 27.07.2019
4559 Rain 23 1004 83 10000 3.6 220 12:41 27.07.2019
4560 Rain 23 1004 88 10000 3.1 210 12:21 27.07.2019
4561 Rain 24 1004 83 10000 3.1 200 11:42 27.07.2019
4562 Rain 24 1004 69 10000 2.6 200 11:24 27.07.2019
4563 Rain 25 1004 69 10000 3.1 200 10:42 27.07.2019
4564 Clouds 25 1004 65 10000 2.1 210 10:23 27.07.2019
4565 Clouds 24 1004 69 10000 3.1 230 09:43 27.07.2019
4566 Clouds 23 1004 69 10000 3.6 220 09:24 27.07.2019
4567 Clouds 22 1004 73 10000 2.6 210 08:58 27.07.2019
4568 Clouds 22 1004 73 10000 2.6 210 08:40 27.07.2019
4569 Clouds 22 1004 73 10000 2.6 180 08:20 27.07.2019
4570 Clouds 22 1005 78 10000 4.6 200 07:41 27.07.2019
4571 Clouds 22 1005 78 10000 4.1 210 07:20 27.07.2019
4572 Clear 21 1004 69 10000 2.6 210 06:50 27.07.2019
4573 Clear 21 1004 69 10000 2.6 200 06:22 27.07.2019
4574 Clear 21 1004 69 10000 1 0 05:37 27.07.2019
4575 Clear 22 1004 64 10000 2.1 190 04:51 27.07.2019
4576 Clouds 22 1005 61 10000 1.5 170 03:50 27.07.2019
4577 Rain 24 1005 42 10000 3.1 50 02:43 27.07.2019
4578 Rain 24 1002 41 0 1.34 39 02:20 27.07.2019
4579 Rain 23 1015 43 0 1.15 18.687 01:38 27.07.2019
4580 Clear 25 1004 35 10000 5.7 30 00:49 27.07.2019
4581 Clear 26 1004 33 10000 6.2 20 00:31 27.07.2019
4582 Clouds 26 1005 37 10000 1.5 30 23:49 26.07.2019
4583 Clouds 27 1005 37 10000 1.5 30 23:26 26.07.2019
4584 Clear 26 1005 27 10000 6.7 20 22:44 26.07.2019
4585 Clear 26 1005 26 10000 6.2 20 22:26 26.07.2019
4586 Clear 28 1005 27 10000 5.7 20 21:56 26.07.2019
4587 Clear 30 1005 27 10000 5.7 20 21:37 26.07.2019
4588 Clear 30 1005 33 10000 3.1 300 21:18 26.07.2019
4589 Haze 31 1005 32 10000 3.6 0 20:40 26.07.2019
4590 Haze 31 1005 32 10000 1.5 260 20:21 26.07.2019
4591 Clouds 32 1005 32 10000 2.6 290 19:41 26.07.2019
4592 Clouds 32 1005 32 10000 4.1 270 19:22 26.07.2019
4593 Clouds 32 1005 32 10000 4.6 270 18:46 26.07.2019
4594 Clouds 34 1006 30 10000 5.7 250 18:22 26.07.2019
4595 Clouds 35 1006 23 10000 3.1 230 17:58 26.07.2019
4596 Clouds 35 1006 23 10000 3.1 230 17:39 26.07.2019
4597 Clouds 35 1006 25 10000 5.1 280 17:18 26.07.2019
4598 Thunderstorm 36 1006 22 10000 2.6 40 16:56 26.07.2019
4599 Thunderstorm 36 1006 22 10000 2.6 40 16:37 26.07.2019
4600 Clouds 37 1007 19 10000 3.6 10 16:18 26.07.2019
4601 Clouds 37 1007 21 10000 3.1 30 15:45 26.07.2019
4602 Clouds 37 1007 21 10000 3.1 30 15:45 26.07.2019
4603 Clouds 37 1008 22 10000 3.1 0 15:23 26.07.2019
4604 Clouds 37 1008 22 10000 2.6 110 14:58 26.07.2019
4605 Clouds 37 1008 22 10000 2.6 110 14:40 26.07.2019
4606 Clear 37 1008 22 10000 1.5 0 14:21 26.07.2019
4607 Clear 36 1009 22 10000 1.5 0 13:40 26.07.2019
4608 Clear 36 1009 23 10000 2.6 90 13:21 26.07.2019
4609 Clear 35 1009 24 10000 2.6 100 12:45 26.07.2019
4610 Clear 34 1010 26 10000 2.1 0 12:20 26.07.2019
4611 Clear 34 1010 26 10000 2.1 0 12:20 26.07.2019
4612 Clear 33 1010 27 10000 2.1 70 11:40 26.07.2019
4613 Clear 33 1010 29 10000 3.1 90 11:20 26.07.2019
4614 Clear 32 1011 27 10000 3.1 70 10:55 26.07.2019
4615 Clear 31 1011 27 10000 3.1 70 10:37 26.07.2019
4616 Clear 29 1011 30 10000 3.6 50 09:55 26.07.2019
4617 Clear 28 1011 37 10000 3.6 40 09:37 26.07.2019
4618 Clear 27 1011 37 10000 3.6 30 08:57 26.07.2019
4619 Clear 27 1011 37 10000 3.6 30 08:39 26.07.2019
4620 Clear 26 1011 39 10000 3.1 50 08:20 26.07.2019
4621 Clear 25 1011 41 10000 3.6 40 07:33 26.07.2019
4622 Clear 23 1011 41 10000 3.1 40 06:56 26.07.2019
4623 Clear 23 1011 39 10000 3.1 40 05:23 26.07.2019
4624 Clear 23 1012 34 10000 4.1 10 04:29 26.07.2019
4625 Clear 23 1012 34 10000 3.1 20 03:44 26.07.2019
4626 Clear 26 1012 35 10000 3.6 360 01:45 26.07.2019
4627 Clear 26 1012 33 10000 2.6 40 00:50 26.07.2019
4628 Clear 28 1012 31 10000 4.1 40 00:25 26.07.2019
4629 Clear 28 1012 31 10000 3.6 20 23:40 25.07.2019
4630 Clear 29 1012 26 10000 4.1 20 23:19 25.07.2019
4631 Clear 28 1012 26 10000 4.1 40 22:41 25.07.2019
4632 Clear 29 1012 24 10000 5.1 60 22:21 25.07.2019
4633 Clear 31 1012 22 10000 5.1 60 21:48 25.07.2019
4634 Clear 32 1012 20 10000 3.1 70 21:23 25.07.2019
4635 Clear 34 1012 18 10000 4.1 60 20:57 25.07.2019
4636 Clear 34 1012 18 10000 4.1 60 20:38 25.07.2019
4637 Clear 35 1012 17 10000 4.6 40 20:18 25.07.2019
4638 Clear 36 1012 16 10000 4.6 40 19:40 25.07.2019
4639 Clear 36 1012 16 10000 4.6 30 19:21 25.07.2019
4640 Clear 37 1012 15 10000 5.1 40 18:42 25.07.2019
4641 Clear 38 1012 15 10000 4.1 20 18:23 25.07.2019
4642 Clear 38 1013 15 10000 3.1 20 17:50 25.07.2019
4643 Clear 38 1013 15 10000 2.6 0 17:32 25.07.2019
4644 Clear 38 1013 15 10000 4.6 30 16:57 25.07.2019
4645 Clear 38 1013 15 10000 4.6 30 16:38 25.07.2019
4646 Clear 38 1013 18 10000 2.6 60 16:19 25.07.2019
4647 Clear 38 1014 17 10000 3.6 130 15:44 25.07.2019
4648 Clear 38 1014 19 10000 2.1 0 15:19 25.07.2019
4649 Clear 37 1014 19 10000 3.1 70 14:43 25.07.2019
4650 Clear 37 1015 21 10000 2.6 0 14:23 25.07.2019
4651 Clear 37 1015 21 10000 1.5 0 13:56 25.07.2019
4652 Clear 37 1015 22 10000 3.1 0 13:36 25.07.2019
4653 Clear 37 1015 22 10000 3.1 0 13:18 25.07.2019
4654 Clear 35 1015 26 10000 2.1 0 12:30 25.07.2019
4655 Clear 34 1015 28 10000 2.1 60 11:54 25.07.2019
4656 Clear 34 1016 32 10000 2.6 80 11:36 25.07.2019
4657 Clear 33 1016 32 10000 2.6 80 11:18 25.07.2019
4658 Clear 32 1016 33 10000 3.1 70 10:42 25.07.2019
4659 Clear 31 1016 38 10000 2.6 70 10:23 25.07.2019
4660 Clear 30 1016 42 10000 2.1 80 09:44 25.07.2019
4661 Clear 28 1016 48 10000 2.6 50 09:26 25.07.2019
4662 Clear 26 1016 51 10000 2.6 20 08:47 25.07.2019
4663 Clear 25 1016 54 10000 2.1 40 08:20 25.07.2019
4664 Clear 24 1016 57 10000 2.1 20 07:37 25.07.2019
4665 Clear 22 1016 60 10000 3.1 10 06:45 25.07.2019
4666 Clear 21 1016 60 10000 2.1 70 06:19 25.07.2019
4667 Clear 21 1015 57 10000 2.6 10 05:32 25.07.2019
4668 Clear 21 1015 60 10000 2.6 360 04:44 25.07.2019
4669 Clear 23 1015 60 10000 1.5 20 02:24 25.07.2019
4670 Clear 23 1015 57 10000 1.5 40 01:21 25.07.2019
4671 Clear 25 1015 53 10000 1.5 310 00:23 25.07.2019
4672 Clear 25 1015 50 10000 0.5 0 23:56 24.07.2019
4673 Clear 26 1015 50 10000 0.5 0 23:37 24.07.2019
4674 Clear 26 1015 47 10000 1 0 23:18 24.07.2019
4675 Clear 27 1015 44 10000 1 0 22:43 24.07.2019
4676 Clear 27 1015 39 10000 0.5 0 22:22 24.07.2019
4677 Clear 28 1014 37 10000 1 0 21:55 24.07.2019
4678 Clear 29 1014 37 10000 1 0 21:37 24.07.2019
4679 Clear 30 1014 33 10000 1.5 220 21:18 24.07.2019
4680 Clear 33 1014 28 10000 1.5 220 20:40 24.07.2019
4681 Clear 34 1014 20 10000 2.1 200 20:22 24.07.2019
4682 Clear 34 1014 20 10000 1.5 0 19:56 24.07.2019
4683 Clear 34 1014 20 10000 1.5 0 19:38 24.07.2019
4684 Clear 35 1014 20 10000 1 0 19:19 24.07.2019
4685 Clear 35 1014 20 10000 2.6 0 18:42 24.07.2019
4686 Clear 36 1014 20 10000 3.6 280 18:23 24.07.2019
4687 Clear 36 1014 22 10000 3.1 0 17:44 24.07.2019
4688 Clear 37 1014 22 10000 3.6 260 17:20 24.07.2019
4689 Clear 37 1014 22 10000 2.6 0 16:43 24.07.2019
4690 Clear 36 1014 25 10000 3.1 0 16:23 24.07.2019
4691 Clear 36 1014 25 10000 3.1 0 16:23 24.07.2019
4692 Clear 36 1014 23 10000 2.1 0 15:58 24.07.2019
4693 Clear 36 1014 24 10000 2.6 0 15:36 24.07.2019
4694 Clear 36 1014 24 10000 2.6 0 15:18 24.07.2019
4695 Clear 36 1015 23 10000 2.1 0 14:43 24.07.2019
4696 Clear 35 1015 25 10000 1.5 0 14:19 24.07.2019
4697 Clear 35 1015 28 10000 1.5 0 13:39 24.07.2019
4698 Clear 35 1015 28 10000 1.5 0 13:19 24.07.2019
4699 Clear 34 1015 28 10000 1.5 0 12:51 24.07.2019
4700 Clear 34 1015 28 10000 1.5 0 12:51 24.07.2019
4701 Clear 34 1015 28 10000 1.5 0 12:33 24.07.2019
4702 Clear 32 1016 33 10000 1.5 0 11:41 24.07.2019
4703 Clear 31 1016 35 10000 1.5 0 11:21 24.07.2019
4704 Clear 30 1016 37 10000 2.1 80 10:47 24.07.2019
4705 Clear 29 1016 42 10000 3.1 70 10:26 24.07.2019
4706 Clear 28 1016 42 10000 3.6 50 09:59 24.07.2019
4707 Clear 28 1016 42 10000 3.6 50 09:41 24.07.2019
4708 Clear 26 1016 44 10000 3.6 50 09:21 24.07.2019
4709 Clear 25 1016 50 10000 3.6 20 08:42 24.07.2019
4710 Clear 23 1016 47 10000 3.1 20 07:52 24.07.2019
4711 Clear 22 1016 53 10000 3.6 50 07:31 24.07.2019
4712 Clear 22 1016 53 10000 3.1 10 06:56 24.07.2019
4713 Clear 20 1016 50 10000 3.1 20 06:28 24.07.2019
4714 Clear 20 1016 50 10000 3.6 20 05:22 24.07.2019
4715 Clear 22 1017 50 10000 3.1 10 01:50 24.07.2019
4716 Clear 23 1017 47 10000 2.6 10 00:58 24.07.2019
4717 Clear 24 1017 53 10000 2.6 10 00:39 24.07.2019
4718 Clear 24 1017 50 10000 2.1 360 23:57 23.07.2019
4719 Clear 25 1017 50 10000 2.1 360 23:37 23.07.2019
4720 Clear 24 1017 47 10000 2.1 80 23:18 23.07.2019
4721 Clear 25 1017 39 10000 1.5 50 22:38 23.07.2019
4722 Clear 26 1017 31 10000 2.6 80 22:19 23.07.2019
4723 Clear 27 1017 29 10000 3.1 70 21:45 23.07.2019
4724 Clear 29 1017 27 10000 4.1 80 21:27 23.07.2019
4725 Clear 31 1017 27 10000 3.6 70 20:49 23.07.2019
4726 Clear 31 1017 28 10000 3.1 90 20:30 23.07.2019
4727 Clear 32 1017 28 10000 3.1 0 19:44 23.07.2019
4728 Clear 33 1017 26 10000 3.1 80 19:24 23.07.2019
4729 Clear 33 1017 26 10000 3.6 80 18:59 23.07.2019
4730 Clear 33 1017 26 10000 3.6 80 18:40 23.07.2019
4731 Clear 34 1018 26 10000 3.1 130 18:22 23.07.2019
4732 Clear 34 1018 24 10000 2.6 0 17:43 23.07.2019
4733 Clear 34 1018 26 10000 4.1 140 17:23 23.07.2019
4734 Clear 34 1018 26 10000 3.6 40 16:49 23.07.2019
4735 Clear 34 1019 26 10000 3.6 100 16:27 23.07.2019
4736 Clear 33 1019 26 10000 3.1 0 15:57 23.07.2019
4737 Clear 33 1019 26 10000 3.1 0 15:38 23.07.2019
4738 Clear 33 1019 27 10000 3.1 50 15:20 23.07.2019
4739 Clear 32 1020 29 10000 3.6 90 14:37 23.07.2019
4740 Clear 32 1020 29 10000 3.6 90 14:19 23.07.2019
4741 Clear 32 1021 29 10000 3.1 0 13:56 23.07.2019
4742 Clear 32 1021 29 10000 3.1 0 13:38 23.07.2019
4743 Clear 32 1021 31 10000 2.1 50 13:19 23.07.2019
4744 Clear 31 1021 31 10000 2.1 0 12:44 23.07.2019
4745 Clear 30 1021 33 10000 2.6 0 12:25 23.07.2019
4746 Clear 29 1022 35 10000 2.1 90 11:45 23.07.2019
4747 Clear 29 1022 39 10000 2.6 0 11:26 23.07.2019
4748 Clear 28 1022 39 10000 2.6 80 10:54 23.07.2019
4749 Clear 27 1022 42 10000 3.1 60 10:36 23.07.2019
4750 Clear 26 1022 42 10000 3.1 60 10:18 23.07.2019
4751 Clear 25 1022 50 10000 3.6 70 09:40 23.07.2019
4752 Clear 24 1022 53 10000 3.1 10 09:18 23.07.2019
4753 Clear 22 1022 56 10000 2.6 360 08:40 23.07.2019
4754 Clear 21 1022 60 10000 3.1 40 08:19 23.07.2019
4755 Clear 20 1022 64 10000 3.6 70 07:53 23.07.2019
4756 Clear 20 1022 68 10000 3.1 60 07:33 23.07.2019
4757 Clear 18 1022 64 10000 3.6 70 06:38 23.07.2019
4758 Clear 18 1022 68 10000 2.1 60 05:57 23.07.2019
4759 Clear 19 1022 68 10000 2.6 350 02:25 23.07.2019
4760 Clear 19 1022 68 10000 1 230 01:29 23.07.2019
4761 Clear 21 1022 60 10000 1 30 00:30 23.07.2019
4762 Clear 21 1022 56 10000 1 0 23:42 22.07.2019
4763 Clear 21 1022 44 10000 2.1 70 23:21 22.07.2019
4764 Clear 21 1022 44 10000 2.6 30 22:59 22.07.2019
4765 Clear 22 1022 44 10000 2.6 30 22:41 22.07.2019
4766 Clear 22 1022 44 10000 2.6 30 22:20 22.07.2019
4767 Clear 25 1022 39 10000 2.6 350 21:42 22.07.2019
4768 Clear 26 1022 32 10000 2.1 350 21:21 22.07.2019
4769 Clear 28 1021 30 10000 2.6 350 20:48 22.07.2019
4770 Clear 28 1021 29 10000 1.5 350 20:30 22.07.2019
4771 Clear 28 1021 29 10000 1.5 290 19:55 22.07.2019
4772 Clear 28 1021 29 10000 1.5 290 19:37 22.07.2019
4773 Clear 28 1021 29 10000 2.6 290 19:18 22.07.2019
4774 Clear 29 1022 27 10000 1.5 0 18:41 22.07.2019
4775 Clear 30 1022 27 10000 3.6 300 18:23 22.07.2019
4776 Clear 30 1022 27 10000 2.1 0 17:44 22.07.2019
4777 Clear 30 1022 27 10000 2.1 290 17:26 22.07.2019
4778 Clear 30 1022 27 10000 2.6 190 16:58 22.07.2019
4779 Clear 29 1022 30 10000 4.1 0 16:38 22.07.2019
4780 Clear 30 1022 30 10000 4.1 0 16:18 22.07.2019
4781 Clear 29 1022 30 10000 2.6 320 15:43 22.07.2019
4782 Clear 29 1023 33 10000 2.6 0 15:19 22.07.2019
4783 Clear 29 1023 35 10000 2.6 60 14:44 22.07.2019
4784 Clear 29 1023 35 10000 3.6 270 14:22 22.07.2019
4785 Clear 28 1024 37 10000 3.1 0 13:50 22.07.2019
4786 Clear 28 1024 39 10000 3.1 0 13:30 22.07.2019
4787 Clear 28 1024 39 10000 3.1 300 12:51 22.07.2019
4788 Clear 26 1024 39 10000 3.6 300 12:31 22.07.2019
4789 Clear 26 1024 39 10000 2.1 0 11:55 22.07.2019
4790 Clear 25 1024 41 10000 2.1 280 11:36 22.07.2019
4791 Clear 25 1024 41 10000 2.1 280 11:18 22.07.2019
4792 Clouds 24 1024 44 10000 1 0 10:37 22.07.2019
4793 Clear 23 1024 53 10000 2.1 250 10:18 22.07.2019
4794 Clouds 22 1024 53 10000 1 0 09:39 22.07.2019
4795 Clouds 21 1024 56 10000 1 0 09:20 22.07.2019
4796 Clouds 19 1024 64 10000 1 0 08:38 22.07.2019
4797 Clear 19 1024 68 10000 0.83 264.711 08:20 22.07.2019
4798 Clear 18 1024 72 10000 1.5 350 07:53 22.07.2019
4799 Clear 17 1023 77 10000 2.1 350 07:27 22.07.2019
4800 Clear 15 1023 87 10000 1 250 05:30 22.07.2019
4801 Clear 16 1023 82 10000 1 0 03:46 22.07.2019
4802 Clear 18 1023 72 10000 1 0 01:44 22.07.2019
4803 Clear 18 1023 68 10000 3.1 360 00:50 22.07.2019
4804 Clear 18 1023 68 10000 3.1 360 00:50 22.07.2019
4805 Clear 19 1023 56 10000 3.1 20 00:22 22.07.2019
4806 Clear 19 1023 53 10000 2.6 30 23:51 21.07.2019
4807 Clear 19 1023 56 10000 1.14 287.941 23:23 21.07.2019
4808 Clear 20 1022 47 10000 4.1 20 22:41 21.07.2019
4809 Clear 21 1022 44 10000 4.6 30 22:21 21.07.2019
4810 Clear 21 1021 47 10000 4.1 20 21:56 21.07.2019
4811 Clear 23 1021 47 10000 3.1 0 21:36 21.07.2019
4812 Clear 24 1021 47 10000 3.1 0 21:18 21.07.2019
4813 Clear 25 1021 44 10000 3.1 320 20:41 21.07.2019
4814 Clear 25 1021 39 10000 3.6 330 20:23 21.07.2019
4815 Clear 25 1021 39 10000 3.6 330 19:53 21.07.2019
4816 Clear 26 1020 34 10000 3.1 310 19:30 21.07.2019
4817 Clear 26 1020 30 10000 3.1 250 18:59 21.07.2019
4818 Clear 26 1020 30 10000 3.1 250 18:41 21.07.2019
4819 Clear 28 1020 30 10000 4.1 260 18:22 21.07.2019
4820 Clear 27 1020 30 10000 5.7 260 17:41 21.07.2019
4821 Clear 27 1020 28 10000 4.1 240 17:19 21.07.2019
4822 Clear 28 1020 30 10000 5.7 250 16:43 21.07.2019
4823 Clear 28 1020 30 10000 4.6 250 16:25 21.07.2019
4824 Clear 27 1020 32 10000 5.1 260 15:47 21.07.2019
4825 Clear 27 1020 32 10000 5.1 260 15:24 21.07.2019
4826 Clear 27 1020 32 10000 5.1 250 14:58 21.07.2019
4827 Clear 27 1020 32 10000 6.7 260 14:39 21.07.2019
4828 Clear 27 1020 32 10000 6.7 260 14:18 21.07.2019
4829 Clear 27 1020 34 10000 7.2 280 13:42 21.07.2019
4830 Clear 27 1020 37 10000 6.2 240 13:24 21.07.2019
4831 Clear 26 1020 39 10000 5.7 240 12:42 21.07.2019
4832 Clear 26 1020 41 10000 6.2 240 12:24 21.07.2019
4833 Clear 25 1020 44 10000 6.2 230 11:46 21.07.2019
4834 Clouds 25 1020 47 10000 5.1 230 11:28 21.07.2019
4835 Clouds 24 1020 47 10000 5.7 230 10:55 21.07.2019
4836 Clouds 24 1020 47 10000 5.7 230 10:37 21.07.2019
4837 Clouds 24 1020 53 10000 3.6 250 10:18 21.07.2019
4838 Clouds 22 1019 60 10000 2.6 250 09:36 21.07.2019
4839 Clouds 20 1019 73 10000 1.5 220 08:52 21.07.2019
4840 Clouds 20 1019 73 10000 1.5 220 08:34 21.07.2019
4841 Clouds 19 1018 82 10000 2.1 280 07:59 21.07.2019
4842 Clouds 19 1018 82 10000 2.6 320 07:32 21.07.2019
4843 Clouds 18 1017 88 10000 1 0 06:42 21.07.2019
4844 Clouds 18 1016 82 10000 1 210 04:23 21.07.2019
4845 Clouds 19 1016 82 10000 1 0 02:20 21.07.2019
4846 Clouds 19 1015 73 10000 1 0 00:51 21.07.2019
4847 Clouds 20 1015 64 10000 2.6 80 00:24 21.07.2019
4848 Clouds 21 1014 53 10000 1.5 340 23:57 20.07.2019
4849 Clouds 21 1014 53 10000 1.5 340 23:37 20.07.2019
4850 Clouds 22 1014 57 10000 4.1 350 23:18 20.07.2019
4851 Clouds 22 1014 57 10000 4.1 350 23:18 20.07.2019
4852 Clouds 21 1014 57 10000 5.1 340 22:42 20.07.2019
4853 Rain 22 1014 57 10000 5.1 320 22:20 20.07.2019
4854 Clouds 23 1013 39 10000 4.1 250 21:44 20.07.2019
4855 Clouds 24 1012 35 10000 5.7 240 21:24 20.07.2019
4856 Clouds 25 1012 33 10000 6.7 240 20:44 20.07.2019
4857 Clouds 27 1011 33 10000 8.2 250 20:23 20.07.2019
4858 Clouds 27 1011 31 10000 7.7 220 19:59 20.07.2019
4859 Clouds 27 1011 33 10000 7.2 220 19:38 20.07.2019
4860 Clouds 28 1011 33 10000 7.2 220 19:19 20.07.2019
4861 Clouds 28 1010 29 10000 7.7 230 18:40 20.07.2019
4862 Clouds 30 1010 29 10000 8.2 230 18:19 20.07.2019
4863 Clouds 30 1010 33 10000 7.2 200 17:48 20.07.2019
4864 Clouds 30 1010 31 10000 7.7 200 17:20 20.07.2019
4865 Clouds 30 1010 31 10000 7.7 200 17:20 20.07.2019
4866 Clouds 31 1011 38 10000 6.2 180 16:43 20.07.2019
4867 Clouds 31 1011 35 10000 7.2 230 16:24 20.07.2019
4868 Clear 31 1011 37 10000 4.1 200 15:57 20.07.2019
4869 Clear 30 1012 35 10000 6.7 180 15:38 20.07.2019
4870 Clear 30 1012 35 10000 6.7 180 15:19 20.07.2019
4871 Clear 29 1012 40 10000 4.6 170 14:43 20.07.2019
4872 Clear 29 1012 39 10000 5.1 180 14:21 20.07.2019
4873 Clear 29 1012 37 10000 4.1 200 13:39 20.07.2019
4874 Clear 29 1012 42 10000 4.6 180 13:20 20.07.2019
4875 Clear 29 1013 42 10000 4.1 190 12:54 20.07.2019
4876 Clear 28 1013 48 10000 3.1 200 12:21 20.07.2019
4877 Clear 27 1013 47 10000 3.6 190 11:56 20.07.2019
4878 Clear 26 1013 50 10000 4.6 190 11:24 20.07.2019
4879 Clear 26 1013 53 10000 2.1 160 10:55 20.07.2019
4880 Clear 25 1013 53 10000 2.1 160 10:36 20.07.2019
4881 Clear 24 1013 53 10000 1 0 10:18 20.07.2019
4882 Clear 22 1013 60 10000 2.6 90 09:45 20.07.2019
4883 Clear 21 1014 64 10000 1.5 40 09:18 20.07.2019
4884 Clear 20 1014 72 10000 1 0 08:44 20.07.2019
4885 Clear 19 1014 72 10000 2.6 80 08:20 20.07.2019
4886 Clear 17 1014 82 10000 1.5 40 07:21 20.07.2019
4887 Clear 16 1014 93 10000 1.5 10 06:41 20.07.2019
4888 Clear 16 1014 93 10000 0.5 200 04:31 20.07.2019
4889 Clear 16 1014 93 10000 1 220 03:40 20.07.2019
4890 Clear 17 1015 82 10000 1 220 01:21 20.07.2019
4891 Clear 17 1015 82 10000 1 220 01:21 20.07.2019
4892 Clear 18 1015 77 10000 1 0 00:47 20.07.2019
4893 Clear 18 1015 77 10000 2.1 160 00:21 20.07.2019
4894 Clear 18 1015 77 10000 1.5 200 23:45 19.07.2019
4895 Clear 18 1015 72 10000 1.5 200 23:26 19.07.2019
4896 Clear 19 1015 68 10000 1.5 210 22:50 19.07.2019
4897 Clear 20 1014 68 10000 2.1 200 22:26 19.07.2019
4898 Clear 20 1014 60 10000 2.1 210 21:59 19.07.2019
4899 Clear 21 1014 60 10000 2.1 210 21:39 19.07.2019
4900 Clear 22 1014 56 10000 3.1 220 21:21 19.07.2019
4901 Clear 24 1014 50 10000 3.6 220 20:42 19.07.2019
4902 Clear 24 1014 47 10000 4.6 230 20:23 19.07.2019
4903 Clear 24 1014 44 10000 4.6 240 19:37 19.07.2019
4904 Clear 24 1014 41 10000 6.2 240 18:55 19.07.2019
4905 Clear 24 1014 41 10000 6.2 240 18:36 19.07.2019
4906 Clear 25 1014 41 10000 5.1 230 18:18 19.07.2019
4907 Clear 25 1014 44 10000 5.7 240 17:41 19.07.2019
4908 Clear 25 1014 44 10000 4.6 260 17:23 19.07.2019
4909 Clouds 25 1014 50 10000 5.1 240 16:47 19.07.2019
4910 Clouds 25 1015 50 10000 6.2 240 16:25 19.07.2019
4911 Clouds 24 1015 53 10000 4.6 260 15:47 19.07.2019
4912 Clouds 24 1015 53 10000 5.1 230 15:29 19.07.2019
4913 Rain 24 1015 57 10000 3.1 210 14:56 19.07.2019
4914 Rain 24 1015 68 10000 4.1 220 14:37 19.07.2019
4915 Rain 24 1015 68 10000 4.1 220 14:19 19.07.2019
4916 Rain 23 1015 64 10000 4.6 270 13:43 19.07.2019
4917 Rain 23 1015 68 10000 2.6 240 13:22 19.07.2019
4918 Rain 23 1015 73 10000 3.1 230 12:49 19.07.2019
4919 Clouds 21 1015 77 10000 3.1 210 12:30 19.07.2019
4920 Clouds 20 1015 88 10000 3.1 260 11:47 19.07.2019
4921 Clouds 20 1016 82 10000 2.1 290 11:20 19.07.2019
4922 Rain 19 1015 93 10000 3.1 200 10:58 19.07.2019
4923 Rain 18 1015 93 10000 3.1 200 10:39 19.07.2019
4924 Rain 18 1015 93 10000 2.1 210 10:20 19.07.2019
4925 Rain 18 1015 93 4500 3.6 200 09:44 19.07.2019
4926 Rain 18 1015 88 10000 3.6 240 09:22 19.07.2019
4927 Rain 18 1015 88 10000 3.6 240 09:22 19.07.2019
4928 Clear 18 1015 93 10000 1.5 240 08:56 19.07.2019
4929 Rain 18 1015 93 10000 1.5 240 08:38 19.07.2019
4930 Rain 17 1014 93 10000 1.5 240 07:42 19.07.2019
4931 Rain 17 1014 93 10000 1 0 07:23 19.07.2019
4932 Clear 17 1013 77 10000 1 0 05:40 19.07.2019
4933 Clear 18 1013 72 10000 1 220 01:59 19.07.2019
4934 Clear 19 1013 68 10000 1 0 00:59 19.07.2019
4935 Clear 19 1013 68 10000 2.1 230 00:26 19.07.2019
4936 Clear 20 1013 68 10000 2.1 200 23:43 18.07.2019
4937 Clear 20 1013 64 10000 2.1 210 23:23 18.07.2019
4938 Clear 19 1012 60 10000 1 220 22:58 18.07.2019
4939 Clear 20 1012 60 10000 1 220 22:39 18.07.2019
4940 Rain 21 1013 64 10000 1.5 290 22:18 18.07.2019
4941 Clear 21 1012 49 10000 3.6 250 21:41 18.07.2019
4942 Clear 23 1012 47 10000 3.1 280 21:22 18.07.2019
4943 Clear 23 1012 41 10000 3.6 260 20:49 18.07.2019
4944 Clear 24 1011 41 10000 3.1 260 20:28 18.07.2019
4945 Clear 25 1012 36 10000 5.1 280 19:53 18.07.2019
4946 Drizzle 25 1012 41 10000 2.6 290 19:31 18.07.2019
4947 Clear 26 1011 36 10000 2.6 190 18:57 18.07.2019
4948 Clear 26 1011 36 10000 2.6 190 18:37 18.07.2019
4949 Clear 27 1011 36 10000 3.1 190 18:19 18.07.2019
4950 Clear 27 1011 36 10000 4.1 190 17:42 18.07.2019
4951 Clear 27 1011 36 10000 4.6 200 17:23 18.07.2019
4952 Clear 27 1011 34 10000 5.7 200 16:54 18.07.2019
4953 Clear 27 1011 34 10000 4.6 180 16:29 18.07.2019
4954 Clear 27 1011 36 10000 5.1 210 15:58 18.07.2019
4955 Clear 27 1011 36 10000 5.1 210 15:39 18.07.2019
4956 Clear 27 1011 36 10000 5.7 220 15:20 18.07.2019
4957 Clear 27 1012 34 10000 3.6 0 14:43 18.07.2019
4958 Clear 26 1012 39 10000 3.1 200 14:25 18.07.2019
4959 Clear 26 1012 39 10000 3.1 210 13:46 18.07.2019
4960 Clear 26 1012 44 10000 3.1 190 13:22 18.07.2019
4961 Clear 25 1012 41 10000 2.1 0 12:49 18.07.2019
4962 Clouds 24 1012 49 10000 1.5 0 12:21 18.07.2019
4963 Clear 23 1013 56 10000 2.1 150 11:57 18.07.2019
4964 Clear 23 1013 56 10000 2.1 150 11:39 18.07.2019
4965 Clear 22 1013 60 10000 0.5 0 11:20 18.07.2019
4966 Clear 21 1013 60 10000 1 0 10:41 18.07.2019
4967 Clear 19 1013 68 10000 1.5 60 09:50 18.07.2019
4968 Clear 18 1013 68 10000 2.1 70 09:26 18.07.2019
4969 Clear 17 1013 72 10000 1.5 30 08:51 18.07.2019
4970 Clear 16 1012 77 10000 2.1 30 08:23 18.07.2019
4971 Clear 15 1012 82 10000 2.1 70 07:55 18.07.2019
4972 Clear 15 1012 87 10000 1.5 70 07:34 18.07.2019
4973 Clear 14 1012 82 10000 1.5 80 06:46 18.07.2019
4974 Clear 13 1012 82 10000 2.1 30 06:19 18.07.2019
4975 Clear 14 1013 82 10000 3.1 30 03:29 18.07.2019
4976 Clear 15 1013 72 10000 3.1 20 01:52 18.07.2019
4977 Clear 15 1013 72 10000 3.1 20 01:33 18.07.2019
4978 Clear 16 1013 63 10000 4.6 20 23:57 17.07.2019
4979 Clear 16 1013 63 10000 5.1 30 23:21 17.07.2019
4980 Clear 17 1013 60 10000 5.7 20 22:59 17.07.2019
4981 Clear 18 1013 60 10000 5.7 20 22:41 17.07.2019
4982 Clear 18 1013 56 10000 5.7 20 22:21 17.07.2019
4983 Clear 19 1012 49 10000 5.1 30 21:56 17.07.2019
4984 Clear 20 1012 49 10000 5.1 30 21:37 17.07.2019
4985 Clear 21 1012 38 10000 4.6 340 21:19 17.07.2019
4986 Clear 21 1012 41 10000 4.6 330 20:55 17.07.2019
4987 Clear 22 1012 41 10000 4.6 330 20:36 17.07.2019
4988 Clear 23 1012 38 10000 4.6 310 20:18 17.07.2019
4989 Clear 23 1012 38 10000 2.6 360 19:40 17.07.2019
4990 Clear 23 1012 38 10000 2.6 360 19:40 17.07.2019
4991 Clear 24 1012 38 10000 2.6 360 19:19 17.07.2019
4992 Clear 24 1012 36 10000 2.6 290 18:44 17.07.2019
4993 Clear 25 1012 36 10000 3.6 310 18:21 17.07.2019
4994 Clear 25 1012 36 10000 3.6 310 18:21 17.07.2019
4995 Clear 25 1012 36 10000 3.6 310 18:21 17.07.2019
4996 Clear 26 1013 36 10000 2.1 0 17:57 17.07.2019
4997 Clear 25 1013 36 10000 2.1 0 17:39 17.07.2019
4998 Clear 25 1013 36 10000 2.1 0 17:20 17.07.2019
4999 Clear 25 1013 38 10000 3.1 0 16:40 17.07.2019
5000 Clear 25 1013 38 10000 3.1 0 16:20 17.07.2019
5001 Clouds 25 1013 41 10000 3.1 340 15:51 17.07.2019
5002 Clouds 24 1014 46 10000 3.1 230 15:31 17.07.2019
5003 Clouds 24 1014 47 10000 3.1 330 14:57 17.07.2019
5004 Clouds 24 1014 49 10000 1.5 0 14:38 17.07.2019
5005 Clouds 23 1014 49 10000 1.5 0 14:19 17.07.2019
5006 Clouds 23 1015 53 10000 1.5 0 13:48 17.07.2019
5007 Clouds 23 1015 53 10000 1.5 0 13:30 17.07.2019
5008 Clouds 23 1015 49 10000 1.5 0 12:55 17.07.2019
5009 Clouds 22 1015 56 10000 1.5 0 12:36 17.07.2019
5010 Clouds 21 1015 56 10000 1.5 0 12:18 17.07.2019
5011 Clouds 20 1015 63 10000 3.1 40 11:40 17.07.2019
5012 Clouds 20 1015 63 10000 3.1 40 11:40 17.07.2019
5013 Clouds 20 1015 63 10000 3.1 40 11:19 17.07.2019
5014 Clear 19 1015 68 10000 4.1 20 10:43 17.07.2019
5015 Clear 18 1016 68 10000 1.3 32.434 10:20 17.07.2019
5016 Clear 18 1015 72 10000 4.1 20 09:45 17.07.2019
5017 Clear 17 1015 72 10000 4.1 20 09:27 17.07.2019
5018 Clear 17 1015 72 10000 4.1 20 09:27 17.07.2019
5019 Clear 15 1015 77 10000 4.1 30 08:45 17.07.2019
5020 Clear 14 1015 77 10000 4.1 30 08:24 17.07.2019
5021 Clear 14 1015 77 10000 4.1 30 07:58 17.07.2019
5022 Clear 14 1015 82 10000 4.1 20 07:38 17.07.2019
5023 Clear 13 1015 82 10000 4.1 20 07:19 17.07.2019
5024 Clear 12 1016 82 10000 3.6 20 06:45 17.07.2019
5025 Clear 12 1016 82 10000 3.6 20 06:22 17.07.2019
5026 Clear 12 1016 82 10000 3.6 20 06:22 17.07.2019
5027 Clear 12 1016 82 10000 3.6 10 05:38 17.07.2019
5028 Clear 12 1016 77 10000 3.6 20 04:57 17.07.2019
5029 Clear 13 1016 77 10000 4.1 20 03:55 17.07.2019
5030 Clear 13 1016 77 10000 3.6 40 02:43 17.07.2019
5031 Clear 14 1016 72 10000 3.6 40 01:42 17.07.2019
5032 Clear 14 1016 72 10000 3.6 40 01:22 17.07.2019
5033 Clear 15 1016 77 10000 2.1 320 00:42 17.07.2019
5034 Clear 15 1016 77 10000 2.1 320 00:22 17.07.2019
5035 Clear 16 1016 63 10000 3.1 340 23:46 16.07.2019
5036 Clear 16 1016 63 10000 3.1 340 23:24 16.07.2019
5037 Clear 17 1016 59 10000 2.6 340 22:57 16.07.2019
5038 Clear 17 1016 56 10000 3.1 340 22:39 16.07.2019
5039 Clear 18 1016 63 10000 3.6 340 22:18 16.07.2019
5040 Clear 18 1016 52 10000 4.6 330 21:41 16.07.2019
5041 Clear 20 1016 52 10000 4.6 330 21:20 16.07.2019
5042 Clear 21 1016 43 10000 3.6 320 20:41 16.07.2019
5043 Clear 22 1016 43 10000 3.6 320 20:23 16.07.2019
5044 Clear 22 1016 43 10000 3.6 280 19:56 16.07.2019
5045 Clear 23 1016 43 10000 3.6 270 19:37 16.07.2019
5046 Clear 23 1016 41 10000 2.1 360 19:19 16.07.2019
5047 Clear 23 1016 36 10000 4.1 260 18:45 16.07.2019
5048 Clear 24 1016 38 10000 3.1 320 18:21 16.07.2019
5049 Clear 24 1016 38 10000 3.1 320 18:21 16.07.2019
5050 Clear 24 1016 38 10000 4.1 260 17:55 16.07.2019
5051 Clear 24 1016 38 10000 3.1 0 17:36 16.07.2019
5052 Clear 24 1017 38 10000 2.1 0 16:59 16.07.2019
5053 Clear 23 1017 40 10000 3.1 0 16:38 16.07.2019
5054 Clear 23 1017 40 10000 3.1 0 16:18 16.07.2019
5055 Clouds 22 1017 46 10000 4.1 0 15:40 16.07.2019
5056 Clouds 22 1017 46 10000 2.6 0 15:21 16.07.2019
5057 Clouds 22 1017 46 10000 2.6 0 14:58 16.07.2019
5058 Clouds 22 1017 49 10000 2.1 0 14:39 16.07.2019
5059 Clouds 21 1018 49 10000 2.6 270 14:20 16.07.2019
5060 Clouds 21 1018 52 10000 3.6 290 13:44 16.07.2019
5061 Clouds 21 1018 52 10000 3.6 290 13:44 16.07.2019
5062 Clouds 21 1018 55 10000 4.1 310 13:21 16.07.2019
5063 Clouds 21 1018 55 10000 4.6 0 12:45 16.07.2019
5064 Clouds 20 1018 55 10000 4.6 0 12:21 16.07.2019
5065 Clouds 19 1018 55 10000 3.6 290 11:58 16.07.2019
5066 Clouds 19 1018 59 10000 3.6 0 11:40 16.07.2019
5067 Clouds 19 1018 59 10000 3.6 0 11:40 16.07.2019
5068 Clouds 18 1018 59 10000 3.6 0 11:22 16.07.2019
5069 Clouds 18 1018 63 10000 1 0 10:45 16.07.2019
5070 Clouds 18 1018 63 10000 1 0 10:45 16.07.2019
5071 Clouds 17 1018 63 10000 1 0 10:22 16.07.2019
5072 Clouds 16 1018 63 10000 1 0 09:58 16.07.2019
5073 Clouds 16 1018 67 10000 1 0 09:40 16.07.2019
5074 Clear 14 1019 77 10000 1.5 250 09:18 16.07.2019
5075 Clouds 13 1019 82 10000 1.5 220 08:42 16.07.2019
5076 Clouds 13 1019 82 10000 1.5 220 08:20 16.07.2019
5077 Clouds 12 1019 93 10000 1.5 0 07:42 16.07.2019
5078 Clouds 11 1019 93 10000 1.5 0 07:24 16.07.2019
5079 Clear 10 1018 93 10000 1.5 190 06:47 16.07.2019
5080 Clear 9 1018 93 10000 1.5 190 06:27 16.07.2019
5081 Clear 9 1018 93 10000 1 210 05:37 16.07.2019
5082 Clear 9 1019 87 10000 1.17 262.015 05:18 16.07.2019
5083 Clear 10 1018 93 10000 1 220 04:19 16.07.2019
5084 Clouds 11 1019 87 10000 1 190 03:21 16.07.2019
5085 Clouds 11 1019 87 10000 1 0 02:31 16.07.2019
5086 Clear 11 1019 81 10000 2.1 20 01:49 16.07.2019
5087 Clouds 13 1018 72 10000 4.1 340 00:49 16.07.2019
5088 Clouds 13 1018 72 10000 4.1 340 00:22 16.07.2019
5089 Clouds 14 1018 72 10000 4.1 340 23:53 15.07.2019
5090 Clouds 14 1018 72 10000 5.1 340 23:34 15.07.2019
5091 Clouds 14 1018 72 10000 4.1 340 22:55 15.07.2019
5092 Clouds 15 1018 67 10000 4.6 330 22:37 15.07.2019
5093 Clear 15 1018 72 10000 3.6 330 22:18 15.07.2019
5094 Clouds 16 1018 63 10000 5.7 320 21:42 15.07.2019
5095 Clear 17 1018 67 10000 4.1 330 21:20 15.07.2019
5096 Clouds 18 1018 59 10000 6.2 320 20:57 15.07.2019
5097 Clouds 18 1018 59 10000 6.2 320 20:39 15.07.2019
5098 Clear 18 1018 59 10000 5.1 320 20:21 15.07.2019
5099 Clouds 19 1017 52 10000 6.7 320 19:44 15.07.2019
5100 Clouds 19 1017 52 10000 6.7 320 19:22 15.07.2019
5101 Clouds 20 1017 49 10000 4.6 330 18:57 15.07.2019
5102 Clouds 21 1017 49 10000 4.6 330 18:38 15.07.2019
5103 Clear 22 1018 49 10000 4.6 330 18:19 15.07.2019
5104 Clouds 22 1017 49 10000 2.6 0 17:55 15.07.2019
5105 Clouds 22 1017 49 10000 2.6 0 17:37 15.07.2019
5106 Clouds 21 1017 49 10000 2.6 0 17:19 15.07.2019
5107 Clouds 22 1017 49 10000 2.6 330 16:39 15.07.2019
5108 Clouds 21 1018 43 10000 2.6 350 16:21 15.07.2019
5109 Clouds 21 1017 49 10000 2.6 40 15:58 15.07.2019
5110 Clouds 21 1017 49 10000 3.1 10 15:37 15.07.2019
5111 Clouds 21 1018 46 10000 3.1 330 15:19 15.07.2019
5112 Clouds 20 1017 56 10000 3.6 360 14:45 15.07.2019
5113 Clouds 20 1017 56 10000 3.6 360 14:26 15.07.2019
5114 Clouds 21 1018 52 10000 3.1 340 13:57 15.07.2019
5115 Clouds 21 1017 49 10000 3.1 280 13:36 15.07.2019
5116 Clouds 21 1017 52 10000 3.6 330 13:18 15.07.2019
5117 Clouds 20 1017 49 10000 2.6 0 12:42 15.07.2019
5118 Clouds 20 1018 52 10000 2.1 30 12:22 15.07.2019
5119 Clouds 19 1018 59 10000 4.1 360 11:44 15.07.2019
5120 Clouds 19 1018 55 10000 2.6 310 11:26 15.07.2019
5121 Clouds 18 1018 59 10000 5.7 20 10:49 15.07.2019
5122 Clouds 18 1018 59 10000 5.7 20 10:30 15.07.2019
5123 Clouds 17 1018 63 10000 5.7 30 09:58 15.07.2019
5124 Clouds 17 1018 63 10000 6.2 30 09:39 15.07.2019
5125 Clouds 16 1018 63 10000 1.23 9.094 09:18 15.07.2019
5126 Clouds 15 1018 72 10000 5.7 30 08:42 15.07.2019
5127 Clouds 14 1018 72 10000 5.7 30 08:23 15.07.2019
5128 Clouds 15 1018 77 10000 3.6 20 07:41 15.07.2019
5129 Clouds 14 1018 72 10000 3.1 10 07:20 15.07.2019
5130 Clouds 14 1017 72 10000 3.6 20 06:39 15.07.2019
5131 Clouds 14 1017 72 10000 3.6 20 06:39 15.07.2019
5132 Clouds 12 1017 72 10000 3.1 20 05:51 15.07.2019
5133 Clouds 12 1017 72 10000 3.1 20 05:32 15.07.2019
5134 Clouds 13 1018 67 10000 2.1 20 04:43 15.07.2019
5135 Clouds 13 1018 67 10000 2.6 10 03:58 15.07.2019
5136 Clouds 13 1018 67 10000 2.6 10 03:58 15.07.2019
5137 Clouds 13 1018 67 10000 4.1 360 02:47 15.07.2019
5138 Clouds 14 1018 67 10000 4.1 10 01:54 15.07.2019
5139 Clouds 14 1018 67 10000 4.1 10 01:32 15.07.2019
5140 Clouds 14 1018 67 10000 4.1 10 00:53 15.07.2019
5141 -273 0 0 0 0 0 00:26 15.07.2019
5142 Clouds 15 1018 63 10000 4.6 20 23:57 14.07.2019
5143 Clouds 15 1018 63 10000 5.7 20 23:39 14.07.2019
5144 Clouds 15 1018 63 10000 5.7 20 23:18 14.07.2019
5145 Clouds 15 1018 63 10000 5.1 30 22:57 14.07.2019
5146 Clouds 15 1018 63 10000 5.1 20 22:37 14.07.2019
5147 Clouds 16 1018 63 10000 5.1 20 22:18 14.07.2019
5148 Clouds 16 1018 63 10000 5.7 20 21:42 14.07.2019
5149 Clouds 17 1018 59 10000 4.1 30 21:19 14.07.2019
5150 Clouds 17 1018 59 10000 5.1 10 20:57 14.07.2019
5151 Clouds 17 1018 59 10000 5.1 10 20:57 14.07.2019
5152 Clouds 17 1018 59 10000 5.7 360 20:38 14.07.2019
5153 Clouds 18 1018 55 10000 3.1 20 20:19 14.07.2019
5154 Clouds 18 1017 55 10000 5.7 20 19:45 14.07.2019
5155 Clouds 18 1017 55 10000 5.7 20 19:27 14.07.2019
5156 Clouds 18 1017 59 10000 6.7 10 18:58 14.07.2019
5157 Clouds 19 1017 59 10000 6.7 20 18:39 14.07.2019
5158 Clouds 19 1017 59 10000 6.7 20 18:21 14.07.2019
5159 Clouds 19 1017 52 10000 5.7 20 17:53 14.07.2019
5160 Clouds 19 1017 52 10000 5.1 10 17:22 14.07.2019
5161 Clouds 19 1017 52 10000 4.6 30 16:52 14.07.2019
5162 Clouds 19 1017 55 10000 5.7 30 16:24 14.07.2019
5163 Clouds 20 1017 55 10000 5.7 20 15:56 14.07.2019
5164 Clouds 20 1017 52 10000 4.1 30 15:34 14.07.2019
5165 Clouds 19 1018 52 10000 3.6 30 14:56 14.07.2019
5166 Clouds 19 1018 52 10000 2.6 0 14:37 14.07.2019
5167 Clouds 19 1018 52 10000 2.6 0 14:18 14.07.2019
5168 Clouds 19 1018 55 10000 3.1 30 13:44 14.07.2019
5169 Clouds 18 1018 55 10000 3.1 30 13:21 14.07.2019
5170 Clouds 18 1018 59 10000 4.1 20 12:55 14.07.2019
5171 Clouds 18 1018 59 10000 3.6 10 12:36 14.07.2019
5172 Clouds 18 1018 59 10000 3.6 10 12:18 14.07.2019
5173 Clouds 17 1018 63 10000 4.1 20 11:43 14.07.2019
5174 Clouds 17 1018 55 10000 4.6 10 11:20 14.07.2019
5175 Clouds 16 1018 67 10000 3.1 10 10:42 14.07.2019
5176 Clouds 17 1018 67 10000 3.1 10 10:20 14.07.2019
5177 Clouds 16 1018 72 10000 4.1 30 09:44 14.07.2019
5178 Clouds 15 1018 72 10000 4.1 30 09:25 14.07.2019
5179 Rain 15 1017 72 10000 3.6 40 08:45 14.07.2019
5180 Rain 15 1017 72 10000 3.6 40 08:24 14.07.2019
5181 Clouds 15 1018 77 10000 3.1 20 07:41 14.07.2019
5182 Rain 15 1018 77 10000 3.1 20 07:19 14.07.2019
5183 Clouds 14 1017 93 10000 3.1 20 05:45 14.07.2019
5184 Clouds 14 1017 93 10000 3.1 20 05:45 14.07.2019
5185 Clear 14 1017 93 10000 0.5 0 03:51 14.07.2019
5186 Clear 14 1017 93 10000 1.5 290 03:33 14.07.2019
5187 Clouds 15 1017 87 10000 1 0 02:52 14.07.2019
5188 Clouds 15 1017 93 10000 1 0 02:22 14.07.2019
5189 Clouds 15 1018 93 10000 1.5 330 01:35 14.07.2019
5190 Clouds 15 1018 93 10000 1.5 330 01:35 14.07.2019
5191 Clouds 15 1018 82 10000 2.1 320 00:59 14.07.2019
5192 Clouds 15 1018 77 10000 2.1 300 00:40 14.07.2019
5193 Clouds 15 1018 77 10000 2.1 300 00:20 14.07.2019
5194 Clouds 15 1018 88 10000 2.6 230 23:56 13.07.2019
5195 Clouds 15 1017 82 10000 3.1 210 23:37 13.07.2019
5196 Clouds 15 1018 77 10000 2.1 350 23:19 13.07.2019
5197 Clouds 16 1017 82 10000 2.1 190 22:41 13.07.2019
5198 Clouds 16 1017 82 10000 2.1 190 22:21 13.07.2019
5199 Clouds 17 1017 77 10000 2.6 170 21:45 13.07.2019
5200 Clouds 18 1017 77 10000 2.6 170 21:20 13.07.2019
5201 Clouds 19 1017 68 10000 2.1 150 20:51 13.07.2019
5202 Clouds 19 1017 60 10000 1 0 20:32 13.07.2019
5203 Rain 19 1016 60 10000 6.7 10 19:50 13.07.2019
5204 Rain 19 1016 60 10000 6.7 10 19:29 13.07.2019
5205 Rain 19 1017 72 10000 4.6 250 18:46 13.07.2019
5206 Rain 19 1017 73 10000 2.6 310 18:24 13.07.2019
5207 Rain 19 1017 72 10000 4.1 260 17:56 13.07.2019
5208 Rain 19 1017 82 10000 2.1 310 17:37 13.07.2019
5209 Rain 19 1017 82 10000 2.1 310 17:18 13.07.2019
5210 Rain 19 1017 88 10000 3.93 316.937 16:42 13.07.2019
5211 Rain 19 1017 88 10000 3.93 316.937 16:23 13.07.2019
5212 Rain 19 1018 88 6000 2.6 310 15:46 13.07.2019
5213 Rain 20 1018 88 5000 2.1 80 15:24 13.07.2019
5214 Rain 19 1017 77 10000 3.6 230 14:47 13.07.2019
5215 Rain 19 1017 77 10000 3.6 230 14:27 13.07.2019
5216 Rain 19 1018 88 10000 4.6 230 13:58 13.07.2019
5217 Rain 19 1018 93 10000 4.1 270 13:39 13.07.2019
5218 Rain 19 1018 93 10000 4.1 270 13:18 13.07.2019
5219 Rain 18 1017 72 10000 4.6 270 12:40 13.07.2019
5220 Rain 18 1017 72 10000 4.6 270 12:22 13.07.2019
5221 Drizzle 18 1018 77 10000 4.6 280 11:57 13.07.2019
5222 Clouds 18 1017 68 10000 3.6 270 11:20 13.07.2019
5223 Clouds 18 1017 68 10000 4.1 270 10:55 13.07.2019
5224 Clouds 17 1017 77 10000 4.1 270 10:37 13.07.2019
5225 Clouds 17 1017 77 10000 4.1 270 10:18 13.07.2019
5226 Clouds 17 1016 72 10000 4.6 280 09:41 13.07.2019
5227 Clouds 16 1016 72 10000 4.6 280 09:21 13.07.2019
5228 Clouds 16 1016 77 10000 5.7 300 08:46 13.07.2019
5229 Clouds 16 1016 77 10000 5.7 300 08:26 13.07.2019
5230 Clouds 15 1015 82 10000 3.1 270 07:31 13.07.2019
5231 Clouds 15 1015 82 10000 3.1 250 06:54 13.07.2019
5232 Clouds 14 1015 87 10000 2.6 220 06:27 13.07.2019
5233 Clouds 14 1015 87 10000 2.6 260 05:38 13.07.2019
5234 Clouds 14 1014 87 10000 4.1 270 04:36 13.07.2019
5235 Clouds 14 1015 87 10000 2.6 300 04:18 13.07.2019
5236 Clouds 14 1014 87 10000 4.6 280 03:40 13.07.2019
5237 Rain 14 1014 87 10000 3.1 290 02:41 13.07.2019
5238 Clouds 14 1013 87 10000 1.5 230 01:46 13.07.2019
5239 Clouds 14 1013 87 10000 1.5 230 01:21 13.07.2019
5240 Rain 15 1013 93 10000 3.6 290 00:58 13.07.2019
5241 Rain 15 1013 93 10000 3.1 270 00:21 13.07.2019
5242 Clouds 15 1013 93 10000 3.6 280 23:50 12.07.2019
5243 Clouds 15 1013 93 10000 3.6 260 23:30 12.07.2019
5244 Clouds 15 1013 93 10000 3.6 260 22:58 12.07.2019
5245 Clouds 15 1013 88 10000 4.6 250 22:40 12.07.2019
5246 Clouds 15 1013 88 10000 4.6 250 22:21 12.07.2019
5247 Clouds 16 1012 100 10000 1.5 220 21:42 12.07.2019
5248 Clouds 16 1012 82 10000 3.1 310 21:19 12.07.2019
5249 Rain 16 1012 93 10000 4.6 290 20:46 12.07.2019
5250 Rain 17 1012 93 10000 3.1 270 20:23 12.07.2019
5251 Rain 18 1011 93 10000 2.1 310 19:44 12.07.2019
5252 Rain 18 1010 88 10000 4.1 260 19:25 12.07.2019
5253 Clouds 19 1010 88 10000 3.1 260 18:57 12.07.2019
5254 Rain 19 1010 82 10000 2.1 0 18:36 12.07.2019
5255 Rain 19 1011 82 10000 4.46 264.878 18:18 12.07.2019
5256 Rain 19 1011 93 10000 3.1 190 17:43 12.07.2019
5257 Rain 19 1011 93 10000 3.1 190 17:23 12.07.2019
5258 Rain 19 1011 93 10000 5.1 180 16:38 12.07.2019
5259 Rain 19 1011 93 10000 5.1 190 16:20 12.07.2019
5260 Rain 18 1012 87 10000 4.6 150 15:41 12.07.2019
5261 Rain 18 1012 87 10000 4.6 150 15:20 12.07.2019
5262 Rain 19 1012 87 1800 7.7 140 14:47 12.07.2019
5263 Rain 19 1012 93 4400 3.1 30 14:22 12.07.2019
5264 Rain 19 1012 88 10000 2.6 80 13:55 12.07.2019
5265 Rain 20 1012 88 10000 2.1 200 13:37 12.07.2019
5266 Rain 20 1012 93 10000 2.1 180 12:57 12.07.2019
5267 Rain 20 1012 93 10000 2.1 180 12:57 12.07.2019
5268 Rain 20 1012 93 10000 2.1 190 12:38 12.07.2019
5269 Rain 20 1012 93 10000 2.1 150 12:19 12.07.2019
5270 Rain 19 1013 93 10000 2.1 180 11:44 12.07.2019
5271 Rain 19 1013 93 10000 2.1 180 11:20 12.07.2019
5272 Rain 19 1013 88 10000 2.1 190 10:44 12.07.2019
5273 Rain 18 1013 88 10000 2.1 190 10:24 12.07.2019
5274 Rain 18 1013 93 10000 1.5 210 09:54 12.07.2019
5275 Rain 17 1012 88 10000 3.1 210 09:30 12.07.2019
5276 Mist 17 1013 100 3000 0.87 223.422 08:58 12.07.2019
5277 Drizzle 17 1012 88 8000 1 0 08:39 12.07.2019
5278 Fog 16 1012 100 300 1.5 110 08:18 12.07.2019
5279 Fog 15 1012 93 8000 0.87 223.422 07:44 12.07.2019
5280 Fog 15 1012 93 8000 0.87 223.422 07:26 12.07.2019
5281 Clouds 14 1013 100 10000 1.01 236.231 06:29 12.07.2019
5282 Mist 14 1012 100 5000 1 240 05:48 12.07.2019
5283 Mist 14 1013 93 7000 1.5 220 03:23 12.07.2019
5284 Mist 15 1014 100 8000 1.42 215.19 01:45 12.07.2019
5285 Clear 15 1014 93 10000 2.1 190 00:58 12.07.2019
5286 Clear 16 1014 93 10000 3.1 190 00:30 12.07.2019
5287 Clouds 16 1014 93 10000 1.5 170 23:50 11.07.2019
5288 -273 0 0 0 0 0 23:26 11.07.2019
5289 Clouds 16 1014 93 10000 3.1 190 22:59 11.07.2019
5290 Clouds 16 1014 93 10000 3.1 180 22:39 11.07.2019
5291 Clouds 16 1014 93 10000 3.1 180 22:21 11.07.2019
5292 Clouds 17 1014 93 10000 2.1 160 21:42 11.07.2019
5293 Clouds 17 1014 93 10000 2.1 160 21:19 11.07.2019
5294 Clouds 17 1014 88 10000 2.1 160 20:55 11.07.2019
5295 Clouds 17 1014 93 10000 1.75 187.41 20:37 11.07.2019
5296 Clouds 17 1014 93 10000 1.75 187.41 20:18 11.07.2019
5297 Clouds 18 1014 88 10000 2.6 190 19:44 11.07.2019
5298 Clouds 18 1014 88 10000 2.6 190 19:24 11.07.2019
5299 Rain 17 1013 93 10000 1.5 180 18:53 11.07.2019
5300 Rain 17 1013 93 10000 1.5 180 18:53 11.07.2019
5301 Rain 17 1014 93 10000 1 0 18:33 11.07.2019
5302 Rain 16 1014 93 10000 2.1 190 17:59 11.07.2019
5303 Rain 16 1014 87 10000 2.1 200 17:40 11.07.2019
5304 Rain 16 1015 93 10000 1.77 214.139 17:22 11.07.2019
5305 Rain 16 1015 93 10000 1.77 214.139 16:49 11.07.2019
5306 Rain 16 1015 93 10000 1.77 214.139 16:23 11.07.2019
5307 Rain 16 1015 87 10000 4.1 270 15:54 11.07.2019
5308 Rain 16 1015 87 10000 4.1 270 15:54 11.07.2019
5309 Rain 16 1015 93 10000 2.6 270 15:36 11.07.2019
5310 Rain 16 1015 93 10000 2.6 270 15:18 11.07.2019
5311 Rain 16 1015 72 10000 4.6 200 14:43 11.07.2019
5312 Rain 17 1015 72 10000 4.6 200 14:21 11.07.2019
5313 Rain 18 1015 63 10000 3.1 240 13:47 11.07.2019
5314 Rain 18 1015 63 10000 3.1 240 13:28 11.07.2019
5315 Rain 19 1014 52 10000 2.1 190 12:45 11.07.2019
5316 Rain 18 1014 52 10000 2.1 190 12:27 11.07.2019
5317 Clouds 18 1015 56 10000 1 0 11:58 11.07.2019
5318 Clouds 18 1015 56 10000 2.1 110 11:39 11.07.2019
5319 Clouds 18 1015 56 10000 2.1 110 11:21 11.07.2019
5320 Clouds 18 1015 59 10000 1.5 100 10:45 11.07.2019
5321 Clouds 17 1015 59 10000 1.5 170 10:19 11.07.2019
5322 Rain 17 1015 63 10000 1.5 70 09:47 11.07.2019
5323 Clouds 16 1015 68 10000 1.31 232.11 09:28 11.07.2019
5324 Clouds 16 1015 63 10000 1 0 08:52 11.07.2019
5325 Clear 16 1015 63 10000 2.1 10 08:26 11.07.2019
5326 Rain 16 1015 63 10000 2.1 20 07:53 11.07.2019
5327 Rain 16 1015 59 10000 1.5 30 07:34 11.07.2019
5328 Rain 16 1015 63 10000 2.1 340 06:41 11.07.2019
5329 Rain 15 1015 63 10000 2.6 360 05:53 11.07.2019
5330 Rain 15 1015 55 10000 2.6 40 05:30 11.07.2019
5331 Rain 16 1015 48 10000 2.6 20 04:55 11.07.2019
5332 Clouds 17 1016 42 10000 1.5 30 02:41 11.07.2019
5333 Clouds 17 1017 37 10000 1.5 360 01:41 11.07.2019
5334 Clear 17 1016 40 10000 3.6 10 00:30 11.07.2019
5335 Rain 18 1016 32 10000 3.6 320 23:38 10.07.2019
5336 Clouds 17 1015 42 0 1.84 314.736 23:20 10.07.2019
5337 Clear 18 1016 28 10000 2.6 330 22:48 10.07.2019
5338 Clear 19 1016 28 10000 2.6 330 22:22 10.07.2019
5339 Clear 20 1016 23 10000 3.1 350 21:48 10.07.2019
5340 Clear 21 1016 23 10000 3.1 350 21:28 10.07.2019
5341 Clear 22 1016 23 10000 3.1 330 20:58 10.07.2019
5342 Clear 23 1016 22 10000 3.6 320 20:39 10.07.2019
5343 Clouds 23 1017 23 10000 2.1 10 20:19 10.07.2019
5344 Clear 23 1016 22 10000 3.6 310 19:54 10.07.2019
5345 Clear 24 1017 19 10000 2.6 360 19:22 10.07.2019
5346 Clear 24 1016 22 10000 2.1 0 18:59 10.07.2019
5347 Clear 25 1017 21 10000 2.1 0 18:41 10.07.2019
5348 Clear 25 1017 16 10000 3.1 360 18:22 10.07.2019
5349 Clear 25 1017 22 10000 1.5 0 17:42 10.07.2019
5350 Clear 25 1017 22 10000 1.5 0 17:23 10.07.2019
5351 Clear 25 1018 25 10000 5.1 340 16:39 10.07.2019
5352 Clear 25 1018 25 10000 3.6 220 16:19 10.07.2019
5353 Clear 24 1018 27 10000 2.1 0 15:47 10.07.2019
5354 Clear 24 1018 27 10000 1.5 180 15:23 10.07.2019
5355 Clear 23 1019 31 10000 2.1 0 14:46 10.07.2019
5356 Clear 23 1019 31 10000 2.1 0 14:26 10.07.2019
5357 Clear 23 1019 31 10000 2.6 0 13:54 10.07.2019
5358 Clear 22 1019 33 10000 2.1 0 13:23 10.07.2019
5359 Clear 22 1019 35 10000 2.6 0 12:59 10.07.2019
5360 Clear 21 1020 35 10000 3.1 300 12:39 10.07.2019
5361 Clear 21 1020 37 10000 1.5 150 12:21 10.07.2019
5362 Clear 20 1020 42 10000 2.1 0 11:47 10.07.2019
5363 Clear 20 1020 42 10000 2.1 0 11:22 10.07.2019
5364 Clouds 19 1020 45 10000 1 0 10:56 10.07.2019
5365 Clouds 18 1020 51 10000 1.5 0 10:24 10.07.2019
5366 Clear 17 1020 51 10000 1.5 0 09:55 10.07.2019
5367 Clear 15 1020 58 10000 1.5 0 09:36 10.07.2019
5368 Clear 15 1020 58 10000 1.5 0 09:18 10.07.2019
5369 Clear 13 1020 66 10000 2.6 30 08:45 10.07.2019
5370 Clear 13 1020 66 10000 2.6 30 08:22 10.07.2019
5371 Clear 12 1020 76 10000 3.1 60 07:45 10.07.2019
5372 Clear 11 1020 76 10000 3.1 60 07:23 10.07.2019
5373 Clear 8 1020 87 10000 1.5 40 06:33 10.07.2019
5374 Clear 8 1020 87 10000 1.5 60 05:40 10.07.2019
5375 Clear 8 1020 87 10000 0.5 0 04:30 10.07.2019
5376 Clear 10 1020 76 10000 0.5 0 01:59 10.07.2019
5377 Clear 11 1020 62 10000 1.5 330 00:43 10.07.2019
5378 Clear 12 1020 58 10000 1 250 23:42 09.07.2019
5379 Clear 12 1020 58 10000 1 250 23:23 09.07.2019
5380 Clear 12 1020 54 10000 1.5 140 22:57 09.07.2019
5381 Clear 13 1019 42 10000 2.1 130 22:37 09.07.2019
5382 Clear 14 1019 42 10000 3.6 110 22:19 09.07.2019
5383 Clear 15 1019 37 10000 2.6 30 21:45 09.07.2019
5384 Clear 16 1019 37 10000 2.6 30 21:25 09.07.2019
5385 Clear 18 1019 37 10000 3.6 40 20:45 09.07.2019
5386 Clear 19 1019 37 10000 3.6 40 20:26 09.07.2019
5387 Clear 19 1019 34 10000 3.6 30 19:56 09.07.2019
5388 Clear 19 1019 34 10000 3.6 20 19:36 09.07.2019
5389 Clouds 19 1020 34 10000 3.6 330 19:18 09.07.2019
5390 Clouds 19 1020 34 10000 3.6 320 18:38 09.07.2019
5391 Clouds 19 1020 34 10000 3.6 320 18:19 09.07.2019
5392 Clear 20 1019 34 10000 3.1 0 17:43 09.07.2019
5393 Clear 20 1019 34 10000 3.1 0 17:21 09.07.2019
5394 Clear 20 1020 34 10000 5.1 30 16:58 09.07.2019
5395 Clear 20 1020 34 10000 5.1 30 16:39 09.07.2019
5396 Clear 20 1020 34 10000 5.1 30 16:21 09.07.2019
5397 Clear 19 1020 37 10000 4.6 20 15:41 09.07.2019
5398 Clouds 19 1020 39 10000 3.1 30 15:22 09.07.2019
5399 Clear 18 1020 39 10000 5.1 10 14:43 09.07.2019
5400 Clouds 18 1020 42 10000 2.1 360 14:23 09.07.2019
5401 Clear 18 1020 39 10000 5.1 20 13:47 09.07.2019
5402 Clear 18 1020 39 10000 5.1 20 13:28 09.07.2019
5403 Clear 17 1020 42 10000 6.2 360 12:59 09.07.2019
5404 Clouds 17 1020 42 10000 4.1 360 12:38 09.07.2019
5405 Clouds 17 1021 45 10000 3.1 350 12:19 09.07.2019
5406 Clouds 16 1020 44 10000 5.1 10 11:42 09.07.2019
5407 Clouds 16 1020 44 10000 5.1 10 11:22 09.07.2019
5408 Clouds 16 1020 44 10000 6.2 350 10:59 09.07.2019
5409 Clouds 16 1020 44 10000 4.6 10 10:40 09.07.2019
5410 Clear 16 1021 41 10000 4.1 360 10:21 09.07.2019
5411 Clouds 14 1020 55 10000 3.6 10 09:38 09.07.2019
5412 Clear 14 1020 58 10000 2.6 10 09:20 09.07.2019
5413 Clouds 13 1020 67 10000 2.1 340 08:44 09.07.2019
5414 Clear 13 1021 67 10000 2.6 360 08:19 09.07.2019
5415 Clear 14 1018 62 10000 2.1 360 03:49 05.07.2019
5416 Clear 14 1018 59 10000 2.1 10 03:24 05.07.2019
5417 Clear 15 1019 48 10000 2.6 340 02:52 05.07.2019
5418 Clear 15 1019 48 10000 2.6 260 02:34 05.07.2019
5419 Clear 16 1019 48 10000 1.5 360 01:37 05.07.2019
5420 Clear 16 1019 55 10000 0.95 317.445 00:52 05.07.2019
5421 Clear 16 1019 52 10000 2.6 320 00:32 05.07.2019
5422 Clear 17 1019 45 10000 1 0 23:47 04.07.2019
5423 Clear 17 1019 42 10000 1.5 80 23:20 04.07.2019
5424 Clear 18 1019 42 10000 2.1 80 22:43 04.07.2019
5425 Clear 18 1019 42 10000 2.1 80 22:24 04.07.2019
5426 Clear 20 1019 37 10000 3.1 80 21:55 04.07.2019
5427 Clear 22 1018 29 10000 2.6 90 21:37 04.07.2019
5428 Clear 23 1019 26 10000 3.1 80 21:19 04.07.2019
5429 Clear 24 1019 26 10000 1 0 20:39 04.07.2019
5430 Clear 24 1019 26 10000 1 0 20:21 04.07.2019
5431 Clear 25 1019 24 10000 2.6 340 19:56 04.07.2019
5432 Clear 25 1019 24 10000 2.1 40 19:38 04.07.2019
5433 Clear 25 1019 22 10000 2.6 30 19:19 04.07.2019
5434 Clear 25 1020 26 10000 2.1 0 18:42 04.07.2019
5435 Clear 26 1020 26 10000 2.1 0 18:24 04.07.2019
5436 Clear 26 1020 24 10000 2.6 0 17:46 04.07.2019
5437 Clear 25 1020 27 10000 1.5 100 17:19 04.07.2019
5438 Clear 25 1021 23 10000 3.1 0 15:59 04.07.2019
5439 Clear 25 1022 25 10000 2.1 0 15:40 04.07.2019
5440 Clear 25 1022 25 10000 2.1 0 15:22 04.07.2019
5441 Clear 25 1022 27 10000 4.1 20 14:55 04.07.2019
5442 Clear 24 1023 27 10000 3.1 0 14:37 04.07.2019
5443 Clear 24 1023 27 10000 3.1 0 14:18 04.07.2019
5444 Clear 24 1023 29 10000 3.1 0 13:54 04.07.2019
5445 Clear 24 1023 29 10000 3.1 0 13:54 04.07.2019
5446 Clear 23 1023 31 10000 3.1 70 13:36 04.07.2019
5447 Clear 23 1023 31 10000 2.6 130 13:18 04.07.2019
5448 Clear 23 1024 35 10000 2.6 0 12:37 04.07.2019
5449 Clear 23 1024 35 10000 2.6 0 12:37 04.07.2019
5450 Clear 22 1024 35 10000 2.6 0 12:19 04.07.2019
5451 Clear 21 1024 37 10000 3.1 80 11:39 04.07.2019
5452 Clear 21 1024 37 10000 3.1 80 11:19 04.07.2019
5453 Clear 21 1024 37 10000 3.1 80 11:19 04.07.2019
5454 Clear 20 1024 42 10000 3.1 30 10:41 04.07.2019
5455 Clear 20 1024 42 10000 3.1 30 10:23 04.07.2019
5456 Clear 18 1024 48 10000 3.6 40 09:45 04.07.2019
5457 Clear 17 1024 48 10000 3.6 40 09:26 04.07.2019
5458 Clear 16 1024 48 10000 4.6 40 08:57 04.07.2019
5459 Clear 15 1024 51 10000 4.6 20 08:29 04.07.2019
5460 Clear 14 1024 54 10000 5.1 20 07:47 04.07.2019
5461 Clear 14 1024 54 10000 5.1 20 07:47 04.07.2019
5462 Clear 14 1024 54 10000 5.1 20 07:23 04.07.2019
5463 Clear 12 1024 58 10000 4.1 20 06:56 04.07.2019
5464 Clear 11 1023 54 10000 6.2 20 05:59 04.07.2019
5465 Clear 12 1023 51 10000 5.7 20 05:41 04.07.2019
5466 Clear 12 1023 54 10000 4.6 30 03:48 04.07.2019
5467 Clear 14 1023 48 10000 5.7 20 01:46 04.07.2019
5468 Clear 14 1023 48 10000 5.7 20 01:26 04.07.2019
5469 Clear 15 1023 45 10000 6.2 30 00:39 04.07.2019
5470 Clear 15 1023 45 10000 6.2 30 00:39 04.07.2019
5471 Clear 16 1023 42 10000 6.7 30 23:52 03.07.2019
5472 Clear 17 1023 40 10000 5.7 30 23:21 03.07.2019
5473 Clear 17 1022 40 10000 6.7 30 22:56 03.07.2019
5474 Clear 18 1022 37 10000 7.7 20 22:37 03.07.2019
5475 Clear 19 1021 35 10000 6.2 30 22:19 03.07.2019
5476 Clouds 20 1022 35 10000 3.1 80 21:54 03.07.2019
5477 Clouds 21 1022 35 10000 3.1 80 21:35 03.07.2019
5478 Clear 22 1021 33 10000 5.7 40 20:48 03.07.2019
5479 Clear 22 1021 33 10000 5.7 40 20:29 03.07.2019
5480 Clear 22 1021 33 10000 4.6 40 19:59 03.07.2019
5481 Clear 22 1021 69 10000 3.1 30 19:40 03.07.2019
5482 Clear 23 1021 31 10000 5.1 30 18:58 03.07.2019
5483 Clear 24 1021 31 10000 5.1 30 18:39 03.07.2019
5484 Clear 24 1021 31 10000 5.1 30 18:20 03.07.2019
5485 Clear 24 1021 29 10000 3.6 0 17:49 03.07.2019
5486 Clear 24 1021 26 10000 3.6 310 17:19 03.07.2019
5487 Clear 24 1021 29 10000 4.1 30 16:57 03.07.2019
5488 Clear 24 1021 29 10000 4.1 30 16:57 03.07.2019
5489 Clear 24 1021 29 10000 4.1 40 16:39 03.07.2019
5490 Clear 24 1022 27 10000 2.6 360 16:18 03.07.2019
5491 Clear 24 1022 29 10000 3.6 0 15:42 03.07.2019
5492 Clear 24 1022 29 10000 3.6 0 15:24 03.07.2019
5493 Clear 24 1022 29 10000 3.6 0 14:43 03.07.2019
5494 Clear 24 1022 29 10000 3.6 0 14:22 03.07.2019
5495 Clear 23 1023 33 10000 3.1 0 13:46 03.07.2019
5496 Clear 23 1023 33 10000 3.1 0 13:27 03.07.2019
5497 Clear 23 1023 33 10000 3.1 40 12:52 03.07.2019
5498 Clear 22 1023 33 10000 1.5 40 12:19 03.07.2019
5499 Clear 22 1023 33 10000 3.1 60 11:55 03.07.2019
5500 Clear 22 1023 33 10000 5.1 50 11:36 03.07.2019
5501 Clear 21 1023 33 10000 5.1 50 11:18 03.07.2019
5502 Clear 21 1023 35 10000 3.1 60 10:40 03.07.2019
5503 Clear 20 1023 37 10000 2.24 51.955 10:21 03.07.2019
5504 Clear 19 1023 45 10000 4.6 40 09:41 03.07.2019
5505 -273 0 0 0 0 0 09:20 03.07.2019
5506 Clear 17 1023 51 10000 4.6 30 08:53 03.07.2019
5507 Clear 16 1023 48 10000 5.1 40 08:31 03.07.2019
5508 Clear 15 1022 58 10000 5.1 20 07:49 03.07.2019
5509 Clear 15 1022 58 10000 5.1 20 07:31 03.07.2019
5510 Clear 13 1022 58 10000 3.6 20 06:42 03.07.2019
5511 Clear 12 1022 51 10000 3.6 30 05:42 03.07.2019
5512 Clear 12 1022 51 10000 3.1 30 04:52 03.07.2019
5513 Clear 13 1022 51 10000 3.6 20 03:28 03.07.2019
5514 Clear 14 1022 51 10000 3.6 20 02:37 03.07.2019
5515 Clear 15 1022 48 10000 4.1 10 01:22 03.07.2019
5516 Clear 15 1022 45 10000 4.6 20 00:55 03.07.2019
5517 Clear 16 1022 45 10000 4.6 20 00:36 03.07.2019
5518 Clear 17 1021 42 10000 6.2 20 23:46 02.07.2019
5519 Clear 18 1021 40 10000 5.7 20 23:21 02.07.2019
5520 Clear 17 1021 40 10000 5.7 20 22:59 02.07.2019
5521 Clear 18 1020 40 10000 4.6 20 22:40 02.07.2019
5522 Clear 18 1020 40 10000 4.6 20 22:22 02.07.2019
5523 Clear 20 1020 38 10000 4.1 20 21:56 02.07.2019
5524 Clear 20 1020 38 10000 4.1 20 21:37 02.07.2019
5525 Clear 21 1020 38 10000 4.6 10 21:18 02.07.2019
5526 Clear 22 1019 33 10000 5.7 30 20:41 02.07.2019
5527 Clear 22 1019 31 10000 4.6 20 20:23 02.07.2019
5528 Clear 22 1019 31 10000 3.6 340 19:57 02.07.2019
5529 Clear 22 1019 31 10000 3.6 340 19:38 02.07.2019
5530 Clear 23 1020 31 10000 4.1 340 19:20 02.07.2019
5531 Clear 23 1020 31 10000 3.1 0 18:45 02.07.2019
5532 Clear 24 1020 31 10000 4.1 20 18:18 02.07.2019
5533 Clear 24 1020 31 10000 3.6 10 17:40 02.07.2019
5534 Clear 24 1020 31 10000 2.6 0 17:20 02.07.2019
5535 Clear 24 1021 33 10000 3.6 350 16:46 02.07.2019
5536 Clear 24 1021 33 10000 3.6 350 16:46 02.07.2019
5537 Clear 24 1021 33 10000 3.6 350 16:28 02.07.2019
5538 Clear 25 1021 38 10000 2.1 0 15:44 02.07.2019
5539 Clear 24 1021 38 10000 2.1 0 15:25 02.07.2019
5540 Clear 24 1021 36 10000 3.6 0 14:51 02.07.2019
5541 Clear 24 1021 36 10000 3.6 0 14:33 02.07.2019
5542 Clear 24 1021 33 10000 3.6 350 13:56 02.07.2019
5543 Clear 23 1021 33 10000 3.6 350 13:36 02.07.2019
5544 Clear 23 1021 35 10000 2.6 0 13:18 02.07.2019
5545 Clear 22 1021 40 10000 4.1 0 12:43 02.07.2019
5546 Clear 22 1021 40 10000 2.1 0 12:21 02.07.2019
5547 Clouds 21 1021 40 10000 2.6 0 11:42 02.07.2019
5548 Clear 21 1022 43 10000 2.6 340 11:22 02.07.2019
5549 Clouds 21 1022 49 10000 2.6 360 10:47 02.07.2019
5550 Clear 20 1022 43 10000 4.6 340 10:26 02.07.2019
5551 Clouds 20 1022 52 10000 3.1 10 09:49 02.07.2019
5552 Clear 18 1022 52 10000 2.6 360 09:22 02.07.2019
5553 Clear 17 1022 55 10000 2.6 20 08:52 02.07.2019
5554 Clear 17 1022 55 10000 2.6 20 08:34 02.07.2019
5555 Clear 17 1022 55 10000 2.6 20 07:55 02.07.2019
5556 Clear 16 1022 63 10000 2.6 20 07:21 02.07.2019
5557 Clear 16 1022 63 10000 2.6 20 07:21 02.07.2019
5558 Clear 15 1021 67 10000 2.6 330 06:54 02.07.2019
5559 Clear 14 1021 67 10000 2.6 330 06:35 02.07.2019
5560 Clear 14 1020 71 10000 1 0 04:59 02.07.2019
5561 Clear 17 1019 55 10000 1.5 320 02:28 02.07.2019
5562 Rain 20 1018 46 10000 4.6 330 00:24 02.07.2019
5563 Clear 20 1018 46 10000 4.6 0 23:26 01.07.2019
5564 Clear 19 1018 43 10000 4.6 330 22:52 01.07.2019
5565 Clear 20 1017 43 10000 4.6 310 22:28 01.07.2019
5566 Clear 21 1017 41 10000 4.1 330 21:55 01.07.2019
5567 Clear 22 1017 41 10000 5.1 320 21:36 01.07.2019
5568 Clear 24 1017 38 10000 6.2 0 21:18 01.07.2019
5569 Clear 25 1017 36 10000 6.7 330 20:42 01.07.2019
5570 Clear 25 1017 36 10000 6.7 330 20:20 01.07.2019
5571 Clear 24 1016 36 10000 4.6 310 19:43 01.07.2019
5572 Clear 25 1016 34 10000 5.1 340 19:24 01.07.2019
5573 Clear 25 1016 37 10000 4.6 0 18:56 01.07.2019
5574 Clear 26 1016 34 10000 6.2 0 18:37 01.07.2019
5575 Clear 28 1016 34 10000 6.2 0 18:19 01.07.2019
5576 Clear 28 1016 30 10000 4.1 310 17:43 01.07.2019
5577 Clear 28 1016 30 10000 4.1 310 17:23 01.07.2019
5578 Clear 28 1016 34 10000 4.6 290 16:48 01.07.2019
5579 Clear 28 1016 37 10000 4.6 310 16:27 01.07.2019
5580 Clear 28 1016 37 10000 3.1 0 15:58 01.07.2019
5581 Clear 28 1017 34 10000 4.6 310 15:40 01.07.2019
5582 Clear 27 1017 34 10000 4.6 310 15:22 01.07.2019
5583 Clear 27 1017 32 10000 5.7 300 14:44 01.07.2019
5584 Clouds 27 1017 36 10000 4.6 330 14:20 01.07.2019
5585 Rain 26 1017 36 10000 4.1 0 13:45 01.07.2019
5586 Rain 27 1017 36 10000 4.1 0 13:45 01.07.2019
5587 Rain 26 1017 39 10000 2.1 0 13:23 01.07.2019
5588 Rain 26 1017 38 10000 4.1 270 12:56 01.07.2019
5589 Rain 26 1017 38 10000 4.1 270 12:37 01.07.2019
5590 Clouds 26 1017 41 10000 1.5 0 12:19 01.07.2019
5591 Clouds 25 1016 47 10000 1.5 0 11:43 01.07.2019
5592 Clouds 25 1017 41 10000 4.6 300 11:22 01.07.2019
5593 Clouds 25 1016 50 10000 2.6 290 10:48 01.07.2019
5594 Rain 24 1017 53 10000 3.1 310 10:24 01.07.2019
5595 Clouds 24 1017 53 10000 3.6 310 09:58 01.07.2019
5596 Clouds 24 1017 53 10000 3.6 310 09:40 01.07.2019
5597 Rain 23 1018 50 10000 3.1 320 09:21 01.07.2019
5598 Rain 22 1016 60 10000 2.6 270 08:38 01.07.2019
5599 Clouds 22 1016 64 10000 4.1 310 07:57 01.07.2019
5600 Rain 22 1016 64 10000 3.1 270 07:28 01.07.2019
5601 Clouds 22 1015 73 10000 2.6 230 06:30 01.07.2019
5602 Clear 24 1015 61 10000 3.6 290 02:21 01.07.2019
5603 Clear 25 1015 57 10000 4.1 320 00:50 01.07.2019
5604 Clear 26 1015 54 10000 3.6 310 00:29 01.07.2019
5605 Clear 27 1015 57 10000 5.1 290 23:57 30.06.2019
5606 Clear 27 1014 58 10000 4.1 0 23:22 30.06.2019
5607 Clear 27 1013 54 10000 5.7 310 22:53 30.06.2019
5608 Clear 27 1013 48 10000 7.2 310 22:22 30.06.2019
5609 Clear 30 1012 36 10000 5.1 220 21:44 30.06.2019
5610 Clear 31 1012 32 10000 4.6 210 21:26 30.06.2019
5611 Clear 31 1012 32 10000 4.6 210 21:26 30.06.2019
5612 Clear 32 1012 25 10000 4.6 220 20:58 30.06.2019
5613 Clear 33 1012 25 10000 4.6 220 20:39 30.06.2019
5614 Clear 33 1012 26 10000 6.2 230 20:21 30.06.2019
5615 Clear 33 1012 25 10000 4.1 270 19:47 30.06.2019
5616 Clear 33 1012 24 10000 6.7 270 19:25 30.06.2019
5617 Clear 34 1012 27 10000 7.2 270 18:41 30.06.2019
5618 Clear 37 1012 24 10000 8.7 230 18:21 30.06.2019
5619 Clear 37 1012 24 10000 5.1 210 17:40 30.06.2019
5620 Clear 37 1013 22 10000 5.7 170 17:19 30.06.2019
5621 Clear 37 1013 24 10000 5.1 180 16:52 30.06.2019
5622 Clear 37 1013 29 10000 4.6 200 16:32 30.06.2019
5623 Clear 37 1013 27 10000 5.1 180 15:55 30.06.2019
5624 Clear 36 1014 28 10000 4.1 0 15:36 30.06.2019
5625 Clear 36 1014 28 10000 4.1 0 15:18 30.06.2019
5626 Clear 35 1014 30 10000 5.1 200 14:43 30.06.2019
5627 Clear 35 1014 30 10000 5.1 190 14:22 30.06.2019
5628 Clear 34 1014 32 10000 5.1 180 13:42 30.06.2019
5629 Clear 34 1014 36 10000 4.6 190 13:20 30.06.2019
5630 Clear 33 1014 35 10000 4.6 180 12:47 30.06.2019
5631 Clear 32 1015 35 10000 3.6 200 12:24 30.06.2019
5632 Clear 31 1015 37 10000 3.1 180 11:47 30.06.2019
5633 Clear 30 1015 39 10000 3.1 190 11:24 30.06.2019
5634 Clear 29 1015 42 10000 3.1 0 10:59 30.06.2019
5635 Clear 28 1015 42 10000 3.1 0 10:38 30.06.2019
5636 Clear 27 1015 42 10000 3.6 180 10:19 30.06.2019
5637 Clear 26 1015 44 10000 3.1 190 09:44 30.06.2019
5638 Clear 25 1015 47 10000 1.5 200 09:44 30.06.2019
5639 Clear 25 1015 47 10000 1.5 200 09:23 30.06.2019
5640 Clear 23 1015 50 10000 1 0 08:58 30.06.2019
5641 Clear 23 1015 53 10000 1 0 08:32 30.06.2019
5642 Clear 21 1015 56 10000 2.1 70 07:59 30.06.2019
5643 Clear 20 1015 56 10000 1.5 0 07:29 30.06.2019
5644 Clear 18 1014 68 10000 2.1 360 06:51 30.06.2019
5645 Clear 16 1014 68 10000 2.6 80 05:34 30.06.2019
5646 Clear 19 1015 63 10000 2.6 20 02:59 30.06.2019
5647 Clear 19 1015 63 10000 1 0 01:30 30.06.2019
5648 Clear 20 1015 60 10000 2.1 60 00:38 30.06.2019
5649 Clear 21 1016 49 10000 1.5 70 23:57 29.06.2019
5650 Clear 22 1016 46 10000 2.1 80 23:25 29.06.2019
5651 Clear 22 1016 46 10000 2.1 80 23:25 29.06.2019
5652 Clear 21 1016 44 10000 2.1 80 22:59 29.06.2019
5653 Clear 22 1016 44 10000 2.1 80 22:40 29.06.2019
5654 Clear 23 1016 30 10000 2.1 120 22:21 29.06.2019
5655 Clear 26 1016 28 10000 2.1 120 21:51 29.06.2019
5656 Clear 28 1016 25 10000 3.1 120 21:23 29.06.2019
5657 Clear 30 1016 22 10000 3.6 140 20:45 29.06.2019
5658 Clear 30 1016 22 10000 4.1 130 20:27 29.06.2019
5659 Clear 29 1016 19 10000 4.1 120 19:48 29.06.2019
5660 Clear 31 1016 18 10000 4.1 110 19:25 29.06.2019
5661 Clear 31 1016 17 10000 4.6 80 18:54 29.06.2019
5662 Clear 32 1017 18 10000 4.1 110 18:27 29.06.2019
5663 Clear 32 1017 18 10000 3.6 130 17:57 29.06.2019
5664 Clear 32 1017 18 10000 3.6 130 17:37 29.06.2019
5665 Clear 32 1017 20 10000 3.1 90 17:19 29.06.2019
5666 Clear 32 1017 21 10000 3.6 0 16:42 29.06.2019
5667 Clear 32 1018 22 10000 3.1 0 15:59 29.06.2019
5668 Clear 31 1018 24 10000 3.6 70 15:31 29.06.2019
5669 Clear 31 1019 25 10000 3.1 0 14:46 29.06.2019
5670 Clear 30 1019 25 10000 3.1 0 14:27 29.06.2019
5671 Clear 30 1019 25 10000 3.1 0 14:27 29.06.2019
5672 Clear 30 1019 25 10000 3.1 0 14:27 29.06.2019
5673 Clear 30 1019 25 10000 4.1 90 13:54 29.06.2019
5674 Clear 29 1020 28 10000 4.1 70 13:27 29.06.2019
5675 Clear 29 1020 30 10000 3.6 60 12:59 29.06.2019
5676 Clear 29 1020 30 10000 3.6 60 12:38 29.06.2019
5677 Clear 27 1020 32 10000 3.6 80 12:20 29.06.2019
5678 Rain 27 1020 34 10000 4.1 70 11:42 29.06.2019
5679 Rain 26 1021 36 10000 4.6 90 11:23 29.06.2019
5680 Clear 25 1021 38 10000 3.6 60 10:49 29.06.2019
5681 Clear 24 1021 41 10000 4.1 70 10:21 29.06.2019
5682 Clear 23 1021 40 10000 4.1 50 09:57 29.06.2019
5683 Clear 23 1021 40 10000 4.1 50 09:57 29.06.2019
5684 Clear 20 1021 49 10000 3.6 20 08:55 29.06.2019
5685 Clear 20 1021 52 10000 3.6 10 08:31 29.06.2019
5686 Clear 18 1021 52 10000 3.6 40 07:45 29.06.2019
5687 Clear 16 1021 63 10000 4.1 20 06:55 29.06.2019
5688 Clear 16 1021 63 10000 4.1 20 06:36 29.06.2019
5689 Clear 15 1021 63 10000 4.1 20 06:18 29.06.2019
5690 Clear 18 1022 49 10000 4.6 20 01:43 29.06.2019
5691 Clear 18 1022 49 10000 5.1 20 00:51 29.06.2019
5692 Clear 19 1022 40 10000 5.7 20 23:53 28.06.2019
5693 Clear 19 1022 40 10000 2.6 30 23:21 28.06.2019
5694 Clear 20 1021 33 10000 4.1 20 22:47 28.06.2019
5695 Clear 21 1021 31 10000 4.6 20 22:22 28.06.2019
5696 Clear 23 1021 29 10000 5.1 20 21:45 28.06.2019
5697 Clear 24 1021 28 10000 4.1 20 21:20 28.06.2019
5698 Clear 25 1021 30 10000 4.1 20 20:43 28.06.2019
5699 Clear 26 1021 26 10000 4.6 20 20:20 28.06.2019
5700 Clear 26 1021 23 10000 5.1 10 19:42 28.06.2019
5701 Clear 27 1021 24 10000 5.7 30 19:24 28.06.2019
5702 Clear 27 1021 24 10000 5.7 20 18:42 28.06.2019
5703 Clear 28 1021 24 10000 6.2 20 18:22 28.06.2019
5704 Clear 28 1022 21 10000 5.1 40 17:54 28.06.2019
5705 Clear 28 1022 17 10000 5.7 40 17:29 28.06.2019
5706 Clear 28 1022 20 10000 5.1 10 16:48 28.06.2019
5707 Clear 28 1022 21 10000 4.6 30 16:23 28.06.2019
5708 Clear 28 1022 23 10000 4.1 50 15:48 28.06.2019
5709 Clear 27 1023 24 10000 4.1 20 15:22 28.06.2019
5710 Clear 27 1023 24 10000 3.6 30 14:43 28.06.2019
5711 Clear 27 1023 24 10000 3.6 30 14:43 28.06.2019
5712 Clear 26 1023 31 10000 3.6 30 14:22 28.06.2019
5713 Clear 26 1023 36 10000 3.6 30 13:55 28.06.2019
5714 Clear 26 1023 36 10000 3.6 30 13:37 28.06.2019
5715 Clear 25 1023 36 10000 3.6 20 13:19 28.06.2019
5716 Clear 24 1024 38 10000 3.6 40 12:44 28.06.2019
5717 Clear 23 1024 49 10000 3.6 50 11:54 28.06.2019
5718 Clear 22 1024 52 10000 3.6 30 11:22 28.06.2019
5719 Clear 21 1024 52 10000 4.1 40 10:45 28.06.2019
5720 Clear 20 1024 56 10000 4.1 30 10:21 28.06.2019
5721 Clouds 19 1024 56 10000 5.1 30 09:49 28.06.2019
5722 Clouds 19 1024 59 10000 5.1 30 09:29 28.06.2019
5723 Clouds 17 1024 63 10000 5.1 20 08:47 28.06.2019
5724 Clouds 17 1024 67 10000 5.7 30 08:26 28.06.2019
5725 Clouds 17 1024 67 10000 6.2 20 07:47 28.06.2019
5726 Clear 16 1024 72 10000 5.7 20 07:28 28.06.2019
5727 Haze 14 1024 72 10000 4.6 20 06:21 28.06.2019
5728 Clear 18 1024 49 10000 5.7 30 01:39 28.06.2019
5729 Clear 20 1024 46 10000 4.6 30 00:42 28.06.2019
5730 Clear 20 1024 43 10000 4.6 30 23:51 27.06.2019
5731 Clear 20 1024 41 10000 5.1 30 23:28 27.06.2019
5732 Clear 21 1023 36 10000 5.1 20 22:56 27.06.2019
5733 Clear 21 1023 36 10000 5.1 20 22:37 27.06.2019
5734 Clear 23 1023 34 10000 5.7 20 22:18 27.06.2019
5735 Clear 24 1023 34 10000 5.7 20 21:49 27.06.2019
5736 Clear 25 1022 28 10000 5.7 20 21:31 27.06.2019
5737 Clear 26 1022 23 10000 5.1 30 20:57 27.06.2019
5738 Clear 26 1022 23 10000 5.1 30 20:39 27.06.2019
5739 Clear 27 1022 25 10000 6.2 50 20:19 27.06.2019
5740 Clear 25 1022 23 10000 5.1 30 19:44 27.06.2019
5741 Clear 26 1022 23 10000 5.7 20 19:25 27.06.2019
5742 Clear 27 1022 23 10000 5.1 20 18:43 27.06.2019
5743 Clear 28 1022 23 10000 4.6 60 18:21 27.06.2019
5744 Clear 29 1023 22 10000 4.1 30 17:45 27.06.2019
5745 Clear 29 1023 23 10000 4.1 20 17:22 27.06.2019
5746 Clear 29 1023 22 10000 4.6 50 16:41 27.06.2019
5747 Clear 29 1023 22 10000 5.7 40 16:20 27.06.2019
5748 Clear 30 1024 22 10000 5.1 40 15:58 27.06.2019
5749 Clear 29 1024 23 10000 6.2 50 15:40 27.06.2019
5750 Clear 29 1024 28 10000 6.2 30 14:59 27.06.2019
5751 Clear 29 1024 28 10000 6.2 30 14:40 27.06.2019
5752 Clear 29 1024 32 10000 5.7 30 14:22 27.06.2019
5753 Clear 29 1025 32 10000 6.2 20 13:44 27.06.2019
5754 Clear 28 1025 34 10000 6.7 30 13:26 27.06.2019
5755 Clear 28 1025 39 10000 6.7 50 12:51 27.06.2019
5756 Clear 27 1025 39 10000 6.2 40 12:33 27.06.2019
5757 Clear 26 1025 39 10000 6.2 30 11:55 27.06.2019
5758 Clear 26 1025 44 10000 5.1 40 11:36 27.06.2019
5759 Clear 25 1025 44 10000 5.1 40 11:18 27.06.2019
5760 Clouds 26 1025 44 10000 5.7 50 10:42 27.06.2019
5761 Clouds 25 1025 47 10000 5.7 40 10:20 27.06.2019
5762 Clouds 24 1025 47 10000 6.7 40 09:50 27.06.2019
5763 Clouds 23 1025 53 10000 4.6 30 09:22 27.06.2019
5764 Clouds 22 1025 56 10000 5.1 40 08:52 27.06.2019
5765 Clouds 22 1024 64 10000 4.6 30 08:30 27.06.2019
5766 Clouds 21 1024 64 10000 5.1 10 07:49 27.06.2019
5767 Clouds 21 1024 64 10000 5.1 10 07:49 27.06.2019
5768 Clouds 21 1024 68 10000 7.2 20 07:25 27.06.2019
5769 Clear 21 1024 68 10000 5.7 20 06:43 27.06.2019
5770 Clear 21 1023 69 10000 5.7 10 04:24 27.06.2019
5771 Clear 23 1023 61 10000 6.2 10 02:44 27.06.2019
5772 Clear 23 1023 57 10000 7.2 20 01:48 27.06.2019
5773 Clear 24 1022 54 10000 4.6 30 00:57 27.06.2019
5774 Clear 25 1022 54 10000 4.6 30 00:38 27.06.2019
5775 Clear 26 1022 51 10000 5.1 30 00:18 27.06.2019
5776 Clear 27 1022 51 10000 6.7 20 23:38 26.06.2019
5777 Clear 27 1022 45 10000 6.2 20 23:19 26.06.2019
5778 Clear 26 1021 48 10000 4.1 360 22:43 26.06.2019
5779 Clear 28 1021 45 10000 3.6 340 22:25 26.06.2019
5780 Clear 30 1021 43 10000 4.1 330 21:56 26.06.2019
5781 Clear 30 1021 43 10000 4.1 330 21:37 26.06.2019
5782 Clear 30 1021 43 10000 4.6 330 21:19 26.06.2019
5783 Clear 32 1020 41 10000 4.6 320 20:44 26.06.2019
5784 Clear 33 1020 36 10000 4.6 310 20:26 26.06.2019
5785 Clear 32 1020 36 10000 4.6 0 19:49 26.06.2019
5786 Clear 33 1020 34 10000 4.1 310 19:31 26.06.2019
5787 Clear 34 1020 34 10000 3.6 320 18:57 26.06.2019
5788 Clear 36 1021 30 10000 4.1 330 18:39 26.06.2019
5789 Clear 35 1021 30 10000 4.1 330 18:19 26.06.2019
5790 Clear 35 1021 30 10000 3.6 290 17:46 26.06.2019
5791 Clear 35 1021 30 10000 3.1 300 17:26 26.06.2019
5792 Clear 35 1021 32 10000 2.1 0 16:51 26.06.2019
5793 Clear 35 1021 32 10000 2.1 0 16:29 26.06.2019
5794 Clear 35 1021 32 10000 2.1 0 15:52 26.06.2019
5795 Clear 35 1022 34 10000 3.6 0 15:28 26.06.2019
5796 Clear 35 1022 34 10000 2.6 0 14:43 26.06.2019
5797 Clear 35 1022 36 10000 2.6 0 14:23 26.06.2019
5798 Clear 34 1022 36 10000 3.6 30 13:46 26.06.2019
5799 Clear 34 1022 38 10000 2.6 0 13:23 26.06.2019
5800 Clear 34 1022 38 10000 3.1 0 12:57 26.06.2019
5801 Clear 34 1022 38 10000 3.1 0 12:57 26.06.2019
5802 Clear 34 1022 38 10000 3.1 0 12:39 26.06.2019
5803 Clear 33 1022 41 10000 2.1 100 12:19 26.06.2019
5804 Clouds 31 1023 48 10000 1 0 11:25 26.06.2019
5805 Clouds 31 1023 48 10000 1 0 11:25 26.06.2019
5806 Clear 31 1023 51 10000 1.5 210 10:56 26.06.2019
5807 Clear 30 1023 51 10000 1.5 210 10:38 26.06.2019
5808 Clear 29 1022 58 10000 1 0 10:19 26.06.2019
5809 Clear 28 1022 61 10000 1 0 09:36 26.06.2019
5810 Clear 27 1022 61 10000 0.5 0 09:18 26.06.2019
5811 Clear 25 1022 69 10000 0.5 0 08:23 26.06.2019
5812 Clear 24 1022 78 10000 1 0 07:59 26.06.2019
5813 Clear 23 1022 78 10000 1 0 07:41 26.06.2019
5814 Clear 21 1021 93 10000 1 210 06:33 26.06.2019
5815 Clear 21 1020 94 10000 2.1 240 03:33 26.06.2019
5816 Clear 23 1020 78 10000 1 130 00:41 26.06.2019
5817 Clear 24 1020 73 10000 1 210 00:18 26.06.2019
5818 Clear 25 1020 69 10000 1 250 23:39 25.06.2019
5819 Clear 25 1019 61 10000 1 0 23:20 25.06.2019
5820 Clear 26 1019 54 10000 2.1 150 22:42 25.06.2019
5821 Clear 26 1019 51 10000 2.6 180 22:23 25.06.2019
5822 Haze 27 1019 54 10000 1.5 170 21:51 25.06.2019
5823 Haze 29 1018 51 10000 2.1 160 21:28 25.06.2019
5824 Clouds 30 1019 45 10000 2.1 170 20:59 25.06.2019
5825 Clear 31 1018 40 10000 2.1 180 20:38 25.06.2019
5826 Clear 31 1018 43 10000 2.1 190 20:19 25.06.2019
5827 Clear 31 1018 36 10000 2.6 180 19:45 25.06.2019
5828 Clear 32 1018 34 10000 3.6 170 19:22 25.06.2019
5829 Clear 33 1018 32 10000 2.6 160 18:43 25.06.2019
5830 Clear 33 1018 30 10000 4.1 170 18:25 25.06.2019
5831 Clear 33 1018 32 10000 3.1 210 17:50 25.06.2019
5832 -273 0 0 0 0 0 17:28 25.06.2019
5833 Clear 34 1018 32 10000 4.1 200 16:57 25.06.2019
5834 Clear 34 1018 32 10000 4.1 200 16:38 25.06.2019
5835 Clear 33 1019 30 10000 3.6 0 16:19 25.06.2019
5836 Clear 33 1019 34 10000 3.6 0 15:40 25.06.2019
5837 Clear 33 1019 38 10000 3.1 130 15:21 25.06.2019
5838 Clear 32 1019 38 10000 3.1 0 14:53 25.06.2019
5839 Clear 32 1019 40 10000 1.5 0 14:35 25.06.2019
5840 Clear 31 1019 43 10000 2.1 190 13:45 25.06.2019
5841 -273 0 0 0 0 0 13:26 25.06.2019
5842 Clear 30 1019 45 10000 1.5 0 12:44 25.06.2019
5843 Clear 29 1019 45 10000 2.6 130 12:25 25.06.2019
5844 Clear 29 1019 48 10000 2.1 0 11:49 25.06.2019
5845 Clear 28 1019 51 10000 2.6 80 11:26 25.06.2019
5846 Clear 28 1019 51 10000 2.6 80 11:26 25.06.2019
5847 Clear 28 1019 51 10000 3.6 80 10:59 25.06.2019
5848 Clear 27 1019 54 10000 3.6 80 10:39 25.06.2019
5849 Clear 27 1019 54 10000 3.6 80 10:21 25.06.2019
5850 Clear 26 1019 54 10000 4.1 90 09:55 25.06.2019
5851 Clear 25 1019 57 10000 5.1 80 09:37 25.06.2019
5852 Clear 24 1019 57 10000 5.1 80 09:18 25.06.2019
5853 Clear 24 1019 60 10000 5.1 70 08:37 25.06.2019
5854 Clear 23 1019 64 10000 4.6 60 08:19 25.06.2019
5855 Clear 22 1019 73 10000 3.1 20 07:39 25.06.2019
5856 Clear 20 1018 73 10000 4.1 20 06:52 25.06.2019
5857 Clear 19 1018 77 10000 2.6 50 06:28 25.06.2019
5858 Clear 20 1019 68 10000 3.6 70 02:46 25.06.2019
5859 Clear 21 1019 77 10000 3.1 60 01:40 25.06.2019
5860 Clear 22 1019 64 10000 2.6 70 00:36 25.06.2019
5861 Clear 22 1019 60 10000 2.1 80 23:56 24.06.2019
5862 Clear 23 1019 60 10000 2.1 80 23:37 24.06.2019
5863 Clear 23 1019 60 10000 2.1 80 23:37 24.06.2019
5864 Clear 23 1019 50 10000 2.6 70 23:19 24.06.2019
5865 Clear 23 1018 50 10000 3.1 70 22:40 24.06.2019
5866 Clear 25 1018 45 10000 3.1 70 22:19 24.06.2019
5867 Clear 25 1018 45 10000 3.1 70 22:19 24.06.2019
5868 Clear 26 1018 42 10000 3.1 100 21:39 24.06.2019
5869 Clear 27 1018 42 10000 3.1 100 21:19 24.06.2019
5870 Clear 28 1018 40 10000 3.6 110 20:56 24.06.2019
5871 Clear 28 1018 40 10000 4.6 120 20:38 24.06.2019
5872 Clear 29 1018 40 10000 4.6 120 20:20 24.06.2019
5873 Clear 28 1018 40 10000 5.7 100 19:44 24.06.2019
5874 Clear 29 1018 42 10000 5.1 110 19:21 24.06.2019
5875 Clear 29 1018 40 10000 5.7 100 18:45 24.06.2019
5876 Clear 30 1018 40 10000 6.2 100 18:26 24.06.2019
5877 Clear 30 1018 40 10000 5.7 90 17:47 24.06.2019
5878 Clear 30 1018 40 10000 5.1 110 17:27 24.06.2019
5879 Clear 30 1018 38 10000 5.7 120 16:48 24.06.2019
5880 Clouds 30 1019 40 10000 5.1 120 16:21 24.06.2019
5881 -273 0 0 0 0 0 15:57 24.06.2019
5882 Clear 30 1018 40 10000 6.2 100 15:38 24.06.2019
5883 Clear 30 1019 40 10000 5.7 110 15:19 24.06.2019
5884 Clouds 30 1019 42 10000 6.2 110 14:34 24.06.2019
5885 Clear 30 1019 42 10000 4.6 100 13:50 24.06.2019
5886 Clouds 29 1019 48 10000 5.1 90 13:29 24.06.2019
5887 Clouds 28 1019 48 10000 6.7 90 12:44 24.06.2019
5888 Clouds 27 1019 51 10000 5.7 100 12:22 24.06.2019
5889 Clouds 27 1020 51 10000 5.7 110 11:56 24.06.2019
5890 Clouds 27 1020 51 10000 5.7 110 11:37 24.06.2019
5891 Clouds 26 1020 54 10000 6.7 110 11:18 24.06.2019
5892 Clouds 26 1020 54 10000 5.7 90 10:42 24.06.2019
5893 Clouds 25 1020 57 10000 6.2 90 10:20 24.06.2019
5894 Clouds 24 1020 57 10000 5.7 90 09:48 24.06.2019
5895 Clear 23 1020 60 10000 5.1 80 09:20 24.06.2019
5896 Clear 22 1020 64 10000 6.2 70 08:51 24.06.2019
5897 Clear 22 1020 68 10000 6.2 60 08:22 24.06.2019
5898 Clear 21 1020 68 10000 6.2 60 07:44 24.06.2019
5899 Clear 20 1020 73 10000 5.7 60 07:24 24.06.2019
5900 Clear 18 1020 77 10000 4.6 50 06:27 24.06.2019
5901 Clear 18 1020 82 10000 3.1 70 05:57 24.06.2019
5902 Clear 18 1020 82 10000 3.6 60 04:59 24.06.2019
5903 Clear 18 1020 82 10000 3.1 60 04:21 24.06.2019
5904 Clear 19 1019 77 10000 4.1 80 02:53 24.06.2019
5905 Clear 20 1019 73 10000 3.6 70 01:59 24.06.2019
5906 Clear 20 1019 73 10000 3.6 70 01:41 24.06.2019
5907 Clear 20 1019 68 10000 3.1 70 01:21 24.06.2019
5908 Clear 20 1019 64 10000 3.1 80 00:38 24.06.2019
5909 Clear 21 1019 68 10000 3.6 60 00:18 24.06.2019
5910 Clear 21 1018 60 10000 2.1 80 23:43 23.06.2019
5911 Clear 22 1018 53 10000 2.6 90 23:21 23.06.2019
5912 Clear 21 1018 53 10000 3.1 90 22:42 23.06.2019
5913 Clear 22 1018 50 10000 3.6 70 22:20 23.06.2019
5914 Clear 23 1018 47 10000 2.6 110 21:44 23.06.2019
5915 Clear 25 1018 47 10000 3.1 110 21:25 23.06.2019
5916 Clear 25 1017 44 10000 4.6 90 20:58 23.06.2019
5917 Clear 26 1017 44 10000 4.6 90 20:40 23.06.2019
5918 Clear 26 1017 45 10000 5.1 70 20:21 23.06.2019
5919 Clear 26 1017 42 10000 5.7 90 19:43 23.06.2019
5920 Clear 27 1017 45 10000 5.1 110 19:21 23.06.2019
5921 Clear 27 1017 42 10000 5.1 90 18:54 23.06.2019
5922 Clear 28 1017 39 10000 4.1 120 18:24 23.06.2019
5923 Clear 28 1017 39 10000 5.7 100 17:50 23.06.2019
5924 Clear 28 1017 39 10000 5.1 90 17:26 23.06.2019
5925 Clear 28 1017 37 10000 7.2 80 16:55 23.06.2019
5926 Clear 28 1017 37 10000 7.2 80 16:36 23.06.2019
5927 Clear 28 1018 39 10000 6.2 90 16:18 23.06.2019
5928 Clear 28 1018 42 10000 6.7 100 15:40 23.06.2019
5929 Clouds 28 1018 39 10000 5.1 140 15:20 23.06.2019
5930 Clear 27 1018 42 10000 6.7 90 14:40 23.06.2019
5931 Clear 27 1018 42 10000 6.7 90 14:22 23.06.2019
5932 Clouds 27 1018 47 10000 5.1 70 13:58 23.06.2019
5933 Clouds 27 1018 47 10000 5.1 70 13:39 23.06.2019
5934 Clouds 27 1019 47 10000 5.1 80 13:19 23.06.2019
5935 Clouds 26 1018 47 10000 4.6 60 12:43 23.06.2019
5936 Clouds 25 1019 47 10000 4.6 90 12:22 23.06.2019
5937 Clouds 25 1019 53 10000 4.1 70 11:55 23.06.2019
5938 Clouds 25 1019 57 10000 4.6 80 11:36 23.06.2019
5939 Clouds 24 1019 57 10000 4.6 80 11:18 23.06.2019
5940 Clouds 24 1019 57 10000 4.6 70 10:41 23.06.2019
5941 Clouds 23 1019 60 10000 4.1 70 10:18 23.06.2019
5942 Clouds 22 1019 64 10000 4.1 70 09:39 23.06.2019
5943 Clouds 21 1018 68 10000 3.6 40 09:20 23.06.2019
5944 Clouds 19 1018 68 10000 4.1 20 08:44 23.06.2019
5945 Clouds 19 1018 68 10000 4.1 20 08:26 23.06.2019
5946 Clear 18 1018 72 10000 6.7 20 07:53 23.06.2019
5947 Clouds 17 1018 77 10000 5.1 20 07:21 23.06.2019
5948 Clouds 17 1018 77 10000 5.1 20 06:54 23.06.2019
5949 Clear 16 1018 82 10000 4.6 40 05:55 23.06.2019
5950 Rain 16 1018 77 10000 5.1 20 04:30 23.06.2019
5951 Clear 17 1018 93 10000 1.5 60 01:57 23.06.2019
5952 Clear 17 1018 93 10000 1.5 60 01:36 23.06.2019
5953 Clear 17 1017 88 10000 1.5 30 00:36 23.06.2019
5954 Clear 17 1018 93 10000 2.1 40 23:55 22.06.2019
5955 Clear 17 1018 93 10000 2.1 40 23:37 22.06.2019
5956 Clear 18 1017 93 10000 1.5 350 23:18 22.06.2019
5957 Clear 18 1017 93 10000 1.5 350 22:38 22.06.2019
5958 Clear 18 1017 93 10000 1.5 340 22:19 22.06.2019
5959 Drizzle 19 1017 100 10000 1.5 360 21:37 22.06.2019
5960 Drizzle 19 1017 72 10000 2.1 310 21:19 22.06.2019
5961 Rain 19 1017 88 10000 3.1 10 20:50 22.06.2019
5962 Rain 20 1018 88 10000 3.6 10 20:25 22.06.2019
5963 Rain 20 1017 88 10000 3.1 30 19:47 22.06.2019
5964 Rain 20 1017 88 5000 4.6 60 19:23 22.06.2019
5965 Rain 21 1017 68 10000 8.2 90 18:50 22.06.2019
5966 Thunderstorm 23 1016 53 10000 7.7 90 18:32 22.06.2019
5967 Rain 24 1016 42 10000 6.7 30 17:57 22.06.2019
5968 Clouds 25 1016 42 10000 6.2 40 17:36 22.06.2019
5969 Clouds 25 1016 42 10000 6.2 40 17:18 22.06.2019
5970 Clouds 25 1016 42 10000 6.2 30 16:39 22.06.2019
5971 Clear 25 1016 39 10000 6.2 30 16:20 22.06.2019
5972 Clear 26 1016 42 10000 5.1 30 15:40 22.06.2019
5973 Clear 26 1016 44 10000 5.1 40 15:22 22.06.2019
5974 Clear 26 1017 42 10000 4.6 20 14:37 22.06.2019
5975 Clouds 26 1017 42 10000 5.7 60 14:18 22.06.2019
5976 Clouds 26 1017 44 10000 3.6 0 13:42 22.06.2019
5977 Clouds 25 1018 47 10000 4.1 50 13:23 22.06.2019
5978 Clouds 25 1018 47 10000 4.6 50 12:53 22.06.2019
5979 Clouds 24 1018 47 10000 4.6 40 12:34 22.06.2019
5980 Clouds 23 1018 47 10000 5.1 40 11:59 22.06.2019
5981 Clouds 22 1018 53 10000 4.6 50 11:34 22.06.2019
5982 Clouds 22 1019 52 10000 4.6 50 10:54 22.06.2019
5983 Clouds 21 1019 56 10000 5.1 40 10:21 22.06.2019
5984 Clouds 21 1019 56 10000 5.7 20 09:55 22.06.2019
5985 Clouds 19 1019 56 10000 5.7 30 09:23 22.06.2019
5986 Clouds 17 1019 55 10000 5.1 50 08:44 22.06.2019
5987 Clouds 17 1019 59 10000 5.1 20 08:25 22.06.2019
5988 Clear 16 1019 59 10000 5.1 20 07:36 22.06.2019
5989 Clear 15 1019 63 10000 5.1 20 06:58 22.06.2019
5990 Clear 14 1019 59 10000 4.1 30 06:31 22.06.2019
5991 Clear 14 1020 55 10000 4.6 20 02:38 22.06.2019
5992 Clear 14 1020 52 10000 5.1 20 01:35 22.06.2019
5993 Clear 15 1020 45 10000 4.6 10 00:47 22.06.2019
5994 Clear 16 1020 52 10000 5.1 360 00:23 22.06.2019
5995 Clear 16 1020 52 10000 3.1 360 23:49 21.06.2019
5996 Clear 16 1020 52 10000 3.1 350 23:22 21.06.2019
5997 Clear 17 1019 48 10000 4.1 360 22:54 21.06.2019
5998 Clear 17 1019 45 10000 3.6 10 22:27 21.06.2019
5999 Clear 18 1018 43 10000 4.1 350 21:57 21.06.2019
6000 Clear 19 1018 43 10000 4.1 350 21:38 21.06.2019
6001 Clear 20 1018 40 10000 3.6 330 21:19 21.06.2019
6002 Clear 21 1018 38 10000 4.6 330 20:47 21.06.2019
6003 Clear 22 1018 36 10000 5.1 320 20:22 21.06.2019
6004 Clear 21 1018 36 10000 3.6 0 19:38 21.06.2019
6005 Clear 23 1017 33 10000 4.1 0 18:56 21.06.2019
6006 Clear 23 1017 33 10000 4.1 0 18:35 21.06.2019
6007 Clear 24 1018 36 10000 3.1 290 17:58 21.06.2019
6008 Clear 24 1018 33 10000 3.1 0 17:30 21.06.2019
6009 Clear 24 1018 36 10000 2.6 330 16:43 21.06.2019
6010 Clear 24 1018 36 10000 3.6 260 16:23 21.06.2019
6011 Clear 24 1018 36 10000 3.6 0 15:58 21.06.2019
6012 Clear 23 1018 36 10000 3.6 0 15:36 21.06.2019
6013 Clear 23 1018 40 10000 2.6 0 14:54 21.06.2019
6014 Clear 23 1018 43 10000 3.1 300 14:32 21.06.2019
6015 Clouds 23 1018 46 10000 3.1 270 13:59 21.06.2019
6016 Clouds 22 1018 46 10000 3.1 270 13:39 21.06.2019
6017 Clouds 22 1018 46 10000 2.1 0 13:21 21.06.2019
6018 Clouds 22 1019 52 10000 3.6 0 12:44 21.06.2019
6019 Clouds 22 1019 56 10000 3.6 270 12:22 21.06.2019
6020 Clouds 20 1018 56 10000 2.1 0 11:48 21.06.2019
6021 Clouds 21 1018 60 10000 1.5 0 11:28 21.06.2019
6022 Clouds 20 1018 64 10000 1.5 0 10:58 21.06.2019
6023 Clouds 20 1018 68 10000 2.1 270 10:39 21.06.2019
6024 Clouds 20 1018 68 10000 2.1 270 10:20 21.06.2019
6025 Clouds 19 1018 72 10000 2.1 290 09:42 21.06.2019
6026 Clouds 18 1018 77 10000 3.1 290 09:21 21.06.2019
6027 Clouds 17 1018 72 10000 1 0 08:45 21.06.2019
6028 Clouds 17 1018 72 10000 2.1 300 08:27 21.06.2019
6029 Clouds 16 1017 77 10000 1 0 07:57 21.06.2019
6030 Clouds 16 1017 77 10000 1 0 07:38 21.06.2019
6031 Clouds 15 1017 82 10000 1.5 240 06:59 21.06.2019
6032 Clear 14 1017 82 10000 1.5 300 06:24 21.06.2019
6033 Clear 14 1016 82 10000 2.6 270 05:33 21.06.2019
6034 Clear 14 1016 82 10000 2.1 230 04:36 21.06.2019
6035 Clouds 14 1016 82 10000 2.6 270 03:35 21.06.2019
6036 Clear 15 1016 82 10000 2.6 280 02:59 21.06.2019
6037 Clear 15 1016 77 10000 2.6 280 02:21 21.06.2019
6038 Clear 15 1016 82 10000 3.6 260 01:27 21.06.2019
6039 Clear 15 1015 82 10000 3.1 310 00:29 21.06.2019
6040 Clear 16 1015 72 10000 2.6 300 23:55 20.06.2019
6041 Clear 16 1015 72 10000 2.6 300 23:37 20.06.2019
6042 Clear 16 1015 82 10000 3.6 270 23:19 20.06.2019
6043 Clouds 16 1015 77 10000 2.1 310 22:41 20.06.2019
6044 Clouds 17 1015 77 10000 3.1 320 22:23 20.06.2019
6045 Clouds 17 1014 68 10000 4.6 0 21:56 20.06.2019
6046 Clouds 18 1014 68 10000 4.6 0 21:37 20.06.2019
6047 Clouds 18 1014 60 10000 2.1 50 21:19 20.06.2019
6048 Clouds 19 1013 60 10000 1.5 330 20:41 20.06.2019
6049 Thunderstorm 20 1013 64 10000 2.1 0 20:23 20.06.2019
6050 Thunderstorm 20 1013 60 10000 3.6 260 19:45 20.06.2019
6051 Rain 20 1012 57 10000 5.1 290 19:19 20.06.2019
6052 Rain 21 1012 60 10000 2.6 0 18:58 20.06.2019
6053 Rain 21 1012 60 10000 2.6 0 18:40 20.06.2019
6054 Clouds 21 1012 64 10000 3.1 360 18:21 20.06.2019
6055 Thunderstorm 22 1012 77 9000 4.6 310 17:47 20.06.2019
6056 Rain 22 1012 47 10000 6.7 220 17:29 20.06.2019
6057 Thunderstorm 23 1012 47 10000 7.7 260 16:44 20.06.2019
6058 Clouds 23 1012 47 10000 5.7 230 16:20 20.06.2019
6059 Rain 23 1012 47 10000 4.6 210 15:57 20.06.2019
6060 Rain 23 1012 47 10000 4.6 210 15:38 20.06.2019
6061 Rain 24 1012 50 10000 5.7 210 15:19 20.06.2019
6062 Rain 24 1012 50 10000 5.7 200 14:44 20.06.2019
6063 Rain 24 1012 53 10000 3.6 200 14:22 20.06.2019
6064 Clouds 24 1013 53 10000 5.1 220 13:40 20.06.2019
6065 Clouds 24 1012 53 10000 4.1 230 13:19 20.06.2019
6066 Clouds 23 1012 56 10000 6.2 210 12:46 20.06.2019
6067 Clouds 23 1012 57 10000 4.6 220 12:23 20.06.2019
6068 Clouds 22 1012 60 10000 5.1 220 11:46 20.06.2019
6069 -273 0 0 0 0 0 11:27 20.06.2019
6070 Clouds 22 1012 73 10000 5.1 210 10:57 20.06.2019
6071 Clouds 22 1012 73 10000 5.1 210 10:39 20.06.2019
6072 Clouds 21 1012 72 10000 5.1 220 10:20 20.06.2019
6073 Clouds 20 1012 77 10000 4.1 180 09:40 20.06.2019
6074 Clouds 20 1012 77 10000 4.1 180 09:21 20.06.2019
6075 Clouds 19 1012 82 10000 3.6 210 08:46 20.06.2019
6076 Clouds 18 1012 82 10000 4.1 210 08:27 20.06.2019
6077 Clouds 18 1012 88 10000 3.1 190 07:53 20.06.2019
6078 Clouds 17 1012 93 10000 3.6 200 07:28 20.06.2019
6079 Clouds 17 1011 93 10000 3.1 180 06:28 20.06.2019
6080 Clouds 16 1011 100 10000 5.1 180 05:41 20.06.2019
6081 Rain 18 1011 77 10000 1.5 250 03:32 20.06.2019
6082 Clear 21 1009 60 10000 1.5 230 00:34 20.06.2019
6083 Clear 22 1009 57 10000 2.6 220 23:58 19.06.2019
6084 Clear 21 1009 57 10000 2.6 220 23:39 19.06.2019
6085 Clouds 21 1020 34 0 0.89 267 23:21 19.06.2019
6086 Clouds 21 1008 50 10000 4.1 230 22:47 19.06.2019
6087 Clouds 21 1008 50 10000 3.6 210 22:20 19.06.2019
6088 Rain 24 1008 44 10000 3.1 190 21:47 19.06.2019
6089 Clouds 25 1007 42 10000 2.6 170 21:26 19.06.2019
6090 Clouds 26 1007 39 10000 2.6 190 20:57 19.06.2019
6091 Thunderstorm 26 1007 33 10000 4.1 220 20:37 19.06.2019
6092 Thunderstorm 27 1007 33 10000 4.1 220 20:19 19.06.2019
6093 Rain 27 1007 31 10000 5.7 230 19:41 19.06.2019
6094 Rain 28 1007 31 10000 5.7 230 19:21 19.06.2019
6095 Clouds 28 1007 35 10000 5.7 240 18:49 19.06.2019
6096 Clouds 29 1007 35 10000 6.2 230 18:21 19.06.2019
6097 Clouds 30 1007 35 10000 4.1 190 17:38 19.06.2019
6098 Clouds 30 1007 31 10000 4.1 210 17:18 19.06.2019
6099 Clouds 30 1008 31 10000 5.1 200 16:40 19.06.2019
6100 Clouds 30 1008 29 10000 5.7 190 16:21 19.06.2019
6101 Clouds 30 1008 27 10000 5.1 200 15:54 19.06.2019
6102 Clear 30 1008 27 10000 4.6 200 15:28 19.06.2019
6103 Clouds 30 1009 31 10000 4.1 180 14:57 19.06.2019
6104 Clear 30 1009 27 10000 5.1 210 14:39 19.06.2019
6105 Clear 30 1009 29 10000 4.1 170 14:21 19.06.2019
6106 Clear 30 1009 33 10000 4.1 210 13:43 19.06.2019
6107 Clear 30 1009 35 10000 4.1 170 13:24 19.06.2019
6108 Clear 29 1009 37 10000 3.6 0 12:44 19.06.2019
6109 Clear 28 1009 39 10000 4.6 190 12:22 19.06.2019
6110 Clear 28 1009 45 10000 4.1 180 11:57 19.06.2019
6111 Clear 28 1009 45 10000 4.1 180 11:38 19.06.2019
6112 Clear 27 1010 47 10000 5.1 210 11:20 19.06.2019
6113 Clear 26 1010 54 10000 3.6 200 10:45 19.06.2019
6114 Clear 26 1010 57 10000 3.6 190 10:27 19.06.2019
6115 Clear 24 1010 60 10000 2.6 210 09:50 19.06.2019
6116 Clear 23 1010 64 10000 1 0 09:22 19.06.2019
6117 Clear 22 1010 64 10000 1 0 08:55 19.06.2019
6118 Clear 21 1010 68 10000 1.5 110 08:37 19.06.2019
6119 Clear 21 1010 68 10000 1.5 110 08:19 19.06.2019
6120 Clear 20 1010 82 10000 1.5 90 07:42 19.06.2019
6121 Clear 18 1010 88 10000 1 0 06:59 19.06.2019
6122 Clouds 18 1011 87 10000 1.02 106.662 06:35 19.06.2019
6123 Clear 17 1010 88 10000 2.1 70 05:58 19.06.2019
6124 Clear 17 1011 82 10000 0.64 84.038 05:20 19.06.2019
6125 Clear 18 1011 88 10000 1.5 360 03:51 19.06.2019
6126 Clear 19 1011 82 10000 1 0 02:35 19.06.2019
6127 Clear 19 1011 82 10000 1 0 01:37 19.06.2019
6128 Clear 19 1012 72 10000 1 0 00:53 19.06.2019
6129 Clear 20 1012 72 10000 1 0 00:35 19.06.2019
6130 Clear 21 1011 64 10000 1 0 23:58 18.06.2019
6131 Clear 21 1011 64 10000 1 0 23:37 18.06.2019
6132 Clear 21 1011 68 10000 0.5 170 23:19 18.06.2019
6133 Clear 21 1011 60 10000 1 150 22:41 18.06.2019
6134 Clear 22 1012 60 10000 1 0 22:21 18.06.2019
6135 Clouds 23 1011 57 10000 1.5 190 21:44 18.06.2019
6136 Clouds 25 1011 50 10000 1.5 190 21:22 18.06.2019
6137 Clouds 26 1012 42 10000 1.5 210 20:59 18.06.2019
6138 Clouds 26 1012 42 10000 1.5 210 20:40 18.06.2019
6139 Clouds 26 1012 37 10000 2.1 190 20:21 18.06.2019
6140 Clear 26 1012 37 10000 2.6 260 19:39 18.06.2019
6141 Clear 27 1012 37 10000 2.6 260 19:21 18.06.2019
6142 Clear 27 1012 35 10000 1.5 160 18:51 18.06.2019
6143 Clear 28 1012 33 10000 2.6 210 18:25 18.06.2019
6144 Clear 28 1012 35 10000 2.1 0 17:48 18.06.2019
6145 Clear 29 1012 35 10000 1.5 200 17:23 18.06.2019
6146 Clear 29 1013 37 10000 2.6 210 16:58 18.06.2019
6147 Clear 29 1013 42 10000 2.6 0 16:40 18.06.2019
6148 Clear 29 1013 42 10000 2.6 0 16:21 18.06.2019
6149 Clear 28 1013 37 10000 2.1 0 15:41 18.06.2019
6150 Clear 28 1013 39 10000 4.1 110 15:23 18.06.2019
6151 Clear 28 1013 39 10000 3.1 100 14:56 18.06.2019
6152 Clear 28 1014 39 10000 4.6 130 14:38 18.06.2019
6153 Clear 28 1014 39 10000 4.6 130 14:19 18.06.2019
6154 Clear 28 1014 39 10000 2.1 0 13:50 18.06.2019
6155 Clear 28 1014 42 10000 2.6 0 13:30 18.06.2019
6156 Clear 27 1015 42 10000 3.1 60 12:46 18.06.2019
6157 Clouds 27 1015 47 10000 2.6 60 12:28 18.06.2019
6158 Clouds 26 1015 44 10000 2.1 0 11:56 18.06.2019
6159 Clouds 26 1015 44 10000 2.1 0 11:38 18.06.2019
6160 Clouds 26 1015 50 10000 2.1 0 11:18 18.06.2019
6161 Clouds 25 1015 50 10000 2.6 70 10:43 18.06.2019
6162 Clouds 24 1016 53 10000 2.1 70 10:22 18.06.2019
6163 Clouds 24 1016 53 10000 2.1 70 10:22 18.06.2019
6164 Clear 23 1016 56 10000 2.6 90 09:52 18.06.2019
6165 Clear 22 1016 56 10000 3.1 90 09:25 18.06.2019
6166 Clear 21 1016 60 10000 4.1 60 08:58 18.06.2019
6167 Clear 20 1016 60 10000 4.1 60 08:39 18.06.2019
6168 Clear 19 1016 64 10000 4.1 60 08:20 18.06.2019
6169 Clear 18 1016 68 10000 2.6 30 07:27 18.06.2019
6170 Clear 17 1015 72 10000 2.6 30 06:57 18.06.2019
6171 Clear 15 1016 72 10000 3.1 20 05:27 18.06.2019
6172 Clear 15 1016 77 10000 3.1 50 04:22 18.06.2019
6173 Clear 16 1016 77 10000 1.5 60 02:50 18.06.2019
6174 Clear 17 1017 77 10000 2.1 360 01:29 18.06.2019
6175 Clear 17 1017 77 10000 2.1 360 00:58 18.06.2019
6176 Clear 17 1017 72 10000 2.6 10 00:40 18.06.2019
6177 Clear 18 1017 72 10000 2.6 10 00:22 18.06.2019
6178 Clear 18 1017 72 10000 1.5 350 23:38 17.06.2019
6179 Clear 18 1017 68 10000 0.5 0 23:19 17.06.2019
6180 Clear 20 1017 53 10000 1.5 140 22:41 17.06.2019
6181 Clear 20 1017 53 10000 1.5 140 22:21 17.06.2019
6182 Clear 20 1017 53 10000 1.5 140 22:21 17.06.2019
6183 Clear 21 1017 47 10000 2.1 140 21:56 17.06.2019
6184 Clear 22 1017 44 10000 2.6 140 21:38 17.06.2019
6185 Clear 23 1017 44 10000 2.6 140 21:18 17.06.2019
6186 Clear 24 1017 41 10000 3.6 140 20:36 17.06.2019
6187 Clear 25 1017 39 10000 3.6 130 20:18 17.06.2019
6188 Clear 25 1017 36 10000 4.6 70 19:41 17.06.2019
6189 Clear 26 1017 36 10000 4.6 70 19:22 17.06.2019
6190 Clear 26 1017 39 10000 3.1 130 18:57 17.06.2019
6191 Clear 26 1017 39 10000 3.1 130 18:37 17.06.2019
6192 Clear 26 1017 36 10000 5.1 150 18:18 17.06.2019
6193 Clear 26 1018 36 10000 4.6 120 17:42 17.06.2019
6194 Clear 26 1018 34 10000 5.7 110 17:24 17.06.2019
6195 Clear 26 1018 36 10000 5.1 110 16:47 17.06.2019
6196 Clear 26 1018 36 10000 5.1 110 16:29 17.06.2019
6197 Clear 26 1019 36 10000 2.6 100 15:57 17.06.2019
6198 Clear 26 1019 39 10000 4.6 110 15:38 17.06.2019
6199 Clouds 26 1019 41 10000 2.1 160 15:19 17.06.2019
6200 Clear 25 1019 39 10000 4.1 90 14:51 17.06.2019
6201 Clear 25 1019 41 10000 3.6 120 14:31 17.06.2019
6202 Clear 25 1020 41 10000 4.1 70 13:54 17.06.2019
6203 Clear 25 1020 44 10000 3.6 70 13:36 17.06.2019
6204 Clear 25 1020 50 10000 3.1 110 13:18 17.06.2019
6205 Clouds 24 1020 47 10000 4.1 70 12:32 17.06.2019
6206 Clouds 23 1021 53 10000 3.6 50 11:51 17.06.2019
6207 Clouds 23 1021 53 10000 3.6 50 11:27 17.06.2019
6208 Clouds 22 1021 60 10000 3.1 70 10:59 17.06.2019
6209 Clouds 22 1021 64 10000 2.6 80 10:41 17.06.2019
6210 Clouds 21 1021 64 10000 2.6 80 10:22 17.06.2019
6211 Clear 20 1021 72 10000 2.1 50 09:55 17.06.2019
6212 Clear 19 1021 72 10000 2.1 50 09:31 17.06.2019
6213 Clear 17 1022 82 10000 2.6 10 08:44 17.06.2019
6214 Clear 17 1022 77 10000 1.5 90 08:24 17.06.2019
6215 Clear 16 1022 82 10000 2.6 10 07:51 17.06.2019
6216 Clear 15 1022 87 10000 3.6 40 07:32 17.06.2019
6217 Clear 13 1021 87 10000 2.1 80 06:50 17.06.2019
6218 Clear 12 1021 87 10000 2.1 40 05:55 17.06.2019
6219 Clear 12 1022 87 10000 0.72 16.578 05:20 17.06.2019
6220 Clear 12 1022 87 10000 2.6 360 04:23 17.06.2019
6221 Clear 13 1022 93 10000 3.1 10 03:30 17.06.2019
6222 Clear 13 1021 93 10000 1.5 50 02:43 17.06.2019
6223 Clear 13 1021 93 10000 1.5 50 02:25 17.06.2019
6224 Clear 14 1021 87 10000 2.1 20 01:35 17.06.2019
6225 Clear 14 1021 87 10000 1 0 00:57 17.06.2019
6226 Clear 14 1021 82 10000 2.1 340 00:37 17.06.2019
6227 Clear 15 1021 82 10000 2.1 340 00:18 17.06.2019
6228 Clear 15 1021 77 10000 2.1 340 23:39 16.06.2019
6229 Clouds 16 1022 68 10000 2.6 30 23:20 16.06.2019
6230 Clear 16 1021 72 10000 1.5 360 22:45 16.06.2019
6231 Clear 17 1021 72 10000 1.5 360 22:21 16.06.2019
6232 Clear 18 1021 63 10000 2.1 330 21:58 16.06.2019
6233 Clear 19 1021 60 10000 1.5 320 21:40 16.06.2019
6234 Clear 19 1021 60 10000 1.5 320 21:21 16.06.2019
6235 Clear 20 1021 46 10000 0.5 0 20:54 16.06.2019
6236 Clear 21 1021 46 10000 2.1 310 20:36 16.06.2019
6237 Clouds 21 1021 49 10000 1.88 264.574 20:18 16.06.2019
6238 Clear 21 1021 40 10000 4.1 260 19:39 16.06.2019
6239 Clear 22 1020 43 10000 4.6 270 19:21 16.06.2019
6240 Clear 22 1020 43 10000 4.6 270 19:21 16.06.2019
6241 Clear 22 1020 43 10000 4.6 270 18:57 16.06.2019
6242 Clear 21 1020 46 10000 3.6 230 18:38 16.06.2019
6243 Clouds 22 1021 44 10000 2.1 220 18:19 16.06.2019
6244 Clear 22 1021 43 10000 5.1 220 17:42 16.06.2019
6245 Clear 22 1021 43 10000 5.1 220 17:22 16.06.2019
6246 Clear 22 1021 41 10000 4.6 250 16:56 16.06.2019
6247 Clouds 22 1021 46 10000 3.1 0 16:38 16.06.2019
6248 Clouds 22 1021 40 10000 3.6 280 16:19 16.06.2019
6249 Clouds 22 1021 53 10000 3.6 200 15:41 16.06.2019
6250 Clouds 21 1021 53 10000 3.6 200 15:23 16.06.2019
6251 Clouds 22 1021 53 10000 2.6 220 14:43 16.06.2019
6252 Clouds 21 1021 56 10000 1.88 193.778 14:23 16.06.2019
6253 Clouds 20 1021 64 10000 2.1 0 13:52 16.06.2019
6254 Clouds 20 1021 64 10000 2.1 0 13:27 16.06.2019
6255 Clouds 20 1021 72 10000 2.6 170 12:57 16.06.2019
6256 Clouds 20 1021 72 10000 2.6 170 12:57 16.06.2019
6257 Clouds 19 1021 77 10000 3.1 210 12:38 16.06.2019
6258 Clouds 19 1021 68 10000 2.6 160 12:19 16.06.2019
6259 Rain 19 1021 88 10000 2.6 0 11:45 16.06.2019
6260 Rain 18 1021 72 10000 1.5 160 11:20 16.06.2019
6261 Rain 17 1021 93 10000 2.1 190 10:45 16.06.2019
6262 Rain 17 1021 93 10000 2.1 190 10:22 16.06.2019
6263 Rain 17 1021 77 10000 0.5 137.773 09:56 16.06.2019
6264 Rain 16 1021 93 10000 2.6 180 09:36 16.06.2019
6265 Rain 16 1021 93 10000 1.5 250 09:18 16.06.2019
6266 Rain 15 1020 93 10000 2.6 190 08:40 16.06.2019
6267 Rain 15 1020 93 10000 2.6 190 08:19 16.06.2019
6268 Rain 15 1020 93 10000 3.6 210 07:44 16.06.2019
6269 Rain 15 1019 93 10000 4.6 240 06:59 16.06.2019
6270 Rain 15 1019 82 10000 6.2 240 06:39 16.06.2019
6271 Rain 15 1019 72 10000 3.1 240 05:51 16.06.2019
6272 Clouds 15 1018 82 10000 3.6 200 04:55 16.06.2019
6273 Clear 16 1018 82 10000 1.5 220 03:57 16.06.2019
6274 Rain 16 1018 87 10000 0.5 0 03:33 16.06.2019
6275 Clear 16 1017 82 10000 1.5 230 02:36 16.06.2019
6276 Clear 15 1017 82 10000 1.5 230 01:47 16.06.2019
6277 Clear 15 1017 82 10000 1.5 230 01:27 16.06.2019
6278 Clear 15 1017 82 10000 1 210 00:42 16.06.2019
6279 Clear 16 1017 82 10000 1 210 00:22 16.06.2019
6280 Clear 17 1016 77 10000 1.5 330 23:54 15.06.2019
6281 Clear 17 1016 72 10000 2.6 300 23:36 15.06.2019
6282 Clear 16 1016 72 10000 2.6 300 23:18 15.06.2019
6283 Clear 18 1015 63 10000 2.1 260 22:41 15.06.2019
6284 Clear 18 1015 63 10000 2.1 260 22:22 15.06.2019
6285 Clear 20 1015 53 10000 3.1 300 21:42 15.06.2019
6286 Clear 21 1015 52 10000 2.1 340 21:20 15.06.2019
6287 Clear 22 1015 50 10000 3.6 0 20:43 15.06.2019
6288 Clouds 22 1015 46 10000 2.1 320 20:22 15.06.2019
6289 Clear 23 1014 36 10000 5.1 250 19:46 15.06.2019
6290 Clear 23 1014 36 10000 5.1 250 19:25 15.06.2019
6291 Clear 24 1015 39 10000 4.1 240 18:42 15.06.2019
6292 Clear 24 1015 39 10000 4.1 240 18:23 15.06.2019
6293 Clear 24 1015 41 10000 5.7 250 17:44 15.06.2019
6294 Clear 24 1015 41 10000 5.7 250 17:44 15.06.2019
6295 Clear 24 1015 41 10000 5.7 250 17:26 15.06.2019
6296 Clear 24 1015 47 10000 5.7 240 16:49 15.06.2019
6297 Clear 24 1015 47 10000 5.7 240 16:49 15.06.2019
6298 Clear 24 1015 47 10000 5.7 240 16:49 15.06.2019
6299 Clouds 24 1015 44 10000 5.7 260 16:21 15.06.2019
6300 Clear 24 1015 44 10000 5.1 240 15:55 15.06.2019
6301 Clouds 24 1015 50 10000 6.2 250 15:37 15.06.2019
6302 Clear 24 1015 47 10000 6.2 270 15:18 15.06.2019
6303 Clouds 23 1015 50 10000 5.7 250 14:37 15.06.2019
6304 Clouds 23 1015 50 10000 7.2 250 14:18 15.06.2019
6305 Clouds 23 1015 50 10000 5.7 270 13:42 15.06.2019
6306 Clouds 23 1015 50 10000 5.7 270 13:20 15.06.2019
6307 Clouds 22 1014 56 10000 7.7 220 12:57 15.06.2019
6308 Clouds 22 1014 56 10000 9.3 230 12:37 15.06.2019
6309 Clouds 22 1014 60 10000 5.1 250 12:19 15.06.2019
6310 Clouds 21 1013 64 10000 7.2 230 11:41 15.06.2019
6311 Clouds 21 1013 64 10000 7.2 230 11:41 15.06.2019
6312 Clouds 21 1013 64 10000 7.2 230 11:23 15.06.2019
6313 Clouds 21 1012 64 10000 6.7 230 10:42 15.06.2019
6314 Clouds 21 1012 64 10000 6.7 230 10:24 15.06.2019
6315 Clouds 21 1011 72 10000 4.1 220 09:47 15.06.2019
6316 Clear 19 1012 72 10000 5.1 260 09:25 15.06.2019
6317 Clouds 19 1011 77 10000 3.6 200 08:54 15.06.2019
6318 Clouds 18 1011 77 10000 5.1 200 08:32 15.06.2019
6319 Clear 17 1010 87 10000 4.1 230 07:52 15.06.2019
6320 Clear 17 1010 87 10000 4.1 230 07:25 15.06.2019
6321 Clear 16 1008 100 10000 2.1 220 06:44 15.06.2019
6322 Rain 15 1009 87 10000 2.1 270 06:19 15.06.2019
6323 Clear 15 1008 93 10000 1 0 05:28 15.06.2019
6324 Clear 15 1008 93 10000 1.5 220 04:44 15.06.2019
6325 Clear 15 1009 93 10000 1.5 250 03:47 15.06.2019
6326 Clear 16 1009 87 10000 2.1 220 02:56 15.06.2019
6327 Clear 16 1009 87 10000 1 0 02:23 15.06.2019
6328 Clear 16 1011 93 10000 1 0 01:50 15.06.2019
6329 Clear 16 1012 93 10000 1.5 230 00:59 15.06.2019
6330 Clear 16 1012 93 10000 1.5 230 00:39 15.06.2019
6331 Clear 17 1012 88 10000 1 0 23:55 14.06.2019
6332 Clear 17 1012 88 10000 2.6 350 23:27 14.06.2019
6333 Clear 17 1012 93 10000 1.5 300 22:57 14.06.2019
6334 Clear 17 1012 88 10000 1 180 22:39 14.06.2019
6335 Clouds 17 1013 77 10000 1.62 28.224 22:19 14.06.2019
6336 Clear 18 1013 88 10000 1 230 21:41 14.06.2019
6337 Clear 19 1013 88 10000 1 230 21:22 14.06.2019
6338 Rain 20 1014 72 10000 2.1 140 20:43 14.06.2019
6339 Rain 20 1014 72 10000 2.1 140 20:19 14.06.2019
6340 Clouds 20 1014 77 10000 3.1 140 19:57 14.06.2019
6341 Rain 20 1013 77 10000 1 0 19:37 14.06.2019
6342 Rain 21 1014 60 10000 1.5 190 19:18 14.06.2019
6343 Clear 21 1014 56 10000 3.1 180 18:43 14.06.2019
6344 Clear 22 1014 56 10000 3.1 180 18:25 14.06.2019
6345 Clear 22 1014 56 10000 3.1 180 18:25 14.06.2019
6346 Rain 23 1014 53 10000 3.1 180 17:58 14.06.2019
6347 Rain 23 1015 56 10000 4.6 180 17:39 14.06.2019
6348 Rain 23 1015 56 10000 4.6 180 17:20 14.06.2019
6349 Rain 24 1015 60 10000 4.1 170 16:46 14.06.2019
6350 Clouds 24 1015 53 10000 2.6 210 16:22 14.06.2019
6351 Clouds 24 1015 53 10000 2.6 210 16:22 14.06.2019
6352 Clouds 25 1015 53 10000 2.6 210 15:57 14.06.2019
6353 Clear 25 1015 57 10000 3.1 200 15:38 14.06.2019
6354 Clear 25 1015 57 10000 3.1 200 15:38 14.06.2019
6355 Clear 25 1015 57 10000 3.1 200 15:19 14.06.2019
6356 Clear 25 1015 57 10000 3.1 200 15:19 14.06.2019
6357 Clear 25 1015 57 10000 2.6 160 14:43 14.06.2019
6358 Clear 25 1015 57 10000 2.6 160 14:25 14.06.2019
6359 Clouds 25 1016 53 10000 1.5 160 13:45 14.06.2019
6360 Clouds 25 1016 53 10000 1.5 160 13:26 14.06.2019
6361 Clear 25 1016 60 10000 1.5 180 12:55 14.06.2019
6362 Clear 24 1016 60 10000 1.5 180 12:36 14.06.2019
6363 Clear 24 1016 60 10000 1.5 180 12:36 14.06.2019
6364 Clear 24 1016 56 10000 1.5 0 12:18 14.06.2019
6365 Clear 23 1016 60 10000 1 0 11:42 14.06.2019
6366 Clear 22 1017 64 10000 1.5 120 11:23 14.06.2019
6367 Clear 22 1016 60 10000 2.1 100 10:47 14.06.2019
6368 Clouds 21 1016 60 10000 2.6 120 10:21 14.06.2019
6369 Clear 21 1015 64 10000 2.6 60 09:55 14.06.2019
6370 Clear 21 1015 64 10000 2.6 60 09:33 14.06.2019
6371 Haze 18 1015 63 10000 3.1 60 08:48 14.06.2019
6372 Haze 17 1015 59 10000 1.5 60 08:21 14.06.2019
6373 -273 0 0 0 0 0 07:55 14.06.2019
6374 Haze 16 1015 63 8000 2.6 80 07:23 14.06.2019
6375 Clear 14 1015 76 10000 2.1 80 06:55 14.06.2019
6376 Clear 12 1015 76 10000 2.1 80 06:19 14.06.2019
6377 Clear 12 1015 82 10000 1 0 05:42 14.06.2019
6378 Clear 12 1015 71 10000 2.6 20 04:51 14.06.2019
6379 Clear 12 1015 76 10000 1.52 100.613 04:27 14.06.2019
6380 Clear 12 1015 67 10000 3.1 10 03:39 14.06.2019
6381 Clear 12 1015 67 10000 3.1 10 03:21 14.06.2019
6382 Clear 12 1015 67 0 2.1 360 02:36 14.06.2019
6383 Clear 13 1015 72 10000 2.6 10 01:47 14.06.2019
6384 Clear 14 1015 72 10000 1.5 70 00:40 14.06.2019
6385 Clear 14 1015 72 10000 1.5 70 00:21 14.06.2019
6386 Clear 15 1015 59 10000 1.5 20 23:50 13.06.2019
6387 Clear 15 1015 59 10000 1.5 20 23:25 13.06.2019
6388 Clear 16 1015 63 10000 1 0 22:41 13.06.2019
6389 Clear 16 1015 52 10000 3.1 30 22:22 13.06.2019
6390 Clear 17 1014 55 10000 2.6 260 21:59 13.06.2019
6391 Clear 19 1014 49 10000 2.1 240 21:38 13.06.2019
6392 Clear 20 1015 42 10000 2.1 290 21:19 13.06.2019
6393 Clouds 21 1014 38 10000 3.1 240 20:45 13.06.2019
6394 Clear 22 1014 37 10000 5.1 250 20:20 13.06.2019
6395 Clear 21 1014 33 10000 4.1 230 19:55 13.06.2019
6396 Clear 22 1014 33 10000 4.1 230 19:36 13.06.2019
6397 Clear 22 1014 35 10000 3.1 260 19:18 13.06.2019
6398 Clear 23 1014 33 10000 6.2 220 18:42 13.06.2019
6399 Clear 23 1014 33 10000 6.2 220 18:23 13.06.2019
6400 Clear 24 1014 38 10000 6.2 220 17:57 13.06.2019
6401 Clear 23 1014 38 10000 4.6 230 17:38 13.06.2019
6402 Clouds 23 1014 38 10000 5.7 210 17:19 13.06.2019
6403 Clear 23 1014 40 10000 4.6 210 16:44 13.06.2019
6404 Clear 23 1014 43 10000 5.1 220 16:21 13.06.2019
6405 Clear 22 1014 49 10000 4.6 260 15:43 13.06.2019
6406 Clouds 22 1014 43 10000 4.1 210 15:25 13.06.2019
6407 Clouds 22 1014 49 10000 5.1 220 14:56 13.06.2019
6408 Clouds 22 1014 43 10000 5.1 200 14:38 13.06.2019
6409 Clouds 22 1015 49 10000 3.6 200 14:20 13.06.2019
6410 Clouds 22 1015 49 10000 4.6 200 13:40 13.06.2019
6411 Clouds 21 1015 49 10000 4.6 200 13:21 13.06.2019
6412 Clouds 21 1015 49 10000 4.6 200 13:21 13.06.2019
6413 Clouds 21 1015 52 10000 6.2 220 12:42 13.06.2019
6414 Clouds 20 1015 52 10000 3.6 190 12:22 13.06.2019
6415 Clouds 20 1015 49 10000 5.7 190 11:57 13.06.2019
6416 Clouds 20 1015 52 10000 4.6 200 11:38 13.06.2019
6417 Clear 19 1015 55 10000 3.1 220 11:19 13.06.2019
6418 Clouds 19 1015 63 10000 4.6 210 10:43 13.06.2019
6419 Clouds 18 1015 63 10000 4.6 210 10:24 13.06.2019
6420 Clouds 17 1015 63 10000 3.1 180 09:44 13.06.2019
6421 Clouds 17 1015 63 10000 3.1 180 09:24 13.06.2019
6422 Clouds 17 1015 63 10000 3.1 180 09:23 13.06.2019
6423 Clouds 16 1014 82 10000 3.1 200 08:48 13.06.2019
6424 Clouds 15 1014 82 10000 3.1 200 08:28 13.06.2019
6425 Clouds 14 1014 87 10000 1.5 0 07:56 13.06.2019
6426 -273 0 0 0 0 0 07:27 13.06.2019
6427 Clouds 13 1014 100 10000 1.5 240 06:51 13.06.2019
6428 Clouds 13 1014 93 10000 1 230 06:24 13.06.2019
6429 Clouds 13 1014 93 10000 1 230 06:24 13.06.2019
6430 Clouds 13 1014 93 10000 1.5 70 05:56 13.06.2019
6431 Clouds 13 1013 87 10000 2.1 340 05:37 13.06.2019
6432 Rain 13 1013 93 10000 2.1 50 04:59 13.06.2019
6433 Clear 12 1014 100 10000 1 30 03:28 13.06.2019
6434 Clear 13 1013 87 10000 2.1 260 01:27 13.06.2019
6435 Clear 13 1013 82 10000 3.6 160 00:29 13.06.2019
6436 Clear 14 1012 77 10000 2.6 150 23:26 12.06.2019
6437 Clear 14 1012 77 10000 2.6 170 22:47 12.06.2019
6438 Clear 15 1012 72 10000 2.1 210 22:28 12.06.2019
6439 Clouds 16 1012 72 10000 2.6 170 21:59 12.06.2019
6440 Clouds 16 1012 63 10000 2.1 160 21:40 12.06.2019
6441 Clouds 18 1011 59 10000 2.6 180 21:22 12.06.2019
6442 Clouds 18 1011 52 10000 4.6 210 20:48 12.06.2019
6443 Clouds 19 1011 52 10000 4.6 210 20:29 12.06.2019
6444 Clouds 19 1011 49 10000 4.1 210 19:57 12.06.2019
6445 Clouds 19 1011 55 10000 4.1 210 19:38 12.06.2019
6446 Clouds 19 1011 52 10000 4.1 210 19:19 12.06.2019
6447 Clouds 19 1011 52 10000 5.1 220 18:44 12.06.2019
6448 Clouds 19 1011 52 10000 5.1 220 18:24 12.06.2019
6449 Clouds 19 1011 56 10000 6.2 230 17:46 12.06.2019
6450 Clouds 19 1012 55 10000 4.1 270 17:23 12.06.2019
6451 Clouds 19 1011 59 10000 4.6 230 16:44 12.06.2019
6452 Clouds 19 1011 59 10000 4.6 230 16:25 12.06.2019
6453 Clouds 19 1011 59 10000 7.2 210 15:58 12.06.2019
6454 Clouds 18 1011 72 10000 6.2 250 15:34 12.06.2019
6455 Clouds 16 1011 72 10000 4.6 230 14:58 12.06.2019
6456 Clouds 16 1011 82 10000 7.2 230 14:34 12.06.2019
6457 Clouds 15 1012 82 10000 5.7 250 13:59 12.06.2019
6458 Rain 14 1011 93 10000 3.6 210 13:41 12.06.2019
6459 Rain 14 1011 93 10000 3.6 210 13:19 12.06.2019
6460 Rain 14 1011 93 10000 3.37 247.58 12:44 12.06.2019
6461 Rain 14 1011 93 8000 7.7 230 12:22 12.06.2019
6462 Rain 15 1011 87 9000 6.7 260 11:59 12.06.2019
6463 Rain 15 1009 93 6000 7.2 250 11:39 12.06.2019
6464 Rain 15 1009 93 6000 7.2 250 11:21 12.06.2019
6465 Rain 15 1009 87 10000 5.1 260 10:44 12.06.2019
6466 Rain 16 1007 88 10000 3.76 251.473 10:21 12.06.2019
6467 Clouds 16 1007 77 10000 2.6 20 09:43 12.06.2019
6468 Clouds 16 1007 88 10000 1.12 351.145 09:23 12.06.2019
6469 Clouds 16 1007 82 10000 1.12 351.145 08:46 12.06.2019
6470 Clouds 16 1007 82 10000 1.12 351.145 08:20 12.06.2019
6471 Clouds 16 1007 82 10000 4.1 30 07:37 12.06.2019
6472 Clouds 15 1007 87 10000 3.1 40 06:43 12.06.2019
6473 Clouds 15 1008 82 10000 2.6 10 05:27 12.06.2019
6474 Clouds 16 1009 93 10000 1 210 03:55 12.06.2019
6475 Clouds 15 1009 82 10000 1 0 01:27 12.06.2019
6476 Clouds 16 1009 87 10000 1.5 230 00:38 12.06.2019
6477 Clouds 17 1010 72 10000 2.1 270 23:47 11.06.2019
6478 Clouds 17 1010 72 10000 2.1 270 23:29 11.06.2019
6479 Clouds 18 1010 77 10000 2.6 280 22:44 11.06.2019
6480 Clouds 18 1010 72 10000 3.1 250 22:19 11.06.2019
6481 Clouds 19 1010 68 10000 2.6 260 21:57 11.06.2019
6482 Clouds 19 1010 68 10000 2.6 260 21:38 11.06.2019
6483 Clouds 19 1011 68 10000 1.5 330 21:20 11.06.2019
6484 Clouds 20 1010 56 10000 2.1 290 20:48 11.06.2019
6485 Clouds 20 1010 56 10000 2.1 290 20:26 11.06.2019
6486 Clouds 21 1010 56 10000 2.1 310 19:55 11.06.2019
6487 Clouds 21 1010 56 10000 2.1 310 19:34 11.06.2019
6488 Clouds 21 1010 56 10000 2.1 0 18:58 11.06.2019
6489 Clouds 21 1011 64 10000 2.6 310 18:23 11.06.2019
6490 -273 0 0 0 0 0 17:57 11.06.2019
6491 Clouds 21 1011 64 10000 1 0 17:39 11.06.2019
6492 -273 0 0 0 0 0 17:19 11.06.2019
6493 Clouds 21 1011 64 10000 2.1 0 16:42 11.06.2019
6494 Clouds 21 1011 60 10000 2.1 100 16:23 11.06.2019
6495 Clouds 21 1011 64 10000 2.1 330 15:43 11.06.2019
6496 Clouds 21 1011 64 10000 2.1 330 15:25 11.06.2019
6497 Clouds 21 1011 64 10000 3.6 310 14:54 11.06.2019
6498 Clouds 20 1012 68 10000 1.5 100 14:23 11.06.2019
6499 Clouds 20 1012 63 10000 2.1 120 13:58 11.06.2019
6500 Clouds 20 1011 64 10000 2.1 160 13:37 11.06.2019
6501 Clouds 20 1012 64 10000 2.1 60 13:19 11.06.2019
6502 Clouds 20 1011 68 10000 2.1 0 12:41 11.06.2019
6503 Clouds 18 1012 68 10000 2.6 50 12:21 11.06.2019
6504 Clouds 18 1011 72 10000 2.6 140 11:41 11.06.2019
6505 Clouds 17 1011 77 10000 2.6 80 11:21 11.06.2019
6506 Clouds 17 1012 77 10000 2.1 330 10:50 11.06.2019
6507 Clouds 17 1012 77 10000 2.1 330 10:27 11.06.2019
6508 Clouds 16 1011 82 10000 1.5 0 09:51 11.06.2019
6509 Clouds 15 1011 87 10000 2.6 240 09:26 11.06.2019
6510 Clouds 15 1012 93 10000 3.6 230 08:56 11.06.2019
6511 Rain 14 1012 100 10000 3.6 230 08:38 11.06.2019
6512 Rain 14 1012 100 10000 3.1 280 08:19 11.06.2019
6513 Rain 14 1012 93 10000 2.6 260 07:32 11.06.2019
6514 Rain 14 1012 93 10000 1 0 06:52 11.06.2019
6515 Rain 14 1012 93 10000 4.1 250 05:21 11.06.2019
6516 Rain 14 1011 100 9000 3.6 210 04:36 11.06.2019
6517 Rain 15 1011 87 10000 3.6 190 01:58 11.06.2019
6518 Clear 16 1010 87 10000 3.6 220 00:50 11.06.2019
6519 Rain 16 1011 82 10000 3.6 240 00:24 11.06.2019
6520 Clouds 16 1011 82 10000 2.1 250 23:44 10.06.2019
6521 Clouds 16 1011 82 10000 2.1 250 23:21 10.06.2019
6522 Rain 16 1012 82 10000 2.6 240 22:45 10.06.2019
6523 Clouds 17 1011 77 10000 2.6 160 22:26 10.06.2019
6524 Clouds 17 1011 77 10000 2.6 180 21:56 10.06.2019
6525 Clouds 18 1012 77 10000 2.6 210 21:38 10.06.2019
6526 Rain 18 1012 72 10000 4.1 170 21:19 10.06.2019
6527 Rain 18 1012 72 10000 4.1 180 20:42 10.06.2019
6528 Clouds 19 1011 77 10000 2.1 180 20:21 10.06.2019
6529 Clouds 19 1012 77 10000 4.6 190 19:44 10.06.2019
6530 Rain 19 1012 82 10000 3.6 180 19:23 10.06.2019
6531 Rain 19 1012 77 10000 3.6 170 18:58 10.06.2019
6532 Rain 19 1012 77 10000 4.6 180 18:39 10.06.2019
6533 Clouds 20 1012 77 10000 4.6 180 18:20 10.06.2019
6534 Rain 20 1011 72 10000 3.1 140 17:44 10.06.2019
6535 Rain 21 1011 72 10000 3.1 140 17:24 10.06.2019
6536 Rain 20 1012 68 10000 4.1 180 16:55 10.06.2019
6537 Rain 21 1013 64 10000 7.2 190 16:37 10.06.2019
6538 Rain 21 1013 64 10000 7.2 190 16:18 10.06.2019
6539 Clouds 22 1012 56 10000 4.6 180 15:41 10.06.2019
6540 Clouds 22 1012 60 10000 3.1 180 15:23 10.06.2019
6541 Clouds 22 1012 64 10000 3.1 170 14:46 10.06.2019
6542 Clouds 22 1012 64 10000 3.1 170 14:28 10.06.2019
6543 Clouds 23 1013 60 10000 3.1 220 13:56 10.06.2019
6544 Clouds 22 1013 60 10000 3.1 220 13:38 10.06.2019
6545 Clouds 22 1013 60 10000 3.1 220 13:19 10.06.2019
6546 Clouds 22 1014 64 10000 4.1 200 12:40 10.06.2019
6547 Clouds 21 1014 64 10000 2.6 210 12:22 10.06.2019
6548 Clouds 20 1014 68 10000 4.1 180 11:43 10.06.2019
6549 Clouds 20 1014 64 10000 4.6 210 11:19 10.06.2019
6550 Clouds 20 1014 64 10000 4.6 210 11:19 10.06.2019
6551 Clouds 20 1014 72 10000 3.6 180 10:42 10.06.2019
6552 Clouds 20 1015 68 10000 3.6 240 10:20 10.06.2019
6553 Clouds 19 1015 82 10000 2.6 180 09:55 10.06.2019
6554 Clouds 19 1015 82 10000 2.6 180 09:32 10.06.2019
6555 Clouds 18 1015 77 10000 4.6 190 08:50 10.06.2019
6556 Clouds 18 1015 77 10000 4.6 190 08:27 10.06.2019
6557 Clouds 17 1015 82 10000 4.1 210 07:59 10.06.2019
6558 Clouds 15 1014 87 10000 4.1 200 06:33 10.06.2019
6559 Clear 16 1015 77 10000 4.1 180 03:59 10.06.2019
6560 Clear 16 1016 72 10000 2.1 190 01:57 10.06.2019
6561 Clear 17 1016 72 10000 2.1 170 01:23 10.06.2019
6562 Clear 18 1016 68 10000 2.6 180 00:54 10.06.2019
6563 Clear 18 1016 59 10000 2.6 190 23:59 09.06.2019
6564 Clouds 18 1017 55 10000 2.6 100 23:40 09.06.2019
6565 Clouds 18 1017 55 10000 2.6 100 23:18 09.06.2019
6566 Clear 20 1016 43 10000 3.1 80 22:42 09.06.2019
6567 Clear 19 1016 43 10000 3.1 80 22:24 09.06.2019
6568 Clear 21 1016 43 10000 4.6 60 21:43 09.06.2019
6569 Clear 21 1016 43 10000 4.6 60 21:23 09.06.2019
6570 Clear 22 1017 40 10000 4.1 60 20:43 09.06.2019
6571 Clear 22 1017 38 10000 4.1 80 20:23 09.06.2019
6572 Clear 23 1017 38 10000 4.1 80 19:47 09.06.2019
6573 Clouds 23 1018 43 10000 4.1 90 19:19 09.06.2019
6574 Clear 23 1018 38 10000 3.6 90 18:59 09.06.2019
6575 Clear 23 1018 38 10000 4.1 110 18:41 09.06.2019
6576 Clear 24 1018 38 10000 2.6 100 18:23 09.06.2019
6577 Clear 23 1019 38 10000 3.6 90 17:47 09.06.2019
6578 Clear 24 1019 38 10000 3.6 90 17:27 09.06.2019
6579 Clear 24 1019 36 10000 3.6 110 16:55 09.06.2019
6580 Clear 24 1019 36 10000 5.1 70 16:36 09.06.2019
6581 Clouds 24 1020 36 10000 4.6 90 16:18 09.06.2019
6582 Clear 24 1020 36 10000 5.1 70 15:44 09.06.2019
6583 Clouds 24 1020 38 10000 3.1 30 15:26 09.06.2019
6584 Clear 23 1021 38 10000 3.6 40 14:46 09.06.2019
6585 Clouds 23 1021 38 10000 4.1 60 14:25 09.06.2019
6586 Clear 23 1022 40 10000 4.1 40 13:52 09.06.2019
6587 Clear 23 1022 40 10000 4.1 40 13:27 09.06.2019
6588 Clear 22 1023 37 10000 4.1 60 12:42 09.06.2019
6589 Clear 21 1023 37 10000 4.1 60 12:24 09.06.2019
6590 Clouds 20 1023 42 10000 3.1 60 11:46 09.06.2019
6591 Clouds 20 1023 42 10000 3.1 60 11:28 09.06.2019
6592 Clear 19 1024 55 10000 2.6 50 10:46 09.06.2019
6593 Clear 19 1024 55 10000 2.6 50 10:46 09.06.2019
6594 Clear 19 1024 45 10000 3.6 100 10:24 09.06.2019
6595 Clear 17 1024 59 10000 3.1 10 09:41 09.06.2019
6596 Clear 16 1024 59 10000 3.1 10 09:23 09.06.2019
6597 Clear 16 1024 59 10000 3.1 10 09:23 09.06.2019
6598 Clear 15 1024 62 10000 2.6 10 08:55 09.06.2019
6599 Clear 14 1025 67 10000 2.6 10 08:36 09.06.2019
6600 Clear 12 1025 81 10000 2.6 30 07:46 09.06.2019
6601 Clear 9 1025 93 10000 2.6 20 06:30 09.06.2019
6602 Clear 8 1025 100 10000 0.5 0 05:34 09.06.2019
6603 Clear 10 1025 81 10000 1 0 01:47 09.06.2019
6604 Clear 11 1025 81 10000 1 0 01:22 09.06.2019
6605 Clear 11 1024 81 10000 1 0 01:00 09.06.2019
6606 Clear 12 1025 76 10000 1.5 10 00:21 09.06.2019
6607 Clear 12 1024 71 10000 2.1 190 23:38 08.06.2019
6608 Clear 13 1024 62 10000 2.1 210 23:20 08.06.2019
6609 Clear 14 1024 58 10000 2.6 190 22:43 08.06.2019
6610 Clear 14 1024 58 10000 2.6 190 22:25 08.06.2019
6611 Clear 15 1023 48 10000 3.6 220 21:53 08.06.2019
6612 Clear 16 1023 45 10000 5.1 230 21:34 08.06.2019
6613 Clear 18 1023 42 10000 6.2 220 20:59 08.06.2019
6614 Clear 18 1023 40 10000 7.2 240 20:40 08.06.2019
6615 Clear 18 1023 40 10000 7.2 240 20:21 08.06.2019
6616 Clear 19 1023 40 10000 5.7 240 19:42 08.06.2019
6617 Clear 19 1023 40 10000 5.7 240 19:42 08.06.2019
6618 Clouds 19 1023 45 10000 6.7 240 19:22 08.06.2019
6619 Clear 19 1023 40 10000 6.7 230 18:58 08.06.2019
6620 Clear 19 1023 42 10000 6.2 210 18:39 08.06.2019
6621 Clouds 19 1023 40 10000 5.1 240 18:18 08.06.2019
6622 Clear 20 1023 42 10000 8.7 220 17:42 08.06.2019
6623 Clear 19 1023 42 10000 8.7 220 17:19 08.06.2019
6624 Clear 19 1023 42 10000 8.2 210 16:45 08.06.2019
6625 Clouds 19 1023 48 10000 5.7 240 16:24 08.06.2019
6626 Clear 19 1023 42 10000 7.7 220 15:42 08.06.2019
6627 Clear 19 1023 42 10000 7.7 220 15:22 08.06.2019
6628 Clouds 18 1023 42 10000 8.2 220 14:47 08.06.2019
6629 Clouds 18 1023 42 10000 8.2 220 14:27 08.06.2019
6630 Clouds 18 1023 51 10000 9.8 200 13:44 08.06.2019
6631 Clouds 17 1022 48 10000 10.3 220 12:52 08.06.2019
6632 Clouds 17 1022 51 10000 9.8 230 12:32 08.06.2019
6633 Clouds 16 1022 51 10000 8.7 220 11:44 08.06.2019
6634 Clouds 16 1022 51 10000 8.7 220 11:26 08.06.2019
6635 Clouds 15 1022 54 10000 9.8 220 10:47 08.06.2019
6636 Clouds 15 1022 54 10000 9.8 220 10:24 08.06.2019
6637 Clouds 15 1021 54 10000 11.3 210 09:52 08.06.2019
6638 Clouds 15 1021 54 10000 11.3 210 09:29 08.06.2019
6639 Clouds 14 1020 54 10000 8.7 220 08:40 08.06.2019
6640 Clouds 14 1020 54 10000 8.7 230 08:19 08.06.2019
6641 Clouds 13 1018 66 10000 5.7 200 06:51 08.06.2019
6642 Clouds 13 1018 66 10000 5.7 200 06:32 08.06.2019
6643 Clear 12 1016 76 10000 4.1 180 03:35 08.06.2019
6644 Clouds 13 1016 67 10000 5.1 200 02:20 08.06.2019
6645 Rain 13 1015 82 10000 2.6 200 00:30 08.06.2019
6646 Rain 13 1015 87 10000 2.1 170 23:56 07.06.2019
6647 Rain 13 1014 82 10000 2.1 150 23:21 07.06.2019
6648 Rain 12 1014 82 10000 2.1 150 22:51 07.06.2019
6649 Rain 13 1014 82 10000 4.6 230 22:32 07.06.2019
6650 Rain 13 1014 87 10000 4.6 230 21:55 07.06.2019
6651 Rain 13 1014 82 10000 6.2 240 21:36 07.06.2019
6652 Rain 14 1013 76 10000 3.1 290 21:18 07.06.2019
6653 Rain 15 1012 76 10000 5.7 290 20:42 07.06.2019
6654 Clouds 17 1012 76 10000 5.7 290 20:22 07.06.2019
6655 Rain 21 1008 54 10000 3.6 190 19:39 07.06.2019
6656 Rain 22 1008 57 10000 3.6 270 19:19 07.06.2019
6657 Rain 24 1008 57 10000 7.31 259.051 18:43 07.06.2019
6658 Rain 25 1008 57 10000 3.89 157.428 18:25 07.06.2019
6659 Clouds 26 1008 47 10000 4.1 110 17:44 07.06.2019
6660 Clouds 26 1008 50 10000 5.7 90 17:21 07.06.2019
6661 Clear 25 1008 47 10000 5.1 70 16:41 07.06.2019
6662 Clear 25 1008 47 10000 5.1 70 16:41 07.06.2019
6663 Clear 25 1008 47 10000 5.1 70 16:20 07.06.2019
6664 Clouds 25 1009 50 10000 4.1 90 15:48 07.06.2019
6665 Clear 24 1009 53 10000 4.1 110 15:20 07.06.2019
6666 Clouds 23 1010 53 10000 4.6 90 14:45 07.06.2019
6667 Clouds 23 1010 53 10000 4.6 90 14:22 07.06.2019
6668 Clouds 22 1011 60 10000 5.7 60 13:36 07.06.2019
6669 Clear 21 1011 60 10000 4.6 80 13:18 07.06.2019
6670 Clouds 21 1012 59 10000 5.1 70 12:39 07.06.2019
6671 Clouds 19 1012 67 10000 5.1 90 12:18 07.06.2019
6672 Clouds 18 1013 72 10000 4.6 60 11:40 07.06.2019
6673 Clouds 17 1013 77 10000 4.6 60 11:21 07.06.2019
6674 Clouds 17 1014 76 10000 5.7 70 10:47 07.06.2019
6675 Clouds 15 1014 76 10000 5.7 70 10:22 07.06.2019
6676 Clouds 15 1014 87 10000 4.6 70 09:50 07.06.2019
6677 Clouds 13 1014 87 10000 4.6 60 09:28 07.06.2019
6678 Mist 12 1014 87 10000 5.7 70 08:55 07.06.2019
6679 Mist 11 1014 93 10000 5.1 60 08:28 07.06.2019
6680 Mist 11 1014 93 6000 4.1 60 07:55 07.06.2019
6681 Fog 10 1014 93 6000 4.1 80 07:23 07.06.2019
6682 Fog 9 1015 100 900 3.6 60 06:49 07.06.2019
6683 Fog 9 1015 100 900 3.6 60 06:28 07.06.2019
6684 Mist 9 1015 93 9000 3.1 50 05:46 07.06.2019
6685 Clouds 9 1016 93 10000 2.6 50 03:34 07.06.2019
6686 Clouds 10 1016 100 10000 2.1 70 01:39 07.06.2019
6687 Clouds 10 1017 93 10000 1.5 120 00:49 07.06.2019
6688 Clouds 10 1017 93 10000 1.5 120 00:49 07.06.2019
6689 Clouds 10 1017 93 10000 2.1 90 00:25 07.06.2019
6690 Clear 11 1016 87 10000 1.5 150 23:43 06.06.2019
6691 Clear 11 1017 87 10000 1.5 90 23:21 06.06.2019
6692 Clear 11 1016 93 10000 2.6 150 22:39 06.06.2019
6693 Clear 12 1016 81 10000 0.86 187.546 22:21 06.06.2019
6694 Clouds 13 1016 82 10000 3.1 170 21:57 06.06.2019
6695 Clouds 13 101